<?xml version="1.0" encoding="UTF-8" standalone="no" ?>
<gpx xmlns="http://www.topografix.com/GPX/1/1" xmlns:xsi="http://www.w3.org/2001/XMLSchema-instance" xsi:schemaLocation="http://www.topografix.com/GPX/1/1 http://www.topografix.com/GPX/1/1/gpx.xsd" version="1.1" creator="VisuGPX - https://www.visugpx.com">
  <metadata>
    <name>Rallye VTT XC PO 2025 Complet Samedi</name>
  </metadata>
  <trk>
    <name><![CDATA[Rallye VTT XC PO 2025 Samedi]]></name>
    <extensions>
      <line xmlns="http://www.topografix.com/GPX/gpx_style/0/2">
        <color>0000FF</color>
        <opacity>1</opacity>
        <width>4</width>
          <extensions>
            <sens>1</sens>
          </extensions>
      </line>
    </extensions>
    <trkseg>
      <trkpt lat="44.22035" lon="4.47925">
        <ele>77.3</ele>
        <time>2024-10-17T14:45:48.149Z</time>
      </trkpt>
      <trkpt lat="44.22044" lon="4.4791">
        <ele>77.6</ele>
        <time>2024-10-17T14:45:53.986Z</time>
      </trkpt>
      <trkpt lat="44.22058" lon="4.4791">
        <ele>78</ele>
        <time>2024-10-17T14:45:59.814Z</time>
      </trkpt>
      <trkpt lat="44.22109" lon="4.47968">
        <ele>78.9</ele>
        <time>2024-10-17T14:46:27.205Z</time>
      </trkpt>
      <trkpt lat="44.22156" lon="4.48033">
        <ele>80</ele>
        <time>2024-10-17T14:46:54.755Z</time>
      </trkpt>
      <trkpt lat="44.22162" lon="4.48061">
        <ele>80.2</ele>
        <time>2024-10-17T14:47:03.474Z</time>
      </trkpt>
      <trkpt lat="44.22113" lon="4.48134">
        <ele>80</ele>
        <time>2024-10-17T14:47:33.316Z</time>
      </trkpt>
      <trkpt lat="44.22059" lon="4.48212">
        <ele>79.1</ele>
        <time>2024-10-17T14:48:05.674Z</time>
      </trkpt>
      <trkpt lat="44.2198" lon="4.4833">
        <ele>79.3</ele>
        <time>2024-10-17T14:48:53.854Z</time>
      </trkpt>
      <trkpt lat="44.2191" lon="4.48428">
        <ele>80.5</ele>
        <time>2024-10-17T14:49:35.137Z</time>
      </trkpt>
      <trkpt lat="44.21849" lon="4.48509">
        <ele>82.1</ele>
        <time>2024-10-17T14:50:10.195Z</time>
      </trkpt>
      <trkpt lat="44.21846" lon="4.48528">
        <ele>82.6</ele>
        <time>2024-10-17T14:50:16.000Z</time>
      </trkpt>
      <trkpt lat="44.21854" lon="4.48556">
        <ele>86</ele>
        <time>2024-10-17T14:50:24.994Z</time>
      </trkpt>
      <trkpt lat="44.21878" lon="4.48596">
        <ele>87</ele>
        <time>2024-10-17T14:50:40.559Z</time>
      </trkpt>
      <trkpt lat="44.21859" lon="4.48736">
        <ele>92</ele>
        <time>2024-10-17T14:51:23.074Z</time>
      </trkpt>
      <trkpt lat="44.21879" lon="4.48807">
        <ele>97</ele>
        <time>2024-10-17T14:51:45.836Z</time>
      </trkpt>
      <trkpt lat="44.21907" lon="4.48814">
        <ele>99</ele>
        <time>2024-10-17T14:51:57.678Z</time>
      </trkpt>
      <trkpt lat="44.21916" lon="4.4881">
        <ele>100</ele>
        <time>2024-10-17T14:52:01.610Z</time>
      </trkpt>
      <trkpt lat="44.21972" lon="4.48769">
        <ele>104</ele>
        <time>2024-10-17T14:52:27.939Z</time>
      </trkpt>
      <trkpt lat="44.22029" lon="4.4874">
        <ele>107</ele>
        <time>2024-10-17T14:52:53.198Z</time>
      </trkpt>
      <trkpt lat="44.22059" lon="4.4873">
        <ele>109</ele>
        <time>2024-10-17T14:53:06.039Z</time>
      </trkpt>
      <trkpt lat="44.22173" lon="4.48705">
        <ele>114</ele>
        <time>2024-10-17T14:53:54.083Z</time>
      </trkpt>
      <trkpt lat="44.22195" lon="4.48706">
        <ele>115</ele>
        <time>2024-10-17T14:54:03.247Z</time>
      </trkpt>
      <trkpt lat="44.22208" lon="4.48709">
        <ele>116</ele>
        <time>2024-10-17T14:54:08.732Z</time>
      </trkpt>
      <trkpt lat="44.22223" lon="4.48717">
        <ele>119</ele>
        <time>2024-10-17T14:54:15.417Z</time>
      </trkpt>
      <trkpt lat="44.2225" lon="4.4876">
        <ele>128</ele>
        <time>2024-10-17T14:54:32.474Z</time>
      </trkpt>
      <trkpt lat="44.22266" lon="4.48767">
        <ele>131</ele>
        <time>2024-10-17T14:54:39.454Z</time>
      </trkpt>
      <trkpt lat="44.22288" lon="4.48772">
        <ele>133</ele>
        <time>2024-10-17T14:54:48.734Z</time>
      </trkpt>
      <trkpt lat="44.22308" lon="4.48768">
        <ele>135</ele>
        <time>2024-10-17T14:54:57.145Z</time>
      </trkpt>
      <trkpt lat="44.22324" lon="4.48757">
        <ele>135</ele>
        <time>2024-10-17T14:55:04.570Z</time>
      </trkpt>
      <trkpt lat="44.22331" lon="4.48747">
        <ele>134</ele>
        <time>2024-10-17T14:55:08.740Z</time>
      </trkpt>
      <trkpt lat="44.22345" lon="4.48714">
        <ele>135</ele>
        <time>2024-10-17T14:55:20.181Z</time>
      </trkpt>
      <trkpt lat="44.22382" lon="4.48641">
        <ele>140</ele>
        <time>2024-10-17T14:55:46.857Z</time>
      </trkpt>
      <trkpt lat="44.22395" lon="4.48609">
        <ele>142</ele>
        <time>2024-10-17T14:55:57.831Z</time>
      </trkpt>
      <trkpt lat="44.22427" lon="4.48529">
        <ele>137.4</ele>
        <time>2024-10-17T14:56:25.165Z</time>
      </trkpt>
      <trkpt lat="44.22459" lon="4.48493">
        <ele>139.8</ele>
        <time>2024-10-17T14:56:42.277Z</time>
      </trkpt>
      <trkpt lat="44.22472" lon="4.48485">
        <ele>141.2</ele>
        <time>2024-10-17T14:56:48.192Z</time>
      </trkpt>
      <trkpt lat="44.22514" lon="4.48487">
        <ele>144.4</ele>
        <time>2024-10-17T14:57:05.688Z</time>
      </trkpt>
      <trkpt lat="44.2253" lon="4.485">
        <ele>145.1</ele>
        <time>2024-10-17T14:57:13.396Z</time>
      </trkpt>
      <trkpt lat="44.22548" lon="4.48557">
        <ele>150.7</ele>
        <time>2024-10-17T14:57:31.979Z</time>
      </trkpt>
      <trkpt lat="44.2256" lon="4.48608">
        <ele>149.6</ele>
        <time>2024-10-17T14:57:47.993Z</time>
      </trkpt>
      <trkpt lat="44.22559" lon="4.48682">
        <ele>154.4</ele>
        <time>2024-10-17T14:58:10.074Z</time>
      </trkpt>
      <trkpt lat="44.22544" lon="4.48742">
        <ele>159.6</ele>
        <time>2024-10-17T14:58:29.032Z</time>
      </trkpt>
      <trkpt lat="44.22534" lon="4.4877">
        <ele>159.9</ele>
        <time>2024-10-17T14:58:38.365Z</time>
      </trkpt>
      <trkpt lat="44.22505" lon="4.48792">
        <ele>162.5</ele>
        <time>2024-10-17T14:58:52.107Z</time>
      </trkpt>
      <trkpt lat="44.22468" lon="4.48799">
        <ele>165.7</ele>
        <time>2024-10-17T14:59:07.652Z</time>
      </trkpt>
      <trkpt lat="44.2246" lon="4.48802">
        <ele>165.7</ele>
        <time>2024-10-17T14:59:11.100Z</time>
      </trkpt>
      <trkpt lat="44.22457" lon="4.48867">
        <ele>162.2</ele>
        <time>2024-10-17T14:59:30.532Z</time>
      </trkpt>
      <trkpt lat="44.2246" lon="4.48885">
        <ele>161.2</ele>
        <time>2024-10-17T14:59:36.045Z</time>
      </trkpt>
      <trkpt lat="44.22475" lon="4.48966">
        <ele>159.2</ele>
        <time>2024-10-17T15:00:01.005Z</time>
      </trkpt>
      <trkpt lat="44.22465" lon="4.48988">
        <ele>159.3</ele>
        <time>2024-10-17T15:00:08.777Z</time>
      </trkpt>
      <trkpt lat="44.22461" lon="4.49019">
        <ele>162.2</ele>
        <time>2024-10-17T15:00:18.174Z</time>
      </trkpt>
      <trkpt lat="44.22467" lon="4.49038">
        <ele>163.3</ele>
        <time>2024-10-17T15:00:24.368Z</time>
      </trkpt>
      <trkpt lat="44.22461" lon="4.49051">
        <ele>165.7</ele>
        <time>2024-10-17T15:00:28.981Z</time>
      </trkpt>
      <trkpt lat="44.22448" lon="4.49058">
        <ele>167.8</ele>
        <time>2024-10-17T15:00:34.782Z</time>
      </trkpt>
      <trkpt lat="44.22442" lon="4.49066">
        <ele>169.6</ele>
        <time>2024-10-17T15:00:38.237Z</time>
      </trkpt>
      <trkpt lat="44.22447" lon="4.49097">
        <ele>172.9</ele>
        <time>2024-10-17T15:00:47.717Z</time>
      </trkpt>
      <trkpt lat="44.2245" lon="4.4912">
        <ele>174.2</ele>
        <time>2024-10-17T15:00:54.691Z</time>
      </trkpt>
      <trkpt lat="44.22447" lon="4.49126">
        <ele>174.9</ele>
        <time>2024-10-17T15:00:56.873Z</time>
      </trkpt>
      <trkpt lat="44.22446" lon="4.49129">
        <ele>175</ele>
        <time>2024-10-17T15:00:57.860Z</time>
      </trkpt>
      <trkpt lat="44.22435" lon="4.49153">
        <ele>177.2</ele>
        <time>2024-10-17T15:01:06.359Z</time>
      </trkpt>
      <trkpt lat="44.2241" lon="4.49206">
        <ele>178.7</ele>
        <time>2024-10-17T15:01:25.289Z</time>
      </trkpt>
      <trkpt lat="44.22401" lon="4.49228">
        <ele>179.3</ele>
        <time>2024-10-17T15:01:32.847Z</time>
      </trkpt>
      <trkpt lat="44.224" lon="4.49242">
        <ele>179.3</ele>
        <time>2024-10-17T15:01:37.044Z</time>
      </trkpt>
      <trkpt lat="44.22412" lon="4.49312">
        <ele>180.5</ele>
        <time>2024-10-17T15:01:58.517Z</time>
      </trkpt>
      <trkpt lat="44.2242" lon="4.49342">
        <ele>183</ele>
        <time>2024-10-17T15:02:08.067Z</time>
      </trkpt>
      <trkpt lat="44.22433" lon="4.49377">
        <ele>187.5</ele>
        <time>2024-10-17T15:02:19.828Z</time>
      </trkpt>
      <trkpt lat="44.22436" lon="4.49381">
        <ele>188.4</ele>
        <time>2024-10-17T15:02:21.555Z</time>
      </trkpt>
      <trkpt lat="44.22484" lon="4.49406">
        <ele>195.4</ele>
        <time>2024-10-17T15:02:42.885Z</time>
      </trkpt>
      <trkpt lat="44.22493" lon="4.49429">
        <ele>199</ele>
        <time>2024-10-17T15:02:50.703Z</time>
      </trkpt>
      <trkpt lat="44.22494" lon="4.49465">
        <ele>201</ele>
        <time>2024-10-17T15:03:01.451Z</time>
      </trkpt>
      <trkpt lat="44.22498" lon="4.49478">
        <ele>203</ele>
        <time>2024-10-17T15:03:05.671Z</time>
      </trkpt>
      <trkpt lat="44.22503" lon="4.49482">
        <ele>204</ele>
        <time>2024-10-17T15:03:08.070Z</time>
      </trkpt>
      <trkpt lat="44.22521" lon="4.49463">
        <ele>205</ele>
        <time>2024-10-17T15:03:17.466Z</time>
      </trkpt>
      <trkpt lat="44.22566" lon="4.49452">
        <ele>209</ele>
        <time>2024-10-17T15:03:36.486Z</time>
      </trkpt>
      <trkpt lat="44.2261" lon="4.49432">
        <ele>210</ele>
        <time>2024-10-17T15:03:55.751Z</time>
      </trkpt>
      <trkpt lat="44.22635" lon="4.4943">
        <ele>212</ele>
        <time>2024-10-17T15:04:06.176Z</time>
      </trkpt>
      <trkpt lat="44.22645" lon="4.49435">
        <ele>214</ele>
        <time>2024-10-17T15:04:10.598Z</time>
      </trkpt>
      <trkpt lat="44.22645" lon="4.49439">
        <ele>214</ele>
        <time>2024-10-17T15:04:11.791Z</time>
      </trkpt>
      <trkpt lat="44.22668" lon="4.49433">
        <ele>215.7</ele>
        <time>2024-10-17T15:04:21.532Z</time>
      </trkpt>
      <trkpt lat="44.2271" lon="4.49422">
        <ele>218.9</ele>
        <time>2024-10-17T15:04:39.323Z</time>
      </trkpt>
      <trkpt lat="44.22736" lon="4.49421">
        <ele>221.8</ele>
        <time>2024-10-17T15:04:50.151Z</time>
      </trkpt>
      <trkpt lat="44.22761" lon="4.49427">
        <ele>223.9</ele>
        <time>2024-10-17T15:05:00.712Z</time>
      </trkpt>
      <trkpt lat="44.22806" lon="4.49437">
        <ele>226.6</ele>
        <time>2024-10-17T15:05:19.683Z</time>
      </trkpt>
      <trkpt lat="44.22824" lon="4.49446">
        <ele>227.6</ele>
        <time>2024-10-17T15:05:27.643Z</time>
      </trkpt>
      <trkpt lat="44.22863" lon="4.49477">
        <ele>229.6</ele>
        <time>2024-10-17T15:05:46.329Z</time>
      </trkpt>
      <trkpt lat="44.22879" lon="4.49494">
        <ele>231</ele>
        <time>2024-10-17T15:05:54.701Z</time>
      </trkpt>
      <trkpt lat="44.22886" lon="4.49531">
        <ele>233.8</ele>
        <time>2024-10-17T15:06:06.117Z</time>
      </trkpt>
      <trkpt lat="44.22899" lon="4.49575">
        <ele>234.9</ele>
        <time>2024-10-17T15:06:20.315Z</time>
      </trkpt>
      <trkpt lat="44.22921" lon="4.49613">
        <ele>236</ele>
        <time>2024-10-17T15:06:34.889Z</time>
      </trkpt>
      <trkpt lat="44.2293" lon="4.4965">
        <ele>238</ele>
        <time>2024-10-17T15:06:46.545Z</time>
      </trkpt>
      <trkpt lat="44.22928" lon="4.49666">
        <ele>240.3</ele>
        <time>2024-10-17T15:06:51.390Z</time>
      </trkpt>
      <trkpt lat="44.22936" lon="4.497">
        <ele>242.8</ele>
        <time>2024-10-17T15:07:02.065Z</time>
      </trkpt>
      <trkpt lat="44.22947" lon="4.49715">
        <ele>244.6</ele>
        <time>2024-10-17T15:07:08.468Z</time>
      </trkpt>
      <trkpt lat="44.22983" lon="4.49738">
        <ele>247.5</ele>
        <time>2024-10-17T15:07:24.951Z</time>
      </trkpt>
      <trkpt lat="44.22996" lon="4.49756">
        <ele>251.6</ele>
        <time>2024-10-17T15:07:32.575Z</time>
      </trkpt>
      <trkpt lat="44.23021" lon="4.49787">
        <ele>255.8</ele>
        <time>2024-10-17T15:07:46.498Z</time>
      </trkpt>
      <trkpt lat="44.23032" lon="4.49809">
        <ele>259.2</ele>
        <time>2024-10-17T15:07:54.500Z</time>
      </trkpt>
      <trkpt lat="44.2311" lon="4.49865">
        <ele>266.4</ele>
        <time>2024-10-17T15:08:31.019Z</time>
      </trkpt>
      <trkpt lat="44.23173" lon="4.49911">
        <ele>277.1</ele>
        <time>2024-10-17T15:09:00.620Z</time>
      </trkpt>
      <trkpt lat="44.23193" lon="4.49925">
        <ele>279.3</ele>
        <time>2024-10-17T15:09:09.935Z</time>
      </trkpt>
      <trkpt lat="44.23241" lon="4.49931">
        <ele>284.3</ele>
        <time>2024-10-17T15:09:29.999Z</time>
      </trkpt>
      <trkpt lat="44.23308" lon="4.4994">
        <ele>293.1</ele>
        <time>2024-10-17T15:09:58.022Z</time>
      </trkpt>
      <trkpt lat="44.23328" lon="4.49949">
        <ele>296</ele>
        <time>2024-10-17T15:10:06.770Z</time>
      </trkpt>
      <trkpt lat="44.23353" lon="4.4997">
        <ele>298</ele>
        <time>2024-10-17T15:10:18.918Z</time>
      </trkpt>
      <trkpt lat="44.23357" lon="4.49975">
        <ele>299</ele>
        <time>2024-10-17T15:10:21.153Z</time>
      </trkpt>
      <trkpt lat="44.23399" lon="4.50012">
        <ele>298</ele>
        <time>2024-10-17T15:10:41.830Z</time>
      </trkpt>
      <trkpt lat="44.23401" lon="4.5001">
        <ele>298</ele>
        <time>2024-10-17T15:10:42.854Z</time>
      </trkpt>
      <trkpt lat="44.23404" lon="4.50015">
        <ele>297</ele>
        <time>2024-10-17T15:10:44.799Z</time>
      </trkpt>
      <trkpt lat="44.23419" lon="4.50017">
        <ele>296</ele>
        <time>2024-10-17T15:10:51.072Z</time>
      </trkpt>
      <trkpt lat="44.23506" lon="4.49971">
        <ele>300</ele>
        <time>2024-10-17T15:11:29.805Z</time>
      </trkpt>
      <trkpt lat="44.2351" lon="4.49971">
        <ele>293.6</ele>
        <time>2024-10-17T15:11:31.470Z</time>
      </trkpt>
      <trkpt lat="44.23538" lon="4.49984">
        <ele>295.7</ele>
        <time>2024-10-17T15:11:43.755Z</time>
      </trkpt>
      <trkpt lat="44.23555" lon="4.50012">
        <ele>296.5</ele>
        <time>2024-10-17T15:11:54.702Z</time>
      </trkpt>
      <trkpt lat="44.23576" lon="4.50036">
        <ele>301.4</ele>
        <time>2024-10-17T15:12:06.002Z</time>
      </trkpt>
      <trkpt lat="44.23595" lon="4.50075">
        <ele>305.4</ele>
        <time>2024-10-17T15:12:20.070Z</time>
      </trkpt>
      <trkpt lat="44.23642" lon="4.50106">
        <ele>310.1</ele>
        <time>2024-10-17T15:12:41.712Z</time>
      </trkpt>
      <trkpt lat="44.23694" lon="4.50179">
        <ele>317.1</ele>
        <time>2024-10-17T15:13:12.417Z</time>
      </trkpt>
      <trkpt lat="44.23727" lon="4.50226">
        <ele>322</ele>
        <time>2024-10-17T15:13:32.046Z</time>
      </trkpt>
      <trkpt lat="44.2376" lon="4.50268">
        <ele>327.8</ele>
        <time>2024-10-17T15:13:50.639Z</time>
      </trkpt>
      <trkpt lat="44.23805" lon="4.50321">
        <ele>331</ele>
        <time>2024-10-17T15:14:15.152Z</time>
      </trkpt>
      <trkpt lat="44.23832" lon="4.50344">
        <ele>331</ele>
        <time>2024-10-17T15:14:28.321Z</time>
      </trkpt>
      <trkpt lat="44.23886" lon="4.50346">
        <ele>331.9</ele>
        <time>2024-10-17T15:14:50.810Z</time>
      </trkpt>
      <trkpt lat="44.23945" lon="4.50368">
        <ele>331.8</ele>
        <time>2024-10-17T15:15:16.235Z</time>
      </trkpt>
      <trkpt lat="44.24014" lon="4.50371">
        <ele>329.5</ele>
        <time>2024-10-17T15:15:44.975Z</time>
      </trkpt>
      <trkpt lat="44.24038" lon="4.5037">
        <ele>328.9</ele>
        <time>2024-10-17T15:15:54.971Z</time>
      </trkpt>
      <trkpt lat="44.24101" lon="4.50402">
        <ele>326.7</ele>
        <time>2024-10-17T15:16:22.882Z</time>
      </trkpt>
      <trkpt lat="44.24206" lon="4.5044">
        <ele>325</ele>
        <time>2024-10-17T15:17:08.042Z</time>
      </trkpt>
      <trkpt lat="44.24321" lon="4.50441">
        <ele>322.3</ele>
        <time>2024-10-17T15:17:55.921Z</time>
      </trkpt>
      <trkpt lat="44.24408" lon="4.50461">
        <ele>324.1</ele>
        <time>2024-10-17T15:18:32.629Z</time>
      </trkpt>
      <trkpt lat="44.24507" lon="4.50488">
        <ele>328.9</ele>
        <time>2024-10-17T15:19:14.625Z</time>
      </trkpt>
      <trkpt lat="44.2454" lon="4.50508">
        <ele>330.5</ele>
        <time>2024-10-17T15:19:29.602Z</time>
      </trkpt>
      <trkpt lat="44.24553" lon="4.50515">
        <ele>331.2</ele>
        <time>2024-10-17T15:19:35.402Z</time>
      </trkpt>
      <trkpt lat="44.24558" lon="4.50517">
        <ele>331.6</ele>
        <time>2024-10-17T15:19:37.567Z</time>
      </trkpt>
      <trkpt lat="44.24623" lon="4.50512">
        <ele>338.4</ele>
        <time>2024-10-17T15:20:04.669Z</time>
      </trkpt>
      <trkpt lat="44.24692" lon="4.50503">
        <ele>339.2</ele>
        <time>2024-10-17T15:20:33.521Z</time>
      </trkpt>
      <trkpt lat="44.24729" lon="4.50496">
        <ele>341</ele>
        <time>2024-10-17T15:20:49.066Z</time>
      </trkpt>
      <trkpt lat="44.24747" lon="4.50489">
        <ele>344.8</ele>
        <time>2024-10-17T15:20:56.845Z</time>
      </trkpt>
      <trkpt lat="44.24743" lon="4.5047">
        <ele>346.9</ele>
        <time>2024-10-17T15:21:02.751Z</time>
      </trkpt>
      <trkpt lat="44.24747" lon="4.50465">
        <ele>348.5</ele>
        <time>2024-10-17T15:21:04.986Z</time>
      </trkpt>
      <trkpt lat="44.24754" lon="4.50471">
        <ele>349.7</ele>
        <time>2024-10-17T15:21:08.405Z</time>
      </trkpt>
      <trkpt lat="44.24762" lon="4.50474">
        <ele>350.8</ele>
        <time>2024-10-17T15:21:11.854Z</time>
      </trkpt>
      <trkpt lat="44.24764" lon="4.50463">
        <ele>352.6</ele>
        <time>2024-10-17T15:21:15.238Z</time>
      </trkpt>
      <trkpt lat="44.24765" lon="4.50446">
        <ele>354.5</ele>
        <time>2024-10-17T15:21:20.325Z</time>
      </trkpt>
      <trkpt lat="44.24776" lon="4.50421">
        <ele>359.2</ele>
        <time>2024-10-17T15:21:29.075Z</time>
      </trkpt>
      <trkpt lat="44.24779" lon="4.50398">
        <ele>361.4</ele>
        <time>2024-10-17T15:21:36.047Z</time>
      </trkpt>
      <trkpt lat="44.24779" lon="4.5035">
        <ele>364.9</ele>
        <time>2024-10-17T15:21:50.362Z</time>
      </trkpt>
      <trkpt lat="44.24773" lon="4.50323">
        <ele>365.2</ele>
        <time>2024-10-17T15:21:58.792Z</time>
      </trkpt>
      <trkpt lat="44.24772" lon="4.50312">
        <ele>365.4</ele>
        <time>2024-10-17T15:22:02.099Z</time>
      </trkpt>
      <trkpt lat="44.24779" lon="4.5027">
        <ele>368.1</ele>
        <time>2024-10-17T15:22:14.959Z</time>
      </trkpt>
      <trkpt lat="44.24777" lon="4.50235">
        <ele>367</ele>
        <time>2024-10-17T15:22:25.430Z</time>
      </trkpt>
      <trkpt lat="44.24783" lon="4.50223">
        <ele>367.4</ele>
        <time>2024-10-17T15:22:29.794Z</time>
      </trkpt>
      <trkpt lat="44.24807" lon="4.50163">
        <ele>365.5</ele>
        <time>2024-10-17T15:22:50.288Z</time>
      </trkpt>
      <trkpt lat="44.2487" lon="4.50116">
        <ele>360</ele>
        <time>2024-10-17T15:23:20.027Z</time>
      </trkpt>
      <trkpt lat="44.24919" lon="4.50109">
        <ele>358</ele>
        <time>2024-10-17T15:23:40.533Z</time>
      </trkpt>
      <trkpt lat="44.24944" lon="4.50118">
        <ele>358</ele>
        <time>2024-10-17T15:23:51.281Z</time>
      </trkpt>
      <trkpt lat="44.24938" lon="4.50051">
        <ele>358.5</ele>
        <time>2024-10-17T15:24:11.417Z</time>
      </trkpt>
      <trkpt lat="44.24962" lon="4.49933">
        <ele>358.4</ele>
        <time>2024-10-17T15:24:47.998Z</time>
      </trkpt>
      <trkpt lat="44.24975" lon="4.49875">
        <ele>360.4</ele>
        <time>2024-10-17T15:25:06.121Z</time>
      </trkpt>
      <trkpt lat="44.25007" lon="4.49815">
        <ele>361.3</ele>
        <time>2024-10-17T15:25:28.429Z</time>
      </trkpt>
      <trkpt lat="44.25036" lon="4.49771">
        <ele>361.1</ele>
        <time>2024-10-17T15:25:46.260Z</time>
      </trkpt>
      <trkpt lat="44.25059" lon="4.49757">
        <ele>362.4</ele>
        <time>2024-10-17T15:25:56.706Z</time>
      </trkpt>
      <trkpt lat="44.25087" lon="4.49689">
        <ele>358.8</ele>
        <time>2024-10-17T15:26:20.096Z</time>
      </trkpt>
      <trkpt lat="44.25105" lon="4.49655">
        <ele>356.6</ele>
        <time>2024-10-17T15:26:32.704Z</time>
      </trkpt>
      <trkpt lat="44.2515" lon="4.49605">
        <ele>354.1</ele>
        <time>2024-10-17T15:26:56.648Z</time>
      </trkpt>
      <trkpt lat="44.2517" lon="4.49579">
        <ele>353</ele>
        <time>2024-10-17T15:27:08.025Z</time>
      </trkpt>
      <trkpt lat="44.25178" lon="4.49547">
        <ele>352.6</ele>
        <time>2024-10-17T15:27:18.132Z</time>
      </trkpt>
      <trkpt lat="44.25159" lon="4.495">
        <ele>350.2</ele>
        <time>2024-10-17T15:27:34.226Z</time>
      </trkpt>
      <trkpt lat="44.25088" lon="4.49422">
        <ele>352.5</ele>
        <time>2024-10-17T15:28:11.840Z</time>
      </trkpt>
      <trkpt lat="44.25049" lon="4.49376">
        <ele>353.8</ele>
        <time>2024-10-17T15:28:33.096Z</time>
      </trkpt>
      <trkpt lat="44.25028" lon="4.49353">
        <ele>353.6</ele>
        <time>2024-10-17T15:28:44.208Z</time>
      </trkpt>
      <trkpt lat="44.25002" lon="4.49341">
        <ele>351.9</ele>
        <time>2024-10-17T15:28:55.608Z</time>
      </trkpt>
      <trkpt lat="44.2499" lon="4.49312">
        <ele>351.8</ele>
        <time>2024-10-17T15:29:05.595Z</time>
      </trkpt>
      <trkpt lat="44.2499" lon="4.49276">
        <ele>351.2</ele>
        <time>2024-10-17T15:29:16.330Z</time>
      </trkpt>
      <trkpt lat="44.24961" lon="4.49219">
        <ele>345.6</ele>
        <time>2024-10-17T15:29:37.180Z</time>
      </trkpt>
      <trkpt lat="44.24952" lon="4.49165">
        <ele>342.7</ele>
        <time>2024-10-17T15:29:53.714Z</time>
      </trkpt>
      <trkpt lat="44.2496" lon="4.49126">
        <ele>340.5</ele>
        <time>2024-10-17T15:30:05.812Z</time>
      </trkpt>
      <trkpt lat="44.2498" lon="4.49079">
        <ele>337</ele>
        <time>2024-10-17T15:30:22.115Z</time>
      </trkpt>
      <trkpt lat="44.25007" lon="4.49032">
        <ele>332.1</ele>
        <time>2024-10-17T15:30:40.082Z</time>
      </trkpt>
      <trkpt lat="44.25037" lon="4.48981">
        <ele>325.9</ele>
        <time>2024-10-17T15:30:59.762Z</time>
      </trkpt>
      <trkpt lat="44.25038" lon="4.48974">
        <ele>325.3</ele>
        <time>2024-10-17T15:31:01.890Z</time>
      </trkpt>
      <trkpt lat="44.25019" lon="4.48971">
        <ele>321.4</ele>
        <time>2024-10-17T15:31:09.850Z</time>
      </trkpt>
      <trkpt lat="44.24955" lon="4.48965">
        <ele>311.3</ele>
        <time>2024-10-17T15:31:36.555Z</time>
      </trkpt>
      <trkpt lat="44.24915" lon="4.4898">
        <ele>306.7</ele>
        <time>2024-10-17T15:31:53.798Z</time>
      </trkpt>
      <trkpt lat="44.2489" lon="4.48992">
        <ele>305.6</ele>
        <time>2024-10-17T15:32:04.804Z</time>
      </trkpt>
      <trkpt lat="44.24846" lon="4.49004">
        <ele>299.1</ele>
        <time>2024-10-17T15:32:23.468Z</time>
      </trkpt>
      <trkpt lat="44.24802" lon="4.49026">
        <ele>292.2</ele>
        <time>2024-10-17T15:32:42.926Z</time>
      </trkpt>
      <trkpt lat="44.24743" lon="4.48982">
        <ele>283.9</ele>
        <time>2024-10-17T15:33:10.774Z</time>
      </trkpt>
      <trkpt lat="44.24725" lon="4.48966">
        <ele>280.5</ele>
        <time>2024-10-17T15:33:19.658Z</time>
      </trkpt>
      <trkpt lat="44.24692" lon="4.48966">
        <ele>277</ele>
        <time>2024-10-17T15:33:33.396Z</time>
      </trkpt>
      <trkpt lat="44.24662" lon="4.4906">
        <ele>270.6</ele>
        <time>2024-10-17T15:34:04.086Z</time>
      </trkpt>
      <trkpt lat="44.2465" lon="4.49104">
        <ele>267.2</ele>
        <time>2024-10-17T15:34:18.127Z</time>
      </trkpt>
      <trkpt lat="44.2465" lon="4.49149">
        <ele>266.9</ele>
        <time>2024-10-17T15:34:31.547Z</time>
      </trkpt>
      <trkpt lat="44.24632" lon="4.49177">
        <ele>266.4</ele>
        <time>2024-10-17T15:34:42.767Z</time>
      </trkpt>
      <trkpt lat="44.24608" lon="4.49199">
        <ele>264.2</ele>
        <time>2024-10-17T15:34:54.720Z</time>
      </trkpt>
      <trkpt lat="44.24593" lon="4.49241">
        <ele>258.1</ele>
        <time>2024-10-17T15:35:08.716Z</time>
      </trkpt>
      <trkpt lat="44.24592" lon="4.49271">
        <ele>255.1</ele>
        <time>2024-10-17T15:35:17.672Z</time>
      </trkpt>
      <trkpt lat="44.24582" lon="4.49293">
        <ele>252.5</ele>
        <time>2024-10-17T15:35:25.442Z</time>
      </trkpt>
      <trkpt lat="44.24566" lon="4.49309">
        <ele>248.4</ele>
        <time>2024-10-17T15:35:33.636Z</time>
      </trkpt>
      <trkpt lat="44.24564" lon="4.49325">
        <ele>246.7</ele>
        <time>2024-10-17T15:35:38.480Z</time>
      </trkpt>
      <trkpt lat="44.24565" lon="4.49369">
        <ele>246.7</ele>
        <time>2024-10-17T15:35:51.609Z</time>
      </trkpt>
      <trkpt lat="44.24562" lon="4.49387">
        <ele>246.1</ele>
        <time>2024-10-17T15:35:57.120Z</time>
      </trkpt>
      <trkpt lat="44.24561" lon="4.49475">
        <ele>244</ele>
        <time>2024-10-17T15:36:23.368Z</time>
      </trkpt>
      <trkpt lat="44.24557" lon="4.49481">
        <ele>243.8</ele>
        <time>2024-10-17T15:36:25.812Z</time>
      </trkpt>
      <trkpt lat="44.24549" lon="4.4948">
        <ele>244.9</ele>
        <time>2024-10-17T15:36:29.156Z</time>
      </trkpt>
      <trkpt lat="44.24537" lon="4.49462">
        <ele>246.7</ele>
        <time>2024-10-17T15:36:36.489Z</time>
      </trkpt>
      <trkpt lat="44.24499" lon="4.49407">
        <ele>253.2</ele>
        <time>2024-10-17T15:36:59.278Z</time>
      </trkpt>
      <trkpt lat="44.24482" lon="4.49378">
        <ele>255.3</ele>
        <time>2024-10-17T15:37:10.453Z</time>
      </trkpt>
      <trkpt lat="44.24449" lon="4.49364">
        <ele>258.6</ele>
        <time>2024-10-17T15:37:24.812Z</time>
      </trkpt>
      <trkpt lat="44.24399" lon="4.49372">
        <ele>261</ele>
        <time>2024-10-17T15:37:45.765Z</time>
      </trkpt>
      <trkpt lat="44.2438" lon="4.49393">
        <ele>260.4</ele>
        <time>2024-10-17T15:37:55.854Z</time>
      </trkpt>
      <trkpt lat="44.24375" lon="4.49406">
        <ele>262.6</ele>
        <time>2024-10-17T15:38:00.254Z</time>
      </trkpt>
      <trkpt lat="44.24394" lon="4.49415">
        <ele>265.8</ele>
        <time>2024-10-17T15:38:08.607Z</time>
      </trkpt>
      <trkpt lat="44.24411" lon="4.49418">
        <ele>266.4</ele>
        <time>2024-10-17T15:38:15.740Z</time>
      </trkpt>
      <trkpt lat="44.24425" lon="4.49437">
        <ele>269.1</ele>
        <time>2024-10-17T15:38:23.869Z</time>
      </trkpt>
      <trkpt lat="44.24433" lon="4.4945">
        <ele>269.6</ele>
        <time>2024-10-17T15:38:28.980Z</time>
      </trkpt>
      <trkpt lat="44.2443" lon="4.49466">
        <ele>271.9</ele>
        <time>2024-10-17T15:38:33.912Z</time>
      </trkpt>
      <trkpt lat="44.24415" lon="4.49467">
        <ele>274.7</ele>
        <time>2024-10-17T15:38:40.164Z</time>
      </trkpt>
      <trkpt lat="44.24406" lon="4.49467">
        <ele>275.9</ele>
        <time>2024-10-17T15:38:43.910Z</time>
      </trkpt>
      <trkpt lat="44.24382" lon="4.49478">
        <ele>280.4</ele>
        <time>2024-10-17T15:38:54.426Z</time>
      </trkpt>
      <trkpt lat="44.24367" lon="4.49477">
        <ele>282.5</ele>
        <time>2024-10-17T15:39:00.678Z</time>
      </trkpt>
      <trkpt lat="44.24361" lon="4.49488">
        <ele>284.1</ele>
        <time>2024-10-17T15:39:04.801Z</time>
      </trkpt>
      <trkpt lat="44.24363" lon="4.49519">
        <ele>286</ele>
        <time>2024-10-17T15:39:14.084Z</time>
      </trkpt>
      <trkpt lat="44.24362" lon="4.49549">
        <ele>286.9</ele>
        <time>2024-10-17T15:39:23.041Z</time>
      </trkpt>
      <trkpt lat="44.2436" lon="4.49569">
        <ele>286.7</ele>
        <time>2024-10-17T15:39:29.063Z</time>
      </trkpt>
      <trkpt lat="44.24364" lon="4.49605">
        <ele>286.6</ele>
        <time>2024-10-17T15:39:39.928Z</time>
      </trkpt>
      <trkpt lat="44.24373" lon="4.49648">
        <ele>284.7</ele>
        <time>2024-10-17T15:39:53.289Z</time>
      </trkpt>
      <trkpt lat="44.2437" lon="4.4972">
        <ele>286.6</ele>
        <time>2024-10-17T15:40:14.799Z</time>
      </trkpt>
      <trkpt lat="44.2437" lon="4.49739">
        <ele>286.9</ele>
        <time>2024-10-17T15:40:20.465Z</time>
      </trkpt>
      <trkpt lat="44.24376" lon="4.49775">
        <ele>288.3</ele>
        <time>2024-10-17T15:40:31.488Z</time>
      </trkpt>
      <trkpt lat="44.24376" lon="4.49815">
        <ele>290.3</ele>
        <time>2024-10-17T15:40:43.418Z</time>
      </trkpt>
      <trkpt lat="44.24358" lon="4.49828">
        <ele>291.6</ele>
        <time>2024-10-17T15:40:51.855Z</time>
      </trkpt>
      <trkpt lat="44.24345" lon="4.4984">
        <ele>292.8</ele>
        <time>2024-10-17T15:40:58.343Z</time>
      </trkpt>
      <trkpt lat="44.24322" lon="4.49845">
        <ele>293.9</ele>
        <time>2024-10-17T15:41:08.034Z</time>
      </trkpt>
      <trkpt lat="44.24287" lon="4.49862">
        <ele>292.8</ele>
        <time>2024-10-17T15:41:23.462Z</time>
      </trkpt>
      <trkpt lat="44.24278" lon="4.49874">
        <ele>292.4</ele>
        <time>2024-10-17T15:41:28.643Z</time>
      </trkpt>
      <trkpt lat="44.24277" lon="4.49886">
        <ele>293.5</ele>
        <time>2024-10-17T15:41:32.246Z</time>
      </trkpt>
      <trkpt lat="44.2426" lon="4.49924">
        <ele>290.5</ele>
        <time>2024-10-17T15:41:45.608Z</time>
      </trkpt>
      <trkpt lat="44.24241" lon="4.49971">
        <ele>287.3</ele>
        <time>2024-10-17T15:42:01.704Z</time>
      </trkpt>
      <trkpt lat="44.2423" lon="4.50012">
        <ele>286.3</ele>
        <time>2024-10-17T15:42:14.762Z</time>
      </trkpt>
      <trkpt lat="44.24223" lon="4.50039">
        <ele>284.6</ele>
        <time>2024-10-17T15:42:23.326Z</time>
      </trkpt>
      <trkpt lat="44.24222" lon="4.50064">
        <ele>285.4</ele>
        <time>2024-10-17T15:42:30.794Z</time>
      </trkpt>
      <trkpt lat="44.24214" lon="4.50074">
        <ele>286.8</ele>
        <time>2024-10-17T15:42:35.264Z</time>
      </trkpt>
      <trkpt lat="44.24207" lon="4.5007">
        <ele>287.2</ele>
        <time>2024-10-17T15:42:38.413Z</time>
      </trkpt>
      <trkpt lat="44.24183" lon="4.50019">
        <ele>278</ele>
        <time>2024-10-17T15:42:56.612Z</time>
      </trkpt>
      <trkpt lat="44.24163" lon="4.50003">
        <ele>280.5</ele>
        <time>2024-10-17T15:43:06.209Z</time>
      </trkpt>
      <trkpt lat="44.24151" lon="4.5">
        <ele>281.4</ele>
        <time>2024-10-17T15:43:11.284Z</time>
      </trkpt>
      <trkpt lat="44.24105" lon="4.49996">
        <ele>285.6</ele>
        <time>2024-10-17T15:43:30.472Z</time>
      </trkpt>
      <trkpt lat="44.24063" lon="4.49977">
        <ele>284.8</ele>
        <time>2024-10-17T15:43:48.853Z</time>
      </trkpt>
      <trkpt lat="44.23996" lon="4.49966">
        <ele>291.8</ele>
        <time>2024-10-17T15:44:16.939Z</time>
      </trkpt>
      <trkpt lat="44.23958" lon="4.49949">
        <ele>291.4</ele>
        <time>2024-10-17T15:44:33.552Z</time>
      </trkpt>
      <trkpt lat="44.23893" lon="4.49939">
        <ele>290.2</ele>
        <time>2024-10-17T15:45:00.777Z</time>
      </trkpt>
      <trkpt lat="44.2384" lon="4.49935">
        <ele>293.2</ele>
        <time>2024-10-17T15:45:22.874Z</time>
      </trkpt>
      <trkpt lat="44.23791" lon="4.49928">
        <ele>295.5</ele>
        <time>2024-10-17T15:45:43.380Z</time>
      </trkpt>
      <trkpt lat="44.2376" lon="4.49903">
        <ele>295.3</ele>
        <time>2024-10-17T15:45:58.285Z</time>
      </trkpt>
      <trkpt lat="44.23735" lon="4.49883">
        <ele>293.7</ele>
        <time>2024-10-17T15:46:10.281Z</time>
      </trkpt>
      <trkpt lat="44.2372" lon="4.4989">
        <ele>297.1</ele>
        <time>2024-10-17T15:46:16.865Z</time>
      </trkpt>
      <trkpt lat="44.23704" lon="4.499">
        <ele>297.5</ele>
        <time>2024-10-17T15:46:24.163Z</time>
      </trkpt>
      <trkpt lat="44.23665" lon="4.49886">
        <ele>298.4</ele>
        <time>2024-10-17T15:46:40.928Z</time>
      </trkpt>
      <trkpt lat="44.23641" lon="4.49874">
        <ele>297</ele>
        <time>2024-10-17T15:46:51.541Z</time>
      </trkpt>
      <trkpt lat="44.23611" lon="4.4988">
        <ele>296.4</ele>
        <time>2024-10-17T15:47:04.158Z</time>
      </trkpt>
      <trkpt lat="44.23585" lon="4.49906">
        <ele>298.2</ele>
        <time>2024-10-17T15:47:17.474Z</time>
      </trkpt>
      <trkpt lat="44.2355" lon="4.49928">
        <ele>299</ele>
        <time>2024-10-17T15:47:33.455Z</time>
      </trkpt>
      <trkpt lat="44.23548" lon="4.49922">
        <ele>298.8</ele>
        <time>2024-10-17T15:47:35.428Z</time>
      </trkpt>
      <trkpt lat="44.23554" lon="4.4991">
        <ele>297.4</ele>
        <time>2024-10-17T15:47:39.793Z</time>
      </trkpt>
      <trkpt lat="44.23581" lon="4.49882">
        <ele>292.8</ele>
        <time>2024-10-17T15:47:53.797Z</time>
      </trkpt>
      <trkpt lat="44.23609" lon="4.49839">
        <ele>286.1</ele>
        <time>2024-10-17T15:48:11.129Z</time>
      </trkpt>
      <trkpt lat="44.23632" lon="4.49796">
        <ele>278.2</ele>
        <time>2024-10-17T15:48:27.135Z</time>
      </trkpt>
      <trkpt lat="44.23662" lon="4.49788">
        <ele>274.4</ele>
        <time>2024-10-17T15:48:39.850Z</time>
      </trkpt>
      <trkpt lat="44.2368" lon="4.49773">
        <ele>268.6</ele>
        <time>2024-10-17T15:48:48.578Z</time>
      </trkpt>
      <trkpt lat="44.23712" lon="4.49768">
        <ele>264.5</ele>
        <time>2024-10-17T15:49:01.983Z</time>
      </trkpt>
      <trkpt lat="44.23747" lon="4.49763">
        <ele>260.1</ele>
        <time>2024-10-17T15:49:16.630Z</time>
      </trkpt>
      <trkpt lat="44.23787" lon="4.49768">
        <ele>255.6</ele>
        <time>2024-10-17T15:49:33.350Z</time>
      </trkpt>
      <trkpt lat="44.2379" lon="4.49759">
        <ele>253.8</ele>
        <time>2024-10-17T15:49:36.310Z</time>
      </trkpt>
      <trkpt lat="44.23759" lon="4.49731">
        <ele>253.4</ele>
        <time>2024-10-17T15:49:51.682Z</time>
      </trkpt>
      <trkpt lat="44.2374" lon="4.49709">
        <ele>252.6</ele>
        <time>2024-10-17T15:50:01.959Z</time>
      </trkpt>
      <trkpt lat="44.23735" lon="4.49672">
        <ele>248.1</ele>
        <time>2024-10-17T15:50:13.190Z</time>
      </trkpt>
      <trkpt lat="44.23735" lon="4.49618">
        <ele>240.3</ele>
        <time>2024-10-17T15:50:29.297Z</time>
      </trkpt>
      <trkpt lat="44.23729" lon="4.49577">
        <ele>232.8</ele>
        <time>2024-10-17T15:50:41.779Z</time>
      </trkpt>
      <trkpt lat="44.23733" lon="4.4949">
        <ele>220.9</ele>
        <time>2024-10-17T15:51:07.783Z</time>
      </trkpt>
      <trkpt lat="44.23733" lon="4.49435">
        <ele>215.7</ele>
        <time>2024-10-17T15:51:24.188Z</time>
      </trkpt>
      <trkpt lat="44.23722" lon="4.49448">
        <ele>215.3</ele>
        <time>2024-10-17T15:51:30.188Z</time>
      </trkpt>
      <trkpt lat="44.2371" lon="4.49459">
        <ele>218.6</ele>
        <time>2024-10-17T15:51:36.165Z</time>
      </trkpt>
      <trkpt lat="44.23703" lon="4.49448">
        <ele>219.4</ele>
        <time>2024-10-17T15:51:40.553Z</time>
      </trkpt>
      <trkpt lat="44.23693" lon="4.49456">
        <ele>221.7</ele>
        <time>2024-10-17T15:51:45.351Z</time>
      </trkpt>
      <trkpt lat="44.23694" lon="4.49481">
        <ele>223.9</ele>
        <time>2024-10-17T15:51:52.819Z</time>
      </trkpt>
      <trkpt lat="44.23655" lon="4.49547">
        <ele>234.2</ele>
        <time>2024-10-17T15:52:18.337Z</time>
      </trkpt>
      <trkpt lat="44.23642" lon="4.49562">
        <ele>237.1</ele>
        <time>2024-10-17T15:52:25.359Z</time>
      </trkpt>
      <trkpt lat="44.23614" lon="4.49569">
        <ele>242.5</ele>
        <time>2024-10-17T15:52:37.201Z</time>
      </trkpt>
      <trkpt lat="44.23581" lon="4.49548">
        <ele>238.6</ele>
        <time>2024-10-17T15:52:52.300Z</time>
      </trkpt>
      <trkpt lat="44.23574" lon="4.49518">
        <ele>238</ele>
        <time>2024-10-17T15:53:01.711Z</time>
      </trkpt>
      <trkpt lat="44.23581" lon="4.49457">
        <ele>240.5</ele>
        <time>2024-10-17T15:53:20.138Z</time>
      </trkpt>
      <trkpt lat="44.23574" lon="4.49432">
        <ele>241.9</ele>
        <time>2024-10-17T15:53:28.144Z</time>
      </trkpt>
      <trkpt lat="44.23541" lon="4.49323">
        <ele>230.9</ele>
        <time>2024-10-17T15:54:03.441Z</time>
      </trkpt>
      <trkpt lat="44.23587" lon="4.49238">
        <ele>219.2</ele>
        <time>2024-10-17T15:54:35.215Z</time>
      </trkpt>
      <trkpt lat="44.23591" lon="4.49172">
        <ele>214.2</ele>
        <time>2024-10-17T15:54:54.972Z</time>
      </trkpt>
      <trkpt lat="44.23587" lon="4.49136">
        <ele>214.1</ele>
        <time>2024-10-17T15:55:05.838Z</time>
      </trkpt>
      <trkpt lat="44.23595" lon="4.49116">
        <ele>213</ele>
        <time>2024-10-17T15:55:12.670Z</time>
      </trkpt>
      <trkpt lat="44.23602" lon="4.49068">
        <ele>207.9</ele>
        <time>2024-10-17T15:55:27.281Z</time>
      </trkpt>
      <trkpt lat="44.23599" lon="4.49023">
        <ele>206.1</ele>
        <time>2024-10-17T15:55:40.762Z</time>
      </trkpt>
      <trkpt lat="44.23608" lon="4.48976">
        <ele>204.1</ele>
        <time>2024-10-17T15:55:55.273Z</time>
      </trkpt>
      <trkpt lat="44.23595" lon="4.48877">
        <ele>203.4</ele>
        <time>2024-10-17T15:56:25.295Z</time>
      </trkpt>
      <trkpt lat="44.23578" lon="4.48748">
        <ele>198.9</ele>
        <time>2024-10-17T15:57:04.420Z</time>
      </trkpt>
      <trkpt lat="44.23577" lon="4.48726">
        <ele>198.2</ele>
        <time>2024-10-17T15:57:10.995Z</time>
      </trkpt>
      <trkpt lat="44.23579" lon="4.48702">
        <ele>197.1</ele>
        <time>2024-10-17T15:57:18.202Z</time>
      </trkpt>
      <trkpt lat="44.23566" lon="4.4862">
        <ele>188.1</ele>
        <time>2024-10-17T15:57:43.253Z</time>
      </trkpt>
      <trkpt lat="44.23546" lon="4.48606">
        <ele>189</ele>
        <time>2024-10-17T15:57:52.568Z</time>
      </trkpt>
      <trkpt lat="44.23542" lon="4.48589">
        <ele>187.3</ele>
        <time>2024-10-17T15:57:57.905Z</time>
      </trkpt>
      <trkpt lat="44.23537" lon="4.48564">
        <ele>184.1</ele>
        <time>2024-10-17T15:58:05.647Z</time>
      </trkpt>
      <trkpt lat="44.23556" lon="4.48539">
        <ele>176.2</ele>
        <time>2024-10-17T15:58:16.518Z</time>
      </trkpt>
      <trkpt lat="44.23564" lon="4.48547">
        <ele>177</ele>
        <time>2024-10-17T15:58:20.615Z</time>
      </trkpt>
      <trkpt lat="44.236" lon="4.48524">
        <ele>172.1</ele>
        <time>2024-10-17T15:58:37.098Z</time>
      </trkpt>
      <trkpt lat="44.23635" lon="4.48516">
        <ele>165.2</ele>
        <time>2024-10-17T15:58:51.863Z</time>
      </trkpt>
      <trkpt lat="44.23641" lon="4.48519">
        <ele>164.1</ele>
        <time>2024-10-17T15:58:54.516Z</time>
      </trkpt>
      <trkpt lat="44.23654" lon="4.48544">
        <ele>163.1</ele>
        <time>2024-10-17T15:59:03.730Z</time>
      </trkpt>
      <trkpt lat="44.23661" lon="4.48595">
        <ele>165.7</ele>
        <time>2024-10-17T15:59:19.219Z</time>
      </trkpt>
      <trkpt lat="44.23666" lon="4.48614">
        <ele>166.3</ele>
        <time>2024-10-17T15:59:25.256Z</time>
      </trkpt>
      <trkpt lat="44.2369" lon="4.48662">
        <ele>163.7</ele>
        <time>2024-10-17T15:59:42.715Z</time>
      </trkpt>
      <trkpt lat="44.23699" lon="4.48663">
        <ele>161.2</ele>
        <time>2024-10-17T15:59:46.473Z</time>
      </trkpt>
      <trkpt lat="44.23705" lon="4.48649">
        <ele>158.3</ele>
        <time>2024-10-17T15:59:51.339Z</time>
      </trkpt>
      <trkpt lat="44.23713" lon="4.48583">
        <ele>153.1</ele>
        <time>2024-10-17T16:00:11.305Z</time>
      </trkpt>
      <trkpt lat="44.2371" lon="4.48559">
        <ele>152.7</ele>
        <time>2024-10-17T16:00:18.571Z</time>
      </trkpt>
      <trkpt lat="44.23687" lon="4.48522">
        <ele>154.1</ele>
        <time>2024-10-17T16:00:33.182Z</time>
      </trkpt>
      <trkpt lat="44.23688" lon="4.48513">
        <ele>152.2</ele>
        <time>2024-10-17T16:00:35.898Z</time>
      </trkpt>
      <trkpt lat="44.23713" lon="4.48541">
        <ele>150.8</ele>
        <time>2024-10-17T16:00:49.243Z</time>
      </trkpt>
      <trkpt lat="44.2373" lon="4.48549">
        <ele>148.2</ele>
        <time>2024-10-17T16:00:56.712Z</time>
      </trkpt>
      <trkpt lat="44.23748" lon="4.48561">
        <ele>145.9</ele>
        <time>2024-10-17T16:01:05.016Z</time>
      </trkpt>
      <trkpt lat="44.23747" lon="4.48587">
        <ele>148.8</ele>
        <time>2024-10-17T16:01:12.782Z</time>
      </trkpt>
      <trkpt lat="44.2376" lon="4.48591">
        <ele>150.5</ele>
        <time>2024-10-17T16:01:18.324Z</time>
      </trkpt>
      <trkpt lat="44.23777" lon="4.48582">
        <ele>151.6</ele>
        <time>2024-10-17T16:01:25.893Z</time>
      </trkpt>
      <trkpt lat="44.23792" lon="4.48581">
        <ele>149.4</ele>
        <time>2024-10-17T16:01:32.145Z</time>
      </trkpt>
      <trkpt lat="44.23801" lon="4.4859">
        <ele>149.8</ele>
        <time>2024-10-17T16:01:36.754Z</time>
      </trkpt>
      <trkpt lat="44.23807" lon="4.48646">
        <ele>156.6</ele>
        <time>2024-10-17T16:01:53.643Z</time>
      </trkpt>
      <trkpt lat="44.23801" lon="4.48696">
        <ele>162.6</ele>
        <time>2024-10-17T16:02:08.764Z</time>
      </trkpt>
      <trkpt lat="44.23814" lon="4.48704">
        <ele>161.9</ele>
        <time>2024-10-17T16:02:14.679Z</time>
      </trkpt>
      <trkpt lat="44.23822" lon="4.48726">
        <ele>163</ele>
        <time>2024-10-17T16:02:22.038Z</time>
      </trkpt>
      <trkpt lat="44.23829" lon="4.48738">
        <ele>163.5</ele>
        <time>2024-10-17T16:02:26.653Z</time>
      </trkpt>
      <trkpt lat="44.23835" lon="4.48744">
        <ele>163.1</ele>
        <time>2024-10-17T16:02:29.725Z</time>
      </trkpt>
      <trkpt lat="44.23843" lon="4.48765">
        <ele>162.2</ele>
        <time>2024-10-17T16:02:36.819Z</time>
      </trkpt>
      <trkpt lat="44.23845" lon="4.48772">
        <ele>162.3</ele>
        <time>2024-10-17T16:02:39.066Z</time>
      </trkpt>
      <trkpt lat="44.23845" lon="4.48813">
        <ele>165.3</ele>
        <time>2024-10-17T16:02:51.295Z</time>
      </trkpt>
      <trkpt lat="44.23838" lon="4.48855">
        <ele>170.5</ele>
        <time>2024-10-17T16:03:04.157Z</time>
      </trkpt>
      <trkpt lat="44.23831" lon="4.48868">
        <ele>172.9</ele>
        <time>2024-10-17T16:03:09.007Z</time>
      </trkpt>
      <trkpt lat="44.23822" lon="4.48903">
        <ele>172.5</ele>
        <time>2024-10-17T16:03:20.098Z</time>
      </trkpt>
      <trkpt lat="44.23811" lon="4.48915">
        <ele>174.7</ele>
        <time>2024-10-17T16:03:25.910Z</time>
      </trkpt>
      <trkpt lat="44.23804" lon="4.48924">
        <ele>176.3</ele>
        <time>2024-10-17T16:03:29.872Z</time>
      </trkpt>
      <trkpt lat="44.23809" lon="4.48941">
        <ele>175.7</ele>
        <time>2024-10-17T16:03:35.353Z</time>
      </trkpt>
      <trkpt lat="44.23817" lon="4.48996">
        <ele>175</ele>
        <time>2024-10-17T16:03:52.093Z</time>
      </trkpt>
      <trkpt lat="44.23829" lon="4.49055">
        <ele>176</ele>
        <time>2024-10-17T16:04:10.386Z</time>
      </trkpt>
      <trkpt lat="44.23835" lon="4.49113">
        <ele>175.7</ele>
        <time>2024-10-17T16:04:27.865Z</time>
      </trkpt>
      <trkpt lat="44.23838" lon="4.49115">
        <ele>175.4</ele>
        <time>2024-10-17T16:04:29.249Z</time>
      </trkpt>
      <trkpt lat="44.23839" lon="4.49116">
        <ele>175.2</ele>
        <time>2024-10-17T16:04:29.760Z</time>
      </trkpt>
      <trkpt lat="44.23849" lon="4.49108">
        <ele>173.5</ele>
        <time>2024-10-17T16:04:34.558Z</time>
      </trkpt>
      <trkpt lat="44.23856" lon="4.49039">
        <ele>168.4</ele>
        <time>2024-10-17T16:04:55.344Z</time>
      </trkpt>
      <trkpt lat="44.23851" lon="4.49006">
        <ele>167.3</ele>
        <time>2024-10-17T16:05:05.404Z</time>
      </trkpt>
      <trkpt lat="44.23852" lon="4.48946">
        <ele>163.4</ele>
        <time>2024-10-17T16:05:23.305Z</time>
      </trkpt>
      <trkpt lat="44.23869" lon="4.48882">
        <ele>158</ele>
        <time>2024-10-17T16:05:43.664Z</time>
      </trkpt>
      <trkpt lat="44.23879" lon="4.48839">
        <ele>157.3</ele>
        <time>2024-10-17T16:05:57.148Z</time>
      </trkpt>
      <trkpt lat="44.23858" lon="4.48664">
        <ele>146.1</ele>
        <time>2024-10-17T16:06:50.073Z</time>
      </trkpt>
      <trkpt lat="44.23855" lon="4.48634">
        <ele>145.7</ele>
        <time>2024-10-17T16:06:59.108Z</time>
      </trkpt>
      <trkpt lat="44.23805" lon="4.48534">
        <ele>137.9</ele>
        <time>2024-10-17T16:07:35.481Z</time>
      </trkpt>
      <trkpt lat="44.23798" lon="4.48461">
        <ele>136.3</ele>
        <time>2024-10-17T16:07:57.449Z</time>
      </trkpt>
      <trkpt lat="44.23793" lon="4.48432">
        <ele>134.1</ele>
        <time>2024-10-17T16:08:06.346Z</time>
      </trkpt>
      <trkpt lat="44.23789" lon="4.48418">
        <ele>132</ele>
        <time>2024-10-17T16:08:10.841Z</time>
      </trkpt>
      <trkpt lat="44.23769" lon="4.48391">
        <ele>139.3</ele>
        <time>2024-10-17T16:08:22.425Z</time>
      </trkpt>
      <trkpt lat="44.2375" lon="4.48378">
        <ele>136.5</ele>
        <time>2024-10-17T16:08:31.234Z</time>
      </trkpt>
      <trkpt lat="44.2372" lon="4.48368">
        <ele>132.8</ele>
        <time>2024-10-17T16:08:44.075Z</time>
      </trkpt>
      <trkpt lat="44.23712" lon="4.4837">
        <ele>131.9</ele>
        <time>2024-10-17T16:08:47.458Z</time>
      </trkpt>
      <trkpt lat="44.237" lon="4.48362">
        <ele>131.5</ele>
        <time>2024-10-17T16:08:52.994Z</time>
      </trkpt>
      <trkpt lat="44.2368" lon="4.48335">
        <ele>131.4</ele>
        <time>2024-10-17T16:09:04.578Z</time>
      </trkpt>
      <trkpt lat="44.23669" lon="4.48338">
        <ele>130.6</ele>
        <time>2024-10-17T16:09:09.244Z</time>
      </trkpt>
      <trkpt lat="44.23649" lon="4.48344">
        <ele>128.3</ele>
        <time>2024-10-17T16:09:17.760Z</time>
      </trkpt>
      <trkpt lat="44.23627" lon="4.48329">
        <ele>126.6</ele>
        <time>2024-10-17T16:09:27.953Z</time>
      </trkpt>
      <trkpt lat="44.23603" lon="4.48308">
        <ele>125.9</ele>
        <time>2024-10-17T16:09:39.746Z</time>
      </trkpt>
      <trkpt lat="44.23587" lon="4.48317">
        <ele>126.2</ele>
        <time>2024-10-17T16:09:46.927Z</time>
      </trkpt>
      <trkpt lat="44.2354" lon="4.48316">
        <ele>130.9</ele>
        <time>2024-10-17T16:10:06.496Z</time>
      </trkpt>
      <trkpt lat="44.2352" lon="4.48318">
        <ele>134.3</ele>
        <time>2024-10-17T16:10:14.844Z</time>
      </trkpt>
      <trkpt lat="44.23496" lon="4.48306">
        <ele>135.3</ele>
        <time>2024-10-17T16:10:25.457Z</time>
      </trkpt>
      <trkpt lat="44.23472" lon="4.48308">
        <ele>137.6</ele>
        <time>2024-10-17T16:10:35.466Z</time>
      </trkpt>
      <trkpt lat="44.23452" lon="4.48324">
        <ele>139.4</ele>
        <time>2024-10-17T16:10:45.063Z</time>
      </trkpt>
      <trkpt lat="44.23435" lon="4.48356">
        <ele>141.3</ele>
        <time>2024-10-17T16:10:56.946Z</time>
      </trkpt>
      <trkpt lat="44.23426" lon="4.48421">
        <ele>146.8</ele>
        <time>2024-10-17T16:11:16.694Z</time>
      </trkpt>
      <trkpt lat="44.23412" lon="4.48458">
        <ele>148.6</ele>
        <time>2024-10-17T16:11:29.175Z</time>
      </trkpt>
      <trkpt lat="44.23406" lon="4.4848">
        <ele>149.9</ele>
        <time>2024-10-17T16:11:36.197Z</time>
      </trkpt>
      <trkpt lat="44.23395" lon="4.48555">
        <ele>155.2</ele>
        <time>2024-10-17T16:11:59.033Z</time>
      </trkpt>
      <trkpt lat="44.23393" lon="4.48554">
        <ele>154.7</ele>
        <time>2024-10-17T16:11:59.918Z</time>
      </trkpt>
      <trkpt lat="44.23347" lon="4.48535">
        <ele>147.3</ele>
        <time>2024-10-17T16:12:19.890Z</time>
      </trkpt>
      <trkpt lat="44.23317" lon="4.48537">
        <ele>145.2</ele>
        <time>2024-10-17T16:12:32.394Z</time>
      </trkpt>
      <trkpt lat="44.23253" lon="4.48508">
        <ele>142.3</ele>
        <time>2024-10-17T16:13:00.408Z</time>
      </trkpt>
      <trkpt lat="44.23217" lon="4.4847">
        <ele>143.1</ele>
        <time>2024-10-17T16:13:19.200Z</time>
      </trkpt>
      <trkpt lat="44.23204" lon="4.48454">
        <ele>143.7</ele>
        <time>2024-10-17T16:13:26.416Z</time>
      </trkpt>
      <trkpt lat="44.23181" lon="4.48444">
        <ele>144.5</ele>
        <time>2024-10-17T16:13:36.445Z</time>
      </trkpt>
      <trkpt lat="44.23168" lon="4.48438">
        <ele>145.5</ele>
        <time>2024-10-17T16:13:42.145Z</time>
      </trkpt>
      <trkpt lat="44.23162" lon="4.48439">
        <ele>145.6</ele>
        <time>2024-10-17T16:13:44.660Z</time>
      </trkpt>
      <trkpt lat="44.23156" lon="4.48437">
        <ele>145.8</ele>
        <time>2024-10-17T16:13:47.228Z</time>
      </trkpt>
      <trkpt lat="44.23079" lon="4.48314">
        <ele>151.4</ele>
        <time>2024-10-17T16:14:35.952Z</time>
      </trkpt>
      <trkpt lat="44.2299" lon="4.48267">
        <ele>152.3</ele>
        <time>2024-10-17T16:15:15.569Z</time>
      </trkpt>
      <trkpt lat="44.22888" lon="4.48217">
        <ele>154.1</ele>
        <time>2024-10-17T16:16:00.578Z</time>
      </trkpt>
      <trkpt lat="44.22833" lon="4.48181">
        <ele>146</ele>
        <time>2024-10-17T16:16:25.869Z</time>
      </trkpt>
      <trkpt lat="44.22818" lon="4.48179">
        <ele>143.2</ele>
        <time>2024-10-17T16:16:32.142Z</time>
      </trkpt>
      <trkpt lat="44.22787" lon="4.48167">
        <ele>137.4</ele>
        <time>2024-10-17T16:16:45.535Z</time>
      </trkpt>
      <trkpt lat="44.22743" lon="4.48142">
        <ele>129.9</ele>
        <time>2024-10-17T16:17:05.313Z</time>
      </trkpt>
      <trkpt lat="44.2272" lon="4.48123">
        <ele>124.6</ele>
        <time>2024-10-17T16:17:16.440Z</time>
      </trkpt>
      <trkpt lat="44.22685" lon="4.48095">
        <ele>119.8</ele>
        <time>2024-10-17T16:17:33.236Z</time>
      </trkpt>
      <trkpt lat="44.2265" lon="4.48079">
        <ele>117</ele>
        <time>2024-10-17T16:17:48.569Z</time>
      </trkpt>
      <trkpt lat="44.22643" lon="4.48088">
        <ele>120.6</ele>
        <time>2024-10-17T16:17:52.531Z</time>
        <extensions>
          <gpxtpx:TrackPointExtension xmlns:gpxtpx="http://www.garmin.com/xmlschemas/TrackPointExtension/v1">
            <gpxtpx:hr>151</gpxtpx:hr>
          </gpxtpx:TrackPointExtension>
        </extensions>
      </trkpt>
      <trkpt lat="44.22642" lon="4.48095">
        <ele>121.8</ele>
        <time>2024-10-17T16:17:54.660Z</time>
        <extensions>
          <gpxtpx:TrackPointExtension xmlns:gpxtpx="http://www.garmin.com/xmlschemas/TrackPointExtension/v1">
            <gpxtpx:hr>149</gpxtpx:hr>
          </gpxtpx:TrackPointExtension>
        </extensions>
      </trkpt>
      <trkpt lat="44.2264" lon="4.481">
        <ele>123.2</ele>
        <time>2024-10-17T16:17:56.368Z</time>
        <extensions>
          <gpxtpx:TrackPointExtension xmlns:gpxtpx="http://www.garmin.com/xmlschemas/TrackPointExtension/v1">
            <gpxtpx:hr>149</gpxtpx:hr>
          </gpxtpx:TrackPointExtension>
        </extensions>
      </trkpt>
      <trkpt lat="44.22637" lon="4.48107">
        <ele>124.6</ele>
        <time>2024-10-17T16:17:58.801Z</time>
        <extensions>
          <gpxtpx:TrackPointExtension xmlns:gpxtpx="http://www.garmin.com/xmlschemas/TrackPointExtension/v1">
            <gpxtpx:hr>149</gpxtpx:hr>
          </gpxtpx:TrackPointExtension>
        </extensions>
      </trkpt>
      <trkpt lat="44.22632" lon="4.48116">
        <ele>125.2</ele>
        <time>2024-10-17T16:18:02.198Z</time>
        <extensions>
          <gpxtpx:TrackPointExtension xmlns:gpxtpx="http://www.garmin.com/xmlschemas/TrackPointExtension/v1">
            <gpxtpx:hr>150</gpxtpx:hr>
          </gpxtpx:TrackPointExtension>
        </extensions>
      </trkpt>
      <trkpt lat="44.22631" lon="4.48121">
        <ele>125.6</ele>
        <time>2024-10-17T16:18:03.746Z</time>
        <extensions>
          <gpxtpx:TrackPointExtension xmlns:gpxtpx="http://www.garmin.com/xmlschemas/TrackPointExtension/v1">
            <gpxtpx:hr>151</gpxtpx:hr>
          </gpxtpx:TrackPointExtension>
        </extensions>
      </trkpt>
      <trkpt lat="44.22626" lon="4.48131">
        <ele>126.8</ele>
        <time>2024-10-17T16:18:07.384Z</time>
        <extensions>
          <gpxtpx:TrackPointExtension xmlns:gpxtpx="http://www.garmin.com/xmlschemas/TrackPointExtension/v1">
            <gpxtpx:hr>150</gpxtpx:hr>
          </gpxtpx:TrackPointExtension>
        </extensions>
      </trkpt>
      <trkpt lat="44.22625" lon="4.48133">
        <ele>127</ele>
        <time>2024-10-17T16:18:08.112Z</time>
        <extensions>
          <gpxtpx:TrackPointExtension xmlns:gpxtpx="http://www.garmin.com/xmlschemas/TrackPointExtension/v1">
            <gpxtpx:hr>150</gpxtpx:hr>
          </gpxtpx:TrackPointExtension>
        </extensions>
      </trkpt>
      <trkpt lat="44.22622" lon="4.48137">
        <ele>127.8</ele>
        <time>2024-10-17T16:18:09.839Z</time>
        <extensions>
          <gpxtpx:TrackPointExtension xmlns:gpxtpx="http://www.garmin.com/xmlschemas/TrackPointExtension/v1">
            <gpxtpx:hr>150</gpxtpx:hr>
          </gpxtpx:TrackPointExtension>
        </extensions>
      </trkpt>
      <trkpt lat="44.2262" lon="4.48144">
        <ele>129.4</ele>
        <time>2024-10-17T16:18:12.087Z</time>
        <extensions>
          <gpxtpx:TrackPointExtension xmlns:gpxtpx="http://www.garmin.com/xmlschemas/TrackPointExtension/v1">
            <gpxtpx:hr>150</gpxtpx:hr>
          </gpxtpx:TrackPointExtension>
        </extensions>
      </trkpt>
      <trkpt lat="44.22618" lon="4.48149">
        <ele>130.2</ele>
        <time>2024-10-17T16:18:13.795Z</time>
        <extensions>
          <gpxtpx:TrackPointExtension xmlns:gpxtpx="http://www.garmin.com/xmlschemas/TrackPointExtension/v1">
            <gpxtpx:hr>153</gpxtpx:hr>
          </gpxtpx:TrackPointExtension>
        </extensions>
      </trkpt>
      <trkpt lat="44.22616" lon="4.48151">
        <ele>130.6</ele>
        <time>2024-10-17T16:18:14.819Z</time>
        <extensions>
          <gpxtpx:TrackPointExtension xmlns:gpxtpx="http://www.garmin.com/xmlschemas/TrackPointExtension/v1">
            <gpxtpx:hr>152</gpxtpx:hr>
          </gpxtpx:TrackPointExtension>
        </extensions>
      </trkpt>
      <trkpt lat="44.22612" lon="4.4816">
        <ele>131.8</ele>
        <time>2024-10-17T16:18:17.978Z</time>
        <extensions>
          <gpxtpx:TrackPointExtension xmlns:gpxtpx="http://www.garmin.com/xmlschemas/TrackPointExtension/v1">
            <gpxtpx:hr>154</gpxtpx:hr>
          </gpxtpx:TrackPointExtension>
        </extensions>
      </trkpt>
      <trkpt lat="44.22607" lon="4.48167">
        <ele>132.8</ele>
        <time>2024-10-17T16:18:20.926Z</time>
        <extensions>
          <gpxtpx:TrackPointExtension xmlns:gpxtpx="http://www.garmin.com/xmlschemas/TrackPointExtension/v1">
            <gpxtpx:hr>154</gpxtpx:hr>
          </gpxtpx:TrackPointExtension>
        </extensions>
      </trkpt>
      <trkpt lat="44.22599" lon="4.48181">
        <ele>133.8</ele>
        <time>2024-10-17T16:18:26.268Z</time>
        <extensions>
          <gpxtpx:TrackPointExtension xmlns:gpxtpx="http://www.garmin.com/xmlschemas/TrackPointExtension/v1">
            <gpxtpx:hr>151</gpxtpx:hr>
          </gpxtpx:TrackPointExtension>
        </extensions>
      </trkpt>
      <trkpt lat="44.22598" lon="4.48183">
        <ele>134</ele>
        <time>2024-10-17T16:18:26.996Z</time>
        <extensions>
          <gpxtpx:TrackPointExtension xmlns:gpxtpx="http://www.garmin.com/xmlschemas/TrackPointExtension/v1">
            <gpxtpx:hr>151</gpxtpx:hr>
          </gpxtpx:TrackPointExtension>
        </extensions>
      </trkpt>
      <trkpt lat="44.22596" lon="4.48198">
        <ele>134</ele>
        <time>2024-10-17T16:18:31.547Z</time>
        <extensions>
          <gpxtpx:TrackPointExtension xmlns:gpxtpx="http://www.garmin.com/xmlschemas/TrackPointExtension/v1">
            <gpxtpx:hr>154</gpxtpx:hr>
          </gpxtpx:TrackPointExtension>
        </extensions>
      </trkpt>
      <trkpt lat="44.22596" lon="4.482">
        <ele>134</ele>
        <time>2024-10-17T16:18:32.143Z</time>
        <extensions>
          <gpxtpx:TrackPointExtension xmlns:gpxtpx="http://www.garmin.com/xmlschemas/TrackPointExtension/v1">
            <gpxtpx:hr>153</gpxtpx:hr>
          </gpxtpx:TrackPointExtension>
        </extensions>
      </trkpt>
      <trkpt lat="44.22598" lon="4.4822">
        <ele>133.2</ele>
        <time>2024-10-17T16:18:38.167Z</time>
        <extensions>
          <gpxtpx:TrackPointExtension xmlns:gpxtpx="http://www.garmin.com/xmlschemas/TrackPointExtension/v1">
            <gpxtpx:hr>152</gpxtpx:hr>
          </gpxtpx:TrackPointExtension>
        </extensions>
      </trkpt>
      <trkpt lat="44.22601" lon="4.48225">
        <ele>132.8</ele>
        <time>2024-10-17T16:18:40.112Z</time>
        <extensions>
          <gpxtpx:TrackPointExtension xmlns:gpxtpx="http://www.garmin.com/xmlschemas/TrackPointExtension/v1">
            <gpxtpx:hr>153</gpxtpx:hr>
          </gpxtpx:TrackPointExtension>
        </extensions>
      </trkpt>
      <trkpt lat="44.22604" lon="4.48234">
        <ele>131.8</ele>
        <time>2024-10-17T16:18:43.073Z</time>
        <extensions>
          <gpxtpx:TrackPointExtension xmlns:gpxtpx="http://www.garmin.com/xmlschemas/TrackPointExtension/v1">
            <gpxtpx:hr>153</gpxtpx:hr>
          </gpxtpx:TrackPointExtension>
        </extensions>
      </trkpt>
      <trkpt lat="44.22606" lon="4.48243">
        <ele>131.4</ele>
        <time>2024-10-17T16:18:45.884Z</time>
        <extensions>
          <gpxtpx:TrackPointExtension xmlns:gpxtpx="http://www.garmin.com/xmlschemas/TrackPointExtension/v1">
            <gpxtpx:hr>153</gpxtpx:hr>
          </gpxtpx:TrackPointExtension>
        </extensions>
      </trkpt>
      <trkpt lat="44.22611" lon="4.48264">
        <ele>130.8</ele>
        <time>2024-10-17T16:18:52.485Z</time>
        <extensions>
          <gpxtpx:TrackPointExtension xmlns:gpxtpx="http://www.garmin.com/xmlschemas/TrackPointExtension/v1">
            <gpxtpx:hr>154</gpxtpx:hr>
          </gpxtpx:TrackPointExtension>
        </extensions>
      </trkpt>
      <trkpt lat="44.22612" lon="4.48271">
        <ele>130</ele>
        <time>2024-10-17T16:18:54.614Z</time>
        <extensions>
          <gpxtpx:TrackPointExtension xmlns:gpxtpx="http://www.garmin.com/xmlschemas/TrackPointExtension/v1">
            <gpxtpx:hr>154</gpxtpx:hr>
          </gpxtpx:TrackPointExtension>
        </extensions>
      </trkpt>
      <trkpt lat="44.22615" lon="4.48277">
        <ele>129.4</ele>
        <time>2024-10-17T16:18:56.797Z</time>
        <extensions>
          <gpxtpx:TrackPointExtension xmlns:gpxtpx="http://www.garmin.com/xmlschemas/TrackPointExtension/v1">
            <gpxtpx:hr>154</gpxtpx:hr>
          </gpxtpx:TrackPointExtension>
        </extensions>
      </trkpt>
      <trkpt lat="44.22616" lon="4.48286">
        <ele>128.4</ele>
        <time>2024-10-17T16:18:59.514Z</time>
        <extensions>
          <gpxtpx:TrackPointExtension xmlns:gpxtpx="http://www.garmin.com/xmlschemas/TrackPointExtension/v1">
            <gpxtpx:hr>154</gpxtpx:hr>
          </gpxtpx:TrackPointExtension>
        </extensions>
      </trkpt>
      <trkpt lat="44.22617" lon="4.48297">
        <ele>127.4</ele>
        <time>2024-10-17T16:19:02.821Z</time>
        <extensions>
          <gpxtpx:TrackPointExtension xmlns:gpxtpx="http://www.garmin.com/xmlschemas/TrackPointExtension/v1">
            <gpxtpx:hr>155</gpxtpx:hr>
          </gpxtpx:TrackPointExtension>
        </extensions>
      </trkpt>
      <trkpt lat="44.22618" lon="4.48299">
        <ele>127.2</ele>
        <time>2024-10-17T16:19:03.548Z</time>
        <extensions>
          <gpxtpx:TrackPointExtension xmlns:gpxtpx="http://www.garmin.com/xmlschemas/TrackPointExtension/v1">
            <gpxtpx:hr>155</gpxtpx:hr>
          </gpxtpx:TrackPointExtension>
        </extensions>
      </trkpt>
      <trkpt lat="44.22629" lon="4.48314">
        <ele>126.8</ele>
        <time>2024-10-17T16:19:09.951Z</time>
        <extensions>
          <gpxtpx:TrackPointExtension xmlns:gpxtpx="http://www.garmin.com/xmlschemas/TrackPointExtension/v1">
            <gpxtpx:hr>158</gpxtpx:hr>
          </gpxtpx:TrackPointExtension>
        </extensions>
      </trkpt>
      <trkpt lat="44.22636" lon="4.48327">
        <ele>127.4</ele>
        <time>2024-10-17T16:19:14.802Z</time>
        <extensions>
          <gpxtpx:TrackPointExtension xmlns:gpxtpx="http://www.garmin.com/xmlschemas/TrackPointExtension/v1">
            <gpxtpx:hr>162</gpxtpx:hr>
          </gpxtpx:TrackPointExtension>
        </extensions>
      </trkpt>
      <trkpt lat="44.22639" lon="4.48341">
        <ele>127</ele>
        <time>2024-10-17T16:19:19.161Z</time>
        <extensions>
          <gpxtpx:TrackPointExtension xmlns:gpxtpx="http://www.garmin.com/xmlschemas/TrackPointExtension/v1">
            <gpxtpx:hr>162</gpxtpx:hr>
          </gpxtpx:TrackPointExtension>
        </extensions>
      </trkpt>
      <trkpt lat="44.22639" lon="4.48352">
        <ele>126.2</ele>
        <time>2024-10-17T16:19:22.442Z</time>
        <extensions>
          <gpxtpx:TrackPointExtension xmlns:gpxtpx="http://www.garmin.com/xmlschemas/TrackPointExtension/v1">
            <gpxtpx:hr>162</gpxtpx:hr>
          </gpxtpx:TrackPointExtension>
        </extensions>
      </trkpt>
      <trkpt lat="44.22639" lon="4.48363">
        <ele>125</ele>
        <time>2024-10-17T16:19:25.723Z</time>
        <extensions>
          <gpxtpx:TrackPointExtension xmlns:gpxtpx="http://www.garmin.com/xmlschemas/TrackPointExtension/v1">
            <gpxtpx:hr>160</gpxtpx:hr>
          </gpxtpx:TrackPointExtension>
        </extensions>
      </trkpt>
      <trkpt lat="44.22639" lon="4.48367">
        <ele>124.6</ele>
        <time>2024-10-17T16:19:26.915Z</time>
        <extensions>
          <gpxtpx:TrackPointExtension xmlns:gpxtpx="http://www.garmin.com/xmlschemas/TrackPointExtension/v1">
            <gpxtpx:hr>159</gpxtpx:hr>
          </gpxtpx:TrackPointExtension>
        </extensions>
      </trkpt>
      <trkpt lat="44.22636" lon="4.48384">
        <ele>124</ele>
        <time>2024-10-17T16:19:32.138Z</time>
        <extensions>
          <gpxtpx:TrackPointExtension xmlns:gpxtpx="http://www.garmin.com/xmlschemas/TrackPointExtension/v1">
            <gpxtpx:hr>157</gpxtpx:hr>
          </gpxtpx:TrackPointExtension>
        </extensions>
      </trkpt>
      <trkpt lat="44.22637" lon="4.48391">
        <ele>123.8</ele>
        <time>2024-10-17T16:19:34.267Z</time>
        <extensions>
          <gpxtpx:TrackPointExtension xmlns:gpxtpx="http://www.garmin.com/xmlschemas/TrackPointExtension/v1">
            <gpxtpx:hr>158</gpxtpx:hr>
          </gpxtpx:TrackPointExtension>
        </extensions>
      </trkpt>
      <trkpt lat="44.22645" lon="4.48406">
        <ele>123.4</ele>
        <time>2024-10-17T16:19:39.845Z</time>
        <extensions>
          <gpxtpx:TrackPointExtension xmlns:gpxtpx="http://www.garmin.com/xmlschemas/TrackPointExtension/v1">
            <gpxtpx:hr>159</gpxtpx:hr>
          </gpxtpx:TrackPointExtension>
        </extensions>
      </trkpt>
      <trkpt lat="44.22648" lon="4.48412">
        <ele>122.8</ele>
        <time>2024-10-17T16:19:42.028Z</time>
        <extensions>
          <gpxtpx:TrackPointExtension xmlns:gpxtpx="http://www.garmin.com/xmlschemas/TrackPointExtension/v1">
            <gpxtpx:hr>158</gpxtpx:hr>
          </gpxtpx:TrackPointExtension>
        </extensions>
      </trkpt>
      <trkpt lat="44.22654" lon="4.4842">
        <ele>121.6</ele>
        <time>2024-10-17T16:19:45.483Z</time>
        <extensions>
          <gpxtpx:TrackPointExtension xmlns:gpxtpx="http://www.garmin.com/xmlschemas/TrackPointExtension/v1">
            <gpxtpx:hr>156</gpxtpx:hr>
          </gpxtpx:TrackPointExtension>
        </extensions>
      </trkpt>
      <trkpt lat="44.22656" lon="4.48421">
        <ele>121.4</ele>
        <time>2024-10-17T16:19:46.367Z</time>
        <extensions>
          <gpxtpx:TrackPointExtension xmlns:gpxtpx="http://www.garmin.com/xmlschemas/TrackPointExtension/v1">
            <gpxtpx:hr>157</gpxtpx:hr>
          </gpxtpx:TrackPointExtension>
        </extensions>
      </trkpt>
      <trkpt lat="44.22665" lon="4.48432">
        <ele>120.6</ele>
        <time>2024-10-17T16:19:51.347Z</time>
        <extensions>
          <gpxtpx:TrackPointExtension xmlns:gpxtpx="http://www.garmin.com/xmlschemas/TrackPointExtension/v1">
            <gpxtpx:hr>159</gpxtpx:hr>
          </gpxtpx:TrackPointExtension>
        </extensions>
      </trkpt>
      <trkpt lat="44.22669" lon="4.48441">
        <ele>119.6</ele>
        <time>2024-10-17T16:19:54.506Z</time>
        <extensions>
          <gpxtpx:TrackPointExtension xmlns:gpxtpx="http://www.garmin.com/xmlschemas/TrackPointExtension/v1">
            <gpxtpx:hr>159</gpxtpx:hr>
          </gpxtpx:TrackPointExtension>
        </extensions>
      </trkpt>
      <trkpt lat="44.22671" lon="4.48444">
        <ele>119.4</ele>
        <time>2024-10-17T16:19:55.729Z</time>
        <extensions>
          <gpxtpx:TrackPointExtension xmlns:gpxtpx="http://www.garmin.com/xmlschemas/TrackPointExtension/v1">
            <gpxtpx:hr>159</gpxtpx:hr>
          </gpxtpx:TrackPointExtension>
        </extensions>
      </trkpt>
      <trkpt lat="44.22673" lon="4.48457">
        <ele>118.2</ele>
        <time>2024-10-17T16:19:59.695Z</time>
        <extensions>
          <gpxtpx:TrackPointExtension xmlns:gpxtpx="http://www.garmin.com/xmlschemas/TrackPointExtension/v1">
            <gpxtpx:hr>160</gpxtpx:hr>
          </gpxtpx:TrackPointExtension>
        </extensions>
      </trkpt>
      <trkpt lat="44.22674" lon="4.48461">
        <ele>117.8</ele>
        <time>2024-10-17T16:20:00.958Z</time>
        <extensions>
          <gpxtpx:TrackPointExtension xmlns:gpxtpx="http://www.garmin.com/xmlschemas/TrackPointExtension/v1">
            <gpxtpx:hr>160</gpxtpx:hr>
          </gpxtpx:TrackPointExtension>
        </extensions>
      </trkpt>
      <trkpt lat="44.22674" lon="4.48464">
        <ele>117.2</ele>
        <time>2024-10-17T16:20:01.853Z</time>
        <extensions>
          <gpxtpx:TrackPointExtension xmlns:gpxtpx="http://www.garmin.com/xmlschemas/TrackPointExtension/v1">
            <gpxtpx:hr>160</gpxtpx:hr>
          </gpxtpx:TrackPointExtension>
        </extensions>
      </trkpt>
      <trkpt lat="44.22672" lon="4.48475">
        <ele>116.2</ele>
        <time>2024-10-17T16:20:05.238Z</time>
        <extensions>
          <gpxtpx:TrackPointExtension xmlns:gpxtpx="http://www.garmin.com/xmlschemas/TrackPointExtension/v1">
            <gpxtpx:hr>161</gpxtpx:hr>
          </gpxtpx:TrackPointExtension>
        </extensions>
      </trkpt>
      <trkpt lat="44.22672" lon="4.48482">
        <ele>116</ele>
        <time>2024-10-17T16:20:07.326Z</time>
        <extensions>
          <gpxtpx:TrackPointExtension xmlns:gpxtpx="http://www.garmin.com/xmlschemas/TrackPointExtension/v1">
            <gpxtpx:hr>161</gpxtpx:hr>
          </gpxtpx:TrackPointExtension>
        </extensions>
      </trkpt>
      <trkpt lat="44.22667" lon="4.48499">
        <ele>117.2</ele>
        <time>2024-10-17T16:20:12.808Z</time>
        <extensions>
          <gpxtpx:TrackPointExtension xmlns:gpxtpx="http://www.garmin.com/xmlschemas/TrackPointExtension/v1">
            <gpxtpx:hr>162</gpxtpx:hr>
          </gpxtpx:TrackPointExtension>
        </extensions>
      </trkpt>
      <trkpt lat="44.22666" lon="4.48505">
        <ele>117.6</ele>
        <time>2024-10-17T16:20:14.646Z</time>
        <extensions>
          <gpxtpx:TrackPointExtension xmlns:gpxtpx="http://www.garmin.com/xmlschemas/TrackPointExtension/v1">
            <gpxtpx:hr>162</gpxtpx:hr>
          </gpxtpx:TrackPointExtension>
        </extensions>
      </trkpt>
      <trkpt lat="44.22667" lon="4.48508">
        <ele>117.8</ele>
        <time>2024-10-17T16:20:15.633Z</time>
        <extensions>
          <gpxtpx:TrackPointExtension xmlns:gpxtpx="http://www.garmin.com/xmlschemas/TrackPointExtension/v1">
            <gpxtpx:hr>160</gpxtpx:hr>
          </gpxtpx:TrackPointExtension>
        </extensions>
      </trkpt>
      <trkpt lat="44.2267" lon="4.48513">
        <ele>118.2</ele>
        <time>2024-10-17T16:20:17.578Z</time>
        <extensions>
          <gpxtpx:TrackPointExtension xmlns:gpxtpx="http://www.garmin.com/xmlschemas/TrackPointExtension/v1">
            <gpxtpx:hr>161</gpxtpx:hr>
          </gpxtpx:TrackPointExtension>
        </extensions>
      </trkpt>
      <trkpt lat="44.22673" lon="4.48518">
        <ele>118.4</ele>
        <time>2024-10-17T16:20:19.523Z</time>
        <extensions>
          <gpxtpx:TrackPointExtension xmlns:gpxtpx="http://www.garmin.com/xmlschemas/TrackPointExtension/v1">
            <gpxtpx:hr>161</gpxtpx:hr>
          </gpxtpx:TrackPointExtension>
        </extensions>
      </trkpt>
      <trkpt lat="44.22675" lon="4.48526">
        <ele>118.8</ele>
        <time>2024-10-17T16:20:22.050Z</time>
        <extensions>
          <gpxtpx:TrackPointExtension xmlns:gpxtpx="http://www.garmin.com/xmlschemas/TrackPointExtension/v1">
            <gpxtpx:hr>162</gpxtpx:hr>
          </gpxtpx:TrackPointExtension>
        </extensions>
      </trkpt>
      <trkpt lat="44.22678" lon="4.48531">
        <ele>119</ele>
        <time>2024-10-17T16:20:23.995Z</time>
        <extensions>
          <gpxtpx:TrackPointExtension xmlns:gpxtpx="http://www.garmin.com/xmlschemas/TrackPointExtension/v1">
            <gpxtpx:hr>161</gpxtpx:hr>
          </gpxtpx:TrackPointExtension>
        </extensions>
      </trkpt>
      <trkpt lat="44.22677" lon="4.48537">
        <ele>119</ele>
        <time>2024-10-17T16:20:25.832Z</time>
        <extensions>
          <gpxtpx:TrackPointExtension xmlns:gpxtpx="http://www.garmin.com/xmlschemas/TrackPointExtension/v1">
            <gpxtpx:hr>160</gpxtpx:hr>
          </gpxtpx:TrackPointExtension>
        </extensions>
      </trkpt>
      <trkpt lat="44.22678" lon="4.48543">
        <ele>119</ele>
        <time>2024-10-17T16:20:27.669Z</time>
        <extensions>
          <gpxtpx:TrackPointExtension xmlns:gpxtpx="http://www.garmin.com/xmlschemas/TrackPointExtension/v1">
            <gpxtpx:hr>158</gpxtpx:hr>
          </gpxtpx:TrackPointExtension>
        </extensions>
      </trkpt>
      <trkpt lat="44.22683" lon="4.4856">
        <ele>118.8</ele>
        <time>2024-10-17T16:20:33.151Z</time>
        <extensions>
          <gpxtpx:TrackPointExtension xmlns:gpxtpx="http://www.garmin.com/xmlschemas/TrackPointExtension/v1">
            <gpxtpx:hr>160</gpxtpx:hr>
          </gpxtpx:TrackPointExtension>
        </extensions>
      </trkpt>
      <trkpt lat="44.22683" lon="4.48574">
        <ele>118.4</ele>
        <time>2024-10-17T16:20:37.327Z</time>
        <extensions>
          <gpxtpx:TrackPointExtension xmlns:gpxtpx="http://www.garmin.com/xmlschemas/TrackPointExtension/v1">
            <gpxtpx:hr>157</gpxtpx:hr>
          </gpxtpx:TrackPointExtension>
        </extensions>
      </trkpt>
      <trkpt lat="44.22684" lon="4.48576">
        <ele>118.4</ele>
        <time>2024-10-17T16:20:38.054Z</time>
        <extensions>
          <gpxtpx:TrackPointExtension xmlns:gpxtpx="http://www.garmin.com/xmlschemas/TrackPointExtension/v1">
            <gpxtpx:hr>157</gpxtpx:hr>
          </gpxtpx:TrackPointExtension>
        </extensions>
      </trkpt>
      <trkpt lat="44.22687" lon="4.48592">
        <ele>118.4</ele>
        <time>2024-10-17T16:20:42.988Z</time>
        <extensions>
          <gpxtpx:TrackPointExtension xmlns:gpxtpx="http://www.garmin.com/xmlschemas/TrackPointExtension/v1">
            <gpxtpx:hr>157</gpxtpx:hr>
          </gpxtpx:TrackPointExtension>
        </extensions>
      </trkpt>
      <trkpt lat="44.2269" lon="4.48596">
        <ele>118.6</ele>
        <time>2024-10-17T16:20:44.715Z</time>
        <extensions>
          <gpxtpx:TrackPointExtension xmlns:gpxtpx="http://www.garmin.com/xmlschemas/TrackPointExtension/v1">
            <gpxtpx:hr>157</gpxtpx:hr>
          </gpxtpx:TrackPointExtension>
        </extensions>
      </trkpt>
      <trkpt lat="44.22694" lon="4.48599">
        <ele>119</ele>
        <time>2024-10-17T16:20:46.605Z</time>
        <extensions>
          <gpxtpx:TrackPointExtension xmlns:gpxtpx="http://www.garmin.com/xmlschemas/TrackPointExtension/v1">
            <gpxtpx:hr>158</gpxtpx:hr>
          </gpxtpx:TrackPointExtension>
        </extensions>
      </trkpt>
      <trkpt lat="44.22697" lon="4.48599">
        <ele>119</ele>
        <time>2024-10-17T16:20:47.853Z</time>
        <extensions>
          <gpxtpx:TrackPointExtension xmlns:gpxtpx="http://www.garmin.com/xmlschemas/TrackPointExtension/v1">
            <gpxtpx:hr>158</gpxtpx:hr>
          </gpxtpx:TrackPointExtension>
        </extensions>
      </trkpt>
      <trkpt lat="44.22702" lon="4.48604">
        <ele>119.2</ele>
        <time>2024-10-17T16:20:50.413Z</time>
        <extensions>
          <gpxtpx:TrackPointExtension xmlns:gpxtpx="http://www.garmin.com/xmlschemas/TrackPointExtension/v1">
            <gpxtpx:hr>160</gpxtpx:hr>
          </gpxtpx:TrackPointExtension>
        </extensions>
      </trkpt>
      <trkpt lat="44.22702" lon="4.4861">
        <ele>119.4</ele>
        <time>2024-10-17T16:20:52.203Z</time>
        <extensions>
          <gpxtpx:TrackPointExtension xmlns:gpxtpx="http://www.garmin.com/xmlschemas/TrackPointExtension/v1">
            <gpxtpx:hr>159</gpxtpx:hr>
          </gpxtpx:TrackPointExtension>
        </extensions>
      </trkpt>
      <trkpt lat="44.22702" lon="4.48629">
        <ele>120.6</ele>
        <time>2024-10-17T16:20:57.871Z</time>
        <extensions>
          <gpxtpx:TrackPointExtension xmlns:gpxtpx="http://www.garmin.com/xmlschemas/TrackPointExtension/v1">
            <gpxtpx:hr>159</gpxtpx:hr>
          </gpxtpx:TrackPointExtension>
        </extensions>
      </trkpt>
      <trkpt lat="44.22701" lon="4.48632">
        <ele>120.6</ele>
        <time>2024-10-17T16:20:58.857Z</time>
        <extensions>
          <gpxtpx:TrackPointExtension xmlns:gpxtpx="http://www.garmin.com/xmlschemas/TrackPointExtension/v1">
            <gpxtpx:hr>161</gpxtpx:hr>
          </gpxtpx:TrackPointExtension>
        </extensions>
      </trkpt>
      <trkpt lat="44.22698" lon="4.48651">
        <ele>121</ele>
        <time>2024-10-17T16:21:04.661Z</time>
        <extensions>
          <gpxtpx:TrackPointExtension xmlns:gpxtpx="http://www.garmin.com/xmlschemas/TrackPointExtension/v1">
            <gpxtpx:hr>161</gpxtpx:hr>
          </gpxtpx:TrackPointExtension>
        </extensions>
      </trkpt>
      <trkpt lat="44.22704" lon="4.48703">
        <ele>122.5</ele>
        <time>2024-10-17T16:21:20.374Z</time>
      </trkpt>
      <trkpt lat="44.22705" lon="4.48709">
        <ele>122.9</ele>
        <time>2024-10-17T16:21:22.211Z</time>
      </trkpt>
      <trkpt lat="44.22709" lon="4.48766">
        <ele>123</ele>
        <time>2024-10-17T16:21:39.297Z</time>
      </trkpt>
      <trkpt lat="44.22723" lon="4.48784">
        <ele>125.3</ele>
        <time>2024-10-17T16:21:47.222Z</time>
      </trkpt>
      <trkpt lat="44.22732" lon="4.48796">
        <ele>124.7</ele>
        <time>2024-10-17T16:21:52.404Z</time>
      </trkpt>
      <trkpt lat="44.22738" lon="4.4879">
        <ele>126.6</ele>
        <time>2024-10-17T16:21:55.477Z</time>
      </trkpt>
      <trkpt lat="44.22749" lon="4.48791">
        <ele>128</ele>
        <time>2024-10-17T16:22:00.066Z</time>
      </trkpt>
      <trkpt lat="44.22765" lon="4.48806">
        <ele>126.7</ele>
        <time>2024-10-17T16:22:08.090Z</time>
      </trkpt>
      <trkpt lat="44.22778" lon="4.48818">
        <ele>126.2</ele>
        <time>2024-10-17T16:22:14.579Z</time>
      </trkpt>
      <trkpt lat="44.22774" lon="4.48841">
        <ele>125.4</ele>
        <time>2024-10-17T16:22:21.639Z</time>
      </trkpt>
      <trkpt lat="44.22761" lon="4.4885">
        <ele>125.9</ele>
        <time>2024-10-17T16:22:27.680Z</time>
      </trkpt>
      <trkpt lat="44.22752" lon="4.48858">
        <ele>125.9</ele>
        <time>2024-10-17T16:22:32.122Z</time>
      </trkpt>
      <trkpt lat="44.22715" lon="4.48877">
        <ele>126.1</ele>
        <time>2024-10-17T16:22:48.536Z</time>
      </trkpt>
      <trkpt lat="44.2271" lon="4.48906">
        <ele>129.8</ele>
        <time>2024-10-17T16:22:57.434Z</time>
      </trkpt>
      <trkpt lat="44.22706" lon="4.48938">
        <ele>133.1</ele>
        <time>2024-10-17T16:23:07.124Z</time>
      </trkpt>
      <trkpt lat="44.22692" lon="4.49004">
        <ele>138.2</ele>
        <time>2024-10-17T16:23:27.658Z</time>
      </trkpt>
      <trkpt lat="44.22678" lon="4.49024">
        <ele>139.4</ele>
        <time>2024-10-17T16:23:35.999Z</time>
      </trkpt>
      <trkpt lat="44.22657" lon="4.49031">
        <ele>140</ele>
        <time>2024-10-17T16:23:44.987Z</time>
      </trkpt>
      <trkpt lat="44.22646" lon="4.49023">
        <ele>140.3</ele>
        <time>2024-10-17T16:23:50.151Z</time>
      </trkpt>
      <trkpt lat="44.22639" lon="4.4901">
        <ele>140.4</ele>
        <time>2024-10-17T16:23:55.002Z</time>
      </trkpt>
      <trkpt lat="44.22639" lon="4.48961">
        <ele>141.3</ele>
        <time>2024-10-17T16:24:09.620Z</time>
      </trkpt>
      <trkpt lat="44.22629" lon="4.48938">
        <ele>143.3</ele>
        <time>2024-10-17T16:24:17.646Z</time>
      </trkpt>
      <trkpt lat="44.22597" lon="4.48907">
        <ele>147.3</ele>
        <time>2024-10-17T16:24:33.864Z</time>
      </trkpt>
      <trkpt lat="44.22573" lon="4.48895">
        <ele>150.6</ele>
        <time>2024-10-17T16:24:44.478Z</time>
      </trkpt>
      <trkpt lat="44.22571" lon="4.48888">
        <ele>150.7</ele>
        <time>2024-10-17T16:24:46.726Z</time>
      </trkpt>
      <trkpt lat="44.2257" lon="4.48885">
        <ele>150.8</ele>
        <time>2024-10-17T16:24:47.713Z</time>
      </trkpt>
      <trkpt lat="44.22529" lon="4.48845">
        <ele>157.5</ele>
        <time>2024-10-17T16:25:08.540Z</time>
      </trkpt>
      <trkpt lat="44.22512" lon="4.48842">
        <ele>159.4</ele>
        <time>2024-10-17T16:25:15.674Z</time>
      </trkpt>
      <trkpt lat="44.22478" lon="4.48849">
        <ele>162</ele>
        <time>2024-10-17T16:25:29.982Z</time>
      </trkpt>
      <trkpt lat="44.22469" lon="4.48851">
        <ele>162.5</ele>
        <time>2024-10-17T16:25:33.776Z</time>
      </trkpt>
      <trkpt lat="44.22461" lon="4.48853">
        <ele>162.8</ele>
        <time>2024-10-17T16:25:37.159Z</time>
      </trkpt>
      <trkpt lat="44.22462" lon="4.48833">
        <ele>163.8</ele>
        <time>2024-10-17T16:25:43.140Z</time>
      </trkpt>
      <trkpt lat="44.22463" lon="4.48806">
        <ele>165.3</ele>
        <time>2024-10-17T16:25:51.206Z</time>
      </trkpt>
      <trkpt lat="44.22464" lon="4.4879">
        <ele>166.5</ele>
        <time>2024-10-17T16:25:55.997Z</time>
      </trkpt>
      <trkpt lat="44.22463" lon="4.48777">
        <ele>167.7</ele>
        <time>2024-10-17T16:25:59.897Z</time>
      </trkpt>
      <trkpt lat="44.22465" lon="4.48774">
        <ele>167.7</ele>
        <time>2024-10-17T16:26:01.119Z</time>
      </trkpt>
      <trkpt lat="44.22488" lon="4.48774">
        <ele>165.5</ele>
        <time>2024-10-17T16:26:10.694Z</time>
      </trkpt>
      <trkpt lat="44.22497" lon="4.48773">
        <ele>164.5</ele>
        <time>2024-10-17T16:26:14.452Z</time>
      </trkpt>
      <trkpt lat="44.22497" lon="4.48752">
        <ele>165.3</ele>
        <time>2024-10-17T16:26:20.717Z</time>
      </trkpt>
      <trkpt lat="44.22498" lon="4.48749">
        <ele>165.2</ele>
        <time>2024-10-17T16:26:21.703Z</time>
      </trkpt>
      <trkpt lat="44.22518" lon="4.48689">
        <ele>164.1</ele>
        <time>2024-10-17T16:26:41.445Z</time>
      </trkpt>
      <trkpt lat="44.22525" lon="4.48654">
        <ele>163</ele>
        <time>2024-10-17T16:26:52.286Z</time>
      </trkpt>
      <trkpt lat="44.22524" lon="4.486">
        <ele>163.6</ele>
        <time>2024-10-17T16:27:08.402Z</time>
      </trkpt>
      <trkpt lat="44.2251" lon="4.48557">
        <ele>166.1</ele>
        <time>2024-10-17T16:27:22.492Z</time>
      </trkpt>
      <trkpt lat="44.22493" lon="4.48538">
        <ele>165.4</ele>
        <time>2024-10-17T16:27:31.559Z</time>
      </trkpt>
      <trkpt lat="44.22485" lon="4.48545">
        <ele>165.4</ele>
        <time>2024-10-17T16:27:35.490Z</time>
      </trkpt>
      <trkpt lat="44.22481" lon="4.48561">
        <ele>168.9</ele>
        <time>2024-10-17T16:27:40.545Z</time>
      </trkpt>
      <trkpt lat="44.22469" lon="4.48576">
        <ele>169</ele>
        <time>2024-10-17T16:27:47.252Z</time>
      </trkpt>
      <trkpt lat="44.22458" lon="4.48609">
        <ele>166.4</ele>
        <time>2024-10-17T16:27:58.110Z</time>
      </trkpt>
      <trkpt lat="44.22451" lon="4.48656">
        <ele>167.8</ele>
        <time>2024-10-17T16:28:12.432Z</time>
      </trkpt>
      <trkpt lat="44.22475" lon="4.48666">
        <ele>169.6</ele>
        <time>2024-10-17T16:28:22.859Z</time>
      </trkpt>
      <trkpt lat="44.22462" lon="4.48696">
        <ele>169.4</ele>
        <time>2024-10-17T16:28:33.318Z</time>
      </trkpt>
      <trkpt lat="44.22457" lon="4.4871">
        <ele>169.9</ele>
        <time>2024-10-17T16:28:37.984Z</time>
      </trkpt>
      <trkpt lat="44.22456" lon="4.4874">
        <ele>169.5</ele>
        <time>2024-10-17T16:28:46.944Z</time>
      </trkpt>
      <trkpt lat="44.22461" lon="4.48774">
        <ele>168</ele>
        <time>2024-10-17T16:28:57.299Z</time>
      </trkpt>
      <trkpt lat="44.22463" lon="4.48796">
        <ele>166.2</ele>
        <time>2024-10-17T16:29:03.915Z</time>
      </trkpt>
      <trkpt lat="44.22463" lon="4.489">
        <ele>160.7</ele>
        <time>2024-10-17T16:29:34.943Z</time>
      </trkpt>
      <trkpt lat="44.22469" lon="4.48934">
        <ele>160</ele>
        <time>2024-10-17T16:29:45.389Z</time>
      </trkpt>
      <trkpt lat="44.22473" lon="4.48958">
        <ele>159.5</ele>
        <time>2024-10-17T16:29:52.740Z</time>
      </trkpt>
      <trkpt lat="44.22463" lon="4.48983">
        <ele>158.6</ele>
        <time>2024-10-17T16:30:01.282Z</time>
      </trkpt>
      <trkpt lat="44.2245" lon="4.48984">
        <ele>158</ele>
        <time>2024-10-17T16:30:06.702Z</time>
      </trkpt>
      <trkpt lat="44.22427" lon="4.48979">
        <ele>156.2</ele>
        <time>2024-10-17T16:30:16.393Z</time>
      </trkpt>
      <trkpt lat="44.22406" lon="4.48988">
        <ele>157.5</ele>
        <time>2024-10-17T16:30:25.539Z</time>
      </trkpt>
      <trkpt lat="44.22364" lon="4.48984">
        <ele>152.3</ele>
        <time>2024-10-17T16:30:43.065Z</time>
      </trkpt>
      <trkpt lat="44.22337" lon="4.48968">
        <ele>149.9</ele>
        <time>2024-10-17T16:30:55.277Z</time>
      </trkpt>
      <trkpt lat="44.2229" lon="4.48957">
        <ele>147.9</ele>
        <time>2024-10-17T16:31:15.117Z</time>
      </trkpt>
      <trkpt lat="44.22258" lon="4.48947">
        <ele>148</ele>
        <time>2024-10-17T16:31:28.769Z</time>
      </trkpt>
      <trkpt lat="44.22249" lon="4.48953">
        <ele>149.3</ele>
        <time>2024-10-17T16:31:32.921Z</time>
      </trkpt>
      <trkpt lat="44.22217" lon="4.48969">
        <ele>152.3</ele>
        <time>2024-10-17T16:31:47.073Z</time>
      </trkpt>
      <trkpt lat="44.22145" lon="4.49021">
        <ele>156.6</ele>
        <time>2024-10-17T16:32:20.826Z</time>
      </trkpt>
      <trkpt lat="44.22104" lon="4.4905">
        <ele>157</ele>
        <time>2024-10-17T16:32:39.963Z</time>
      </trkpt>
      <trkpt lat="44.22069" lon="4.49082">
        <ele>153.5</ele>
        <time>2024-10-17T16:32:57.384Z</time>
      </trkpt>
      <trkpt lat="44.22067" lon="4.49088">
        <ele>152.7</ele>
        <time>2024-10-17T16:32:59.358Z</time>
      </trkpt>
      <trkpt lat="44.22063" lon="4.49121">
        <ele>148.5</ele>
        <time>2024-10-17T16:33:09.343Z</time>
      </trkpt>
      <trkpt lat="44.22067" lon="4.49216">
        <ele>142.9</ele>
        <time>2024-10-17T16:33:37.736Z</time>
      </trkpt>
      <trkpt lat="44.22067" lon="4.49287">
        <ele>139</ele>
        <time>2024-10-17T16:33:58.920Z</time>
      </trkpt>
      <trkpt lat="44.22077" lon="4.49342">
        <ele>140.5</ele>
        <time>2024-10-17T16:34:15.850Z</time>
      </trkpt>
      <trkpt lat="44.22074" lon="4.49343">
        <ele>140.9</ele>
        <time>2024-10-17T16:34:17.133Z</time>
      </trkpt>
      <trkpt lat="44.22034" lon="4.49299">
        <ele>142.8</ele>
        <time>2024-10-17T16:34:38.338Z</time>
      </trkpt>
      <trkpt lat="44.21993" lon="4.49258">
        <ele>148.9</ele>
        <time>2024-10-17T16:34:59.338Z</time>
      </trkpt>
      <trkpt lat="44.21939" lon="4.49246">
        <ele>154.2</ele>
        <time>2024-10-17T16:35:22.103Z</time>
      </trkpt>
      <trkpt lat="44.21909" lon="4.49248">
        <ele>155.8</ele>
        <time>2024-10-17T16:35:34.607Z</time>
      </trkpt>
      <trkpt lat="44.21881" lon="4.49259">
        <ele>156.2</ele>
        <time>2024-10-17T16:35:46.717Z</time>
      </trkpt>
      <trkpt lat="44.2185" lon="4.49273">
        <ele>154.9</ele>
        <time>2024-10-17T16:36:00.282Z</time>
      </trkpt>
      <trkpt lat="44.21813" lon="4.49297">
        <ele>157</ele>
        <time>2024-10-17T16:36:17.269Z</time>
      </trkpt>
      <trkpt lat="44.21816" lon="4.49298">
        <ele>157.8</ele>
        <time>2024-10-17T16:36:18.553Z</time>
      </trkpt>
      <trkpt lat="44.21861" lon="4.49296">
        <ele>161.4</ele>
        <time>2024-10-17T16:36:37.297Z</time>
      </trkpt>
      <trkpt lat="44.21878" lon="4.49312">
        <ele>166.4</ele>
        <time>2024-10-17T16:36:45.834Z</time>
      </trkpt>
      <trkpt lat="44.21898" lon="4.49334">
        <ele>171.3</ele>
        <time>2024-10-17T16:36:56.437Z</time>
      </trkpt>
      <trkpt lat="44.21915" lon="4.49387">
        <ele>180.8</ele>
        <time>2024-10-17T16:37:13.762Z</time>
      </trkpt>
      <trkpt lat="44.21889" lon="4.49393">
        <ele>184.8</ele>
        <time>2024-10-17T16:37:24.733Z</time>
      </trkpt>
      <trkpt lat="44.21861" lon="4.49429">
        <ele>193.2</ele>
        <time>2024-10-17T16:37:40.584Z</time>
      </trkpt>
      <trkpt lat="44.2185" lon="4.49481">
        <ele>197.1</ele>
        <time>2024-10-17T16:37:56.761Z</time>
      </trkpt>
      <trkpt lat="44.21864" lon="4.49529">
        <ele>202.2</ele>
        <time>2024-10-17T16:38:12.223Z</time>
      </trkpt>
      <trkpt lat="44.21894" lon="4.49628">
        <ele>215.6</ele>
        <time>2024-10-17T16:38:44.294Z</time>
      </trkpt>
      <trkpt lat="44.21888" lon="4.4968">
        <ele>218.6</ele>
        <time>2024-10-17T16:39:00.009Z</time>
      </trkpt>
      <trkpt lat="44.21897" lon="4.49756">
        <ele>228</ele>
        <time>2024-10-17T16:39:22.993Z</time>
      </trkpt>
      <trkpt lat="44.21866" lon="4.4982">
        <ele>236.4</ele>
        <time>2024-10-17T16:39:46.041Z</time>
      </trkpt>
      <trkpt lat="44.21862" lon="4.49832">
        <ele>237.9</ele>
        <time>2024-10-17T16:39:49.989Z</time>
      </trkpt>
      <trkpt lat="44.21833" lon="4.49842">
        <ele>235.5</ele>
        <time>2024-10-17T16:40:02.425Z</time>
      </trkpt>
      <trkpt lat="44.21801" lon="4.49875">
        <ele>232</ele>
        <time>2024-10-17T16:40:18.991Z</time>
      </trkpt>
      <trkpt lat="44.21772" lon="4.49912">
        <ele>229.3</ele>
        <time>2024-10-17T16:40:35.351Z</time>
      </trkpt>
      <trkpt lat="44.21758" lon="4.49934">
        <ele>228.3</ele>
        <time>2024-10-17T16:40:44.129Z</time>
      </trkpt>
      <trkpt lat="44.21746" lon="4.49964">
        <ele>227.7</ele>
        <time>2024-10-17T16:40:54.380Z</time>
      </trkpt>
      <trkpt lat="44.2174" lon="4.49984">
        <ele>226.3</ele>
        <time>2024-10-17T16:41:00.849Z</time>
      </trkpt>
      <trkpt lat="44.21722" lon="4.50006">
        <ele>222.6</ele>
        <time>2024-10-17T16:41:10.811Z</time>
      </trkpt>
      <trkpt lat="44.21705" lon="4.5002">
        <ele>216.9</ele>
        <time>2024-10-17T16:41:19.029Z</time>
      </trkpt>
      <trkpt lat="44.21694" lon="4.50054">
        <ele>214.8</ele>
        <time>2024-10-17T16:41:30.160Z</time>
      </trkpt>
      <trkpt lat="44.21677" lon="4.50088">
        <ele>210.1</ele>
        <time>2024-10-17T16:41:42.530Z</time>
      </trkpt>
      <trkpt lat="44.21673" lon="4.5011">
        <ele>208.9</ele>
        <time>2024-10-17T16:41:49.302Z</time>
      </trkpt>
      <trkpt lat="44.21691" lon="4.50124">
        <ele>210.1</ele>
        <time>2024-10-17T16:41:57.881Z</time>
      </trkpt>
      <trkpt lat="44.21712" lon="4.50134">
        <ele>210.1</ele>
        <time>2024-10-17T16:42:07.119Z</time>
      </trkpt>
      <trkpt lat="44.21715" lon="4.50145">
        <ele>208.7</ele>
        <time>2024-10-17T16:42:10.630Z</time>
      </trkpt>
      <trkpt lat="44.21688" lon="4.50214">
        <ele>196.3</ele>
        <time>2024-10-17T16:42:34.087Z</time>
      </trkpt>
      <trkpt lat="44.21665" lon="4.50289">
        <ele>188.4</ele>
        <time>2024-10-17T16:42:58.428Z</time>
      </trkpt>
      <trkpt lat="44.21646" lon="4.50293">
        <ele>187.8</ele>
        <time>2024-10-17T16:43:06.427Z</time>
      </trkpt>
      <trkpt lat="44.21625" lon="4.5029">
        <ele>185.7</ele>
        <time>2024-10-17T16:43:15.215Z</time>
      </trkpt>
      <trkpt lat="44.21601" lon="4.50273">
        <ele>182.7</ele>
        <time>2024-10-17T16:43:26.420Z</time>
      </trkpt>
      <trkpt lat="44.21571" lon="4.50237">
        <ele>177.8</ele>
        <time>2024-10-17T16:43:42.894Z</time>
      </trkpt>
      <trkpt lat="44.21567" lon="4.50199">
        <ele>177.5</ele>
        <time>2024-10-17T16:43:54.354Z</time>
      </trkpt>
      <trkpt lat="44.21559" lon="4.50175">
        <ele>174.3</ele>
        <time>2024-10-17T16:44:02.252Z</time>
      </trkpt>
      <trkpt lat="44.21548" lon="4.50168">
        <ele>171.7</ele>
        <time>2024-10-17T16:44:07.285Z</time>
      </trkpt>
      <trkpt lat="44.21527" lon="4.50174">
        <ele>168.1</ele>
        <time>2024-10-17T16:44:16.209Z</time>
      </trkpt>
      <trkpt lat="44.21521" lon="4.50171">
        <ele>166.5</ele>
        <time>2024-10-17T16:44:18.862Z</time>
      </trkpt>
      <trkpt lat="44.21532" lon="4.50125">
        <ele>162</ele>
        <time>2024-10-17T16:44:33.332Z</time>
      </trkpt>
      <trkpt lat="44.21533" lon="4.50082">
        <ele>157.4</ele>
        <time>2024-10-17T16:44:46.169Z</time>
      </trkpt>
      <trkpt lat="44.2154" lon="4.50041">
        <ele>154.1</ele>
        <time>2024-10-17T16:44:58.745Z</time>
      </trkpt>
      <trkpt lat="44.21538" lon="4.50036">
        <ele>158.6</ele>
        <time>2024-10-17T16:45:00.453Z</time>
        <extensions>
          <gpxtpx:TrackPointExtension xmlns:gpxtpx="http://www.garmin.com/xmlschemas/TrackPointExtension/v1">
            <gpxtpx:hr>153</gpxtpx:hr>
          </gpxtpx:TrackPointExtension>
        </extensions>
      </trkpt>
      <trkpt lat="44.21536" lon="4.50035">
        <ele>158.4</ele>
        <time>2024-10-17T16:45:01.337Z</time>
        <extensions>
          <gpxtpx:TrackPointExtension xmlns:gpxtpx="http://www.garmin.com/xmlschemas/TrackPointExtension/v1">
            <gpxtpx:hr>154</gpxtpx:hr>
          </gpxtpx:TrackPointExtension>
        </extensions>
      </trkpt>
      <trkpt lat="44.21531" lon="4.50035">
        <ele>157.4</ele>
        <time>2024-10-17T16:45:03.418Z</time>
        <extensions>
          <gpxtpx:TrackPointExtension xmlns:gpxtpx="http://www.garmin.com/xmlschemas/TrackPointExtension/v1">
            <gpxtpx:hr>154</gpxtpx:hr>
          </gpxtpx:TrackPointExtension>
        </extensions>
      </trkpt>
      <trkpt lat="44.21529" lon="4.50037">
        <ele>155.8</ele>
        <time>2024-10-17T16:45:04.442Z</time>
        <extensions>
          <gpxtpx:TrackPointExtension xmlns:gpxtpx="http://www.garmin.com/xmlschemas/TrackPointExtension/v1">
            <gpxtpx:hr>153</gpxtpx:hr>
          </gpxtpx:TrackPointExtension>
        </extensions>
      </trkpt>
      <trkpt lat="44.21528" lon="4.50038">
        <ele>155.4</ele>
        <time>2024-10-17T16:45:04.954Z</time>
        <extensions>
          <gpxtpx:TrackPointExtension xmlns:gpxtpx="http://www.garmin.com/xmlschemas/TrackPointExtension/v1">
            <gpxtpx:hr>150</gpxtpx:hr>
          </gpxtpx:TrackPointExtension>
        </extensions>
      </trkpt>
      <trkpt lat="44.21528" lon="4.5004">
        <ele>155</ele>
        <time>2024-10-17T16:45:05.550Z</time>
        <extensions>
          <gpxtpx:TrackPointExtension xmlns:gpxtpx="http://www.garmin.com/xmlschemas/TrackPointExtension/v1">
            <gpxtpx:hr>150</gpxtpx:hr>
          </gpxtpx:TrackPointExtension>
        </extensions>
      </trkpt>
      <trkpt lat="44.21526" lon="4.50039">
        <ele>154.8</ele>
        <time>2024-10-17T16:45:06.434Z</time>
        <extensions>
          <gpxtpx:TrackPointExtension xmlns:gpxtpx="http://www.garmin.com/xmlschemas/TrackPointExtension/v1">
            <gpxtpx:hr>150</gpxtpx:hr>
          </gpxtpx:TrackPointExtension>
        </extensions>
      </trkpt>
      <trkpt lat="44.21525" lon="4.50038">
        <ele>154.8</ele>
        <time>2024-10-17T16:45:06.945Z</time>
        <extensions>
          <gpxtpx:TrackPointExtension xmlns:gpxtpx="http://www.garmin.com/xmlschemas/TrackPointExtension/v1">
            <gpxtpx:hr>149</gpxtpx:hr>
          </gpxtpx:TrackPointExtension>
        </extensions>
      </trkpt>
      <trkpt lat="44.21524" lon="4.50035">
        <ele>153.8</ele>
        <time>2024-10-17T16:45:07.931Z</time>
        <extensions>
          <gpxtpx:TrackPointExtension xmlns:gpxtpx="http://www.garmin.com/xmlschemas/TrackPointExtension/v1">
            <gpxtpx:hr>150</gpxtpx:hr>
          </gpxtpx:TrackPointExtension>
        </extensions>
      </trkpt>
      <trkpt lat="44.21522" lon="4.50032">
        <ele>152.4</ele>
        <time>2024-10-17T16:45:09.153Z</time>
        <extensions>
          <gpxtpx:TrackPointExtension xmlns:gpxtpx="http://www.garmin.com/xmlschemas/TrackPointExtension/v1">
            <gpxtpx:hr>149</gpxtpx:hr>
          </gpxtpx:TrackPointExtension>
        </extensions>
      </trkpt>
      <trkpt lat="44.21516" lon="4.50026">
        <ele>151.2</ele>
        <time>2024-10-17T16:45:12.226Z</time>
        <extensions>
          <gpxtpx:TrackPointExtension xmlns:gpxtpx="http://www.garmin.com/xmlschemas/TrackPointExtension/v1">
            <gpxtpx:hr>148</gpxtpx:hr>
          </gpxtpx:TrackPointExtension>
        </extensions>
      </trkpt>
      <trkpt lat="44.21511" lon="4.50025">
        <ele>150</ele>
        <time>2024-10-17T16:45:14.328Z</time>
        <extensions>
          <gpxtpx:TrackPointExtension xmlns:gpxtpx="http://www.garmin.com/xmlschemas/TrackPointExtension/v1">
            <gpxtpx:hr>147</gpxtpx:hr>
          </gpxtpx:TrackPointExtension>
        </extensions>
      </trkpt>
      <trkpt lat="44.21509" lon="4.50024">
        <ele>149.6</ele>
        <time>2024-10-17T16:45:15.213Z</time>
        <extensions>
          <gpxtpx:TrackPointExtension xmlns:gpxtpx="http://www.garmin.com/xmlschemas/TrackPointExtension/v1">
            <gpxtpx:hr>147</gpxtpx:hr>
          </gpxtpx:TrackPointExtension>
        </extensions>
      </trkpt>
      <trkpt lat="44.21507" lon="4.50023">
        <ele>149</ele>
        <time>2024-10-17T16:45:16.097Z</time>
        <extensions>
          <gpxtpx:TrackPointExtension xmlns:gpxtpx="http://www.garmin.com/xmlschemas/TrackPointExtension/v1">
            <gpxtpx:hr>146</gpxtpx:hr>
          </gpxtpx:TrackPointExtension>
        </extensions>
      </trkpt>
      <trkpt lat="44.21501" lon="4.50024">
        <ele>147.8</ele>
        <time>2024-10-17T16:45:18.612Z</time>
        <extensions>
          <gpxtpx:TrackPointExtension xmlns:gpxtpx="http://www.garmin.com/xmlschemas/TrackPointExtension/v1">
            <gpxtpx:hr>145</gpxtpx:hr>
          </gpxtpx:TrackPointExtension>
        </extensions>
      </trkpt>
      <trkpt lat="44.21498" lon="4.50023">
        <ele>147.4</ele>
        <time>2024-10-17T16:45:19.896Z</time>
        <extensions>
          <gpxtpx:TrackPointExtension xmlns:gpxtpx="http://www.garmin.com/xmlschemas/TrackPointExtension/v1">
            <gpxtpx:hr>148</gpxtpx:hr>
          </gpxtpx:TrackPointExtension>
        </extensions>
      </trkpt>
      <trkpt lat="44.21497" lon="4.50021">
        <ele>146.6</ele>
        <time>2024-10-17T16:45:20.624Z</time>
        <extensions>
          <gpxtpx:TrackPointExtension xmlns:gpxtpx="http://www.garmin.com/xmlschemas/TrackPointExtension/v1">
            <gpxtpx:hr>147</gpxtpx:hr>
          </gpxtpx:TrackPointExtension>
        </extensions>
      </trkpt>
      <trkpt lat="44.21493" lon="4.50019">
        <ele>145.6</ele>
        <time>2024-10-17T16:45:22.393Z</time>
        <extensions>
          <gpxtpx:TrackPointExtension xmlns:gpxtpx="http://www.garmin.com/xmlschemas/TrackPointExtension/v1">
            <gpxtpx:hr>145</gpxtpx:hr>
          </gpxtpx:TrackPointExtension>
        </extensions>
      </trkpt>
      <trkpt lat="44.21489" lon="4.50018">
        <ele>144.8</ele>
        <time>2024-10-17T16:45:24.085Z</time>
        <extensions>
          <gpxtpx:TrackPointExtension xmlns:gpxtpx="http://www.garmin.com/xmlschemas/TrackPointExtension/v1">
            <gpxtpx:hr>146</gpxtpx:hr>
          </gpxtpx:TrackPointExtension>
        </extensions>
      </trkpt>
      <trkpt lat="44.21488" lon="4.50019">
        <ele>143.6</ele>
        <time>2024-10-17T16:45:24.597Z</time>
        <extensions>
          <gpxtpx:TrackPointExtension xmlns:gpxtpx="http://www.garmin.com/xmlschemas/TrackPointExtension/v1">
            <gpxtpx:hr>147</gpxtpx:hr>
          </gpxtpx:TrackPointExtension>
        </extensions>
      </trkpt>
      <trkpt lat="44.21486" lon="4.50021">
        <ele>143</ele>
        <time>2024-10-17T16:45:25.621Z</time>
        <extensions>
          <gpxtpx:TrackPointExtension xmlns:gpxtpx="http://www.garmin.com/xmlschemas/TrackPointExtension/v1">
            <gpxtpx:hr>149</gpxtpx:hr>
          </gpxtpx:TrackPointExtension>
        </extensions>
      </trkpt>
      <trkpt lat="44.21484" lon="4.50022">
        <ele>142.4</ele>
        <time>2024-10-17T16:45:26.505Z</time>
        <extensions>
          <gpxtpx:TrackPointExtension xmlns:gpxtpx="http://www.garmin.com/xmlschemas/TrackPointExtension/v1">
            <gpxtpx:hr>152</gpxtpx:hr>
          </gpxtpx:TrackPointExtension>
        </extensions>
      </trkpt>
      <trkpt lat="44.2148" lon="4.50022">
        <ele>141.4</ele>
        <time>2024-10-17T16:45:28.170Z</time>
        <extensions>
          <gpxtpx:TrackPointExtension xmlns:gpxtpx="http://www.garmin.com/xmlschemas/TrackPointExtension/v1">
            <gpxtpx:hr>149</gpxtpx:hr>
          </gpxtpx:TrackPointExtension>
        </extensions>
      </trkpt>
      <trkpt lat="44.21479" lon="4.50022">
        <ele>141.2</ele>
        <time>2024-10-17T16:45:28.587Z</time>
        <extensions>
          <gpxtpx:TrackPointExtension xmlns:gpxtpx="http://www.garmin.com/xmlschemas/TrackPointExtension/v1">
            <gpxtpx:hr>149</gpxtpx:hr>
          </gpxtpx:TrackPointExtension>
        </extensions>
      </trkpt>
      <trkpt lat="44.21475" lon="4.50024">
        <ele>140.4</ele>
        <time>2024-10-17T16:45:30.356Z</time>
        <extensions>
          <gpxtpx:TrackPointExtension xmlns:gpxtpx="http://www.garmin.com/xmlschemas/TrackPointExtension/v1">
            <gpxtpx:hr>146</gpxtpx:hr>
          </gpxtpx:TrackPointExtension>
        </extensions>
      </trkpt>
      <trkpt lat="44.21473" lon="4.50024">
        <ele>140.2</ele>
        <time>2024-10-17T16:45:31.188Z</time>
        <extensions>
          <gpxtpx:TrackPointExtension xmlns:gpxtpx="http://www.garmin.com/xmlschemas/TrackPointExtension/v1">
            <gpxtpx:hr>146</gpxtpx:hr>
          </gpxtpx:TrackPointExtension>
        </extensions>
      </trkpt>
      <trkpt lat="44.21469" lon="4.50021">
        <ele>139.6</ele>
        <time>2024-10-17T16:45:33.078Z</time>
        <extensions>
          <gpxtpx:TrackPointExtension xmlns:gpxtpx="http://www.garmin.com/xmlschemas/TrackPointExtension/v1">
            <gpxtpx:hr>144</gpxtpx:hr>
          </gpxtpx:TrackPointExtension>
        </extensions>
      </trkpt>
      <trkpt lat="44.21465" lon="4.50019">
        <ele>139</ele>
        <time>2024-10-17T16:45:34.847Z</time>
        <extensions>
          <gpxtpx:TrackPointExtension xmlns:gpxtpx="http://www.garmin.com/xmlschemas/TrackPointExtension/v1">
            <gpxtpx:hr>144</gpxtpx:hr>
          </gpxtpx:TrackPointExtension>
        </extensions>
      </trkpt>
      <trkpt lat="44.21458" lon="4.50017">
        <ele>137.4</ele>
        <time>2024-10-17T16:45:37.821Z</time>
        <extensions>
          <gpxtpx:TrackPointExtension xmlns:gpxtpx="http://www.garmin.com/xmlschemas/TrackPointExtension/v1">
            <gpxtpx:hr>144</gpxtpx:hr>
          </gpxtpx:TrackPointExtension>
        </extensions>
      </trkpt>
      <trkpt lat="44.21456" lon="4.50016">
        <ele>136.6</ele>
        <time>2024-10-17T16:45:38.705Z</time>
        <extensions>
          <gpxtpx:TrackPointExtension xmlns:gpxtpx="http://www.garmin.com/xmlschemas/TrackPointExtension/v1">
            <gpxtpx:hr>143</gpxtpx:hr>
          </gpxtpx:TrackPointExtension>
        </extensions>
      </trkpt>
      <trkpt lat="44.21455" lon="4.50015">
        <ele>136.2</ele>
        <time>2024-10-17T16:45:39.217Z</time>
        <extensions>
          <gpxtpx:TrackPointExtension xmlns:gpxtpx="http://www.garmin.com/xmlschemas/TrackPointExtension/v1">
            <gpxtpx:hr>144</gpxtpx:hr>
          </gpxtpx:TrackPointExtension>
        </extensions>
      </trkpt>
      <trkpt lat="44.2145" lon="4.50014">
        <ele>135.2</ele>
        <time>2024-10-17T16:45:41.319Z</time>
        <extensions>
          <gpxtpx:TrackPointExtension xmlns:gpxtpx="http://www.garmin.com/xmlschemas/TrackPointExtension/v1">
            <gpxtpx:hr>142</gpxtpx:hr>
          </gpxtpx:TrackPointExtension>
        </extensions>
      </trkpt>
      <trkpt lat="44.21446" lon="4.50012">
        <ele>134.4</ele>
        <time>2024-10-17T16:45:43.088Z</time>
        <extensions>
          <gpxtpx:TrackPointExtension xmlns:gpxtpx="http://www.garmin.com/xmlschemas/TrackPointExtension/v1">
            <gpxtpx:hr>147</gpxtpx:hr>
          </gpxtpx:TrackPointExtension>
        </extensions>
      </trkpt>
      <trkpt lat="44.21444" lon="4.50011">
        <ele>134.2</ele>
        <time>2024-10-17T16:45:43.971Z</time>
        <extensions>
          <gpxtpx:TrackPointExtension xmlns:gpxtpx="http://www.garmin.com/xmlschemas/TrackPointExtension/v1">
            <gpxtpx:hr>147</gpxtpx:hr>
          </gpxtpx:TrackPointExtension>
        </extensions>
      </trkpt>
      <trkpt lat="44.21443" lon="4.50011">
        <ele>134</ele>
        <time>2024-10-17T16:45:44.388Z</time>
        <extensions>
          <gpxtpx:TrackPointExtension xmlns:gpxtpx="http://www.garmin.com/xmlschemas/TrackPointExtension/v1">
            <gpxtpx:hr>146</gpxtpx:hr>
          </gpxtpx:TrackPointExtension>
        </extensions>
      </trkpt>
      <trkpt lat="44.21435" lon="4.50009">
        <ele>133</ele>
        <time>2024-10-17T16:45:47.771Z</time>
        <extensions>
          <gpxtpx:TrackPointExtension xmlns:gpxtpx="http://www.garmin.com/xmlschemas/TrackPointExtension/v1">
            <gpxtpx:hr>148</gpxtpx:hr>
          </gpxtpx:TrackPointExtension>
        </extensions>
      </trkpt>
      <trkpt lat="44.21433" lon="4.50008">
        <ele>132.6</ele>
        <time>2024-10-17T16:45:48.655Z</time>
        <extensions>
          <gpxtpx:TrackPointExtension xmlns:gpxtpx="http://www.garmin.com/xmlschemas/TrackPointExtension/v1">
            <gpxtpx:hr>150</gpxtpx:hr>
          </gpxtpx:TrackPointExtension>
        </extensions>
      </trkpt>
      <trkpt lat="44.21419" lon="4.50002">
        <ele>132</ele>
        <time>2024-10-17T16:45:54.752Z</time>
        <extensions>
          <gpxtpx:TrackPointExtension xmlns:gpxtpx="http://www.garmin.com/xmlschemas/TrackPointExtension/v1">
            <gpxtpx:hr>151</gpxtpx:hr>
          </gpxtpx:TrackPointExtension>
        </extensions>
      </trkpt>
      <trkpt lat="44.21414" lon="4.5">
        <ele>132</ele>
        <time>2024-10-17T16:45:56.917Z</time>
        <extensions>
          <gpxtpx:TrackPointExtension xmlns:gpxtpx="http://www.garmin.com/xmlschemas/TrackPointExtension/v1">
            <gpxtpx:hr>150</gpxtpx:hr>
          </gpxtpx:TrackPointExtension>
        </extensions>
      </trkpt>
      <trkpt lat="44.21411" lon="4.49999">
        <ele>131.8</ele>
        <time>2024-10-17T16:45:58.201Z</time>
        <extensions>
          <gpxtpx:TrackPointExtension xmlns:gpxtpx="http://www.garmin.com/xmlschemas/TrackPointExtension/v1">
            <gpxtpx:hr>151</gpxtpx:hr>
          </gpxtpx:TrackPointExtension>
        </extensions>
      </trkpt>
      <trkpt lat="44.21398" lon="4.50001">
        <ele>131</ele>
        <time>2024-10-17T16:46:03.646Z</time>
        <extensions>
          <gpxtpx:TrackPointExtension xmlns:gpxtpx="http://www.garmin.com/xmlschemas/TrackPointExtension/v1">
            <gpxtpx:hr>152</gpxtpx:hr>
          </gpxtpx:TrackPointExtension>
        </extensions>
      </trkpt>
      <trkpt lat="44.21396" lon="4.50003">
        <ele>130.8</ele>
        <time>2024-10-17T16:46:04.670Z</time>
        <extensions>
          <gpxtpx:TrackPointExtension xmlns:gpxtpx="http://www.garmin.com/xmlschemas/TrackPointExtension/v1">
            <gpxtpx:hr>152</gpxtpx:hr>
          </gpxtpx:TrackPointExtension>
        </extensions>
      </trkpt>
      <trkpt lat="44.21391" lon="4.50009">
        <ele>129.6</ele>
        <time>2024-10-17T16:46:07.415Z</time>
        <extensions>
          <gpxtpx:TrackPointExtension xmlns:gpxtpx="http://www.garmin.com/xmlschemas/TrackPointExtension/v1">
            <gpxtpx:hr>151</gpxtpx:hr>
          </gpxtpx:TrackPointExtension>
        </extensions>
      </trkpt>
      <trkpt lat="44.21391" lon="4.50012">
        <ele>129.4</ele>
        <time>2024-10-17T16:46:08.310Z</time>
        <extensions>
          <gpxtpx:TrackPointExtension xmlns:gpxtpx="http://www.garmin.com/xmlschemas/TrackPointExtension/v1">
            <gpxtpx:hr>150</gpxtpx:hr>
          </gpxtpx:TrackPointExtension>
        </extensions>
      </trkpt>
      <trkpt lat="44.2139" lon="4.50019">
        <ele>128.2</ele>
        <time>2024-10-17T16:46:10.440Z</time>
        <extensions>
          <gpxtpx:TrackPointExtension xmlns:gpxtpx="http://www.garmin.com/xmlschemas/TrackPointExtension/v1">
            <gpxtpx:hr>147</gpxtpx:hr>
          </gpxtpx:TrackPointExtension>
        </extensions>
      </trkpt>
      <trkpt lat="44.2139" lon="4.50025">
        <ele>126.6</ele>
        <time>2024-10-17T16:46:12.230Z</time>
        <extensions>
          <gpxtpx:TrackPointExtension xmlns:gpxtpx="http://www.garmin.com/xmlschemas/TrackPointExtension/v1">
            <gpxtpx:hr>146</gpxtpx:hr>
          </gpxtpx:TrackPointExtension>
        </extensions>
      </trkpt>
      <trkpt lat="44.21392" lon="4.50031">
        <ele>125.8</ele>
        <time>2024-10-17T16:46:14.204Z</time>
        <extensions>
          <gpxtpx:TrackPointExtension xmlns:gpxtpx="http://www.garmin.com/xmlschemas/TrackPointExtension/v1">
            <gpxtpx:hr>145</gpxtpx:hr>
          </gpxtpx:TrackPointExtension>
        </extensions>
      </trkpt>
      <trkpt lat="44.21393" lon="4.50033">
        <ele>125.4</ele>
        <time>2024-10-17T16:46:14.931Z</time>
        <extensions>
          <gpxtpx:TrackPointExtension xmlns:gpxtpx="http://www.garmin.com/xmlschemas/TrackPointExtension/v1">
            <gpxtpx:hr>145</gpxtpx:hr>
          </gpxtpx:TrackPointExtension>
        </extensions>
      </trkpt>
      <trkpt lat="44.21394" lon="4.50036">
        <ele>124</ele>
        <time>2024-10-17T16:46:15.917Z</time>
        <extensions>
          <gpxtpx:TrackPointExtension xmlns:gpxtpx="http://www.garmin.com/xmlschemas/TrackPointExtension/v1">
            <gpxtpx:hr>145</gpxtpx:hr>
          </gpxtpx:TrackPointExtension>
        </extensions>
      </trkpt>
      <trkpt lat="44.21392" lon="4.5004">
        <ele>122.8</ele>
        <time>2024-10-17T16:46:17.373Z</time>
        <extensions>
          <gpxtpx:TrackPointExtension xmlns:gpxtpx="http://www.garmin.com/xmlschemas/TrackPointExtension/v1">
            <gpxtpx:hr>145</gpxtpx:hr>
          </gpxtpx:TrackPointExtension>
        </extensions>
      </trkpt>
      <trkpt lat="44.21382" lon="4.50045">
        <ele>121.8</ele>
        <time>2024-10-17T16:46:21.795Z</time>
        <extensions>
          <gpxtpx:TrackPointExtension xmlns:gpxtpx="http://www.garmin.com/xmlschemas/TrackPointExtension/v1">
            <gpxtpx:hr>146</gpxtpx:hr>
          </gpxtpx:TrackPointExtension>
        </extensions>
      </trkpt>
      <trkpt lat="44.2138" lon="4.50046">
        <ele>121.4</ele>
        <time>2024-10-17T16:46:22.678Z</time>
        <extensions>
          <gpxtpx:TrackPointExtension xmlns:gpxtpx="http://www.garmin.com/xmlschemas/TrackPointExtension/v1">
            <gpxtpx:hr>146</gpxtpx:hr>
          </gpxtpx:TrackPointExtension>
        </extensions>
      </trkpt>
      <trkpt lat="44.21379" lon="4.5005">
        <ele>120.6</ele>
        <time>2024-10-17T16:46:23.942Z</time>
        <extensions>
          <gpxtpx:TrackPointExtension xmlns:gpxtpx="http://www.garmin.com/xmlschemas/TrackPointExtension/v1">
            <gpxtpx:hr>145</gpxtpx:hr>
          </gpxtpx:TrackPointExtension>
        </extensions>
      </trkpt>
      <trkpt lat="44.21378" lon="4.50051">
        <ele>120.4</ele>
        <time>2024-10-17T16:46:24.452Z</time>
        <extensions>
          <gpxtpx:TrackPointExtension xmlns:gpxtpx="http://www.garmin.com/xmlschemas/TrackPointExtension/v1">
            <gpxtpx:hr>144</gpxtpx:hr>
          </gpxtpx:TrackPointExtension>
        </extensions>
      </trkpt>
      <trkpt lat="44.21378" lon="4.50052">
        <ele>120.4</ele>
        <time>2024-10-17T16:46:24.749Z</time>
        <extensions>
          <gpxtpx:TrackPointExtension xmlns:gpxtpx="http://www.garmin.com/xmlschemas/TrackPointExtension/v1">
            <gpxtpx:hr>144</gpxtpx:hr>
          </gpxtpx:TrackPointExtension>
        </extensions>
      </trkpt>
      <trkpt lat="44.21374" lon="4.50052">
        <ele>119.4</ele>
        <time>2024-10-17T16:46:26.414Z</time>
        <extensions>
          <gpxtpx:TrackPointExtension xmlns:gpxtpx="http://www.garmin.com/xmlschemas/TrackPointExtension/v1">
            <gpxtpx:hr>143</gpxtpx:hr>
          </gpxtpx:TrackPointExtension>
        </extensions>
      </trkpt>
      <trkpt lat="44.21372" lon="4.50051">
        <ele>119</ele>
        <time>2024-10-17T16:46:27.299Z</time>
        <extensions>
          <gpxtpx:TrackPointExtension xmlns:gpxtpx="http://www.garmin.com/xmlschemas/TrackPointExtension/v1">
            <gpxtpx:hr>143</gpxtpx:hr>
          </gpxtpx:TrackPointExtension>
        </extensions>
      </trkpt>
      <trkpt lat="44.21366" lon="4.5005">
        <ele>118.4</ele>
        <time>2024-10-17T16:46:29.814Z</time>
        <extensions>
          <gpxtpx:TrackPointExtension xmlns:gpxtpx="http://www.garmin.com/xmlschemas/TrackPointExtension/v1">
            <gpxtpx:hr>144</gpxtpx:hr>
          </gpxtpx:TrackPointExtension>
        </extensions>
      </trkpt>
      <trkpt lat="44.21356" lon="4.50049">
        <ele>117</ele>
        <time>2024-10-17T16:46:33.987Z</time>
        <extensions>
          <gpxtpx:TrackPointExtension xmlns:gpxtpx="http://www.garmin.com/xmlschemas/TrackPointExtension/v1">
            <gpxtpx:hr>144</gpxtpx:hr>
          </gpxtpx:TrackPointExtension>
        </extensions>
      </trkpt>
      <trkpt lat="44.21348" lon="4.50049">
        <ele>115.6</ele>
        <time>2024-10-17T16:46:37.317Z</time>
        <extensions>
          <gpxtpx:TrackPointExtension xmlns:gpxtpx="http://www.garmin.com/xmlschemas/TrackPointExtension/v1">
            <gpxtpx:hr>143</gpxtpx:hr>
          </gpxtpx:TrackPointExtension>
        </extensions>
      </trkpt>
      <trkpt lat="44.2134" lon="4.50049">
        <ele>114.6</ele>
        <time>2024-10-17T16:46:40.647Z</time>
        <extensions>
          <gpxtpx:TrackPointExtension xmlns:gpxtpx="http://www.garmin.com/xmlschemas/TrackPointExtension/v1">
            <gpxtpx:hr>144</gpxtpx:hr>
          </gpxtpx:TrackPointExtension>
        </extensions>
      </trkpt>
      <trkpt lat="44.21339" lon="4.50051">
        <ele>114.2</ele>
        <time>2024-10-17T16:46:41.373Z</time>
        <extensions>
          <gpxtpx:TrackPointExtension xmlns:gpxtpx="http://www.garmin.com/xmlschemas/TrackPointExtension/v1">
            <gpxtpx:hr>143</gpxtpx:hr>
          </gpxtpx:TrackPointExtension>
        </extensions>
      </trkpt>
      <trkpt lat="44.2133" lon="4.50057">
        <ele>112.8</ele>
        <time>2024-10-17T16:46:45.525Z</time>
        <extensions>
          <gpxtpx:TrackPointExtension xmlns:gpxtpx="http://www.garmin.com/xmlschemas/TrackPointExtension/v1">
            <gpxtpx:hr>146</gpxtpx:hr>
          </gpxtpx:TrackPointExtension>
        </extensions>
      </trkpt>
      <trkpt lat="44.21328" lon="4.50057">
        <ele>112.4</ele>
        <time>2024-10-17T16:46:46.357Z</time>
        <extensions>
          <gpxtpx:TrackPointExtension xmlns:gpxtpx="http://www.garmin.com/xmlschemas/TrackPointExtension/v1">
            <gpxtpx:hr>147</gpxtpx:hr>
          </gpxtpx:TrackPointExtension>
        </extensions>
      </trkpt>
      <trkpt lat="44.21326" lon="4.50058">
        <ele>112</ele>
        <time>2024-10-17T16:46:47.241Z</time>
        <extensions>
          <gpxtpx:TrackPointExtension xmlns:gpxtpx="http://www.garmin.com/xmlschemas/TrackPointExtension/v1">
            <gpxtpx:hr>151</gpxtpx:hr>
          </gpxtpx:TrackPointExtension>
        </extensions>
      </trkpt>
      <trkpt lat="44.21322" lon="4.50069">
        <ele>109.5</ele>
        <time>2024-10-17T16:46:50.921Z</time>
      </trkpt>
      <trkpt lat="44.21316" lon="4.50089">
        <ele>109.2</ele>
        <time>2024-10-17T16:46:57.390Z</time>
      </trkpt>
      <trkpt lat="44.21302" lon="4.5011">
        <ele>111.7</ele>
        <time>2024-10-17T16:47:05.948Z</time>
      </trkpt>
      <trkpt lat="44.21295" lon="4.5015">
        <ele>112.5</ele>
        <time>2024-10-17T16:47:18.234Z</time>
      </trkpt>
      <trkpt lat="44.21254" lon="4.5021">
        <ele>113.6</ele>
        <time>2024-10-17T16:47:42.971Z</time>
      </trkpt>
      <trkpt lat="44.21247" lon="4.50259">
        <ele>114.9</ele>
        <time>2024-10-17T16:47:57.880Z</time>
      </trkpt>
      <trkpt lat="44.2124" lon="4.50302">
        <ele>115.5</ele>
        <time>2024-10-17T16:48:11.038Z</time>
      </trkpt>
      <trkpt lat="44.21222" lon="4.50348">
        <ele>114.9</ele>
        <time>2024-10-17T16:48:26.677Z</time>
      </trkpt>
      <trkpt lat="44.21218" lon="4.50429">
        <ele>114.6</ele>
        <time>2024-10-17T16:48:50.905Z</time>
      </trkpt>
      <trkpt lat="44.21219" lon="4.50456">
        <ele>114</ele>
        <time>2024-10-17T16:48:58.972Z</time>
      </trkpt>
      <trkpt lat="44.21245" lon="4.50515">
        <ele>112.6</ele>
        <time>2024-10-17T16:49:19.639Z</time>
      </trkpt>
      <trkpt lat="44.21271" lon="4.50555">
        <ele>112</ele>
        <time>2024-10-17T16:49:35.752Z</time>
      </trkpt>
      <trkpt lat="44.21292" lon="4.50592">
        <ele>111.9</ele>
        <time>2024-10-17T16:49:49.835Z</time>
      </trkpt>
      <trkpt lat="44.21334" lon="4.5062">
        <ele>114</ele>
        <time>2024-10-17T16:50:09.214Z</time>
      </trkpt>
      <trkpt lat="44.21365" lon="4.50638">
        <ele>112.4</ele>
        <time>2024-10-17T16:50:23.193Z</time>
      </trkpt>
      <trkpt lat="44.2139" lon="4.50661">
        <ele>111.8</ele>
        <time>2024-10-17T16:50:35.660Z</time>
      </trkpt>
      <trkpt lat="44.21436" lon="4.50704">
        <ele>114.4</ele>
        <time>2024-10-17T16:50:58.712Z</time>
      </trkpt>
      <trkpt lat="44.21457" lon="4.5073">
        <ele>114.4</ele>
        <time>2024-10-17T16:51:10.400Z</time>
      </trkpt>
      <trkpt lat="44.21468" lon="4.5075">
        <ele>113.2</ele>
        <time>2024-10-17T16:51:17.922Z</time>
      </trkpt>
      <trkpt lat="44.21482" lon="4.50756">
        <ele>114.1</ele>
        <time>2024-10-17T16:51:24.019Z</time>
      </trkpt>
      <trkpt lat="44.21493" lon="4.50766">
        <ele>114.2</ele>
        <time>2024-10-17T16:51:29.484Z</time>
      </trkpt>
      <trkpt lat="44.21476" lon="4.50792">
        <ele>113.2</ele>
        <time>2024-10-17T16:51:39.985Z</time>
      </trkpt>
      <trkpt lat="44.21477" lon="4.50834">
        <ele>116.2</ele>
        <time>2024-10-17T16:51:52.524Z</time>
      </trkpt>
      <trkpt lat="44.21476" lon="4.50882">
        <ele>114.8</ele>
        <time>2024-10-17T16:52:06.853Z</time>
      </trkpt>
      <trkpt lat="44.21488" lon="4.509">
        <ele>115.7</ele>
        <time>2024-10-17T16:52:14.188Z</time>
      </trkpt>
      <trkpt lat="44.21502" lon="4.50929">
        <ele>116.2</ele>
        <time>2024-10-17T16:52:24.621Z</time>
      </trkpt>
      <trkpt lat="44.21525" lon="4.50905">
        <ele>118.3</ele>
        <time>2024-10-17T16:52:36.578Z</time>
      </trkpt>
      <trkpt lat="44.21547" lon="4.5088">
        <ele>123</ele>
        <time>2024-10-17T16:52:48.390Z</time>
      </trkpt>
      <trkpt lat="44.21574" lon="4.50857">
        <ele>128.9</ele>
        <time>2024-10-17T16:53:01.560Z</time>
      </trkpt>
      <trkpt lat="44.21565" lon="4.50829">
        <ele>128.2</ele>
        <time>2024-10-17T16:53:10.716Z</time>
      </trkpt>
      <trkpt lat="44.21569" lon="4.50807">
        <ele>128.8</ele>
        <time>2024-10-17T16:53:17.488Z</time>
      </trkpt>
      <trkpt lat="44.21588" lon="4.50772">
        <ele>134.4</ele>
        <time>2024-10-17T16:53:30.589Z</time>
      </trkpt>
      <trkpt lat="44.216" lon="4.50733">
        <ele>135.4</ele>
        <time>2024-10-17T16:53:43.253Z</time>
      </trkpt>
      <trkpt lat="44.21614" lon="4.50696">
        <ele>138.4</ele>
        <time>2024-10-17T16:53:55.737Z</time>
      </trkpt>
      <trkpt lat="44.21624" lon="4.50686">
        <ele>138.6</ele>
        <time>2024-10-17T16:54:00.859Z</time>
      </trkpt>
      <trkpt lat="44.21634" lon="4.50677">
        <ele>139.4</ele>
        <time>2024-10-17T16:54:05.813Z</time>
      </trkpt>
      <trkpt lat="44.21676" lon="4.50662">
        <ele>143.6</ele>
        <time>2024-10-17T16:54:23.862Z</time>
      </trkpt>
      <trkpt lat="44.21697" lon="4.50652">
        <ele>145.7</ele>
        <time>2024-10-17T16:54:33.100Z</time>
      </trkpt>
      <trkpt lat="44.2172" lon="4.50643">
        <ele>147.8</ele>
        <time>2024-10-17T16:54:43.045Z</time>
      </trkpt>
      <trkpt lat="44.21747" lon="4.50616">
        <ele>150.5</ele>
        <time>2024-10-17T16:54:56.874Z</time>
      </trkpt>
      <trkpt lat="44.21762" lon="4.50602">
        <ele>151.9</ele>
        <time>2024-10-17T16:55:04.387Z</time>
      </trkpt>
      <trkpt lat="44.21789" lon="4.50582">
        <ele>157</ele>
        <time>2024-10-17T16:55:17.113Z</time>
      </trkpt>
      <trkpt lat="44.21805" lon="4.50577">
        <ele>159.8</ele>
        <time>2024-10-17T16:55:23.939Z</time>
      </trkpt>
      <trkpt lat="44.21825" lon="4.50569">
        <ele>162.1</ele>
        <time>2024-10-17T16:55:32.601Z</time>
      </trkpt>
      <trkpt lat="44.21864" lon="4.50534">
        <ele>169.6</ele>
        <time>2024-10-17T16:55:51.906Z</time>
      </trkpt>
      <trkpt lat="44.21873" lon="4.50514">
        <ele>170.6</ele>
        <time>2024-10-17T16:55:58.952Z</time>
      </trkpt>
      <trkpt lat="44.21904" lon="4.50499">
        <ele>176.6</ele>
        <time>2024-10-17T16:56:12.612Z</time>
      </trkpt>
      <trkpt lat="44.21921" lon="4.50488">
        <ele>179.4</ele>
        <time>2024-10-17T16:56:20.413Z</time>
      </trkpt>
      <trkpt lat="44.21941" lon="4.5046">
        <ele>182.6</ele>
        <time>2024-10-17T16:56:32.208Z</time>
      </trkpt>
      <trkpt lat="44.21971" lon="4.50421">
        <ele>189.5</ele>
        <time>2024-10-17T16:56:49.278Z</time>
      </trkpt>
      <trkpt lat="44.21991" lon="4.50399">
        <ele>192.4</ele>
        <time>2024-10-17T16:56:59.881Z</time>
      </trkpt>
      <trkpt lat="44.22034" lon="4.50365">
        <ele>195.7</ele>
        <time>2024-10-17T16:57:20.457Z</time>
      </trkpt>
      <trkpt lat="44.22066" lon="4.50334">
        <ele>198.8</ele>
        <time>2024-10-17T16:57:36.675Z</time>
      </trkpt>
      <trkpt lat="44.22088" lon="4.50324">
        <ele>197</ele>
        <time>2024-10-17T16:57:46.308Z</time>
      </trkpt>
      <trkpt lat="44.22101" lon="4.50316">
        <ele>195.6</ele>
        <time>2024-10-17T16:57:52.223Z</time>
      </trkpt>
      <trkpt lat="44.22114" lon="4.50303">
        <ele>194.7</ele>
        <time>2024-10-17T16:57:58.881Z</time>
      </trkpt>
      <trkpt lat="44.22129" lon="4.50287">
        <ele>192.4</ele>
        <time>2024-10-17T16:58:06.741Z</time>
      </trkpt>
      <trkpt lat="44.2214" lon="4.50274">
        <ele>190.1</ele>
        <time>2024-10-17T16:58:12.742Z</time>
      </trkpt>
      <trkpt lat="44.22157" lon="4.50252">
        <ele>183.8</ele>
        <time>2024-10-17T16:58:22.394Z</time>
      </trkpt>
      <trkpt lat="44.22189" lon="4.50211">
        <ele>184.5</ele>
        <time>2024-10-17T16:58:40.480Z</time>
      </trkpt>
      <trkpt lat="44.22215" lon="4.50188">
        <ele>185.6</ele>
        <time>2024-10-17T16:58:53.296Z</time>
      </trkpt>
      <trkpt lat="44.22216" lon="4.50179">
        <ele>185.9</ele>
        <time>2024-10-17T16:58:56.013Z</time>
      </trkpt>
      <trkpt lat="44.22229" lon="4.50129">
        <ele>187.5</ele>
        <time>2024-10-17T16:59:11.882Z</time>
      </trkpt>
      <trkpt lat="44.22225" lon="4.50085">
        <ele>190.9</ele>
        <time>2024-10-17T16:59:25.115Z</time>
      </trkpt>
      <trkpt lat="44.22223" lon="4.50018">
        <ele>194.3</ele>
        <time>2024-10-17T16:59:45.122Z</time>
      </trkpt>
      <trkpt lat="44.22218" lon="4.4999">
        <ele>193.2</ele>
        <time>2024-10-17T16:59:53.731Z</time>
      </trkpt>
      <trkpt lat="44.22224" lon="4.49944">
        <ele>190.9</ele>
        <time>2024-10-17T17:00:07.681Z</time>
      </trkpt>
      <trkpt lat="44.22229" lon="4.49928">
        <ele>191.7</ele>
        <time>2024-10-17T17:00:12.888Z</time>
      </trkpt>
      <trkpt lat="44.22247" lon="4.49896">
        <ele>189.6</ele>
        <time>2024-10-17T17:00:25.025Z</time>
      </trkpt>
      <trkpt lat="44.22257" lon="4.49889">
        <ele>188.7</ele>
        <time>2024-10-17T17:00:29.682Z</time>
      </trkpt>
      <trkpt lat="44.22266" lon="4.49888">
        <ele>188.4</ele>
        <time>2024-10-17T17:00:33.440Z</time>
      </trkpt>
      <trkpt lat="44.22274" lon="4.49878">
        <ele>188.1</ele>
        <time>2024-10-17T17:00:37.911Z</time>
      </trkpt>
      <trkpt lat="44.22281" lon="4.49874">
        <ele>202.2</ele>
        <time>2024-10-17T17:00:41.060Z</time>
        <extensions>
          <gpxtpx:TrackPointExtension xmlns:gpxtpx="http://www.garmin.com/xmlschemas/TrackPointExtension/v1">
            <gpxtpx:hr>155</gpxtpx:hr>
          </gpxtpx:TrackPointExtension>
        </extensions>
      </trkpt>
      <trkpt lat="44.22292" lon="4.49874">
        <ele>203</ele>
        <time>2024-10-17T17:00:45.639Z</time>
        <extensions>
          <gpxtpx:TrackPointExtension xmlns:gpxtpx="http://www.garmin.com/xmlschemas/TrackPointExtension/v1">
            <gpxtpx:hr>155</gpxtpx:hr>
          </gpxtpx:TrackPointExtension>
        </extensions>
      </trkpt>
      <trkpt lat="44.22303" lon="4.49869">
        <ele>203</ele>
        <time>2024-10-17T17:00:50.455Z</time>
        <extensions>
          <gpxtpx:TrackPointExtension xmlns:gpxtpx="http://www.garmin.com/xmlschemas/TrackPointExtension/v1">
            <gpxtpx:hr>158</gpxtpx:hr>
          </gpxtpx:TrackPointExtension>
        </extensions>
      </trkpt>
      <trkpt lat="44.22305" lon="4.49868">
        <ele>203.2</ele>
        <time>2024-10-17T17:00:51.338Z</time>
        <extensions>
          <gpxtpx:TrackPointExtension xmlns:gpxtpx="http://www.garmin.com/xmlschemas/TrackPointExtension/v1">
            <gpxtpx:hr>157</gpxtpx:hr>
          </gpxtpx:TrackPointExtension>
        </extensions>
      </trkpt>
      <trkpt lat="44.22314" lon="4.49862">
        <ele>204.4</ele>
        <time>2024-10-17T17:00:55.490Z</time>
        <extensions>
          <gpxtpx:TrackPointExtension xmlns:gpxtpx="http://www.garmin.com/xmlschemas/TrackPointExtension/v1">
            <gpxtpx:hr>156</gpxtpx:hr>
          </gpxtpx:TrackPointExtension>
        </extensions>
      </trkpt>
      <trkpt lat="44.22317" lon="4.4986">
        <ele>204.6</ele>
        <time>2024-10-17T17:00:56.874Z</time>
        <extensions>
          <gpxtpx:TrackPointExtension xmlns:gpxtpx="http://www.garmin.com/xmlschemas/TrackPointExtension/v1">
            <gpxtpx:hr>155</gpxtpx:hr>
          </gpxtpx:TrackPointExtension>
        </extensions>
      </trkpt>
      <trkpt lat="44.22322" lon="4.49863">
        <ele>204.8</ele>
        <time>2024-10-17T17:00:59.139Z</time>
        <extensions>
          <gpxtpx:TrackPointExtension xmlns:gpxtpx="http://www.garmin.com/xmlschemas/TrackPointExtension/v1">
            <gpxtpx:hr>158</gpxtpx:hr>
          </gpxtpx:TrackPointExtension>
        </extensions>
      </trkpt>
      <trkpt lat="44.22328" lon="4.49868">
        <ele>205</ele>
        <time>2024-10-17T17:01:02.048Z</time>
        <extensions>
          <gpxtpx:TrackPointExtension xmlns:gpxtpx="http://www.garmin.com/xmlschemas/TrackPointExtension/v1">
            <gpxtpx:hr>159</gpxtpx:hr>
          </gpxtpx:TrackPointExtension>
        </extensions>
      </trkpt>
      <trkpt lat="44.22335" lon="4.49874">
        <ele>205.2</ele>
        <time>2024-10-17T17:01:05.468Z</time>
        <extensions>
          <gpxtpx:TrackPointExtension xmlns:gpxtpx="http://www.garmin.com/xmlschemas/TrackPointExtension/v1">
            <gpxtpx:hr>156</gpxtpx:hr>
          </gpxtpx:TrackPointExtension>
        </extensions>
      </trkpt>
      <trkpt lat="44.22338" lon="4.49877">
        <ele>205.4</ele>
        <time>2024-10-17T17:01:07.004Z</time>
        <extensions>
          <gpxtpx:TrackPointExtension xmlns:gpxtpx="http://www.garmin.com/xmlschemas/TrackPointExtension/v1">
            <gpxtpx:hr>153</gpxtpx:hr>
          </gpxtpx:TrackPointExtension>
        </extensions>
      </trkpt>
      <trkpt lat="44.22341" lon="4.49879">
        <ele>205.4</ele>
        <time>2024-10-17T17:01:08.388Z</time>
        <extensions>
          <gpxtpx:TrackPointExtension xmlns:gpxtpx="http://www.garmin.com/xmlschemas/TrackPointExtension/v1">
            <gpxtpx:hr>149</gpxtpx:hr>
          </gpxtpx:TrackPointExtension>
        </extensions>
      </trkpt>
      <trkpt lat="44.22342" lon="4.4988">
        <ele>205.6</ele>
        <time>2024-10-17T17:01:08.900Z</time>
        <extensions>
          <gpxtpx:TrackPointExtension xmlns:gpxtpx="http://www.garmin.com/xmlschemas/TrackPointExtension/v1">
            <gpxtpx:hr>148</gpxtpx:hr>
          </gpxtpx:TrackPointExtension>
        </extensions>
      </trkpt>
      <trkpt lat="44.22353" lon="4.49883">
        <ele>205.6</ele>
        <time>2024-10-17T17:01:13.566Z</time>
        <extensions>
          <gpxtpx:TrackPointExtension xmlns:gpxtpx="http://www.garmin.com/xmlschemas/TrackPointExtension/v1">
            <gpxtpx:hr>148</gpxtpx:hr>
          </gpxtpx:TrackPointExtension>
        </extensions>
      </trkpt>
      <trkpt lat="44.22354" lon="4.49881">
        <ele>205.8</ele>
        <time>2024-10-17T17:01:14.294Z</time>
        <extensions>
          <gpxtpx:TrackPointExtension xmlns:gpxtpx="http://www.garmin.com/xmlschemas/TrackPointExtension/v1">
            <gpxtpx:hr>150</gpxtpx:hr>
          </gpxtpx:TrackPointExtension>
        </extensions>
      </trkpt>
      <trkpt lat="44.22356" lon="4.49873">
        <ele>206</ele>
        <time>2024-10-17T17:01:16.821Z</time>
        <extensions>
          <gpxtpx:TrackPointExtension xmlns:gpxtpx="http://www.garmin.com/xmlschemas/TrackPointExtension/v1">
            <gpxtpx:hr>150</gpxtpx:hr>
          </gpxtpx:TrackPointExtension>
        </extensions>
      </trkpt>
      <trkpt lat="44.22352" lon="4.4987">
        <ele>205.6</ele>
        <time>2024-10-17T17:01:18.711Z</time>
        <extensions>
          <gpxtpx:TrackPointExtension xmlns:gpxtpx="http://www.garmin.com/xmlschemas/TrackPointExtension/v1">
            <gpxtpx:hr>147</gpxtpx:hr>
          </gpxtpx:TrackPointExtension>
        </extensions>
      </trkpt>
      <trkpt lat="44.22349" lon="4.49868">
        <ele>204.8</ele>
        <time>2024-10-17T17:01:20.094Z</time>
        <extensions>
          <gpxtpx:TrackPointExtension xmlns:gpxtpx="http://www.garmin.com/xmlschemas/TrackPointExtension/v1">
            <gpxtpx:hr>146</gpxtpx:hr>
          </gpxtpx:TrackPointExtension>
        </extensions>
      </trkpt>
      <trkpt lat="44.22346" lon="4.49866">
        <ele>204.2</ele>
        <time>2024-10-17T17:01:21.477Z</time>
        <extensions>
          <gpxtpx:TrackPointExtension xmlns:gpxtpx="http://www.garmin.com/xmlschemas/TrackPointExtension/v1">
            <gpxtpx:hr>144</gpxtpx:hr>
          </gpxtpx:TrackPointExtension>
        </extensions>
      </trkpt>
      <trkpt lat="44.22341" lon="4.49859">
        <ele>203.2</ele>
        <time>2024-10-17T17:01:24.425Z</time>
        <extensions>
          <gpxtpx:TrackPointExtension xmlns:gpxtpx="http://www.garmin.com/xmlschemas/TrackPointExtension/v1">
            <gpxtpx:hr>148</gpxtpx:hr>
          </gpxtpx:TrackPointExtension>
        </extensions>
      </trkpt>
      <trkpt lat="44.22339" lon="4.49857">
        <ele>202.8</ele>
        <time>2024-10-17T17:01:25.450Z</time>
        <extensions>
          <gpxtpx:TrackPointExtension xmlns:gpxtpx="http://www.garmin.com/xmlschemas/TrackPointExtension/v1">
            <gpxtpx:hr>148</gpxtpx:hr>
          </gpxtpx:TrackPointExtension>
        </extensions>
      </trkpt>
      <trkpt lat="44.22336" lon="4.49852">
        <ele>201.8</ele>
        <time>2024-10-17T17:01:27.395Z</time>
        <extensions>
          <gpxtpx:TrackPointExtension xmlns:gpxtpx="http://www.garmin.com/xmlschemas/TrackPointExtension/v1">
            <gpxtpx:hr>146</gpxtpx:hr>
          </gpxtpx:TrackPointExtension>
        </extensions>
      </trkpt>
      <trkpt lat="44.22335" lon="4.49849">
        <ele>201.4</ele>
        <time>2024-10-17T17:01:28.382Z</time>
        <extensions>
          <gpxtpx:TrackPointExtension xmlns:gpxtpx="http://www.garmin.com/xmlschemas/TrackPointExtension/v1">
            <gpxtpx:hr>143</gpxtpx:hr>
          </gpxtpx:TrackPointExtension>
        </extensions>
      </trkpt>
      <trkpt lat="44.22333" lon="4.49846">
        <ele>201.2</ele>
        <time>2024-10-17T17:01:29.604Z</time>
        <extensions>
          <gpxtpx:TrackPointExtension xmlns:gpxtpx="http://www.garmin.com/xmlschemas/TrackPointExtension/v1">
            <gpxtpx:hr>145</gpxtpx:hr>
          </gpxtpx:TrackPointExtension>
        </extensions>
      </trkpt>
      <trkpt lat="44.22325" lon="4.49831">
        <ele>200.6</ele>
        <time>2024-10-17T17:01:35.182Z</time>
        <extensions>
          <gpxtpx:TrackPointExtension xmlns:gpxtpx="http://www.garmin.com/xmlschemas/TrackPointExtension/v1">
            <gpxtpx:hr>145</gpxtpx:hr>
          </gpxtpx:TrackPointExtension>
        </extensions>
      </trkpt>
      <trkpt lat="44.22324" lon="4.49824">
        <ele>199.4</ele>
        <time>2024-10-17T17:01:37.311Z</time>
        <extensions>
          <gpxtpx:TrackPointExtension xmlns:gpxtpx="http://www.garmin.com/xmlschemas/TrackPointExtension/v1">
            <gpxtpx:hr>146</gpxtpx:hr>
          </gpxtpx:TrackPointExtension>
        </extensions>
      </trkpt>
      <trkpt lat="44.22323" lon="4.4982">
        <ele>198.2</ele>
        <time>2024-10-17T17:01:38.574Z</time>
        <extensions>
          <gpxtpx:TrackPointExtension xmlns:gpxtpx="http://www.garmin.com/xmlschemas/TrackPointExtension/v1">
            <gpxtpx:hr>146</gpxtpx:hr>
          </gpxtpx:TrackPointExtension>
        </extensions>
      </trkpt>
      <trkpt lat="44.22323" lon="4.49816">
        <ele>197.2</ele>
        <time>2024-10-17T17:01:39.766Z</time>
        <extensions>
          <gpxtpx:TrackPointExtension xmlns:gpxtpx="http://www.garmin.com/xmlschemas/TrackPointExtension/v1">
            <gpxtpx:hr>148</gpxtpx:hr>
          </gpxtpx:TrackPointExtension>
        </extensions>
      </trkpt>
      <trkpt lat="44.22322" lon="4.49814">
        <ele>196.4</ele>
        <time>2024-10-17T17:01:40.493Z</time>
        <extensions>
          <gpxtpx:TrackPointExtension xmlns:gpxtpx="http://www.garmin.com/xmlschemas/TrackPointExtension/v1">
            <gpxtpx:hr>148</gpxtpx:hr>
          </gpxtpx:TrackPointExtension>
        </extensions>
      </trkpt>
      <trkpt lat="44.22322" lon="4.49812">
        <ele>195.8</ele>
        <time>2024-10-17T17:01:41.089Z</time>
        <extensions>
          <gpxtpx:TrackPointExtension xmlns:gpxtpx="http://www.garmin.com/xmlschemas/TrackPointExtension/v1">
            <gpxtpx:hr>149</gpxtpx:hr>
          </gpxtpx:TrackPointExtension>
        </extensions>
      </trkpt>
      <trkpt lat="44.2232" lon="4.49808">
        <ele>194.8</ele>
        <time>2024-10-17T17:01:42.544Z</time>
        <extensions>
          <gpxtpx:TrackPointExtension xmlns:gpxtpx="http://www.garmin.com/xmlschemas/TrackPointExtension/v1">
            <gpxtpx:hr>148</gpxtpx:hr>
          </gpxtpx:TrackPointExtension>
        </extensions>
      </trkpt>
      <trkpt lat="44.2232" lon="4.49803">
        <ele>193.8</ele>
        <time>2024-10-17T17:01:44.036Z</time>
        <extensions>
          <gpxtpx:TrackPointExtension xmlns:gpxtpx="http://www.garmin.com/xmlschemas/TrackPointExtension/v1">
            <gpxtpx:hr>148</gpxtpx:hr>
          </gpxtpx:TrackPointExtension>
        </extensions>
      </trkpt>
      <trkpt lat="44.22318" lon="4.49799">
        <ele>192.8</ele>
        <time>2024-10-17T17:01:45.491Z</time>
        <extensions>
          <gpxtpx:TrackPointExtension xmlns:gpxtpx="http://www.garmin.com/xmlschemas/TrackPointExtension/v1">
            <gpxtpx:hr>150</gpxtpx:hr>
          </gpxtpx:TrackPointExtension>
        </extensions>
      </trkpt>
      <trkpt lat="44.22318" lon="4.49798">
        <ele>192.6</ele>
        <time>2024-10-17T17:01:45.788Z</time>
        <extensions>
          <gpxtpx:TrackPointExtension xmlns:gpxtpx="http://www.garmin.com/xmlschemas/TrackPointExtension/v1">
            <gpxtpx:hr>149</gpxtpx:hr>
          </gpxtpx:TrackPointExtension>
        </extensions>
      </trkpt>
      <trkpt lat="44.22317" lon="4.4979">
        <ele>191.4</ele>
        <time>2024-10-17T17:01:48.210Z</time>
        <extensions>
          <gpxtpx:TrackPointExtension xmlns:gpxtpx="http://www.garmin.com/xmlschemas/TrackPointExtension/v1">
            <gpxtpx:hr>148</gpxtpx:hr>
          </gpxtpx:TrackPointExtension>
        </extensions>
      </trkpt>
      <trkpt lat="44.22317" lon="4.49787">
        <ele>191.2</ele>
        <time>2024-10-17T17:01:49.105Z</time>
        <extensions>
          <gpxtpx:TrackPointExtension xmlns:gpxtpx="http://www.garmin.com/xmlschemas/TrackPointExtension/v1">
            <gpxtpx:hr>145</gpxtpx:hr>
          </gpxtpx:TrackPointExtension>
        </extensions>
      </trkpt>
      <trkpt lat="44.22316" lon="4.49776">
        <ele>190.2</ele>
        <time>2024-10-17T17:01:52.413Z</time>
        <extensions>
          <gpxtpx:TrackPointExtension xmlns:gpxtpx="http://www.garmin.com/xmlschemas/TrackPointExtension/v1">
            <gpxtpx:hr>145</gpxtpx:hr>
          </gpxtpx:TrackPointExtension>
        </extensions>
      </trkpt>
      <trkpt lat="44.22314" lon="4.49768">
        <ele>189.2</ele>
        <time>2024-10-17T17:01:54.940Z</time>
        <extensions>
          <gpxtpx:TrackPointExtension xmlns:gpxtpx="http://www.garmin.com/xmlschemas/TrackPointExtension/v1">
            <gpxtpx:hr>146</gpxtpx:hr>
          </gpxtpx:TrackPointExtension>
        </extensions>
      </trkpt>
      <trkpt lat="44.22313" lon="4.49766">
        <ele>189</ele>
        <time>2024-10-17T17:01:55.668Z</time>
        <extensions>
          <gpxtpx:TrackPointExtension xmlns:gpxtpx="http://www.garmin.com/xmlschemas/TrackPointExtension/v1">
            <gpxtpx:hr>146</gpxtpx:hr>
          </gpxtpx:TrackPointExtension>
        </extensions>
      </trkpt>
      <trkpt lat="44.22311" lon="4.49758">
        <ele>187.8</ele>
        <time>2024-10-17T17:01:58.195Z</time>
        <extensions>
          <gpxtpx:TrackPointExtension xmlns:gpxtpx="http://www.garmin.com/xmlschemas/TrackPointExtension/v1">
            <gpxtpx:hr>148</gpxtpx:hr>
          </gpxtpx:TrackPointExtension>
        </extensions>
      </trkpt>
      <trkpt lat="44.2231" lon="4.49757">
        <ele>187.4</ele>
        <time>2024-10-17T17:01:58.706Z</time>
        <extensions>
          <gpxtpx:TrackPointExtension xmlns:gpxtpx="http://www.garmin.com/xmlschemas/TrackPointExtension/v1">
            <gpxtpx:hr>148</gpxtpx:hr>
          </gpxtpx:TrackPointExtension>
        </extensions>
      </trkpt>
      <trkpt lat="44.22309" lon="4.49754">
        <ele>186.4</ele>
        <time>2024-10-17T17:01:59.692Z</time>
        <extensions>
          <gpxtpx:TrackPointExtension xmlns:gpxtpx="http://www.garmin.com/xmlschemas/TrackPointExtension/v1">
            <gpxtpx:hr>147</gpxtpx:hr>
          </gpxtpx:TrackPointExtension>
        </extensions>
      </trkpt>
      <trkpt lat="44.2231" lon="4.4975">
        <ele>185.2</ele>
        <time>2024-10-17T17:02:00.955Z</time>
        <extensions>
          <gpxtpx:TrackPointExtension xmlns:gpxtpx="http://www.garmin.com/xmlschemas/TrackPointExtension/v1">
            <gpxtpx:hr>149</gpxtpx:hr>
          </gpxtpx:TrackPointExtension>
        </extensions>
      </trkpt>
      <trkpt lat="44.22312" lon="4.49741">
        <ele>184.6</ele>
        <time>2024-10-17T17:02:03.766Z</time>
        <extensions>
          <gpxtpx:TrackPointExtension xmlns:gpxtpx="http://www.garmin.com/xmlschemas/TrackPointExtension/v1">
            <gpxtpx:hr>149</gpxtpx:hr>
          </gpxtpx:TrackPointExtension>
        </extensions>
      </trkpt>
      <trkpt lat="44.22312" lon="4.49729">
        <ele>184.4</ele>
        <time>2024-10-17T17:02:07.346Z</time>
        <extensions>
          <gpxtpx:TrackPointExtension xmlns:gpxtpx="http://www.garmin.com/xmlschemas/TrackPointExtension/v1">
            <gpxtpx:hr>150</gpxtpx:hr>
          </gpxtpx:TrackPointExtension>
        </extensions>
      </trkpt>
      <trkpt lat="44.22313" lon="4.49723">
        <ele>184.6</ele>
        <time>2024-10-17T17:02:09.183Z</time>
        <extensions>
          <gpxtpx:TrackPointExtension xmlns:gpxtpx="http://www.garmin.com/xmlschemas/TrackPointExtension/v1">
            <gpxtpx:hr>149</gpxtpx:hr>
          </gpxtpx:TrackPointExtension>
        </extensions>
      </trkpt>
      <trkpt lat="44.22314" lon="4.4972">
        <ele>184.8</ele>
        <time>2024-10-17T17:02:10.170Z</time>
        <extensions>
          <gpxtpx:TrackPointExtension xmlns:gpxtpx="http://www.garmin.com/xmlschemas/TrackPointExtension/v1">
            <gpxtpx:hr>149</gpxtpx:hr>
          </gpxtpx:TrackPointExtension>
        </extensions>
      </trkpt>
      <trkpt lat="44.22316" lon="4.49718">
        <ele>185.4</ele>
        <time>2024-10-17T17:02:11.194Z</time>
        <extensions>
          <gpxtpx:TrackPointExtension xmlns:gpxtpx="http://www.garmin.com/xmlschemas/TrackPointExtension/v1">
            <gpxtpx:hr>147</gpxtpx:hr>
          </gpxtpx:TrackPointExtension>
        </extensions>
      </trkpt>
      <trkpt lat="44.2232" lon="4.49713">
        <ele>184.6</ele>
        <time>2024-10-17T17:02:13.429Z</time>
        <extensions>
          <gpxtpx:TrackPointExtension xmlns:gpxtpx="http://www.garmin.com/xmlschemas/TrackPointExtension/v1">
            <gpxtpx:hr>145</gpxtpx:hr>
          </gpxtpx:TrackPointExtension>
        </extensions>
      </trkpt>
      <trkpt lat="44.22321" lon="4.49711">
        <ele>184.2</ele>
        <time>2024-10-17T17:02:14.157Z</time>
        <extensions>
          <gpxtpx:TrackPointExtension xmlns:gpxtpx="http://www.garmin.com/xmlschemas/TrackPointExtension/v1">
            <gpxtpx:hr>146</gpxtpx:hr>
          </gpxtpx:TrackPointExtension>
        </extensions>
      </trkpt>
      <trkpt lat="44.22323" lon="4.4971">
        <ele>183.8</ele>
        <time>2024-10-17T17:02:15.040Z</time>
        <extensions>
          <gpxtpx:TrackPointExtension xmlns:gpxtpx="http://www.garmin.com/xmlschemas/TrackPointExtension/v1">
            <gpxtpx:hr>145</gpxtpx:hr>
          </gpxtpx:TrackPointExtension>
        </extensions>
      </trkpt>
      <trkpt lat="44.22325" lon="4.49709">
        <ele>183.4</ele>
        <time>2024-10-17T17:02:15.924Z</time>
        <extensions>
          <gpxtpx:TrackPointExtension xmlns:gpxtpx="http://www.garmin.com/xmlschemas/TrackPointExtension/v1">
            <gpxtpx:hr>147</gpxtpx:hr>
          </gpxtpx:TrackPointExtension>
        </extensions>
      </trkpt>
      <trkpt lat="44.22327" lon="4.49711">
        <ele>183</ele>
        <time>2024-10-17T17:02:16.948Z</time>
        <extensions>
          <gpxtpx:TrackPointExtension xmlns:gpxtpx="http://www.garmin.com/xmlschemas/TrackPointExtension/v1">
            <gpxtpx:hr>147</gpxtpx:hr>
          </gpxtpx:TrackPointExtension>
        </extensions>
      </trkpt>
      <trkpt lat="44.22327" lon="4.49713">
        <ele>183</ele>
        <time>2024-10-17T17:02:17.544Z</time>
        <extensions>
          <gpxtpx:TrackPointExtension xmlns:gpxtpx="http://www.garmin.com/xmlschemas/TrackPointExtension/v1">
            <gpxtpx:hr>148</gpxtpx:hr>
          </gpxtpx:TrackPointExtension>
        </extensions>
      </trkpt>
      <trkpt lat="44.22331" lon="4.49718">
        <ele>183.2</ele>
        <time>2024-10-17T17:02:19.779Z</time>
        <extensions>
          <gpxtpx:TrackPointExtension xmlns:gpxtpx="http://www.garmin.com/xmlschemas/TrackPointExtension/v1">
            <gpxtpx:hr>150</gpxtpx:hr>
          </gpxtpx:TrackPointExtension>
        </extensions>
      </trkpt>
      <trkpt lat="44.22332" lon="4.49718">
        <ele>183.4</ele>
        <time>2024-10-17T17:02:20.196Z</time>
        <extensions>
          <gpxtpx:TrackPointExtension xmlns:gpxtpx="http://www.garmin.com/xmlschemas/TrackPointExtension/v1">
            <gpxtpx:hr>149</gpxtpx:hr>
          </gpxtpx:TrackPointExtension>
        </extensions>
      </trkpt>
      <trkpt lat="44.22336" lon="4.49713">
        <ele>183.6</ele>
        <time>2024-10-17T17:02:22.431Z</time>
        <extensions>
          <gpxtpx:TrackPointExtension xmlns:gpxtpx="http://www.garmin.com/xmlschemas/TrackPointExtension/v1">
            <gpxtpx:hr>152</gpxtpx:hr>
          </gpxtpx:TrackPointExtension>
        </extensions>
      </trkpt>
      <trkpt lat="44.22337" lon="4.49711">
        <ele>183.8</ele>
        <time>2024-10-17T17:02:23.158Z</time>
        <extensions>
          <gpxtpx:TrackPointExtension xmlns:gpxtpx="http://www.garmin.com/xmlschemas/TrackPointExtension/v1">
            <gpxtpx:hr>153</gpxtpx:hr>
          </gpxtpx:TrackPointExtension>
        </extensions>
      </trkpt>
      <trkpt lat="44.22337" lon="4.49702">
        <ele>183.6</ele>
        <time>2024-10-17T17:02:25.843Z</time>
        <extensions>
          <gpxtpx:TrackPointExtension xmlns:gpxtpx="http://www.garmin.com/xmlschemas/TrackPointExtension/v1">
            <gpxtpx:hr>149</gpxtpx:hr>
          </gpxtpx:TrackPointExtension>
        </extensions>
      </trkpt>
      <trkpt lat="44.22334" lon="4.49691">
        <ele>182.8</ele>
        <time>2024-10-17T17:02:29.354Z</time>
        <extensions>
          <gpxtpx:TrackPointExtension xmlns:gpxtpx="http://www.garmin.com/xmlschemas/TrackPointExtension/v1">
            <gpxtpx:hr>148</gpxtpx:hr>
          </gpxtpx:TrackPointExtension>
        </extensions>
      </trkpt>
      <trkpt lat="44.22333" lon="4.49678">
        <ele>182.4</ele>
        <time>2024-10-17T17:02:33.254Z</time>
        <extensions>
          <gpxtpx:TrackPointExtension xmlns:gpxtpx="http://www.garmin.com/xmlschemas/TrackPointExtension/v1">
            <gpxtpx:hr>146</gpxtpx:hr>
          </gpxtpx:TrackPointExtension>
        </extensions>
      </trkpt>
      <trkpt lat="44.22327" lon="4.49663">
        <ele>182.6</ele>
        <time>2024-10-17T17:02:38.379Z</time>
        <extensions>
          <gpxtpx:TrackPointExtension xmlns:gpxtpx="http://www.garmin.com/xmlschemas/TrackPointExtension/v1">
            <gpxtpx:hr>145</gpxtpx:hr>
          </gpxtpx:TrackPointExtension>
        </extensions>
      </trkpt>
      <trkpt lat="44.22326" lon="4.49651">
        <ele>182.4</ele>
        <time>2024-10-17T17:02:41.983Z</time>
        <extensions>
          <gpxtpx:TrackPointExtension xmlns:gpxtpx="http://www.garmin.com/xmlschemas/TrackPointExtension/v1">
            <gpxtpx:hr>145</gpxtpx:hr>
          </gpxtpx:TrackPointExtension>
        </extensions>
      </trkpt>
      <trkpt lat="44.22326" lon="4.49646">
        <ele>183.2</ele>
        <time>2024-10-17T17:02:43.474Z</time>
        <extensions>
          <gpxtpx:TrackPointExtension xmlns:gpxtpx="http://www.garmin.com/xmlschemas/TrackPointExtension/v1">
            <gpxtpx:hr>145</gpxtpx:hr>
          </gpxtpx:TrackPointExtension>
        </extensions>
      </trkpt>
      <trkpt lat="44.22327" lon="4.49645">
        <ele>183.4</ele>
        <time>2024-10-17T17:02:43.986Z</time>
        <extensions>
          <gpxtpx:TrackPointExtension xmlns:gpxtpx="http://www.garmin.com/xmlschemas/TrackPointExtension/v1">
            <gpxtpx:hr>143</gpxtpx:hr>
          </gpxtpx:TrackPointExtension>
        </extensions>
      </trkpt>
      <trkpt lat="44.22328" lon="4.49642">
        <ele>183.4</ele>
        <time>2024-10-17T17:02:44.973Z</time>
        <extensions>
          <gpxtpx:TrackPointExtension xmlns:gpxtpx="http://www.garmin.com/xmlschemas/TrackPointExtension/v1">
            <gpxtpx:hr>142</gpxtpx:hr>
          </gpxtpx:TrackPointExtension>
        </extensions>
      </trkpt>
      <trkpt lat="44.22323" lon="4.49635">
        <ele>181</ele>
        <time>2024-10-17T17:02:47.921Z</time>
        <extensions>
          <gpxtpx:TrackPointExtension xmlns:gpxtpx="http://www.garmin.com/xmlschemas/TrackPointExtension/v1">
            <gpxtpx:hr>150</gpxtpx:hr>
          </gpxtpx:TrackPointExtension>
        </extensions>
      </trkpt>
      <trkpt lat="44.22321" lon="4.49634">
        <ele>180.8</ele>
        <time>2024-10-17T17:02:48.804Z</time>
        <extensions>
          <gpxtpx:TrackPointExtension xmlns:gpxtpx="http://www.garmin.com/xmlschemas/TrackPointExtension/v1">
            <gpxtpx:hr>150</gpxtpx:hr>
          </gpxtpx:TrackPointExtension>
        </extensions>
      </trkpt>
      <trkpt lat="44.22313" lon="4.49631">
        <ele>180.2</ele>
        <time>2024-10-17T17:02:52.252Z</time>
        <extensions>
          <gpxtpx:TrackPointExtension xmlns:gpxtpx="http://www.garmin.com/xmlschemas/TrackPointExtension/v1">
            <gpxtpx:hr>147</gpxtpx:hr>
          </gpxtpx:TrackPointExtension>
        </extensions>
      </trkpt>
      <trkpt lat="44.22309" lon="4.49631">
        <ele>180.2</ele>
        <time>2024-10-17T17:02:53.917Z</time>
        <extensions>
          <gpxtpx:TrackPointExtension xmlns:gpxtpx="http://www.garmin.com/xmlschemas/TrackPointExtension/v1">
            <gpxtpx:hr>148</gpxtpx:hr>
          </gpxtpx:TrackPointExtension>
        </extensions>
      </trkpt>
      <trkpt lat="44.22305" lon="4.49628">
        <ele>180.2</ele>
        <time>2024-10-17T17:02:55.807Z</time>
        <extensions>
          <gpxtpx:TrackPointExtension xmlns:gpxtpx="http://www.garmin.com/xmlschemas/TrackPointExtension/v1">
            <gpxtpx:hr>150</gpxtpx:hr>
          </gpxtpx:TrackPointExtension>
        </extensions>
      </trkpt>
      <trkpt lat="44.22303" lon="4.49626">
        <ele>180.2</ele>
        <time>2024-10-17T17:02:56.831Z</time>
        <extensions>
          <gpxtpx:TrackPointExtension xmlns:gpxtpx="http://www.garmin.com/xmlschemas/TrackPointExtension/v1">
            <gpxtpx:hr>147</gpxtpx:hr>
          </gpxtpx:TrackPointExtension>
        </extensions>
      </trkpt>
      <trkpt lat="44.22303" lon="4.49623">
        <ele>180.4</ele>
        <time>2024-10-17T17:02:57.726Z</time>
        <extensions>
          <gpxtpx:TrackPointExtension xmlns:gpxtpx="http://www.garmin.com/xmlschemas/TrackPointExtension/v1">
            <gpxtpx:hr>148</gpxtpx:hr>
          </gpxtpx:TrackPointExtension>
        </extensions>
      </trkpt>
      <trkpt lat="44.22307" lon="4.49605">
        <ele>181</ele>
        <time>2024-10-17T17:03:03.348Z</time>
        <extensions>
          <gpxtpx:TrackPointExtension xmlns:gpxtpx="http://www.garmin.com/xmlschemas/TrackPointExtension/v1">
            <gpxtpx:hr>146</gpxtpx:hr>
          </gpxtpx:TrackPointExtension>
        </extensions>
      </trkpt>
      <trkpt lat="44.22311" lon="4.4959">
        <ele>181.4</ele>
        <time>2024-10-17T17:03:08.123Z</time>
        <extensions>
          <gpxtpx:TrackPointExtension xmlns:gpxtpx="http://www.garmin.com/xmlschemas/TrackPointExtension/v1">
            <gpxtpx:hr>150</gpxtpx:hr>
          </gpxtpx:TrackPointExtension>
        </extensions>
      </trkpt>
      <trkpt lat="44.22312" lon="4.49584">
        <ele>181.8</ele>
        <time>2024-10-17T17:03:09.960Z</time>
        <extensions>
          <gpxtpx:TrackPointExtension xmlns:gpxtpx="http://www.garmin.com/xmlschemas/TrackPointExtension/v1">
            <gpxtpx:hr>151</gpxtpx:hr>
          </gpxtpx:TrackPointExtension>
        </extensions>
      </trkpt>
      <trkpt lat="44.22313" lon="4.49581">
        <ele>182</ele>
        <time>2024-10-17T17:03:10.946Z</time>
        <extensions>
          <gpxtpx:TrackPointExtension xmlns:gpxtpx="http://www.garmin.com/xmlschemas/TrackPointExtension/v1">
            <gpxtpx:hr>151</gpxtpx:hr>
          </gpxtpx:TrackPointExtension>
        </extensions>
      </trkpt>
      <trkpt lat="44.22318" lon="4.49564">
        <ele>183</ele>
        <time>2024-10-17T17:03:16.428Z</time>
        <extensions>
          <gpxtpx:TrackPointExtension xmlns:gpxtpx="http://www.garmin.com/xmlschemas/TrackPointExtension/v1">
            <gpxtpx:hr>151</gpxtpx:hr>
          </gpxtpx:TrackPointExtension>
        </extensions>
      </trkpt>
      <trkpt lat="44.22319" lon="4.4956">
        <ele>183</ele>
        <time>2024-10-17T17:03:17.691Z</time>
        <extensions>
          <gpxtpx:TrackPointExtension xmlns:gpxtpx="http://www.garmin.com/xmlschemas/TrackPointExtension/v1">
            <gpxtpx:hr>151</gpxtpx:hr>
          </gpxtpx:TrackPointExtension>
        </extensions>
      </trkpt>
      <trkpt lat="44.22322" lon="4.49552">
        <ele>183.2</ele>
        <time>2024-10-17T17:03:20.384Z</time>
        <extensions>
          <gpxtpx:TrackPointExtension xmlns:gpxtpx="http://www.garmin.com/xmlschemas/TrackPointExtension/v1">
            <gpxtpx:hr>148</gpxtpx:hr>
          </gpxtpx:TrackPointExtension>
        </extensions>
      </trkpt>
      <trkpt lat="44.22326" lon="4.49538">
        <ele>183.4</ele>
        <time>2024-10-17T17:03:24.880Z</time>
        <extensions>
          <gpxtpx:TrackPointExtension xmlns:gpxtpx="http://www.garmin.com/xmlschemas/TrackPointExtension/v1">
            <gpxtpx:hr>151</gpxtpx:hr>
          </gpxtpx:TrackPointExtension>
        </extensions>
      </trkpt>
      <trkpt lat="44.22328" lon="4.4953">
        <ele>183.4</ele>
        <time>2024-10-17T17:03:27.407Z</time>
        <extensions>
          <gpxtpx:TrackPointExtension xmlns:gpxtpx="http://www.garmin.com/xmlschemas/TrackPointExtension/v1">
            <gpxtpx:hr>154</gpxtpx:hr>
          </gpxtpx:TrackPointExtension>
        </extensions>
      </trkpt>
      <trkpt lat="44.22331" lon="4.49519">
        <ele>183.6</ele>
        <time>2024-10-17T17:03:30.918Z</time>
        <extensions>
          <gpxtpx:TrackPointExtension xmlns:gpxtpx="http://www.garmin.com/xmlschemas/TrackPointExtension/v1">
            <gpxtpx:hr>157</gpxtpx:hr>
          </gpxtpx:TrackPointExtension>
        </extensions>
      </trkpt>
      <trkpt lat="44.22332" lon="4.49516">
        <ele>183.8</ele>
        <time>2024-10-17T17:03:31.905Z</time>
        <extensions>
          <gpxtpx:TrackPointExtension xmlns:gpxtpx="http://www.garmin.com/xmlschemas/TrackPointExtension/v1">
            <gpxtpx:hr>158</gpxtpx:hr>
          </gpxtpx:TrackPointExtension>
        </extensions>
      </trkpt>
      <trkpt lat="44.22334" lon="4.49514">
        <ele>184</ele>
        <time>2024-10-17T17:03:32.929Z</time>
        <extensions>
          <gpxtpx:TrackPointExtension xmlns:gpxtpx="http://www.garmin.com/xmlschemas/TrackPointExtension/v1">
            <gpxtpx:hr>161</gpxtpx:hr>
          </gpxtpx:TrackPointExtension>
        </extensions>
      </trkpt>
      <trkpt lat="44.22336" lon="4.49509">
        <ele>184.4</ele>
        <time>2024-10-17T17:03:34.637Z</time>
        <extensions>
          <gpxtpx:TrackPointExtension xmlns:gpxtpx="http://www.garmin.com/xmlschemas/TrackPointExtension/v1">
            <gpxtpx:hr>165</gpxtpx:hr>
          </gpxtpx:TrackPointExtension>
        </extensions>
      </trkpt>
      <trkpt lat="44.22342" lon="4.49495">
        <ele>184.8</ele>
        <time>2024-10-17T17:03:39.504Z</time>
        <extensions>
          <gpxtpx:TrackPointExtension xmlns:gpxtpx="http://www.garmin.com/xmlschemas/TrackPointExtension/v1">
            <gpxtpx:hr>167</gpxtpx:hr>
          </gpxtpx:TrackPointExtension>
        </extensions>
      </trkpt>
      <trkpt lat="44.22344" lon="4.49493">
        <ele>185</ele>
        <time>2024-10-17T17:03:40.528Z</time>
        <extensions>
          <gpxtpx:TrackPointExtension xmlns:gpxtpx="http://www.garmin.com/xmlschemas/TrackPointExtension/v1">
            <gpxtpx:hr>166</gpxtpx:hr>
          </gpxtpx:TrackPointExtension>
        </extensions>
      </trkpt>
      <trkpt lat="44.2235" lon="4.49478">
        <ele>185.6</ele>
        <time>2024-10-17T17:03:45.653Z</time>
        <extensions>
          <gpxtpx:TrackPointExtension xmlns:gpxtpx="http://www.garmin.com/xmlschemas/TrackPointExtension/v1">
            <gpxtpx:hr>165</gpxtpx:hr>
          </gpxtpx:TrackPointExtension>
        </extensions>
      </trkpt>
      <trkpt lat="44.22354" lon="4.49461">
        <ele>185</ele>
        <time>2024-10-17T17:03:50.991Z</time>
        <extensions>
          <gpxtpx:TrackPointExtension xmlns:gpxtpx="http://www.garmin.com/xmlschemas/TrackPointExtension/v1">
            <gpxtpx:hr>162</gpxtpx:hr>
          </gpxtpx:TrackPointExtension>
        </extensions>
      </trkpt>
      <trkpt lat="44.22354" lon="4.49458">
        <ele>184.8</ele>
        <time>2024-10-17T17:03:51.886Z</time>
        <extensions>
          <gpxtpx:TrackPointExtension xmlns:gpxtpx="http://www.garmin.com/xmlschemas/TrackPointExtension/v1">
            <gpxtpx:hr>163</gpxtpx:hr>
          </gpxtpx:TrackPointExtension>
        </extensions>
      </trkpt>
      <trkpt lat="44.22354" lon="4.49442">
        <ele>185.2</ele>
        <time>2024-10-17T17:03:56.659Z</time>
        <extensions>
          <gpxtpx:TrackPointExtension xmlns:gpxtpx="http://www.garmin.com/xmlschemas/TrackPointExtension/v1">
            <gpxtpx:hr>162</gpxtpx:hr>
          </gpxtpx:TrackPointExtension>
        </extensions>
      </trkpt>
      <trkpt lat="44.22356" lon="4.49424">
        <ele>186.2</ele>
        <time>2024-10-17T17:04:02.093Z</time>
        <extensions>
          <gpxtpx:TrackPointExtension xmlns:gpxtpx="http://www.garmin.com/xmlschemas/TrackPointExtension/v1">
            <gpxtpx:hr>163</gpxtpx:hr>
          </gpxtpx:TrackPointExtension>
        </extensions>
      </trkpt>
      <trkpt lat="44.22357" lon="4.49421">
        <ele>186.4</ele>
        <time>2024-10-17T17:04:03.080Z</time>
        <extensions>
          <gpxtpx:TrackPointExtension xmlns:gpxtpx="http://www.garmin.com/xmlschemas/TrackPointExtension/v1">
            <gpxtpx:hr>163</gpxtpx:hr>
          </gpxtpx:TrackPointExtension>
        </extensions>
      </trkpt>
      <trkpt lat="44.22361" lon="4.49408">
        <ele>186.8</ele>
        <time>2024-10-17T17:04:07.301Z</time>
        <extensions>
          <gpxtpx:TrackPointExtension xmlns:gpxtpx="http://www.garmin.com/xmlschemas/TrackPointExtension/v1">
            <gpxtpx:hr>160</gpxtpx:hr>
          </gpxtpx:TrackPointExtension>
        </extensions>
      </trkpt>
      <trkpt lat="44.22366" lon="4.49394">
        <ele>186.6</ele>
        <time>2024-10-17T17:04:11.967Z</time>
        <extensions>
          <gpxtpx:TrackPointExtension xmlns:gpxtpx="http://www.garmin.com/xmlschemas/TrackPointExtension/v1">
            <gpxtpx:hr>162</gpxtpx:hr>
          </gpxtpx:TrackPointExtension>
        </extensions>
      </trkpt>
      <trkpt lat="44.22374" lon="4.49381">
        <ele>187.4</ele>
        <time>2024-10-17T17:04:17.079Z</time>
        <extensions>
          <gpxtpx:TrackPointExtension xmlns:gpxtpx="http://www.garmin.com/xmlschemas/TrackPointExtension/v1">
            <gpxtpx:hr>163</gpxtpx:hr>
          </gpxtpx:TrackPointExtension>
        </extensions>
      </trkpt>
      <trkpt lat="44.22383" lon="4.49371">
        <ele>188.2</ele>
        <time>2024-10-17T17:04:21.868Z</time>
        <extensions>
          <gpxtpx:TrackPointExtension xmlns:gpxtpx="http://www.garmin.com/xmlschemas/TrackPointExtension/v1">
            <gpxtpx:hr>162</gpxtpx:hr>
          </gpxtpx:TrackPointExtension>
        </extensions>
      </trkpt>
      <trkpt lat="44.22384" lon="4.4937">
        <ele>188.6</ele>
        <time>2024-10-17T17:04:22.380Z</time>
        <extensions>
          <gpxtpx:TrackPointExtension xmlns:gpxtpx="http://www.garmin.com/xmlschemas/TrackPointExtension/v1">
            <gpxtpx:hr>161</gpxtpx:hr>
          </gpxtpx:TrackPointExtension>
        </extensions>
      </trkpt>
      <trkpt lat="44.22388" lon="4.49366">
        <ele>189.6</ele>
        <time>2024-10-17T17:04:24.429Z</time>
        <extensions>
          <gpxtpx:TrackPointExtension xmlns:gpxtpx="http://www.garmin.com/xmlschemas/TrackPointExtension/v1">
            <gpxtpx:hr>158</gpxtpx:hr>
          </gpxtpx:TrackPointExtension>
        </extensions>
      </trkpt>
      <trkpt lat="44.22392" lon="4.49361">
        <ele>190.6</ele>
        <time>2024-10-17T17:04:26.665Z</time>
        <extensions>
          <gpxtpx:TrackPointExtension xmlns:gpxtpx="http://www.garmin.com/xmlschemas/TrackPointExtension/v1">
            <gpxtpx:hr>159</gpxtpx:hr>
          </gpxtpx:TrackPointExtension>
        </extensions>
      </trkpt>
      <trkpt lat="44.22398" lon="4.49354">
        <ele>191.8</ele>
        <time>2024-10-17T17:04:29.921Z</time>
        <extensions>
          <gpxtpx:TrackPointExtension xmlns:gpxtpx="http://www.garmin.com/xmlschemas/TrackPointExtension/v1">
            <gpxtpx:hr>157</gpxtpx:hr>
          </gpxtpx:TrackPointExtension>
        </extensions>
      </trkpt>
      <trkpt lat="44.22404" lon="4.4935">
        <ele>192.4</ele>
        <time>2024-10-17T17:04:32.689Z</time>
        <extensions>
          <gpxtpx:TrackPointExtension xmlns:gpxtpx="http://www.garmin.com/xmlschemas/TrackPointExtension/v1">
            <gpxtpx:hr>158</gpxtpx:hr>
          </gpxtpx:TrackPointExtension>
        </extensions>
      </trkpt>
      <trkpt lat="44.22411" lon="4.49344">
        <ele>193</ele>
        <time>2024-10-17T17:04:36.109Z</time>
        <extensions>
          <gpxtpx:TrackPointExtension xmlns:gpxtpx="http://www.garmin.com/xmlschemas/TrackPointExtension/v1">
            <gpxtpx:hr>158</gpxtpx:hr>
          </gpxtpx:TrackPointExtension>
        </extensions>
      </trkpt>
      <trkpt lat="44.22415" lon="4.4934">
        <ele>193.2</ele>
        <time>2024-10-17T17:04:38.157Z</time>
        <extensions>
          <gpxtpx:TrackPointExtension xmlns:gpxtpx="http://www.garmin.com/xmlschemas/TrackPointExtension/v1">
            <gpxtpx:hr>156</gpxtpx:hr>
          </gpxtpx:TrackPointExtension>
        </extensions>
      </trkpt>
      <trkpt lat="44.22416" lon="4.49338">
        <ele>193.4</ele>
        <time>2024-10-17T17:04:38.885Z</time>
        <extensions>
          <gpxtpx:TrackPointExtension xmlns:gpxtpx="http://www.garmin.com/xmlschemas/TrackPointExtension/v1">
            <gpxtpx:hr>152</gpxtpx:hr>
          </gpxtpx:TrackPointExtension>
        </extensions>
      </trkpt>
      <trkpt lat="44.22417" lon="4.49336">
        <ele>193.4</ele>
        <time>2024-10-17T17:04:39.613Z</time>
        <extensions>
          <gpxtpx:TrackPointExtension xmlns:gpxtpx="http://www.garmin.com/xmlschemas/TrackPointExtension/v1">
            <gpxtpx:hr>152</gpxtpx:hr>
          </gpxtpx:TrackPointExtension>
        </extensions>
      </trkpt>
      <trkpt lat="44.22417" lon="4.49335">
        <ele>182</ele>
        <time>2024-10-17T17:04:39.910Z</time>
      </trkpt>
      <trkpt lat="44.2243" lon="4.49361">
        <ele>185</ele>
        <time>2024-10-17T17:04:49.368Z</time>
      </trkpt>
      <trkpt lat="44.22435" lon="4.49378">
        <ele>187</ele>
        <time>2024-10-17T17:04:54.850Z</time>
      </trkpt>
      <trkpt lat="44.22479" lon="4.49403">
        <ele>194</ele>
        <time>2024-10-17T17:05:14.628Z</time>
      </trkpt>
      <trkpt lat="44.22486" lon="4.4941">
        <ele>196</ele>
        <time>2024-10-17T17:05:18.213Z</time>
      </trkpt>
      <trkpt lat="44.22493" lon="4.49429">
        <ele>199</ele>
        <time>2024-10-17T17:05:24.586Z</time>
      </trkpt>
      <trkpt lat="44.22494" lon="4.49465">
        <ele>201</ele>
        <time>2024-10-17T17:05:35.334Z</time>
      </trkpt>
      <trkpt lat="44.22498" lon="4.49478">
        <ele>203</ele>
        <time>2024-10-17T17:05:39.554Z</time>
      </trkpt>
      <trkpt lat="44.22503" lon="4.49482">
        <ele>204</ele>
        <time>2024-10-17T17:05:41.953Z</time>
      </trkpt>
      <trkpt lat="44.22521" lon="4.49463">
        <ele>205</ele>
        <time>2024-10-17T17:05:51.349Z</time>
      </trkpt>
      <trkpt lat="44.22566" lon="4.49452">
        <ele>209</ele>
        <time>2024-10-17T17:06:10.369Z</time>
      </trkpt>
      <trkpt lat="44.2261" lon="4.49432">
        <ele>210</ele>
        <time>2024-10-17T17:06:29.634Z</time>
      </trkpt>
      <trkpt lat="44.22635" lon="4.4943">
        <ele>212</ele>
        <time>2024-10-17T17:06:40.059Z</time>
      </trkpt>
      <trkpt lat="44.22645" lon="4.49435">
        <ele>214</ele>
        <time>2024-10-17T17:06:44.481Z</time>
      </trkpt>
      <trkpt lat="44.22668" lon="4.49431">
        <ele>214.8</ele>
        <time>2024-10-17T17:06:54.130Z</time>
      </trkpt>
      <trkpt lat="44.22683" lon="4.49429">
        <ele>217.2</ele>
        <time>2024-10-17T17:07:00.403Z</time>
      </trkpt>
      <trkpt lat="44.22704" lon="4.49421">
        <ele>217.7</ele>
        <time>2024-10-17T17:07:09.465Z</time>
      </trkpt>
      <trkpt lat="44.22751" lon="4.49422">
        <ele>222.8</ele>
        <time>2024-10-17T17:07:29.034Z</time>
      </trkpt>
      <trkpt lat="44.22824" lon="4.49444">
        <ele>227.2</ele>
        <time>2024-10-17T17:08:00.126Z</time>
      </trkpt>
      <trkpt lat="44.2286" lon="4.49472">
        <ele>229</ele>
        <time>2024-10-17T17:08:17.284Z</time>
      </trkpt>
      <trkpt lat="44.22879" lon="4.49493">
        <ele>230.8</ele>
        <time>2024-10-17T17:08:27.374Z</time>
      </trkpt>
      <trkpt lat="44.22883" lon="4.49504">
        <ele>232</ele>
        <time>2024-10-17T17:08:31.053Z</time>
      </trkpt>
      <trkpt lat="44.22888" lon="4.49538">
        <ele>234.3</ele>
        <time>2024-10-17T17:08:41.407Z</time>
      </trkpt>
      <trkpt lat="44.22897" lon="4.49563">
        <ele>234.3</ele>
        <time>2024-10-17T17:08:49.753Z</time>
      </trkpt>
      <trkpt lat="44.22903" lon="4.49581">
        <ele>234.2</ele>
        <time>2024-10-17T17:08:55.675Z</time>
      </trkpt>
      <trkpt lat="44.22919" lon="4.49607">
        <ele>235.3</ele>
        <time>2024-10-17T17:09:05.899Z</time>
      </trkpt>
      <trkpt lat="44.22929" lon="4.49645">
        <ele>237.7</ele>
        <time>2024-10-17T17:09:17.975Z</time>
      </trkpt>
      <trkpt lat="44.22927" lon="4.49667">
        <ele>240.8</ele>
        <time>2024-10-17T17:09:24.590Z</time>
      </trkpt>
      <trkpt lat="44.22937" lon="4.497">
        <ele>242.6</ele>
        <time>2024-10-17T17:09:35.278Z</time>
      </trkpt>
      <trkpt lat="44.22947" lon="4.49717">
        <ele>245.1</ele>
        <time>2024-10-17T17:09:41.839Z</time>
      </trkpt>
      <trkpt lat="44.22991" lon="4.49744">
        <ele>248.7</ele>
        <time>2024-10-17T17:10:01.850Z</time>
      </trkpt>
      <trkpt lat="44.23019" lon="4.49781">
        <ele>254.9</ele>
        <time>2024-10-17T17:10:17.903Z</time>
      </trkpt>
      <trkpt lat="44.23033" lon="4.49807">
        <ele>258.3</ele>
        <time>2024-10-17T17:10:27.605Z</time>
      </trkpt>
      <trkpt lat="44.23096" lon="4.49857">
        <ele>265.2</ele>
        <time>2024-10-17T17:10:57.778Z</time>
      </trkpt>
      <trkpt lat="44.23144" lon="4.49893">
        <ele>273.1</ele>
        <time>2024-10-17T17:11:20.464Z</time>
      </trkpt>
      <trkpt lat="44.23192" lon="4.49926">
        <ele>279.7</ele>
        <time>2024-10-17T17:11:42.741Z</time>
      </trkpt>
      <trkpt lat="44.23237" lon="4.49929">
        <ele>283.1</ele>
        <time>2024-10-17T17:12:01.497Z</time>
      </trkpt>
      <trkpt lat="44.23277" lon="4.49933">
        <ele>289</ele>
        <time>2024-10-17T17:12:18.193Z</time>
      </trkpt>
      <trkpt lat="44.23323" lon="4.49947">
        <ele>295.5</ele>
        <time>2024-10-17T17:12:37.794Z</time>
      </trkpt>
      <trkpt lat="44.23345" lon="4.49964">
        <ele>297.7</ele>
        <time>2024-10-17T17:12:48.263Z</time>
      </trkpt>
      <trkpt lat="44.23352" lon="4.49972">
        <ele>298</ele>
        <time>2024-10-17T17:12:52.029Z</time>
      </trkpt>
      <trkpt lat="44.23401" lon="4.5001">
        <ele>298</ele>
        <time>2024-10-17T17:13:15.367Z</time>
      </trkpt>
      <trkpt lat="44.23404" lon="4.50015">
        <ele>297</ele>
        <time>2024-10-17T17:13:17.312Z</time>
      </trkpt>
      <trkpt lat="44.23419" lon="4.50017">
        <ele>296</ele>
        <time>2024-10-17T17:13:23.585Z</time>
      </trkpt>
      <trkpt lat="44.23506" lon="4.49971">
        <ele>300</ele>
        <time>2024-10-17T17:14:02.318Z</time>
      </trkpt>
      <trkpt lat="44.2351" lon="4.49964">
        <ele>294.5</ele>
        <time>2024-10-17T17:14:04.988Z</time>
      </trkpt>
      <trkpt lat="44.23533" lon="4.49941">
        <ele>297.4</ele>
        <time>2024-10-17T17:14:16.767Z</time>
      </trkpt>
      <trkpt lat="44.23545" lon="4.49914">
        <ele>298.5</ele>
        <time>2024-10-17T17:14:26.244Z</time>
      </trkpt>
      <trkpt lat="44.23571" lon="4.4989">
        <ele>294.7</ele>
        <time>2024-10-17T17:14:39.221Z</time>
      </trkpt>
      <trkpt lat="44.2361" lon="4.49842">
        <ele>286.8</ele>
        <time>2024-10-17T17:15:00.869Z</time>
      </trkpt>
      <trkpt lat="44.23626" lon="4.49804">
        <ele>279.8</ele>
        <time>2024-10-17T17:15:14.016Z</time>
      </trkpt>
      <trkpt lat="44.23632" lon="4.49793">
        <ele>277.6</ele>
        <time>2024-10-17T17:15:18.139Z</time>
      </trkpt>
      <trkpt lat="44.23656" lon="4.4979">
        <ele>275.5</ele>
        <time>2024-10-17T17:15:28.171Z</time>
      </trkpt>
      <trkpt lat="44.23677" lon="4.4977">
        <ele>267.8</ele>
        <time>2024-10-17T17:15:38.755Z</time>
      </trkpt>
      <trkpt lat="44.23707" lon="4.49767">
        <ele>264.8</ele>
        <time>2024-10-17T17:15:51.276Z</time>
      </trkpt>
      <trkpt lat="44.2374" lon="4.49763">
        <ele>260.6</ele>
        <time>2024-10-17T17:16:05.066Z</time>
      </trkpt>
      <trkpt lat="44.23753" lon="4.4977">
        <ele>260.9</ele>
        <time>2024-10-17T17:16:10.866Z</time>
      </trkpt>
      <trkpt lat="44.23786" lon="4.49771">
        <ele>256.2</ele>
        <time>2024-10-17T17:16:24.608Z</time>
      </trkpt>
      <trkpt lat="44.23792" lon="4.49765">
        <ele>254.6</ele>
        <time>2024-10-17T17:16:27.680Z</time>
      </trkpt>
      <trkpt lat="44.23763" lon="4.49737">
        <ele>253.4</ele>
        <time>2024-10-17T17:16:42.360Z</time>
      </trkpt>
      <trkpt lat="44.23739" lon="4.49711">
        <ele>252.9</ele>
        <time>2024-10-17T17:16:55.008Z</time>
      </trkpt>
      <trkpt lat="44.23736" lon="4.49644">
        <ele>244.7</ele>
        <time>2024-10-17T17:17:15.032Z</time>
      </trkpt>
      <trkpt lat="44.23728" lon="4.49584">
        <ele>233.6</ele>
        <time>2024-10-17T17:17:33.236Z</time>
      </trkpt>
      <trkpt lat="44.2373" lon="4.49545">
        <ele>228.6</ele>
        <time>2024-10-17T17:17:44.898Z</time>
      </trkpt>
      <trkpt lat="44.23735" lon="4.49521">
        <ele>225.3</ele>
        <time>2024-10-17T17:17:52.353Z</time>
      </trkpt>
      <trkpt lat="44.23735" lon="4.49435">
        <ele>216</ele>
        <time>2024-10-17T17:18:18.005Z</time>
      </trkpt>
      <trkpt lat="44.23721" lon="4.49445">
        <ele>215.4</ele>
        <time>2024-10-17T17:18:24.552Z</time>
      </trkpt>
      <trkpt lat="44.23719" lon="4.49455">
        <ele>216.5</ele>
        <time>2024-10-17T17:18:27.648Z</time>
      </trkpt>
      <trkpt lat="44.2371" lon="4.49458">
        <ele>218.7</ele>
        <time>2024-10-17T17:18:31.500Z</time>
      </trkpt>
      <trkpt lat="44.23701" lon="4.49449">
        <ele>219.8</ele>
        <time>2024-10-17T17:18:36.109Z</time>
      </trkpt>
      <trkpt lat="44.23696" lon="4.49456">
        <ele>221.5</ele>
        <time>2024-10-17T17:18:39.057Z</time>
      </trkpt>
      <trkpt lat="44.23695" lon="4.49481">
        <ele>223.7</ele>
        <time>2024-10-17T17:18:46.525Z</time>
      </trkpt>
      <trkpt lat="44.23682" lon="4.49502">
        <ele>226.3</ele>
        <time>2024-10-17T17:18:54.803Z</time>
      </trkpt>
      <trkpt lat="44.2366" lon="4.49538">
        <ele>232.3</ele>
        <time>2024-10-17T17:19:08.917Z</time>
      </trkpt>
      <trkpt lat="44.23648" lon="4.49557">
        <ele>236.2</ele>
        <time>2024-10-17T17:19:16.472Z</time>
      </trkpt>
      <trkpt lat="44.23624" lon="4.49569">
        <ele>240.8</ele>
        <time>2024-10-17T17:19:27.085Z</time>
      </trkpt>
      <trkpt lat="44.23607" lon="4.49564">
        <ele>241.8</ele>
        <time>2024-10-17T17:19:34.318Z</time>
      </trkpt>
      <trkpt lat="44.23585" lon="4.49547">
        <ele>237.8</ele>
        <time>2024-10-17T17:19:44.787Z</time>
      </trkpt>
      <trkpt lat="44.23576" lon="4.49532">
        <ele>238</ele>
        <time>2024-10-17T17:19:50.622Z</time>
      </trkpt>
      <trkpt lat="44.23577" lon="4.49495">
        <ele>237.1</ele>
        <time>2024-10-17T17:20:01.666Z</time>
      </trkpt>
      <trkpt lat="44.23581" lon="4.49463">
        <ele>240.2</ele>
        <time>2024-10-17T17:20:11.355Z</time>
      </trkpt>
      <trkpt lat="44.23578" lon="4.49448">
        <ele>241.7</ele>
        <time>2024-10-17T17:20:16.000Z</time>
      </trkpt>
      <trkpt lat="44.23575" lon="4.49445">
        <ele>242.5</ele>
        <time>2024-10-17T17:20:17.537Z</time>
      </trkpt>
      <trkpt lat="44.23558" lon="4.49382">
        <ele>236.3</ele>
        <time>2024-10-17T17:20:37.618Z</time>
      </trkpt>
      <trkpt lat="44.23551" lon="4.4935">
        <ele>231.5</ele>
        <time>2024-10-17T17:20:47.598Z</time>
      </trkpt>
      <trkpt lat="44.23539" lon="4.49324">
        <ele>231.5</ele>
        <time>2024-10-17T17:20:56.823Z</time>
      </trkpt>
      <trkpt lat="44.23565" lon="4.4928">
        <ele>224</ele>
        <time>2024-10-17T17:21:13.835Z</time>
      </trkpt>
      <trkpt lat="44.23584" lon="4.49242">
        <ele>219.9</ele>
        <time>2024-10-17T17:21:27.657Z</time>
      </trkpt>
      <trkpt lat="44.2359" lon="4.49208">
        <ele>217.8</ele>
        <time>2024-10-17T17:21:38.102Z</time>
      </trkpt>
      <trkpt lat="44.23588" lon="4.4914">
        <ele>213.9</ele>
        <time>2024-10-17T17:21:58.402Z</time>
      </trkpt>
      <trkpt lat="44.23598" lon="4.4912">
        <ele>212.1</ele>
        <time>2024-10-17T17:22:05.676Z</time>
      </trkpt>
      <trkpt lat="44.23601" lon="4.49069">
        <ele>208.3</ele>
        <time>2024-10-17T17:22:20.940Z</time>
      </trkpt>
      <trkpt lat="44.236" lon="4.49028">
        <ele>205.9</ele>
        <time>2024-10-17T17:22:33.177Z</time>
      </trkpt>
      <trkpt lat="44.23607" lon="4.48975">
        <ele>204.6</ele>
        <time>2024-10-17T17:22:49.252Z</time>
      </trkpt>
      <trkpt lat="44.236" lon="4.48914">
        <ele>203.9</ele>
        <time>2024-10-17T17:23:07.679Z</time>
      </trkpt>
      <trkpt lat="44.23591" lon="4.48816">
        <ele>201.2</ele>
        <time>2024-10-17T17:23:37.150Z</time>
      </trkpt>
      <trkpt lat="44.23579" lon="4.4874">
        <ele>198.3</ele>
        <time>2024-10-17T17:24:00.364Z</time>
      </trkpt>
      <trkpt lat="44.2358" lon="4.48714">
        <ele>196.9</ele>
        <time>2024-10-17T17:24:08.130Z</time>
      </trkpt>
      <trkpt lat="44.23563" lon="4.48614">
        <ele>187.5</ele>
        <time>2024-10-17T17:24:38.787Z</time>
      </trkpt>
      <trkpt lat="44.23542" lon="4.48601">
        <ele>189</ele>
        <time>2024-10-17T17:24:48.351Z</time>
      </trkpt>
      <trkpt lat="44.23537" lon="4.48567">
        <ele>184.5</ele>
        <time>2024-10-17T17:24:58.704Z</time>
      </trkpt>
      <trkpt lat="44.23556" lon="4.48542">
        <ele>176.6</ele>
        <time>2024-10-17T17:25:09.575Z</time>
      </trkpt>
      <trkpt lat="44.23565" lon="4.48546">
        <ele>176.8</ele>
        <time>2024-10-17T17:25:13.507Z</time>
      </trkpt>
      <trkpt lat="44.23582" lon="4.48533">
        <ele>174.8</ele>
        <time>2024-10-17T17:25:21.577Z</time>
      </trkpt>
      <trkpt lat="44.23635" lon="4.48513">
        <ele>164.6</ele>
        <time>2024-10-17T17:25:44.434Z</time>
      </trkpt>
      <trkpt lat="44.23644" lon="4.48518">
        <ele>163.4</ele>
        <time>2024-10-17T17:25:48.466Z</time>
      </trkpt>
      <trkpt lat="44.23652" lon="4.48542">
        <ele>163.4</ele>
        <time>2024-10-17T17:25:56.361Z</time>
      </trkpt>
      <trkpt lat="44.2366" lon="4.48584">
        <ele>165</ele>
        <time>2024-10-17T17:26:09.324Z</time>
      </trkpt>
      <trkpt lat="44.23664" lon="4.48606">
        <ele>166</ele>
        <time>2024-10-17T17:26:16.094Z</time>
      </trkpt>
      <trkpt lat="44.23685" lon="4.4865">
        <ele>164</ele>
        <time>2024-10-17T17:26:31.864Z</time>
      </trkpt>
      <trkpt lat="44.23693" lon="4.48661">
        <ele>163</ele>
        <time>2024-10-17T17:26:36.539Z</time>
      </trkpt>
      <trkpt lat="44.23699" lon="4.48661">
        <ele>161.1</ele>
        <time>2024-10-17T17:26:39.036Z</time>
      </trkpt>
      <trkpt lat="44.23702" lon="4.48649">
        <ele>159.1</ele>
        <time>2024-10-17T17:26:42.826Z</time>
      </trkpt>
      <trkpt lat="44.23707" lon="4.48631">
        <ele>156.4</ele>
        <time>2024-10-17T17:26:48.584Z</time>
      </trkpt>
      <trkpt lat="44.23712" lon="4.48579">
        <ele>153.1</ele>
        <time>2024-10-17T17:27:04.233Z</time>
      </trkpt>
      <trkpt lat="44.2371" lon="4.48561">
        <ele>152.9</ele>
        <time>2024-10-17T17:27:09.666Z</time>
      </trkpt>
      <trkpt lat="44.23687" lon="4.48521">
        <ele>153.7</ele>
        <time>2024-10-17T17:27:24.964Z</time>
      </trkpt>
      <trkpt lat="44.23688" lon="4.48514">
        <ele>152.5</ele>
        <time>2024-10-17T17:27:27.093Z</time>
      </trkpt>
      <trkpt lat="44.23704" lon="4.48533">
        <ele>151.7</ele>
        <time>2024-10-17T17:27:35.839Z</time>
      </trkpt>
      <trkpt lat="44.23714" lon="4.48544">
        <ele>150.9</ele>
        <time>2024-10-17T17:27:41.139Z</time>
      </trkpt>
      <trkpt lat="44.23728" lon="4.48547">
        <ele>148.5</ele>
        <time>2024-10-17T17:27:47.036Z</time>
      </trkpt>
      <trkpt lat="44.23731" lon="4.48547">
        <ele>148</ele>
        <time>2024-10-17T17:27:48.284Z</time>
      </trkpt>
      <trkpt lat="44.23743" lon="4.48557">
        <ele>146.5</ele>
        <time>2024-10-17T17:27:54.102Z</time>
      </trkpt>
      <trkpt lat="44.23747" lon="4.48563">
        <ele>146.2</ele>
        <time>2024-10-17T17:27:56.546Z</time>
      </trkpt>
      <trkpt lat="44.23747" lon="4.48583">
        <ele>148.3</ele>
        <time>2024-10-17T17:28:02.511Z</time>
      </trkpt>
      <trkpt lat="44.23751" lon="4.4859">
        <ele>149.1</ele>
        <time>2024-10-17T17:28:05.181Z</time>
      </trkpt>
      <trkpt lat="44.23767" lon="4.48587">
        <ele>150.9</ele>
        <time>2024-10-17T17:28:11.902Z</time>
      </trkpt>
      <trkpt lat="44.23776" lon="4.48579">
        <ele>151.3</ele>
        <time>2024-10-17T17:28:16.344Z</time>
      </trkpt>
      <trkpt lat="44.23788" lon="4.48581">
        <ele>150.1</ele>
        <time>2024-10-17T17:28:21.375Z</time>
      </trkpt>
      <trkpt lat="44.23799" lon="4.48589">
        <ele>149.8</ele>
        <time>2024-10-17T17:28:26.539Z</time>
      </trkpt>
      <trkpt lat="44.23809" lon="4.4865">
        <ele>156.8</ele>
        <time>2024-10-17T17:28:45.204Z</time>
      </trkpt>
      <trkpt lat="44.23802" lon="4.48699">
        <ele>162.7</ele>
        <time>2024-10-17T17:29:00.107Z</time>
      </trkpt>
      <trkpt lat="44.23815" lon="4.48702">
        <ele>161.6</ele>
        <time>2024-10-17T17:29:05.592Z</time>
      </trkpt>
      <trkpt lat="44.23823" lon="4.48719">
        <ele>162.5</ele>
        <time>2024-10-17T17:29:11.658Z</time>
      </trkpt>
      <trkpt lat="44.23826" lon="4.48731">
        <ele>163.2</ele>
        <time>2024-10-17T17:29:15.448Z</time>
      </trkpt>
      <trkpt lat="44.23836" lon="4.48743">
        <ele>162.4</ele>
        <time>2024-10-17T17:29:20.938Z</time>
      </trkpt>
      <trkpt lat="44.23846" lon="4.48771">
        <ele>161.8</ele>
        <time>2024-10-17T17:29:30.270Z</time>
      </trkpt>
      <trkpt lat="44.23847" lon="4.48807">
        <ele>164.2</ele>
        <time>2024-10-17T17:29:41.016Z</time>
      </trkpt>
      <trkpt lat="44.23842" lon="4.48842">
        <ele>168.2</ele>
        <time>2024-10-17T17:29:51.661Z</time>
      </trkpt>
      <trkpt lat="44.23839" lon="4.48857">
        <ele>169.9</ele>
        <time>2024-10-17T17:29:56.306Z</time>
      </trkpt>
      <trkpt lat="44.23832" lon="4.48868">
        <ele>172.9</ele>
        <time>2024-10-17T17:30:00.694Z</time>
      </trkpt>
      <trkpt lat="44.23827" lon="4.48897">
        <ele>172.2</ele>
        <time>2024-10-17T17:30:09.591Z</time>
      </trkpt>
      <trkpt lat="44.2382" lon="4.48909">
        <ele>172.6</ele>
        <time>2024-10-17T17:30:14.206Z</time>
      </trkpt>
      <trkpt lat="44.23811" lon="4.48916">
        <ele>174.7</ele>
        <time>2024-10-17T17:30:18.495Z</time>
      </trkpt>
      <trkpt lat="44.23806" lon="4.48923">
        <ele>176.2</ele>
        <time>2024-10-17T17:30:21.443Z</time>
      </trkpt>
      <trkpt lat="44.23811" lon="4.48939">
        <ele>175.1</ele>
        <time>2024-10-17T17:30:26.649Z</time>
      </trkpt>
      <trkpt lat="44.23816" lon="4.48996">
        <ele>175.4</ele>
        <time>2024-10-17T17:30:43.777Z</time>
      </trkpt>
      <trkpt lat="44.23828" lon="4.49059">
        <ele>176</ele>
        <time>2024-10-17T17:31:03.221Z</time>
      </trkpt>
      <trkpt lat="44.23833" lon="4.49102">
        <ele>175.5</ele>
        <time>2024-10-17T17:31:16.214Z</time>
      </trkpt>
      <trkpt lat="44.23838" lon="4.49117">
        <ele>175.4</ele>
        <time>2024-10-17T17:31:21.148Z</time>
      </trkpt>
      <trkpt lat="44.23845" lon="4.49114">
        <ele>174.5</ele>
        <time>2024-10-17T17:31:24.196Z</time>
      </trkpt>
      <trkpt lat="44.2386" lon="4.49043">
        <ele>167.3</ele>
        <time>2024-10-17T17:31:46.275Z</time>
      </trkpt>
      <trkpt lat="44.2385" lon="4.49003">
        <ele>167.3</ele>
        <time>2024-10-17T17:31:58.911Z</time>
      </trkpt>
      <trkpt lat="44.2385" lon="4.48974">
        <ele>164.8</ele>
        <time>2024-10-17T17:32:07.561Z</time>
      </trkpt>
      <trkpt lat="44.23856" lon="4.48926">
        <ele>160.8</ele>
        <time>2024-10-17T17:32:22.094Z</time>
      </trkpt>
      <trkpt lat="44.2387" lon="4.48883">
        <ele>158.1</ele>
        <time>2024-10-17T17:32:36.182Z</time>
      </trkpt>
      <trkpt lat="44.23881" lon="4.48839">
        <ele>157.2</ele>
        <time>2024-10-17T17:32:50.082Z</time>
      </trkpt>
      <trkpt lat="44.23869" lon="4.4874">
        <ele>150.9</ele>
        <time>2024-10-17T17:33:20.031Z</time>
      </trkpt>
      <trkpt lat="44.23854" lon="4.48635">
        <ele>146</ele>
        <time>2024-10-17T17:33:51.966Z</time>
      </trkpt>
      <trkpt lat="44.23802" lon="4.48533">
        <ele>138.8</ele>
        <time>2024-10-17T17:34:29.306Z</time>
      </trkpt>
      <trkpt lat="44.23798" lon="4.48443">
        <ele>134.5</ele>
        <time>2024-10-17T17:34:56.202Z</time>
      </trkpt>
      <trkpt lat="44.23777" lon="4.48398">
        <ele>138.2</ele>
        <time>2024-10-17T17:35:12.221Z</time>
      </trkpt>
      <trkpt lat="44.23741" lon="4.48374">
        <ele>135.6</ele>
        <time>2024-10-17T17:35:28.830Z</time>
      </trkpt>
      <trkpt lat="44.2372" lon="4.48367">
        <ele>132.9</ele>
        <time>2024-10-17T17:35:37.818Z</time>
      </trkpt>
      <trkpt lat="44.2371" lon="4.48373">
        <ele>131.3</ele>
        <time>2024-10-17T17:35:42.349Z</time>
      </trkpt>
      <trkpt lat="44.23682" lon="4.48336">
        <ele>131.4</ele>
        <time>2024-10-17T17:35:58.402Z</time>
      </trkpt>
      <trkpt lat="44.23651" lon="4.48344">
        <ele>128.5</ele>
        <time>2024-10-17T17:36:11.527Z</time>
      </trkpt>
      <trkpt lat="44.2363" lon="4.48334">
        <ele>126.4</ele>
        <time>2024-10-17T17:36:20.764Z</time>
      </trkpt>
      <trkpt lat="44.23615" lon="4.48316">
        <ele>126.7</ele>
        <time>2024-10-17T17:36:28.999Z</time>
      </trkpt>
      <trkpt lat="44.23605" lon="4.48309">
        <ele>126.2</ele>
        <time>2024-10-17T17:36:33.656Z</time>
      </trkpt>
      <trkpt lat="44.23596" lon="4.48313">
        <ele>125.8</ele>
        <time>2024-10-17T17:36:37.588Z</time>
      </trkpt>
      <trkpt lat="44.2356" lon="4.48317">
        <ele>129.2</ele>
        <time>2024-10-17T17:36:52.623Z</time>
      </trkpt>
      <trkpt lat="44.23519" lon="4.48319">
        <ele>135</ele>
        <time>2024-10-17T17:37:09.703Z</time>
      </trkpt>
      <trkpt lat="44.23481" lon="4.48306">
        <ele>136.5</ele>
        <time>2024-10-17T17:37:25.991Z</time>
      </trkpt>
      <trkpt lat="44.23461" lon="4.48313">
        <ele>138.1</ele>
        <time>2024-10-17T17:37:34.575Z</time>
      </trkpt>
      <trkpt lat="44.23451" lon="4.48322">
        <ele>139.1</ele>
        <time>2024-10-17T17:37:39.528Z</time>
      </trkpt>
      <trkpt lat="44.23434" lon="4.48366">
        <ele>142.3</ele>
        <time>2024-10-17T17:37:54.439Z</time>
      </trkpt>
      <trkpt lat="44.23427" lon="4.48425">
        <ele>147.5</ele>
        <time>2024-10-17T17:38:12.278Z</time>
      </trkpt>
      <trkpt lat="44.23404" lon="4.48479">
        <ele>149.6</ele>
        <time>2024-10-17T17:38:31.017Z</time>
      </trkpt>
      <trkpt lat="44.23396" lon="4.48554">
        <ele>155.3</ele>
        <time>2024-10-17T17:38:53.636Z</time>
      </trkpt>
      <trkpt lat="44.23393" lon="4.48554">
        <ele>154.7</ele>
        <time>2024-10-17T17:38:54.885Z</time>
      </trkpt>
      <trkpt lat="44.23347" lon="4.48535">
        <ele>147.3</ele>
        <time>2024-10-17T17:39:14.857Z</time>
      </trkpt>
      <trkpt lat="44.23317" lon="4.48537">
        <ele>145.2</ele>
        <time>2024-10-17T17:39:27.361Z</time>
      </trkpt>
      <trkpt lat="44.23253" lon="4.48508">
        <ele>142.3</ele>
        <time>2024-10-17T17:39:55.375Z</time>
      </trkpt>
      <trkpt lat="44.23217" lon="4.4847">
        <ele>143.1</ele>
        <time>2024-10-17T17:40:14.167Z</time>
      </trkpt>
      <trkpt lat="44.23204" lon="4.48454">
        <ele>143.7</ele>
        <time>2024-10-17T17:40:21.383Z</time>
      </trkpt>
      <trkpt lat="44.23181" lon="4.48444">
        <ele>144.5</ele>
        <time>2024-10-17T17:40:31.412Z</time>
      </trkpt>
      <trkpt lat="44.23168" lon="4.48438">
        <ele>145.5</ele>
        <time>2024-10-17T17:40:37.112Z</time>
      </trkpt>
      <trkpt lat="44.23162" lon="4.48439">
        <ele>145.6</ele>
        <time>2024-10-17T17:40:39.627Z</time>
      </trkpt>
      <trkpt lat="44.23156" lon="4.48437">
        <ele>145.8</ele>
        <time>2024-10-17T17:40:42.195Z</time>
      </trkpt>
      <trkpt lat="44.23079" lon="4.48314">
        <ele>151.4</ele>
        <time>2024-10-17T17:41:30.919Z</time>
      </trkpt>
      <trkpt lat="44.2299" lon="4.48267">
        <ele>152.3</ele>
        <time>2024-10-17T17:42:10.536Z</time>
      </trkpt>
      <trkpt lat="44.22888" lon="4.48217">
        <ele>154.1</ele>
        <time>2024-10-17T17:42:55.545Z</time>
      </trkpt>
      <trkpt lat="44.22833" lon="4.48181">
        <ele>146</ele>
        <time>2024-10-17T17:43:20.836Z</time>
      </trkpt>
      <trkpt lat="44.22818" lon="4.48179">
        <ele>143.2</ele>
        <time>2024-10-17T17:43:27.109Z</time>
      </trkpt>
      <trkpt lat="44.22787" lon="4.48167">
        <ele>137.4</ele>
        <time>2024-10-17T17:43:40.502Z</time>
      </trkpt>
      <trkpt lat="44.22743" lon="4.48142">
        <ele>129.9</ele>
        <time>2024-10-17T17:44:00.280Z</time>
      </trkpt>
      <trkpt lat="44.2272" lon="4.48123">
        <ele>124.6</ele>
        <time>2024-10-17T17:44:11.407Z</time>
      </trkpt>
      <trkpt lat="44.22685" lon="4.48095">
        <ele>119.8</ele>
        <time>2024-10-17T17:44:28.203Z</time>
      </trkpt>
      <trkpt lat="44.2265" lon="4.48079">
        <ele>117</ele>
        <time>2024-10-17T17:44:43.536Z</time>
      </trkpt>
      <trkpt lat="44.22643" lon="4.48088">
        <ele>120.6</ele>
        <time>2024-10-17T17:44:47.498Z</time>
        <extensions>
          <gpxtpx:TrackPointExtension xmlns:gpxtpx="http://www.garmin.com/xmlschemas/TrackPointExtension/v1">
            <gpxtpx:hr>151</gpxtpx:hr>
          </gpxtpx:TrackPointExtension>
        </extensions>
      </trkpt>
      <trkpt lat="44.22642" lon="4.48095">
        <ele>121.8</ele>
        <time>2024-10-17T17:44:49.627Z</time>
        <extensions>
          <gpxtpx:TrackPointExtension xmlns:gpxtpx="http://www.garmin.com/xmlschemas/TrackPointExtension/v1">
            <gpxtpx:hr>149</gpxtpx:hr>
          </gpxtpx:TrackPointExtension>
        </extensions>
      </trkpt>
      <trkpt lat="44.2264" lon="4.481">
        <ele>123.2</ele>
        <time>2024-10-17T17:44:51.335Z</time>
        <extensions>
          <gpxtpx:TrackPointExtension xmlns:gpxtpx="http://www.garmin.com/xmlschemas/TrackPointExtension/v1">
            <gpxtpx:hr>149</gpxtpx:hr>
          </gpxtpx:TrackPointExtension>
        </extensions>
      </trkpt>
      <trkpt lat="44.22637" lon="4.48107">
        <ele>124.6</ele>
        <time>2024-10-17T17:44:53.768Z</time>
        <extensions>
          <gpxtpx:TrackPointExtension xmlns:gpxtpx="http://www.garmin.com/xmlschemas/TrackPointExtension/v1">
            <gpxtpx:hr>149</gpxtpx:hr>
          </gpxtpx:TrackPointExtension>
        </extensions>
      </trkpt>
      <trkpt lat="44.22632" lon="4.48116">
        <ele>125.2</ele>
        <time>2024-10-17T17:44:57.165Z</time>
        <extensions>
          <gpxtpx:TrackPointExtension xmlns:gpxtpx="http://www.garmin.com/xmlschemas/TrackPointExtension/v1">
            <gpxtpx:hr>150</gpxtpx:hr>
          </gpxtpx:TrackPointExtension>
        </extensions>
      </trkpt>
      <trkpt lat="44.22631" lon="4.48121">
        <ele>125.6</ele>
        <time>2024-10-17T17:44:58.713Z</time>
        <extensions>
          <gpxtpx:TrackPointExtension xmlns:gpxtpx="http://www.garmin.com/xmlschemas/TrackPointExtension/v1">
            <gpxtpx:hr>151</gpxtpx:hr>
          </gpxtpx:TrackPointExtension>
        </extensions>
      </trkpt>
      <trkpt lat="44.22626" lon="4.48131">
        <ele>126.8</ele>
        <time>2024-10-17T17:45:02.351Z</time>
        <extensions>
          <gpxtpx:TrackPointExtension xmlns:gpxtpx="http://www.garmin.com/xmlschemas/TrackPointExtension/v1">
            <gpxtpx:hr>150</gpxtpx:hr>
          </gpxtpx:TrackPointExtension>
        </extensions>
      </trkpt>
      <trkpt lat="44.22625" lon="4.48133">
        <ele>127</ele>
        <time>2024-10-17T17:45:03.079Z</time>
        <extensions>
          <gpxtpx:TrackPointExtension xmlns:gpxtpx="http://www.garmin.com/xmlschemas/TrackPointExtension/v1">
            <gpxtpx:hr>150</gpxtpx:hr>
          </gpxtpx:TrackPointExtension>
        </extensions>
      </trkpt>
      <trkpt lat="44.22622" lon="4.48137">
        <ele>127.8</ele>
        <time>2024-10-17T17:45:04.806Z</time>
        <extensions>
          <gpxtpx:TrackPointExtension xmlns:gpxtpx="http://www.garmin.com/xmlschemas/TrackPointExtension/v1">
            <gpxtpx:hr>150</gpxtpx:hr>
          </gpxtpx:TrackPointExtension>
        </extensions>
      </trkpt>
      <trkpt lat="44.2262" lon="4.48144">
        <ele>129.4</ele>
        <time>2024-10-17T17:45:07.054Z</time>
        <extensions>
          <gpxtpx:TrackPointExtension xmlns:gpxtpx="http://www.garmin.com/xmlschemas/TrackPointExtension/v1">
            <gpxtpx:hr>150</gpxtpx:hr>
          </gpxtpx:TrackPointExtension>
        </extensions>
      </trkpt>
      <trkpt lat="44.22618" lon="4.48149">
        <ele>130.2</ele>
        <time>2024-10-17T17:45:08.762Z</time>
        <extensions>
          <gpxtpx:TrackPointExtension xmlns:gpxtpx="http://www.garmin.com/xmlschemas/TrackPointExtension/v1">
            <gpxtpx:hr>153</gpxtpx:hr>
          </gpxtpx:TrackPointExtension>
        </extensions>
      </trkpt>
      <trkpt lat="44.22616" lon="4.48151">
        <ele>130.6</ele>
        <time>2024-10-17T17:45:09.786Z</time>
        <extensions>
          <gpxtpx:TrackPointExtension xmlns:gpxtpx="http://www.garmin.com/xmlschemas/TrackPointExtension/v1">
            <gpxtpx:hr>152</gpxtpx:hr>
          </gpxtpx:TrackPointExtension>
        </extensions>
      </trkpt>
      <trkpt lat="44.22612" lon="4.4816">
        <ele>131.8</ele>
        <time>2024-10-17T17:45:12.945Z</time>
        <extensions>
          <gpxtpx:TrackPointExtension xmlns:gpxtpx="http://www.garmin.com/xmlschemas/TrackPointExtension/v1">
            <gpxtpx:hr>154</gpxtpx:hr>
          </gpxtpx:TrackPointExtension>
        </extensions>
      </trkpt>
      <trkpt lat="44.22607" lon="4.48167">
        <ele>132.8</ele>
        <time>2024-10-17T17:45:15.893Z</time>
        <extensions>
          <gpxtpx:TrackPointExtension xmlns:gpxtpx="http://www.garmin.com/xmlschemas/TrackPointExtension/v1">
            <gpxtpx:hr>154</gpxtpx:hr>
          </gpxtpx:TrackPointExtension>
        </extensions>
      </trkpt>
      <trkpt lat="44.22599" lon="4.48181">
        <ele>133.8</ele>
        <time>2024-10-17T17:45:21.235Z</time>
        <extensions>
          <gpxtpx:TrackPointExtension xmlns:gpxtpx="http://www.garmin.com/xmlschemas/TrackPointExtension/v1">
            <gpxtpx:hr>151</gpxtpx:hr>
          </gpxtpx:TrackPointExtension>
        </extensions>
      </trkpt>
      <trkpt lat="44.22598" lon="4.48183">
        <ele>134</ele>
        <time>2024-10-17T17:45:21.963Z</time>
        <extensions>
          <gpxtpx:TrackPointExtension xmlns:gpxtpx="http://www.garmin.com/xmlschemas/TrackPointExtension/v1">
            <gpxtpx:hr>151</gpxtpx:hr>
          </gpxtpx:TrackPointExtension>
        </extensions>
      </trkpt>
      <trkpt lat="44.22596" lon="4.48198">
        <ele>134</ele>
        <time>2024-10-17T17:45:26.514Z</time>
        <extensions>
          <gpxtpx:TrackPointExtension xmlns:gpxtpx="http://www.garmin.com/xmlschemas/TrackPointExtension/v1">
            <gpxtpx:hr>154</gpxtpx:hr>
          </gpxtpx:TrackPointExtension>
        </extensions>
      </trkpt>
      <trkpt lat="44.22596" lon="4.482">
        <ele>134</ele>
        <time>2024-10-17T17:45:27.110Z</time>
        <extensions>
          <gpxtpx:TrackPointExtension xmlns:gpxtpx="http://www.garmin.com/xmlschemas/TrackPointExtension/v1">
            <gpxtpx:hr>153</gpxtpx:hr>
          </gpxtpx:TrackPointExtension>
        </extensions>
      </trkpt>
      <trkpt lat="44.22598" lon="4.4822">
        <ele>133.2</ele>
        <time>2024-10-17T17:45:33.134Z</time>
        <extensions>
          <gpxtpx:TrackPointExtension xmlns:gpxtpx="http://www.garmin.com/xmlschemas/TrackPointExtension/v1">
            <gpxtpx:hr>152</gpxtpx:hr>
          </gpxtpx:TrackPointExtension>
        </extensions>
      </trkpt>
      <trkpt lat="44.22601" lon="4.48225">
        <ele>132.8</ele>
        <time>2024-10-17T17:45:35.079Z</time>
        <extensions>
          <gpxtpx:TrackPointExtension xmlns:gpxtpx="http://www.garmin.com/xmlschemas/TrackPointExtension/v1">
            <gpxtpx:hr>153</gpxtpx:hr>
          </gpxtpx:TrackPointExtension>
        </extensions>
      </trkpt>
      <trkpt lat="44.22604" lon="4.48234">
        <ele>131.8</ele>
        <time>2024-10-17T17:45:38.040Z</time>
        <extensions>
          <gpxtpx:TrackPointExtension xmlns:gpxtpx="http://www.garmin.com/xmlschemas/TrackPointExtension/v1">
            <gpxtpx:hr>153</gpxtpx:hr>
          </gpxtpx:TrackPointExtension>
        </extensions>
      </trkpt>
      <trkpt lat="44.22606" lon="4.48243">
        <ele>131.4</ele>
        <time>2024-10-17T17:45:40.851Z</time>
        <extensions>
          <gpxtpx:TrackPointExtension xmlns:gpxtpx="http://www.garmin.com/xmlschemas/TrackPointExtension/v1">
            <gpxtpx:hr>153</gpxtpx:hr>
          </gpxtpx:TrackPointExtension>
        </extensions>
      </trkpt>
      <trkpt lat="44.22611" lon="4.48264">
        <ele>130.8</ele>
        <time>2024-10-17T17:45:47.452Z</time>
        <extensions>
          <gpxtpx:TrackPointExtension xmlns:gpxtpx="http://www.garmin.com/xmlschemas/TrackPointExtension/v1">
            <gpxtpx:hr>154</gpxtpx:hr>
          </gpxtpx:TrackPointExtension>
        </extensions>
      </trkpt>
      <trkpt lat="44.22612" lon="4.48271">
        <ele>130</ele>
        <time>2024-10-17T17:45:49.581Z</time>
        <extensions>
          <gpxtpx:TrackPointExtension xmlns:gpxtpx="http://www.garmin.com/xmlschemas/TrackPointExtension/v1">
            <gpxtpx:hr>154</gpxtpx:hr>
          </gpxtpx:TrackPointExtension>
        </extensions>
      </trkpt>
      <trkpt lat="44.22615" lon="4.48277">
        <ele>129.4</ele>
        <time>2024-10-17T17:45:51.764Z</time>
        <extensions>
          <gpxtpx:TrackPointExtension xmlns:gpxtpx="http://www.garmin.com/xmlschemas/TrackPointExtension/v1">
            <gpxtpx:hr>154</gpxtpx:hr>
          </gpxtpx:TrackPointExtension>
        </extensions>
      </trkpt>
      <trkpt lat="44.22616" lon="4.48286">
        <ele>128.4</ele>
        <time>2024-10-17T17:45:54.481Z</time>
        <extensions>
          <gpxtpx:TrackPointExtension xmlns:gpxtpx="http://www.garmin.com/xmlschemas/TrackPointExtension/v1">
            <gpxtpx:hr>154</gpxtpx:hr>
          </gpxtpx:TrackPointExtension>
        </extensions>
      </trkpt>
      <trkpt lat="44.22617" lon="4.48297">
        <ele>127.4</ele>
        <time>2024-10-17T17:45:57.788Z</time>
        <extensions>
          <gpxtpx:TrackPointExtension xmlns:gpxtpx="http://www.garmin.com/xmlschemas/TrackPointExtension/v1">
            <gpxtpx:hr>155</gpxtpx:hr>
          </gpxtpx:TrackPointExtension>
        </extensions>
      </trkpt>
      <trkpt lat="44.22618" lon="4.48299">
        <ele>127.2</ele>
        <time>2024-10-17T17:45:58.515Z</time>
        <extensions>
          <gpxtpx:TrackPointExtension xmlns:gpxtpx="http://www.garmin.com/xmlschemas/TrackPointExtension/v1">
            <gpxtpx:hr>155</gpxtpx:hr>
          </gpxtpx:TrackPointExtension>
        </extensions>
      </trkpt>
      <trkpt lat="44.22629" lon="4.48314">
        <ele>126.8</ele>
        <time>2024-10-17T17:46:04.918Z</time>
        <extensions>
          <gpxtpx:TrackPointExtension xmlns:gpxtpx="http://www.garmin.com/xmlschemas/TrackPointExtension/v1">
            <gpxtpx:hr>158</gpxtpx:hr>
          </gpxtpx:TrackPointExtension>
        </extensions>
      </trkpt>
      <trkpt lat="44.22636" lon="4.48327">
        <ele>127.4</ele>
        <time>2024-10-17T17:46:09.769Z</time>
        <extensions>
          <gpxtpx:TrackPointExtension xmlns:gpxtpx="http://www.garmin.com/xmlschemas/TrackPointExtension/v1">
            <gpxtpx:hr>162</gpxtpx:hr>
          </gpxtpx:TrackPointExtension>
        </extensions>
      </trkpt>
      <trkpt lat="44.22639" lon="4.48341">
        <ele>127</ele>
        <time>2024-10-17T17:46:14.128Z</time>
        <extensions>
          <gpxtpx:TrackPointExtension xmlns:gpxtpx="http://www.garmin.com/xmlschemas/TrackPointExtension/v1">
            <gpxtpx:hr>162</gpxtpx:hr>
          </gpxtpx:TrackPointExtension>
        </extensions>
      </trkpt>
      <trkpt lat="44.22639" lon="4.48352">
        <ele>126.2</ele>
        <time>2024-10-17T17:46:17.409Z</time>
        <extensions>
          <gpxtpx:TrackPointExtension xmlns:gpxtpx="http://www.garmin.com/xmlschemas/TrackPointExtension/v1">
            <gpxtpx:hr>162</gpxtpx:hr>
          </gpxtpx:TrackPointExtension>
        </extensions>
      </trkpt>
      <trkpt lat="44.22639" lon="4.48363">
        <ele>125</ele>
        <time>2024-10-17T17:46:20.690Z</time>
        <extensions>
          <gpxtpx:TrackPointExtension xmlns:gpxtpx="http://www.garmin.com/xmlschemas/TrackPointExtension/v1">
            <gpxtpx:hr>160</gpxtpx:hr>
          </gpxtpx:TrackPointExtension>
        </extensions>
      </trkpt>
      <trkpt lat="44.22639" lon="4.48367">
        <ele>124.6</ele>
        <time>2024-10-17T17:46:21.882Z</time>
        <extensions>
          <gpxtpx:TrackPointExtension xmlns:gpxtpx="http://www.garmin.com/xmlschemas/TrackPointExtension/v1">
            <gpxtpx:hr>159</gpxtpx:hr>
          </gpxtpx:TrackPointExtension>
        </extensions>
      </trkpt>
      <trkpt lat="44.22636" lon="4.48384">
        <ele>124</ele>
        <time>2024-10-17T17:46:27.105Z</time>
        <extensions>
          <gpxtpx:TrackPointExtension xmlns:gpxtpx="http://www.garmin.com/xmlschemas/TrackPointExtension/v1">
            <gpxtpx:hr>157</gpxtpx:hr>
          </gpxtpx:TrackPointExtension>
        </extensions>
      </trkpt>
      <trkpt lat="44.22637" lon="4.48391">
        <ele>123.8</ele>
        <time>2024-10-17T17:46:29.234Z</time>
        <extensions>
          <gpxtpx:TrackPointExtension xmlns:gpxtpx="http://www.garmin.com/xmlschemas/TrackPointExtension/v1">
            <gpxtpx:hr>158</gpxtpx:hr>
          </gpxtpx:TrackPointExtension>
        </extensions>
      </trkpt>
      <trkpt lat="44.22645" lon="4.48406">
        <ele>123.4</ele>
        <time>2024-10-17T17:46:34.812Z</time>
        <extensions>
          <gpxtpx:TrackPointExtension xmlns:gpxtpx="http://www.garmin.com/xmlschemas/TrackPointExtension/v1">
            <gpxtpx:hr>159</gpxtpx:hr>
          </gpxtpx:TrackPointExtension>
        </extensions>
      </trkpt>
      <trkpt lat="44.22648" lon="4.48412">
        <ele>122.8</ele>
        <time>2024-10-17T17:46:36.995Z</time>
        <extensions>
          <gpxtpx:TrackPointExtension xmlns:gpxtpx="http://www.garmin.com/xmlschemas/TrackPointExtension/v1">
            <gpxtpx:hr>158</gpxtpx:hr>
          </gpxtpx:TrackPointExtension>
        </extensions>
      </trkpt>
      <trkpt lat="44.22654" lon="4.4842">
        <ele>121.6</ele>
        <time>2024-10-17T17:46:40.450Z</time>
        <extensions>
          <gpxtpx:TrackPointExtension xmlns:gpxtpx="http://www.garmin.com/xmlschemas/TrackPointExtension/v1">
            <gpxtpx:hr>156</gpxtpx:hr>
          </gpxtpx:TrackPointExtension>
        </extensions>
      </trkpt>
      <trkpt lat="44.22656" lon="4.48421">
        <ele>121.4</ele>
        <time>2024-10-17T17:46:41.334Z</time>
        <extensions>
          <gpxtpx:TrackPointExtension xmlns:gpxtpx="http://www.garmin.com/xmlschemas/TrackPointExtension/v1">
            <gpxtpx:hr>157</gpxtpx:hr>
          </gpxtpx:TrackPointExtension>
        </extensions>
      </trkpt>
      <trkpt lat="44.22665" lon="4.48432">
        <ele>120.6</ele>
        <time>2024-10-17T17:46:46.314Z</time>
        <extensions>
          <gpxtpx:TrackPointExtension xmlns:gpxtpx="http://www.garmin.com/xmlschemas/TrackPointExtension/v1">
            <gpxtpx:hr>159</gpxtpx:hr>
          </gpxtpx:TrackPointExtension>
        </extensions>
      </trkpt>
      <trkpt lat="44.22669" lon="4.48441">
        <ele>119.6</ele>
        <time>2024-10-17T17:46:49.473Z</time>
        <extensions>
          <gpxtpx:TrackPointExtension xmlns:gpxtpx="http://www.garmin.com/xmlschemas/TrackPointExtension/v1">
            <gpxtpx:hr>159</gpxtpx:hr>
          </gpxtpx:TrackPointExtension>
        </extensions>
      </trkpt>
      <trkpt lat="44.22671" lon="4.48444">
        <ele>119.4</ele>
        <time>2024-10-17T17:46:50.696Z</time>
        <extensions>
          <gpxtpx:TrackPointExtension xmlns:gpxtpx="http://www.garmin.com/xmlschemas/TrackPointExtension/v1">
            <gpxtpx:hr>159</gpxtpx:hr>
          </gpxtpx:TrackPointExtension>
        </extensions>
      </trkpt>
      <trkpt lat="44.22673" lon="4.48457">
        <ele>118.2</ele>
        <time>2024-10-17T17:46:54.662Z</time>
        <extensions>
          <gpxtpx:TrackPointExtension xmlns:gpxtpx="http://www.garmin.com/xmlschemas/TrackPointExtension/v1">
            <gpxtpx:hr>160</gpxtpx:hr>
          </gpxtpx:TrackPointExtension>
        </extensions>
      </trkpt>
      <trkpt lat="44.22674" lon="4.48461">
        <ele>117.8</ele>
        <time>2024-10-17T17:46:55.925Z</time>
        <extensions>
          <gpxtpx:TrackPointExtension xmlns:gpxtpx="http://www.garmin.com/xmlschemas/TrackPointExtension/v1">
            <gpxtpx:hr>160</gpxtpx:hr>
          </gpxtpx:TrackPointExtension>
        </extensions>
      </trkpt>
      <trkpt lat="44.22674" lon="4.48464">
        <ele>117.2</ele>
        <time>2024-10-17T17:46:56.820Z</time>
        <extensions>
          <gpxtpx:TrackPointExtension xmlns:gpxtpx="http://www.garmin.com/xmlschemas/TrackPointExtension/v1">
            <gpxtpx:hr>160</gpxtpx:hr>
          </gpxtpx:TrackPointExtension>
        </extensions>
      </trkpt>
      <trkpt lat="44.22672" lon="4.48475">
        <ele>116.2</ele>
        <time>2024-10-17T17:47:00.205Z</time>
        <extensions>
          <gpxtpx:TrackPointExtension xmlns:gpxtpx="http://www.garmin.com/xmlschemas/TrackPointExtension/v1">
            <gpxtpx:hr>161</gpxtpx:hr>
          </gpxtpx:TrackPointExtension>
        </extensions>
      </trkpt>
      <trkpt lat="44.22672" lon="4.48482">
        <ele>116</ele>
        <time>2024-10-17T17:47:02.293Z</time>
        <extensions>
          <gpxtpx:TrackPointExtension xmlns:gpxtpx="http://www.garmin.com/xmlschemas/TrackPointExtension/v1">
            <gpxtpx:hr>161</gpxtpx:hr>
          </gpxtpx:TrackPointExtension>
        </extensions>
      </trkpt>
      <trkpt lat="44.22667" lon="4.48499">
        <ele>117.2</ele>
        <time>2024-10-17T17:47:07.775Z</time>
        <extensions>
          <gpxtpx:TrackPointExtension xmlns:gpxtpx="http://www.garmin.com/xmlschemas/TrackPointExtension/v1">
            <gpxtpx:hr>162</gpxtpx:hr>
          </gpxtpx:TrackPointExtension>
        </extensions>
      </trkpt>
      <trkpt lat="44.22666" lon="4.48505">
        <ele>117.6</ele>
        <time>2024-10-17T17:47:09.613Z</time>
        <extensions>
          <gpxtpx:TrackPointExtension xmlns:gpxtpx="http://www.garmin.com/xmlschemas/TrackPointExtension/v1">
            <gpxtpx:hr>162</gpxtpx:hr>
          </gpxtpx:TrackPointExtension>
        </extensions>
      </trkpt>
      <trkpt lat="44.22667" lon="4.48508">
        <ele>117.8</ele>
        <time>2024-10-17T17:47:10.600Z</time>
        <extensions>
          <gpxtpx:TrackPointExtension xmlns:gpxtpx="http://www.garmin.com/xmlschemas/TrackPointExtension/v1">
            <gpxtpx:hr>160</gpxtpx:hr>
          </gpxtpx:TrackPointExtension>
        </extensions>
      </trkpt>
      <trkpt lat="44.2267" lon="4.48513">
        <ele>118.2</ele>
        <time>2024-10-17T17:47:12.545Z</time>
        <extensions>
          <gpxtpx:TrackPointExtension xmlns:gpxtpx="http://www.garmin.com/xmlschemas/TrackPointExtension/v1">
            <gpxtpx:hr>161</gpxtpx:hr>
          </gpxtpx:TrackPointExtension>
        </extensions>
      </trkpt>
      <trkpt lat="44.22673" lon="4.48518">
        <ele>118.4</ele>
        <time>2024-10-17T17:47:14.490Z</time>
        <extensions>
          <gpxtpx:TrackPointExtension xmlns:gpxtpx="http://www.garmin.com/xmlschemas/TrackPointExtension/v1">
            <gpxtpx:hr>161</gpxtpx:hr>
          </gpxtpx:TrackPointExtension>
        </extensions>
      </trkpt>
      <trkpt lat="44.22675" lon="4.48526">
        <ele>118.8</ele>
        <time>2024-10-17T17:47:17.017Z</time>
        <extensions>
          <gpxtpx:TrackPointExtension xmlns:gpxtpx="http://www.garmin.com/xmlschemas/TrackPointExtension/v1">
            <gpxtpx:hr>162</gpxtpx:hr>
          </gpxtpx:TrackPointExtension>
        </extensions>
      </trkpt>
      <trkpt lat="44.22678" lon="4.48531">
        <ele>119</ele>
        <time>2024-10-17T17:47:18.962Z</time>
        <extensions>
          <gpxtpx:TrackPointExtension xmlns:gpxtpx="http://www.garmin.com/xmlschemas/TrackPointExtension/v1">
            <gpxtpx:hr>161</gpxtpx:hr>
          </gpxtpx:TrackPointExtension>
        </extensions>
      </trkpt>
      <trkpt lat="44.22677" lon="4.48537">
        <ele>119</ele>
        <time>2024-10-17T17:47:20.799Z</time>
        <extensions>
          <gpxtpx:TrackPointExtension xmlns:gpxtpx="http://www.garmin.com/xmlschemas/TrackPointExtension/v1">
            <gpxtpx:hr>160</gpxtpx:hr>
          </gpxtpx:TrackPointExtension>
        </extensions>
      </trkpt>
      <trkpt lat="44.22678" lon="4.48543">
        <ele>119</ele>
        <time>2024-10-17T17:47:22.636Z</time>
        <extensions>
          <gpxtpx:TrackPointExtension xmlns:gpxtpx="http://www.garmin.com/xmlschemas/TrackPointExtension/v1">
            <gpxtpx:hr>158</gpxtpx:hr>
          </gpxtpx:TrackPointExtension>
        </extensions>
      </trkpt>
      <trkpt lat="44.22683" lon="4.4856">
        <ele>118.8</ele>
        <time>2024-10-17T17:47:28.118Z</time>
        <extensions>
          <gpxtpx:TrackPointExtension xmlns:gpxtpx="http://www.garmin.com/xmlschemas/TrackPointExtension/v1">
            <gpxtpx:hr>160</gpxtpx:hr>
          </gpxtpx:TrackPointExtension>
        </extensions>
      </trkpt>
      <trkpt lat="44.22683" lon="4.48574">
        <ele>118.4</ele>
        <time>2024-10-17T17:47:32.294Z</time>
        <extensions>
          <gpxtpx:TrackPointExtension xmlns:gpxtpx="http://www.garmin.com/xmlschemas/TrackPointExtension/v1">
            <gpxtpx:hr>157</gpxtpx:hr>
          </gpxtpx:TrackPointExtension>
        </extensions>
      </trkpt>
      <trkpt lat="44.22684" lon="4.48576">
        <ele>118.4</ele>
        <time>2024-10-17T17:47:33.021Z</time>
        <extensions>
          <gpxtpx:TrackPointExtension xmlns:gpxtpx="http://www.garmin.com/xmlschemas/TrackPointExtension/v1">
            <gpxtpx:hr>157</gpxtpx:hr>
          </gpxtpx:TrackPointExtension>
        </extensions>
      </trkpt>
      <trkpt lat="44.22687" lon="4.48592">
        <ele>118.4</ele>
        <time>2024-10-17T17:47:37.955Z</time>
        <extensions>
          <gpxtpx:TrackPointExtension xmlns:gpxtpx="http://www.garmin.com/xmlschemas/TrackPointExtension/v1">
            <gpxtpx:hr>157</gpxtpx:hr>
          </gpxtpx:TrackPointExtension>
        </extensions>
      </trkpt>
      <trkpt lat="44.2269" lon="4.48596">
        <ele>118.6</ele>
        <time>2024-10-17T17:47:39.682Z</time>
        <extensions>
          <gpxtpx:TrackPointExtension xmlns:gpxtpx="http://www.garmin.com/xmlschemas/TrackPointExtension/v1">
            <gpxtpx:hr>157</gpxtpx:hr>
          </gpxtpx:TrackPointExtension>
        </extensions>
      </trkpt>
      <trkpt lat="44.22694" lon="4.48599">
        <ele>119</ele>
        <time>2024-10-17T17:47:41.572Z</time>
        <extensions>
          <gpxtpx:TrackPointExtension xmlns:gpxtpx="http://www.garmin.com/xmlschemas/TrackPointExtension/v1">
            <gpxtpx:hr>158</gpxtpx:hr>
          </gpxtpx:TrackPointExtension>
        </extensions>
      </trkpt>
      <trkpt lat="44.22697" lon="4.48599">
        <ele>119</ele>
        <time>2024-10-17T17:47:42.820Z</time>
        <extensions>
          <gpxtpx:TrackPointExtension xmlns:gpxtpx="http://www.garmin.com/xmlschemas/TrackPointExtension/v1">
            <gpxtpx:hr>158</gpxtpx:hr>
          </gpxtpx:TrackPointExtension>
        </extensions>
      </trkpt>
      <trkpt lat="44.22702" lon="4.48604">
        <ele>119.2</ele>
        <time>2024-10-17T17:47:45.380Z</time>
        <extensions>
          <gpxtpx:TrackPointExtension xmlns:gpxtpx="http://www.garmin.com/xmlschemas/TrackPointExtension/v1">
            <gpxtpx:hr>160</gpxtpx:hr>
          </gpxtpx:TrackPointExtension>
        </extensions>
      </trkpt>
      <trkpt lat="44.22702" lon="4.4861">
        <ele>119.4</ele>
        <time>2024-10-17T17:47:47.170Z</time>
        <extensions>
          <gpxtpx:TrackPointExtension xmlns:gpxtpx="http://www.garmin.com/xmlschemas/TrackPointExtension/v1">
            <gpxtpx:hr>159</gpxtpx:hr>
          </gpxtpx:TrackPointExtension>
        </extensions>
      </trkpt>
      <trkpt lat="44.22702" lon="4.48629">
        <ele>120.6</ele>
        <time>2024-10-17T17:47:52.838Z</time>
        <extensions>
          <gpxtpx:TrackPointExtension xmlns:gpxtpx="http://www.garmin.com/xmlschemas/TrackPointExtension/v1">
            <gpxtpx:hr>159</gpxtpx:hr>
          </gpxtpx:TrackPointExtension>
        </extensions>
      </trkpt>
      <trkpt lat="44.22701" lon="4.48632">
        <ele>120.6</ele>
        <time>2024-10-17T17:47:53.824Z</time>
        <extensions>
          <gpxtpx:TrackPointExtension xmlns:gpxtpx="http://www.garmin.com/xmlschemas/TrackPointExtension/v1">
            <gpxtpx:hr>161</gpxtpx:hr>
          </gpxtpx:TrackPointExtension>
        </extensions>
      </trkpt>
      <trkpt lat="44.22698" lon="4.48651">
        <ele>121</ele>
        <time>2024-10-17T17:47:59.628Z</time>
        <extensions>
          <gpxtpx:TrackPointExtension xmlns:gpxtpx="http://www.garmin.com/xmlschemas/TrackPointExtension/v1">
            <gpxtpx:hr>161</gpxtpx:hr>
          </gpxtpx:TrackPointExtension>
        </extensions>
      </trkpt>
      <trkpt lat="44.22704" lon="4.48703">
        <ele>122.5</ele>
        <time>2024-10-17T17:48:15.341Z</time>
      </trkpt>
      <trkpt lat="44.22705" lon="4.48709">
        <ele>122.9</ele>
        <time>2024-10-17T17:48:17.178Z</time>
      </trkpt>
      <trkpt lat="44.22709" lon="4.48766">
        <ele>123</ele>
        <time>2024-10-17T17:48:34.264Z</time>
      </trkpt>
      <trkpt lat="44.22723" lon="4.48784">
        <ele>125.3</ele>
        <time>2024-10-17T17:48:42.189Z</time>
      </trkpt>
      <trkpt lat="44.22732" lon="4.48796">
        <ele>124.7</ele>
        <time>2024-10-17T17:48:47.371Z</time>
      </trkpt>
      <trkpt lat="44.22738" lon="4.4879">
        <ele>126.6</ele>
        <time>2024-10-17T17:48:50.444Z</time>
      </trkpt>
      <trkpt lat="44.22749" lon="4.48791">
        <ele>128</ele>
        <time>2024-10-17T17:48:55.033Z</time>
      </trkpt>
      <trkpt lat="44.22765" lon="4.48806">
        <ele>126.7</ele>
        <time>2024-10-17T17:49:03.057Z</time>
      </trkpt>
      <trkpt lat="44.22778" lon="4.48818">
        <ele>126.2</ele>
        <time>2024-10-17T17:49:09.546Z</time>
      </trkpt>
      <trkpt lat="44.22774" lon="4.48841">
        <ele>125.4</ele>
        <time>2024-10-17T17:49:16.606Z</time>
      </trkpt>
      <trkpt lat="44.22761" lon="4.4885">
        <ele>125.9</ele>
        <time>2024-10-17T17:49:22.647Z</time>
      </trkpt>
      <trkpt lat="44.22752" lon="4.48858">
        <ele>125.9</ele>
        <time>2024-10-17T17:49:27.089Z</time>
      </trkpt>
      <trkpt lat="44.22715" lon="4.48877">
        <ele>126.1</ele>
        <time>2024-10-17T17:49:43.503Z</time>
      </trkpt>
      <trkpt lat="44.2271" lon="4.48906">
        <ele>129.8</ele>
        <time>2024-10-17T17:49:52.401Z</time>
      </trkpt>
      <trkpt lat="44.22706" lon="4.48938">
        <ele>133.1</ele>
        <time>2024-10-17T17:50:02.091Z</time>
      </trkpt>
      <trkpt lat="44.22692" lon="4.49004">
        <ele>138.2</ele>
        <time>2024-10-17T17:50:22.625Z</time>
      </trkpt>
      <trkpt lat="44.22678" lon="4.49024">
        <ele>139.4</ele>
        <time>2024-10-17T17:50:30.966Z</time>
      </trkpt>
      <trkpt lat="44.22657" lon="4.49031">
        <ele>140</ele>
        <time>2024-10-17T17:50:39.954Z</time>
      </trkpt>
      <trkpt lat="44.22646" lon="4.49023">
        <ele>140.3</ele>
        <time>2024-10-17T17:50:45.118Z</time>
      </trkpt>
      <trkpt lat="44.22639" lon="4.4901">
        <ele>140.4</ele>
        <time>2024-10-17T17:50:49.969Z</time>
      </trkpt>
      <trkpt lat="44.22639" lon="4.48961">
        <ele>141.3</ele>
        <time>2024-10-17T17:51:04.587Z</time>
      </trkpt>
      <trkpt lat="44.22629" lon="4.48938">
        <ele>143.3</ele>
        <time>2024-10-17T17:51:12.613Z</time>
      </trkpt>
      <trkpt lat="44.22597" lon="4.48907">
        <ele>147.3</ele>
        <time>2024-10-17T17:51:28.831Z</time>
      </trkpt>
      <trkpt lat="44.22573" lon="4.48895">
        <ele>150.6</ele>
        <time>2024-10-17T17:51:39.445Z</time>
      </trkpt>
      <trkpt lat="44.22571" lon="4.48888">
        <ele>150.7</ele>
        <time>2024-10-17T17:51:41.693Z</time>
      </trkpt>
      <trkpt lat="44.2257" lon="4.48885">
        <ele>150.8</ele>
        <time>2024-10-17T17:51:42.680Z</time>
      </trkpt>
      <trkpt lat="44.22529" lon="4.48845">
        <ele>157.5</ele>
        <time>2024-10-17T17:52:03.507Z</time>
      </trkpt>
      <trkpt lat="44.22519" lon="4.48842">
        <ele>158.6</ele>
        <time>2024-10-17T17:52:07.765Z</time>
      </trkpt>
      <trkpt lat="44.22506" lon="4.48843">
        <ele>160</ele>
        <time>2024-10-17T17:52:13.185Z</time>
      </trkpt>
      <trkpt lat="44.22461" lon="4.48852">
        <ele>162.8</ele>
        <time>2024-10-17T17:52:32.111Z</time>
      </trkpt>
      <trkpt lat="44.22462" lon="4.4882">
        <ele>164.5</ele>
        <time>2024-10-17T17:52:41.667Z</time>
      </trkpt>
      <trkpt lat="44.22464" lon="4.48791">
        <ele>166.5</ele>
        <time>2024-10-17T17:52:50.359Z</time>
      </trkpt>
      <trkpt lat="44.22463" lon="4.48776">
        <ele>167.7</ele>
        <time>2024-10-17T17:52:54.853Z</time>
      </trkpt>
      <trkpt lat="44.22465" lon="4.48774">
        <ele>167.7</ele>
        <time>2024-10-17T17:52:55.877Z</time>
      </trkpt>
      <trkpt lat="44.22498" lon="4.48774">
        <ele>164.4</ele>
        <time>2024-10-17T17:53:09.615Z</time>
      </trkpt>
      <trkpt lat="44.22497" lon="4.48754">
        <ele>165.2</ele>
        <time>2024-10-17T17:53:15.596Z</time>
      </trkpt>
      <trkpt lat="44.22498" lon="4.4875">
        <ele>165.2</ele>
        <time>2024-10-17T17:53:16.859Z</time>
      </trkpt>
      <trkpt lat="44.22517" lon="4.48692">
        <ele>164.2</ele>
        <time>2024-10-17T17:53:35.885Z</time>
      </trkpt>
      <trkpt lat="44.22524" lon="4.48654">
        <ele>163</ele>
        <time>2024-10-17T17:53:47.590Z</time>
      </trkpt>
      <trkpt lat="44.22524" lon="4.486">
        <ele>163.6</ele>
        <time>2024-10-17T17:54:03.700Z</time>
      </trkpt>
      <trkpt lat="44.22515" lon="4.48571">
        <ele>165.3</ele>
        <time>2024-10-17T17:54:13.128Z</time>
      </trkpt>
      <trkpt lat="44.22509" lon="4.48556">
        <ele>166.3</ele>
        <time>2024-10-17T17:54:18.253Z</time>
      </trkpt>
      <trkpt lat="44.22493" lon="4.48538">
        <ele>165.5</ele>
        <time>2024-10-17T17:54:26.809Z</time>
      </trkpt>
      <trkpt lat="44.22488" lon="4.4854">
        <ele>164.6</ele>
        <time>2024-10-17T17:54:28.974Z</time>
      </trkpt>
      <trkpt lat="44.22483" lon="4.48549">
        <ele>166.4</ele>
        <time>2024-10-17T17:54:32.371Z</time>
      </trkpt>
      <trkpt lat="44.2248" lon="4.48561">
        <ele>168.9</ele>
        <time>2024-10-17T17:54:36.162Z</time>
      </trkpt>
      <trkpt lat="44.2247" lon="4.48572">
        <ele>169.1</ele>
        <time>2024-10-17T17:54:41.463Z</time>
      </trkpt>
      <trkpt lat="44.2246" lon="4.48598">
        <ele>166.5</ele>
        <time>2024-10-17T17:54:50.266Z</time>
      </trkpt>
      <trkpt lat="44.22455" lon="4.4862">
        <ele>166.3</ele>
        <time>2024-10-17T17:54:57.151Z</time>
      </trkpt>
      <trkpt lat="44.22454" lon="4.4863">
        <ele>167.3</ele>
        <time>2024-10-17T17:55:00.163Z</time>
      </trkpt>
      <trkpt lat="44.22451" lon="4.48655">
        <ele>167.8</ele>
        <time>2024-10-17T17:55:07.725Z</time>
      </trkpt>
      <trkpt lat="44.22474" lon="4.48667">
        <ele>169.8</ele>
        <time>2024-10-17T17:55:17.948Z</time>
      </trkpt>
      <trkpt lat="44.2246" lon="4.48702">
        <ele>169.6</ele>
        <time>2024-10-17T17:55:29.906Z</time>
      </trkpt>
      <trkpt lat="44.22456" lon="4.48713">
        <ele>170</ele>
        <time>2024-10-17T17:55:33.586Z</time>
      </trkpt>
      <trkpt lat="44.22456" lon="4.48746">
        <ele>169.3</ele>
        <time>2024-10-17T17:55:43.431Z</time>
      </trkpt>
      <trkpt lat="44.22461" lon="4.48777">
        <ele>167.8</ele>
        <time>2024-10-17T17:55:52.911Z</time>
      </trkpt>
      <trkpt lat="44.22462" lon="4.48789">
        <ele>166.8</ele>
        <time>2024-10-17T17:55:56.515Z</time>
      </trkpt>
      <trkpt lat="44.22462" lon="4.48793">
        <ele>166.4</ele>
        <time>2024-10-17T17:55:57.707Z</time>
      </trkpt>
      <trkpt lat="44.2246" lon="4.48798">
        <ele>166.1</ele>
        <time>2024-10-17T17:55:59.415Z</time>
      </trkpt>
      <trkpt lat="44.22459" lon="4.48867">
        <ele>162.2</ele>
        <time>2024-10-17T17:56:20.005Z</time>
      </trkpt>
      <trkpt lat="44.22474" lon="4.48956">
        <ele>159.6</ele>
        <time>2024-10-17T17:56:47.282Z</time>
      </trkpt>
      <trkpt lat="44.22461" lon="4.48984">
        <ele>158.7</ele>
        <time>2024-10-17T17:56:57.235Z</time>
      </trkpt>
      <trkpt lat="44.2245" lon="4.48986">
        <ele>158.3</ele>
        <time>2024-10-17T17:57:01.853Z</time>
      </trkpt>
      <trkpt lat="44.22427" lon="4.4898">
        <ele>156.5</ele>
        <time>2024-10-17T17:57:11.594Z</time>
      </trkpt>
      <trkpt lat="44.22408" lon="4.48985">
        <ele>156.8</ele>
        <time>2024-10-17T17:57:19.643Z</time>
      </trkpt>
      <trkpt lat="44.22365" lon="4.48982">
        <ele>151.6</ele>
        <time>2024-10-17T17:57:37.567Z</time>
      </trkpt>
      <trkpt lat="44.2234" lon="4.48969">
        <ele>149.8</ele>
        <time>2024-10-17T17:57:48.674Z</time>
      </trkpt>
      <trkpt lat="44.22285" lon="4.48957">
        <ele>148</ele>
        <time>2024-10-17T17:58:11.850Z</time>
      </trkpt>
      <trkpt lat="44.22254" lon="4.48947">
        <ele>148.2</ele>
        <time>2024-10-17T17:58:25.096Z</time>
      </trkpt>
      <trkpt lat="44.22225" lon="4.48961">
        <ele>151.3</ele>
        <time>2024-10-17T17:58:37.871Z</time>
      </trkpt>
      <trkpt lat="44.22152" lon="4.49014">
        <ele>156.2</ele>
        <time>2024-10-17T17:59:12.131Z</time>
      </trkpt>
      <trkpt lat="44.22101" lon="4.49055">
        <ele>157.2</ele>
        <time>2024-10-17T17:59:36.635Z</time>
      </trkpt>
      <trkpt lat="44.2207" lon="4.49085">
        <ele>153.3</ele>
        <time>2024-10-17T17:59:52.341Z</time>
      </trkpt>
      <trkpt lat="44.22061" lon="4.49224">
        <ele>140.2</ele>
        <time>2024-10-17T18:00:33.983Z</time>
      </trkpt>
      <trkpt lat="44.22065" lon="4.49269">
        <ele>139.4</ele>
        <time>2024-10-17T18:00:47.512Z</time>
      </trkpt>
      <trkpt lat="44.22074" lon="4.49333">
        <ele>140.7</ele>
        <time>2024-10-17T18:01:06.971Z</time>
      </trkpt>
      <trkpt lat="44.22069" lon="4.49333">
        <ele>141</ele>
        <time>2024-10-17T18:01:09.052Z</time>
      </trkpt>
      <trkpt lat="44.22053" lon="4.49318">
        <ele>139.7</ele>
        <time>2024-10-17T18:01:17.077Z</time>
      </trkpt>
      <trkpt lat="44.2202" lon="4.49288">
        <ele>145</ele>
        <time>2024-10-17T18:01:33.474Z</time>
      </trkpt>
      <trkpt lat="44.21994" lon="4.49257">
        <ele>148.7</ele>
        <time>2024-10-17T18:01:47.712Z</time>
      </trkpt>
      <trkpt lat="44.21942" lon="4.49248">
        <ele>154.1</ele>
        <time>2024-10-17T18:02:09.527Z</time>
      </trkpt>
      <trkpt lat="44.21906" lon="4.49252">
        <ele>156.2</ele>
        <time>2024-10-17T18:02:24.562Z</time>
      </trkpt>
      <trkpt lat="44.21877" lon="4.49259">
        <ele>155.8</ele>
        <time>2024-10-17T18:02:36.815Z</time>
      </trkpt>
      <trkpt lat="44.21842" lon="4.49276">
        <ele>154.6</ele>
        <time>2024-10-17T18:02:52.244Z</time>
      </trkpt>
      <trkpt lat="44.2181" lon="4.49299">
        <ele>157</ele>
        <time>2024-10-17T18:03:07.230Z</time>
      </trkpt>
      <trkpt lat="44.21783" lon="4.49314">
        <ele>155.8</ele>
        <time>2024-10-17T18:03:19.329Z</time>
      </trkpt>
      <trkpt lat="44.21771" lon="4.49318">
        <ele>154.6</ele>
        <time>2024-10-17T18:03:24.465Z</time>
      </trkpt>
      <trkpt lat="44.21723" lon="4.49308">
        <ele>144.3</ele>
        <time>2024-10-17T18:03:44.670Z</time>
      </trkpt>
      <trkpt lat="44.21689" lon="4.49314">
        <ele>139.1</ele>
        <time>2024-10-17T18:03:58.938Z</time>
      </trkpt>
      <trkpt lat="44.21624" lon="4.49351">
        <ele>129.9</ele>
        <time>2024-10-17T18:04:28.165Z</time>
      </trkpt>
      <trkpt lat="44.21596" lon="4.49374">
        <ele>126.3</ele>
        <time>2024-10-17T18:04:41.692Z</time>
      </trkpt>
      <trkpt lat="44.21571" lon="4.49453">
        <ele>120.5</ele>
        <time>2024-10-17T18:05:07.460Z</time>
      </trkpt>
      <trkpt lat="44.21546" lon="4.49517">
        <ele>122</ele>
        <time>2024-10-17T18:05:29.209Z</time>
      </trkpt>
      <trkpt lat="44.21521" lon="4.49532">
        <ele>122.5</ele>
        <time>2024-10-17T18:05:40.538Z</time>
      </trkpt>
      <trkpt lat="44.21494" lon="4.49532">
        <ele>122</ele>
        <time>2024-10-17T18:05:51.778Z</time>
      </trkpt>
      <trkpt lat="44.21477" lon="4.49522">
        <ele>121</ele>
        <time>2024-10-17T18:05:59.458Z</time>
      </trkpt>
      <trkpt lat="44.21466" lon="4.49535">
        <ele>122.8</ele>
        <time>2024-10-17T18:06:05.459Z</time>
      </trkpt>
      <trkpt lat="44.2146" lon="4.49576">
        <ele>124.1</ele>
        <time>2024-10-17T18:06:17.945Z</time>
      </trkpt>
      <trkpt lat="44.21459" lon="4.49622">
        <ele>122.9</ele>
        <time>2024-10-17T18:06:31.677Z</time>
      </trkpt>
      <trkpt lat="44.21407" lon="4.49689">
        <ele>117.8</ele>
        <time>2024-10-17T18:07:01.145Z</time>
      </trkpt>
      <trkpt lat="44.21378" lon="4.49727">
        <ele>113</ele>
        <time>2024-10-17T18:07:17.708Z</time>
      </trkpt>
      <trkpt lat="44.21376" lon="4.49744">
        <ele>112.5</ele>
        <time>2024-10-17T18:07:22.848Z</time>
      </trkpt>
      <trkpt lat="44.21363" lon="4.49848">
        <ele>110.8</ele>
        <time>2024-10-17T18:07:54.350Z</time>
      </trkpt>
      <trkpt lat="44.21328" lon="4.49933">
        <ele>111.9</ele>
        <time>2024-10-17T18:08:23.602Z</time>
      </trkpt>
      <trkpt lat="44.21308" lon="4.50003">
        <ele>111.1</ele>
        <time>2024-10-17T18:08:46.088Z</time>
      </trkpt>
      <trkpt lat="44.21308" lon="4.5005">
        <ele>108.3</ele>
        <time>2024-10-17T18:09:00.113Z</time>
      </trkpt>
      <trkpt lat="44.21318" lon="4.50068">
        <ele>108.6</ele>
        <time>2024-10-17T18:09:06.908Z</time>
      </trkpt>
      <trkpt lat="44.21295" lon="4.50119">
        <ele>110.4</ele>
        <time>2024-10-17T18:09:24.888Z</time>
      </trkpt>
      <trkpt lat="44.21294" lon="4.50143">
        <ele>111.5</ele>
        <time>2024-10-17T18:09:32.061Z</time>
      </trkpt>
      <trkpt lat="44.2125" lon="4.50214">
        <ele>113.4</ele>
        <time>2024-10-17T18:10:00.069Z</time>
      </trkpt>
      <trkpt lat="44.21238" lon="4.50298">
        <ele>115</ele>
        <time>2024-10-17T18:10:25.628Z</time>
      </trkpt>
      <trkpt lat="44.21218" lon="4.50352">
        <ele>114.3</ele>
        <time>2024-10-17T18:10:43.766Z</time>
      </trkpt>
      <trkpt lat="44.21218" lon="4.50462">
        <ele>113.2</ele>
        <time>2024-10-17T18:11:16.591Z</time>
      </trkpt>
      <trkpt lat="44.21252" lon="4.50532">
        <ele>111</ele>
        <time>2024-10-17T18:11:41.824Z</time>
      </trkpt>
      <trkpt lat="44.21295" lon="4.50597">
        <ele>112</ele>
        <time>2024-10-17T18:12:08.219Z</time>
      </trkpt>
      <trkpt lat="44.21264" lon="4.50671">
        <ele>103.1</ele>
        <time>2024-10-17T18:12:33.796Z</time>
      </trkpt>
      <trkpt lat="44.21266" lon="4.50769">
        <ele>95.2</ele>
        <time>2024-10-17T18:13:03.052Z</time>
      </trkpt>
      <trkpt lat="44.21277" lon="4.50824">
        <ele>91.2</ele>
        <time>2024-10-17T18:13:20.091Z</time>
      </trkpt>
      <trkpt lat="44.21246" lon="4.50809">
        <ele>86.5</ele>
        <time>2024-10-17T18:13:33.751Z</time>
      </trkpt>
      <trkpt lat="44.21225" lon="4.50792">
        <ele>83.7</ele>
        <time>2024-10-17T18:13:43.859Z</time>
      </trkpt>
      <trkpt lat="44.21212" lon="4.50794">
        <ele>80.1</ele>
        <time>2024-10-17T18:13:49.304Z</time>
      </trkpt>
      <trkpt lat="44.21192" lon="4.50762">
        <ele>79.1</ele>
        <time>2024-10-17T18:14:01.973Z</time>
      </trkpt>
      <trkpt lat="44.21162" lon="4.5074">
        <ele>74.1</ele>
        <time>2024-10-17T18:14:16.083Z</time>
      </trkpt>
      <trkpt lat="44.21137" lon="4.50701">
        <ele>70.1</ele>
        <time>2024-10-17T18:14:31.696Z</time>
      </trkpt>
      <trkpt lat="44.21125" lon="4.507">
        <ele>69.5</ele>
        <time>2024-10-17T18:14:36.700Z</time>
      </trkpt>
      <trkpt lat="44.21099" lon="4.50713">
        <ele>68.2</ele>
        <time>2024-10-17T18:14:48.198Z</time>
      </trkpt>
      <trkpt lat="44.21077" lon="4.50722">
        <ele>67.5</ele>
        <time>2024-10-17T18:14:57.742Z</time>
      </trkpt>
      <trkpt lat="44.21022" lon="4.5078">
        <ele>65</ele>
        <time>2024-10-17T18:15:26.445Z</time>
      </trkpt>
      <trkpt lat="44.20971" lon="4.50824">
        <ele>65</ele>
        <time>2024-10-17T18:15:51.410Z</time>
      </trkpt>
      <trkpt lat="44.20947" lon="4.50809">
        <ele>64.3</ele>
        <time>2024-10-17T18:16:02.358Z</time>
      </trkpt>
      <trkpt lat="44.20928" lon="4.50798">
        <ele>64.7</ele>
        <time>2024-10-17T18:16:10.922Z</time>
      </trkpt>
      <trkpt lat="44.20899" lon="4.50803">
        <ele>65</ele>
        <time>2024-10-17T18:16:23.087Z</time>
      </trkpt>
      <trkpt lat="44.20883" lon="4.50817">
        <ele>65.4</ele>
        <time>2024-10-17T18:16:30.950Z</time>
      </trkpt>
      <trkpt lat="44.20789" lon="4.50845">
        <ele>65.7</ele>
        <time>2024-10-17T18:17:10.967Z</time>
      </trkpt>
      <trkpt lat="44.20733" lon="4.50862">
        <ele>65</ele>
        <time>2024-10-17T18:17:34.827Z</time>
      </trkpt>
      <trkpt lat="44.20539" lon="4.50908">
        <ele>66</ele>
        <time>2024-10-17T18:18:56.754Z</time>
      </trkpt>
      <trkpt lat="44.20529" lon="4.50908">
        <ele>66</ele>
        <time>2024-10-17T18:19:00.917Z</time>
      </trkpt>
      <trkpt lat="44.20452" lon="4.50929">
        <ele>64.6</ele>
        <time>2024-10-17T18:19:33.581Z</time>
      </trkpt>
      <trkpt lat="44.20368" lon="4.50922">
        <ele>65.3</ele>
        <time>2024-10-17T18:20:08.615Z</time>
      </trkpt>
      <trkpt lat="44.20284" lon="4.50926">
        <ele>65</ele>
        <time>2024-10-17T18:20:43.607Z</time>
      </trkpt>
      <trkpt lat="44.20254" lon="4.50914">
        <ele>65.3</ele>
        <time>2024-10-17T18:20:56.600Z</time>
      </trkpt>
      <trkpt lat="44.20211" lon="4.50897">
        <ele>65.9</ele>
        <time>2024-10-17T18:21:15.207Z</time>
      </trkpt>
      <trkpt lat="44.20199" lon="4.50888">
        <ele>66.3</ele>
        <time>2024-10-17T18:21:20.879Z</time>
      </trkpt>
      <trkpt lat="44.20223" lon="4.50871">
        <ele>68.3</ele>
        <time>2024-10-17T18:21:32.085Z</time>
      </trkpt>
      <trkpt lat="44.20319" lon="4.50818">
        <ele>71.7</ele>
        <time>2024-10-17T18:22:15.069Z</time>
      </trkpt>
      <trkpt lat="44.20384" lon="4.50776">
        <ele>72</ele>
        <time>2024-10-17T18:22:44.892Z</time>
      </trkpt>
      <trkpt lat="44.20439" lon="4.5071">
        <ele>74.2</ele>
        <time>2024-10-17T18:23:15.096Z</time>
      </trkpt>
      <trkpt lat="44.20466" lon="4.50677">
        <ele>73.3</ele>
        <time>2024-10-17T18:23:30.041Z</time>
      </trkpt>
      <trkpt lat="44.20472" lon="4.50673">
        <ele>72.5</ele>
        <time>2024-10-17T18:23:32.809Z</time>
      </trkpt>
      <trkpt lat="44.20486" lon="4.50637">
        <ele>74.1</ele>
        <time>2024-10-17T18:23:45.032Z</time>
      </trkpt>
      <trkpt lat="44.20491" lon="4.50547">
        <ele>77.7</ele>
        <time>2024-10-17T18:24:11.972Z</time>
      </trkpt>
      <trkpt lat="44.20517" lon="4.50429">
        <ele>82.6</ele>
        <time>2024-10-17T18:24:48.814Z</time>
      </trkpt>
      <trkpt lat="44.2053" lon="4.50303">
        <ele>86</ele>
        <time>2024-10-17T18:25:26.805Z</time>
      </trkpt>
      <trkpt lat="44.2053" lon="4.50277">
        <ele>87.8</ele>
        <time>2024-10-17T18:25:34.564Z</time>
      </trkpt>
      <trkpt lat="44.20529" lon="4.50205">
        <ele>91.5</ele>
        <time>2024-10-17T18:25:56.056Z</time>
      </trkpt>
      <trkpt lat="44.20534" lon="4.50163">
        <ele>92.3</ele>
        <time>2024-10-17T18:26:08.762Z</time>
      </trkpt>
      <trkpt lat="44.20556" lon="4.50077">
        <ele>89.5</ele>
        <time>2024-10-17T18:26:36.013Z</time>
      </trkpt>
      <trkpt lat="44.2057" lon="4.50017">
        <ele>90.2</ele>
        <time>2024-10-17T18:26:54.844Z</time>
      </trkpt>
      <trkpt lat="44.20583" lon="4.49983">
        <ele>91.2</ele>
        <time>2024-10-17T18:27:06.344Z</time>
      </trkpt>
      <trkpt lat="44.2059" lon="4.49905">
        <ele>93.3</ele>
        <time>2024-10-17T18:27:29.804Z</time>
      </trkpt>
      <trkpt lat="44.20586" lon="4.4989">
        <ele>93.8</ele>
        <time>2024-10-17T18:27:34.580Z</time>
      </trkpt>
      <trkpt lat="44.20567" lon="4.49886">
        <ele>95.1</ele>
        <time>2024-10-17T18:27:42.579Z</time>
      </trkpt>
      <trkpt lat="44.20553" lon="4.49891">
        <ele>96.3</ele>
        <time>2024-10-17T18:27:48.595Z</time>
      </trkpt>
      <trkpt lat="44.20536" lon="4.49892">
        <ele>98</ele>
        <time>2024-10-17T18:27:55.678Z</time>
      </trkpt>
      <trkpt lat="44.20527" lon="4.49891">
        <ele>98.9</ele>
        <time>2024-10-17T18:27:59.436Z</time>
      </trkpt>
      <trkpt lat="44.20515" lon="4.49862">
        <ele>101.3</ele>
        <time>2024-10-17T18:28:09.429Z</time>
      </trkpt>
      <trkpt lat="44.20513" lon="4.49832">
        <ele>101.7</ele>
        <time>2024-10-17T18:28:18.421Z</time>
      </trkpt>
      <trkpt lat="44.20482" lon="4.4983">
        <ele>107</ele>
        <time>2024-10-17T18:28:31.341Z</time>
      </trkpt>
      <trkpt lat="44.20457" lon="4.49821">
        <ele>110.4</ele>
        <time>2024-10-17T18:28:42.090Z</time>
      </trkpt>
      <trkpt lat="44.20443" lon="4.49795">
        <ele>112.8</ele>
        <time>2024-10-17T18:28:51.795Z</time>
      </trkpt>
      <trkpt lat="44.20431" lon="4.49781">
        <ele>113.9</ele>
        <time>2024-10-17T18:28:58.308Z</time>
      </trkpt>
      <trkpt lat="44.20371" lon="4.49747">
        <ele>123.4</ele>
        <time>2024-10-17T18:29:25.270Z</time>
      </trkpt>
      <trkpt lat="44.20341" lon="4.49723">
        <ele>129.6</ele>
        <time>2024-10-17T18:29:39.668Z</time>
      </trkpt>
      <trkpt lat="44.20332" lon="4.49698">
        <ele>133.1</ele>
        <time>2024-10-17T18:29:48.017Z</time>
      </trkpt>
      <trkpt lat="44.20327" lon="4.49671">
        <ele>134.9</ele>
        <time>2024-10-17T18:29:56.339Z</time>
      </trkpt>
      <trkpt lat="44.2032" lon="4.4967">
        <ele>136.8</ele>
        <time>2024-10-17T18:29:59.268Z</time>
      </trkpt>
      <trkpt lat="44.20315" lon="4.49692">
        <ele>137.8</ele>
        <time>2024-10-17T18:30:06.156Z</time>
      </trkpt>
      <trkpt lat="44.20301" lon="4.49712">
        <ele>140.8</ele>
        <time>2024-10-17T18:30:14.498Z</time>
      </trkpt>
      <trkpt lat="44.20279" lon="4.49727">
        <ele>145.7</ele>
        <time>2024-10-17T18:30:24.692Z</time>
      </trkpt>
      <trkpt lat="44.2024" lon="4.49739">
        <ele>151.7</ele>
        <time>2024-10-17T18:30:41.319Z</time>
      </trkpt>
      <trkpt lat="44.20184" lon="4.4975">
        <ele>154.6</ele>
        <time>2024-10-17T18:31:04.863Z</time>
      </trkpt>
      <trkpt lat="44.20167" lon="4.49757">
        <ele>156.7</ele>
        <time>2024-10-17T18:31:12.242Z</time>
      </trkpt>
      <trkpt lat="44.20144" lon="4.49765">
        <ele>160.5</ele>
        <time>2024-10-17T18:31:22.110Z</time>
      </trkpt>
      <trkpt lat="44.20136" lon="4.49766">
        <ele>161.9</ele>
        <time>2024-10-17T18:31:25.453Z</time>
      </trkpt>
      <trkpt lat="44.20101" lon="4.49755">
        <ele>167.3</ele>
        <time>2024-10-17T18:31:40.389Z</time>
      </trkpt>
      <trkpt lat="44.20066" lon="4.49756">
        <ele>168.7</ele>
        <time>2024-10-17T18:31:54.963Z</time>
      </trkpt>
      <trkpt lat="44.20036" lon="4.4977">
        <ele>165.9</ele>
        <time>2024-10-17T18:32:08.133Z</time>
      </trkpt>
      <trkpt lat="44.20017" lon="4.49788">
        <ele>162.3</ele>
        <time>2024-10-17T18:32:17.695Z</time>
      </trkpt>
      <trkpt lat="44.19982" lon="4.49795">
        <ele>156.8</ele>
        <time>2024-10-17T18:32:32.415Z</time>
      </trkpt>
      <trkpt lat="44.19969" lon="4.49787">
        <ele>153.7</ele>
        <time>2024-10-17T18:32:38.330Z</time>
      </trkpt>
      <trkpt lat="44.19937" lon="4.498">
        <ele>151</ele>
        <time>2024-10-17T18:32:52.206Z</time>
      </trkpt>
      <trkpt lat="44.19885" lon="4.49818">
        <ele>144.7</ele>
        <time>2024-10-17T18:33:14.512Z</time>
      </trkpt>
      <trkpt lat="44.19854" lon="4.49846">
        <ele>140.5</ele>
        <time>2024-10-17T18:33:29.887Z</time>
      </trkpt>
      <trkpt lat="44.19836" lon="4.49856">
        <ele>137</ele>
        <time>2024-10-17T18:33:37.953Z</time>
      </trkpt>
      <trkpt lat="44.19825" lon="4.49866">
        <ele>136.1</ele>
        <time>2024-10-17T18:33:43.419Z</time>
      </trkpt>
      <trkpt lat="44.19804" lon="4.49863">
        <ele>131.2</ele>
        <time>2024-10-17T18:33:52.207Z</time>
      </trkpt>
      <trkpt lat="44.19739" lon="4.49893">
        <ele>124.6</ele>
        <time>2024-10-17T18:34:20.711Z</time>
      </trkpt>
      <trkpt lat="44.19703" lon="4.49899">
        <ele>120.6</ele>
        <time>2024-10-17T18:34:35.805Z</time>
      </trkpt>
      <trkpt lat="44.19686" lon="4.49888">
        <ele>116.2</ele>
        <time>2024-10-17T18:34:43.607Z</time>
      </trkpt>
      <trkpt lat="44.19664" lon="4.49877">
        <ele>115</ele>
        <time>2024-10-17T18:34:53.337Z</time>
      </trkpt>
      <trkpt lat="44.19613" lon="4.49894">
        <ele>102.4</ele>
        <time>2024-10-17T18:35:15.167Z</time>
      </trkpt>
      <trkpt lat="44.19578" lon="4.49897">
        <ele>98.4</ele>
        <time>2024-10-17T18:35:29.766Z</time>
      </trkpt>
      <trkpt lat="44.19554" lon="4.49911">
        <ele>93.1</ele>
        <time>2024-10-17T18:35:40.596Z</time>
      </trkpt>
      <trkpt lat="44.1956" lon="4.49982">
        <ele>95.2</ele>
        <time>2024-10-17T18:36:01.935Z</time>
      </trkpt>
      <trkpt lat="44.1957" lon="4.50029">
        <ele>96.1</ele>
        <time>2024-10-17T18:36:16.569Z</time>
      </trkpt>
      <trkpt lat="44.19565" lon="4.5012">
        <ele>92.6</ele>
        <time>2024-10-17T18:36:43.811Z</time>
      </trkpt>
      <trkpt lat="44.19575" lon="4.50173">
        <ele>90.2</ele>
        <time>2024-10-17T18:37:00.169Z</time>
      </trkpt>
      <trkpt lat="44.196" lon="4.50221">
        <ele>90.6</ele>
        <time>2024-10-17T18:37:17.878Z</time>
      </trkpt>
      <trkpt lat="44.19606" lon="4.50254">
        <ele>88.1</ele>
        <time>2024-10-17T18:37:28.040Z</time>
      </trkpt>
      <trkpt lat="44.19583" lon="4.50265">
        <ele>86.3</ele>
        <time>2024-10-17T18:37:38.162Z</time>
      </trkpt>
      <trkpt lat="44.19563" lon="4.50274">
        <ele>82.5</ele>
        <time>2024-10-17T18:37:46.911Z</time>
      </trkpt>
      <trkpt lat="44.19546" lon="4.50277">
        <ele>79.7</ele>
        <time>2024-10-17T18:37:54.045Z</time>
      </trkpt>
      <trkpt lat="44.19527" lon="4.50272">
        <ele>76.7</ele>
        <time>2024-10-17T18:38:02.094Z</time>
      </trkpt>
      <trkpt lat="44.19503" lon="4.50299">
        <ele>72.7</ele>
        <time>2024-10-17T18:38:14.931Z</time>
      </trkpt>
      <trkpt lat="44.19487" lon="4.50332">
        <ele>71.5</ele>
        <time>2024-10-17T18:38:26.822Z</time>
      </trkpt>
      <trkpt lat="44.19488" lon="4.50348">
        <ele>71.1</ele>
        <time>2024-10-17T18:38:31.616Z</time>
      </trkpt>
      <trkpt lat="44.19397" lon="4.50308">
        <ele>73.2</ele>
        <time>2024-10-17T18:39:11.339Z</time>
      </trkpt>
      <trkpt lat="44.1936" lon="4.50295">
        <ele>73</ele>
        <time>2024-10-17T18:39:27.224Z</time>
      </trkpt>
      <trkpt lat="44.19312" lon="4.50217">
        <ele>74.2</ele>
        <time>2024-10-17T18:39:57.907Z</time>
      </trkpt>
      <trkpt lat="44.19218" lon="4.50141">
        <ele>74.8</ele>
        <time>2024-10-17T18:40:43.142Z</time>
      </trkpt>
      <trkpt lat="44.19182" lon="4.50103">
        <ele>74.5</ele>
        <time>2024-10-17T18:41:01.938Z</time>
      </trkpt>
      <trkpt lat="44.1914" lon="4.50055">
        <ele>75</ele>
        <time>2024-10-17T18:41:24.544Z</time>
      </trkpt>
      <trkpt lat="44.19132" lon="4.50033">
        <ele>74.7</ele>
        <time>2024-10-17T18:41:31.907Z</time>
      </trkpt>
      <trkpt lat="44.19143" lon="4.50016">
        <ele>75.6</ele>
        <time>2024-10-17T18:41:38.742Z</time>
      </trkpt>
      <trkpt lat="44.19148" lon="4.50012">
        <ele>76.1</ele>
        <time>2024-10-17T18:41:41.141Z</time>
      </trkpt>
      <trkpt lat="44.19089" lon="4.49962">
        <ele>75.7</ele>
        <time>2024-10-17T18:42:09.883Z</time>
      </trkpt>
      <trkpt lat="44.19069" lon="4.49957">
        <ele>74.8</ele>
        <time>2024-10-17T18:42:18.342Z</time>
      </trkpt>
      <trkpt lat="44.19036" lon="4.49912">
        <ele>70.8</ele>
        <time>2024-10-17T18:42:37.557Z</time>
      </trkpt>
      <trkpt lat="44.19038" lon="4.49891">
        <ele>70.8</ele>
        <time>2024-10-17T18:42:43.881Z</time>
      </trkpt>
      <trkpt lat="44.19053" lon="4.49861">
        <ele>70.8</ele>
        <time>2024-10-17T18:42:54.799Z</time>
      </trkpt>
      <trkpt lat="44.19069" lon="4.49831">
        <ele>72.3</ele>
        <time>2024-10-17T18:43:05.960Z</time>
      </trkpt>
      <trkpt lat="44.19101" lon="4.49771">
        <ele>72.4</ele>
        <time>2024-10-17T18:43:28.282Z</time>
      </trkpt>
      <trkpt lat="44.19143" lon="4.49707">
        <ele>71.4</ele>
        <time>2024-10-17T18:43:54.181Z</time>
      </trkpt>
      <trkpt lat="44.19157" lon="4.49693">
        <ele>72.6</ele>
        <time>2024-10-17T18:44:01.353Z</time>
      </trkpt>
      <trkpt lat="44.19179" lon="4.49683">
        <ele>77.2</ele>
        <time>2024-10-17T18:44:10.986Z</time>
      </trkpt>
      <trkpt lat="44.19193" lon="4.49657">
        <ele>74.5</ele>
        <time>2024-10-17T18:44:20.692Z</time>
      </trkpt>
      <trkpt lat="44.19204" lon="4.49613">
        <ele>70.3</ele>
        <time>2024-10-17T18:44:34.602Z</time>
      </trkpt>
      <trkpt lat="44.19236" lon="4.4957">
        <ele>69.3</ele>
        <time>2024-10-17T18:44:53.102Z</time>
      </trkpt>
      <trkpt lat="44.19255" lon="4.4955">
        <ele>69.3</ele>
        <time>2024-10-17T18:45:03.012Z</time>
      </trkpt>
      <trkpt lat="44.19277" lon="4.4953">
        <ele>70.1</ele>
        <time>2024-10-17T18:45:13.945Z</time>
      </trkpt>
      <trkpt lat="44.19299" lon="4.49521">
        <ele>70.8</ele>
        <time>2024-10-17T18:45:23.490Z</time>
      </trkpt>
      <trkpt lat="44.19306" lon="4.49524">
        <ele>71.6</ele>
        <time>2024-10-17T18:45:26.538Z</time>
      </trkpt>
      <trkpt lat="44.19312" lon="4.49522">
        <ele>71.7</ele>
        <time>2024-10-17T18:45:29.106Z</time>
      </trkpt>
      <trkpt lat="44.1934" lon="4.49489">
        <ele>70.6</ele>
        <time>2024-10-17T18:45:44.368Z</time>
      </trkpt>
      <trkpt lat="44.19359" lon="4.49461">
        <ele>68.3</ele>
        <time>2024-10-17T18:45:55.875Z</time>
      </trkpt>
      <trkpt lat="44.19426" lon="4.49417">
        <ele>69.1</ele>
        <time>2024-10-17T18:46:26.706Z</time>
      </trkpt>
      <trkpt lat="44.19459" lon="4.49391">
        <ele>68.5</ele>
        <time>2024-10-17T18:46:42.485Z</time>
      </trkpt>
      <trkpt lat="44.19469" lon="4.49391">
        <ele>69.8</ele>
        <time>2024-10-17T18:46:46.648Z</time>
      </trkpt>
      <trkpt lat="44.19513" lon="4.49349">
        <ele>69.7</ele>
        <time>2024-10-17T18:47:08.845Z</time>
      </trkpt>
      <trkpt lat="44.19549" lon="4.49322">
        <ele>67.8</ele>
        <time>2024-10-17T18:47:25.862Z</time>
      </trkpt>
      <trkpt lat="44.19612" lon="4.49299">
        <ele>68.1</ele>
        <time>2024-10-17T18:47:52.974Z</time>
      </trkpt>
      <trkpt lat="44.19634" lon="4.49294">
        <ele>69.9</ele>
        <time>2024-10-17T18:48:02.254Z</time>
      </trkpt>
      <trkpt lat="44.19649" lon="4.49292">
        <ele>71.2</ele>
        <time>2024-10-17T18:48:08.527Z</time>
      </trkpt>
      <trkpt lat="44.19683" lon="4.49271">
        <ele>72.5</ele>
        <time>2024-10-17T18:48:24.008Z</time>
      </trkpt>
      <trkpt lat="44.1969" lon="4.49246">
        <ele>70.6</ele>
        <time>2024-10-17T18:48:32.019Z</time>
      </trkpt>
      <trkpt lat="44.19706" lon="4.49156">
        <ele>70.2</ele>
        <time>2024-10-17T18:48:59.696Z</time>
      </trkpt>
      <trkpt lat="44.19709" lon="4.49126">
        <ele>69.6</ele>
        <time>2024-10-17T18:49:08.737Z</time>
      </trkpt>
      <trkpt lat="44.19722" lon="4.49102">
        <ele>70.3</ele>
        <time>2024-10-17T18:49:17.715Z</time>
      </trkpt>
      <trkpt lat="44.19732" lon="4.49074">
        <ele>70.8</ele>
        <time>2024-10-17T18:49:27.052Z</time>
      </trkpt>
      <trkpt lat="44.19736" lon="4.49021">
        <ele>71</ele>
        <time>2024-10-17T18:49:42.959Z</time>
      </trkpt>
      <trkpt lat="44.19741" lon="4.48981">
        <ele>71</ele>
        <time>2024-10-17T18:49:55.078Z</time>
      </trkpt>
      <trkpt lat="44.19765" lon="4.48898">
        <ele>71.5</ele>
        <time>2024-10-17T18:50:21.791Z</time>
      </trkpt>
      <trkpt lat="44.19756" lon="4.48857">
        <ele>72</ele>
        <time>2024-10-17T18:50:34.589Z</time>
      </trkpt>
      <trkpt lat="44.19756" lon="4.48845">
        <ele>72</ele>
        <time>2024-10-17T18:50:38.170Z</time>
      </trkpt>
      <trkpt lat="44.19773" lon="4.48825">
        <ele>72</ele>
        <time>2024-10-17T18:50:47.429Z</time>
      </trkpt>
      <trkpt lat="44.19799" lon="4.48813">
        <ele>72</ele>
        <time>2024-10-17T18:50:58.830Z</time>
      </trkpt>
      <trkpt lat="44.19807" lon="4.48679">
        <ele>73.6</ele>
        <time>2024-10-17T18:51:38.965Z</time>
      </trkpt>
      <trkpt lat="44.1996" lon="4.48674">
        <ele>78.7</ele>
        <time>2024-10-17T18:52:42.681Z</time>
      </trkpt>
      <trkpt lat="44.20004" lon="4.4871">
        <ele>82.8</ele>
        <time>2024-10-17T18:53:03.918Z</time>
      </trkpt>
      <trkpt lat="44.20024" lon="4.48712">
        <ele>84.4</ele>
        <time>2024-10-17T18:53:12.266Z</time>
      </trkpt>
      <trkpt lat="44.20072" lon="4.48712">
        <ele>87.9</ele>
        <time>2024-10-17T18:53:32.250Z</time>
      </trkpt>
      <trkpt lat="44.20123" lon="4.48751">
        <ele>90.3</ele>
        <time>2024-10-17T18:53:56.464Z</time>
      </trkpt>
      <trkpt lat="44.20138" lon="4.48796">
        <ele>90.7</ele>
        <time>2024-10-17T18:54:11.275Z</time>
      </trkpt>
      <trkpt lat="44.20198" lon="4.48843">
        <ele>94.1</ele>
        <time>2024-10-17T18:54:39.924Z</time>
      </trkpt>
      <trkpt lat="44.20217" lon="4.48862">
        <ele>94.8</ele>
        <time>2024-10-17T18:54:49.656Z</time>
      </trkpt>
      <trkpt lat="44.20252" lon="4.48959">
        <ele>99.1</ele>
        <time>2024-10-17T18:55:22.067Z</time>
      </trkpt>
      <trkpt lat="44.20278" lon="4.4898">
        <ele>101.5</ele>
        <time>2024-10-17T18:55:34.575Z</time>
      </trkpt>
      <trkpt lat="44.20339" lon="4.48991">
        <ele>103.7</ele>
        <time>2024-10-17T18:56:00.182Z</time>
      </trkpt>
      <trkpt lat="44.20397" lon="4.49043">
        <ele>105.9</ele>
        <time>2024-10-17T18:56:28.886Z</time>
      </trkpt>
      <trkpt lat="44.20401" lon="4.49076">
        <ele>108.3</ele>
        <time>2024-10-17T18:56:38.874Z</time>
      </trkpt>
      <trkpt lat="44.20424" lon="4.49119">
        <ele>110.7</ele>
        <time>2024-10-17T18:56:54.886Z</time>
      </trkpt>
      <trkpt lat="44.20432" lon="4.49166">
        <ele>111.4</ele>
        <time>2024-10-17T18:57:09.303Z</time>
      </trkpt>
      <trkpt lat="44.20432" lon="4.49215">
        <ele>115.4</ele>
        <time>2024-10-17T18:57:23.927Z</time>
      </trkpt>
      <trkpt lat="44.20392" lon="4.49212">
        <ele>118.3</ele>
        <time>2024-10-17T18:57:40.604Z</time>
      </trkpt>
      <trkpt lat="44.20362" lon="4.49229">
        <ele>121.2</ele>
        <time>2024-10-17T18:57:54.085Z</time>
      </trkpt>
      <trkpt lat="44.20348" lon="4.4924">
        <ele>122.9</ele>
        <time>2024-10-17T18:58:00.774Z</time>
      </trkpt>
      <trkpt lat="44.20293" lon="4.49274">
        <ele>126.3</ele>
        <time>2024-10-17T18:58:25.820Z</time>
      </trkpt>
      <trkpt lat="44.20256" lon="4.4931">
        <ele>133</ele>
        <time>2024-10-17T18:58:44.601Z</time>
      </trkpt>
      <trkpt lat="44.20246" lon="4.49338">
        <ele>138.6</ele>
        <time>2024-10-17T18:58:53.937Z</time>
      </trkpt>
      <trkpt lat="44.20235" lon="4.49431">
        <ele>154.6</ele>
        <time>2024-10-17T18:59:22.069Z</time>
      </trkpt>
      <trkpt lat="44.20231" lon="4.49479">
        <ele>156.8</ele>
        <time>2024-10-17T18:59:36.491Z</time>
      </trkpt>
      <trkpt lat="44.2022" lon="4.495">
        <ele>158.5</ele>
        <time>2024-10-17T18:59:44.253Z</time>
      </trkpt>
      <trkpt lat="44.20169" lon="4.49531">
        <ele>164</ele>
        <time>2024-10-17T19:00:07.414Z</time>
      </trkpt>
      <trkpt lat="44.20134" lon="4.49569">
        <ele>169.7</ele>
        <time>2024-10-17T19:00:25.879Z</time>
      </trkpt>
      <trkpt lat="44.20104" lon="4.49583">
        <ele>173.8</ele>
        <time>2024-10-17T19:00:39.049Z</time>
      </trkpt>
      <trkpt lat="44.20081" lon="4.49597">
        <ele>176.1</ele>
        <time>2024-10-17T19:00:49.496Z</time>
      </trkpt>
      <trkpt lat="44.20079" lon="4.49663">
        <ele>175</ele>
        <time>2024-10-17T19:01:09.212Z</time>
      </trkpt>
      <trkpt lat="44.2007" lon="4.49708">
        <ele>171</ele>
        <time>2024-10-17T19:01:23.156Z</time>
      </trkpt>
      <trkpt lat="44.20076" lon="4.49749">
        <ele>168.8</ele>
        <time>2024-10-17T19:01:35.645Z</time>
      </trkpt>
      <trkpt lat="44.20075" lon="4.49758">
        <ele>169.1</ele>
        <time>2024-10-17T19:01:38.363Z</time>
      </trkpt>
      <trkpt lat="44.20029" lon="4.49779">
        <ele>164.4</ele>
        <time>2024-10-17T19:01:58.513Z</time>
      </trkpt>
      <trkpt lat="44.20019" lon="4.4979">
        <ele>163</ele>
        <time>2024-10-17T19:02:03.815Z</time>
      </trkpt>
      <trkpt lat="44.19983" lon="4.49792">
        <ele>156.5</ele>
        <time>2024-10-17T19:02:18.814Z</time>
      </trkpt>
      <trkpt lat="44.19968" lon="4.49783">
        <ele>153</ele>
        <time>2024-10-17T19:02:25.612Z</time>
      </trkpt>
      <trkpt lat="44.19956" lon="4.49795">
        <ele>152.9</ele>
        <time>2024-10-17T19:02:31.759Z</time>
      </trkpt>
      <trkpt lat="44.1989" lon="4.49813">
        <ele>145.4</ele>
        <time>2024-10-17T19:02:59.757Z</time>
      </trkpt>
      <trkpt lat="44.1986" lon="4.49833">
        <ele>139.8</ele>
        <time>2024-10-17T19:03:13.600Z</time>
      </trkpt>
      <trkpt lat="44.19852" lon="4.49844">
        <ele>139.8</ele>
        <time>2024-10-17T19:03:18.276Z</time>
      </trkpt>
      <trkpt lat="44.19821" lon="4.49862">
        <ele>134.5</ele>
        <time>2024-10-17T19:03:32.255Z</time>
      </trkpt>
      <trkpt lat="44.19795" lon="4.49864">
        <ele>129.9</ele>
        <time>2024-10-17T19:03:43.096Z</time>
      </trkpt>
      <trkpt lat="44.19729" lon="4.49898">
        <ele>124.2</ele>
        <time>2024-10-17T19:04:12.388Z</time>
      </trkpt>
      <trkpt lat="44.19697" lon="4.499">
        <ele>120.2</ele>
        <time>2024-10-17T19:04:25.724Z</time>
      </trkpt>
      <trkpt lat="44.19678" lon="4.49881">
        <ele>116.3</ele>
        <time>2024-10-17T19:04:35.457Z</time>
      </trkpt>
      <trkpt lat="44.19651" lon="4.49885">
        <ele>109.9</ele>
        <time>2024-10-17T19:04:46.761Z</time>
      </trkpt>
      <trkpt lat="44.19632" lon="4.49893">
        <ele>105.1</ele>
        <time>2024-10-17T19:04:55.023Z</time>
      </trkpt>
      <trkpt lat="44.19596" lon="4.49898">
        <ele>100.9</ele>
        <time>2024-10-17T19:05:10.085Z</time>
      </trkpt>
      <trkpt lat="44.19577" lon="4.499">
        <ele>98.5</ele>
        <time>2024-10-17T19:05:18.017Z</time>
      </trkpt>
      <trkpt lat="44.19559" lon="4.49912">
        <ele>93.8</ele>
        <time>2024-10-17T19:05:26.323Z</time>
      </trkpt>
      <trkpt lat="44.19561" lon="4.49974">
        <ele>95.3</ele>
        <time>2024-10-17T19:05:44.848Z</time>
      </trkpt>
      <trkpt lat="44.19567" lon="4.50033">
        <ele>95</ele>
        <time>2024-10-17T19:06:02.635Z</time>
      </trkpt>
      <trkpt lat="44.19566" lon="4.50098">
        <ele>93.4</ele>
        <time>2024-10-17T19:06:22.041Z</time>
      </trkpt>
      <trkpt lat="44.19568" lon="4.50156">
        <ele>90</ele>
        <time>2024-10-17T19:06:39.373Z</time>
      </trkpt>
      <trkpt lat="44.1959" lon="4.50198">
        <ele>91.9</ele>
        <time>2024-10-17T19:06:54.899Z</time>
      </trkpt>
      <trkpt lat="44.19605" lon="4.50231">
        <ele>90.4</ele>
        <time>2024-10-17T19:07:06.562Z</time>
      </trkpt>
      <trkpt lat="44.19608" lon="4.50252">
        <ele>88.4</ele>
        <time>2024-10-17T19:07:12.953Z</time>
      </trkpt>
      <trkpt lat="44.19589" lon="4.50258">
        <ele>86.9</ele>
        <time>2024-10-17T19:07:21.063Z</time>
      </trkpt>
      <trkpt lat="44.19554" lon="4.50276">
        <ele>80.8</ele>
        <time>2024-10-17T19:07:36.593Z</time>
      </trkpt>
      <trkpt lat="44.19527" lon="4.50275">
        <ele>76.8</ele>
        <time>2024-10-17T19:07:47.837Z</time>
      </trkpt>
      <trkpt lat="44.19499" lon="4.50307">
        <ele>71.9</ele>
        <time>2024-10-17T19:08:02.907Z</time>
      </trkpt>
      <trkpt lat="44.19489" lon="4.50345">
        <ele>71.2</ele>
        <time>2024-10-17T19:08:14.989Z</time>
      </trkpt>
      <trkpt lat="44.19499" lon="4.50368">
        <ele>70.1</ele>
        <time>2024-10-17T19:08:23.018Z</time>
      </trkpt>
      <trkpt lat="44.19511" lon="4.50394">
        <ele>70.3</ele>
        <time>2024-10-17T19:08:32.248Z</time>
      </trkpt>
      <trkpt lat="44.19515" lon="4.50471">
        <ele>69.5</ele>
        <time>2024-10-17T19:08:55.292Z</time>
      </trkpt>
      <trkpt lat="44.19527" lon="4.50491">
        <ele>69.3</ele>
        <time>2024-10-17T19:09:03.076Z</time>
      </trkpt>
      <trkpt lat="44.19563" lon="4.50515">
        <ele>68.6</ele>
        <time>2024-10-17T19:09:19.688Z</time>
      </trkpt>
      <trkpt lat="44.19596" lon="4.50544">
        <ele>68</ele>
        <time>2024-10-17T19:09:35.926Z</time>
      </trkpt>
      <trkpt lat="44.19606" lon="4.50548">
        <ele>68</ele>
        <time>2024-10-17T19:09:40.257Z</time>
      </trkpt>
      <trkpt lat="44.19661" lon="4.50567">
        <ele>68.4</ele>
        <time>2024-10-17T19:10:03.847Z</time>
      </trkpt>
      <trkpt lat="44.19718" lon="4.50608">
        <ele>67.4</ele>
        <time>2024-10-17T19:10:30.547Z</time>
      </trkpt>
      <trkpt lat="44.19733" lon="4.50642">
        <ele>67.6</ele>
        <time>2024-10-17T19:10:42.463Z</time>
      </trkpt>
      <trkpt lat="44.19742" lon="4.50666">
        <ele>65.9</ele>
        <time>2024-10-17T19:10:50.547Z</time>
      </trkpt>
      <trkpt lat="44.19832" lon="4.50718">
        <ele>67.5</ele>
        <time>2024-10-17T19:11:31.104Z</time>
      </trkpt>
      <trkpt lat="44.19906" lon="4.50783">
        <ele>67.1</ele>
        <time>2024-10-17T19:12:07.512Z</time>
      </trkpt>
      <trkpt lat="44.19958" lon="4.50826">
        <ele>66</ele>
        <time>2024-10-17T19:12:32.679Z</time>
      </trkpt>
      <trkpt lat="44.20038" lon="4.50872">
        <ele>64.8</ele>
        <time>2024-10-17T19:13:08.704Z</time>
      </trkpt>
      <trkpt lat="44.2011" lon="4.50888">
        <ele>66</ele>
        <time>2024-10-17T19:13:39.058Z</time>
      </trkpt>
      <trkpt lat="44.20148" lon="4.50896">
        <ele>65.2</ele>
        <time>2024-10-17T19:13:55.057Z</time>
      </trkpt>
      <trkpt lat="44.20192" lon="4.50893">
        <ele>65.7</ele>
        <time>2024-10-17T19:14:13.397Z</time>
      </trkpt>
      <trkpt lat="44.20236" lon="4.509">
        <ele>66</ele>
        <time>2024-10-17T19:14:31.834Z</time>
      </trkpt>
      <trkpt lat="44.20269" lon="4.50925">
        <ele>64.9</ele>
        <time>2024-10-17T19:14:47.468Z</time>
      </trkpt>
      <trkpt lat="44.20339" lon="4.5092">
        <ele>65.7</ele>
        <time>2024-10-17T19:15:16.649Z</time>
      </trkpt>
      <trkpt lat="44.20457" lon="4.50934">
        <ele>64</ele>
        <time>2024-10-17T19:16:05.953Z</time>
      </trkpt>
      <trkpt lat="44.20527" lon="4.50915">
        <ele>66</ele>
        <time>2024-10-17T19:16:35.642Z</time>
      </trkpt>
      <trkpt lat="44.20535" lon="4.50908">
        <ele>66</ele>
        <time>2024-10-17T19:16:39.573Z</time>
      </trkpt>
      <trkpt lat="44.20522" lon="4.50825">
        <ele>67.3</ele>
        <time>2024-10-17T19:17:04.928Z</time>
      </trkpt>
      <trkpt lat="44.20523" lon="4.50673">
        <ele>70.1</ele>
        <time>2024-10-17T19:17:50.293Z</time>
      </trkpt>
      <trkpt lat="44.20521" lon="4.5061">
        <ele>71.9</ele>
        <time>2024-10-17T19:18:09.113Z</time>
      </trkpt>
      <trkpt lat="44.20577" lon="4.50455">
        <ele>75.3</ele>
        <time>2024-10-17T19:19:00.915Z</time>
      </trkpt>
      <trkpt lat="44.2058" lon="4.50383">
        <ele>77.8</ele>
        <time>2024-10-17T19:19:22.439Z</time>
      </trkpt>
      <trkpt lat="44.20591" lon="4.50198">
        <ele>85.7</ele>
        <time>2024-10-17T19:20:17.840Z</time>
      </trkpt>
      <trkpt lat="44.2059" lon="4.50113">
        <ele>87</ele>
        <time>2024-10-17T19:20:43.211Z</time>
      </trkpt>
      <trkpt lat="44.20596" lon="4.50066">
        <ele>86.8</ele>
        <time>2024-10-17T19:20:57.458Z</time>
      </trkpt>
      <trkpt lat="44.20581" lon="4.49998">
        <ele>90.2</ele>
        <time>2024-10-17T19:21:18.691Z</time>
      </trkpt>
      <trkpt lat="44.20592" lon="4.49896">
        <ele>93.1</ele>
        <time>2024-10-17T19:21:49.474Z</time>
      </trkpt>
      <trkpt lat="44.20584" lon="4.49877">
        <ele>93.5</ele>
        <time>2024-10-17T19:21:56.050Z</time>
      </trkpt>
      <trkpt lat="44.20597" lon="4.49735">
        <ele>91.3</ele>
        <time>2024-10-17T19:22:38.773Z</time>
      </trkpt>
      <trkpt lat="44.20605" lon="4.49658">
        <ele>92.7</ele>
        <time>2024-10-17T19:23:01.993Z</time>
      </trkpt>
      <trkpt lat="44.20582" lon="4.49622">
        <ele>95.5</ele>
        <time>2024-10-17T19:23:16.384Z</time>
      </trkpt>
      <trkpt lat="44.20568" lon="4.49612">
        <ele>96.2</ele>
        <time>2024-10-17T19:23:22.932Z</time>
      </trkpt>
      <trkpt lat="44.20597" lon="4.4951">
        <ele>96.1</ele>
        <time>2024-10-17T19:23:55.680Z</time>
      </trkpt>
      <trkpt lat="44.20618" lon="4.49469">
        <ele>95.3</ele>
        <time>2024-10-17T19:24:10.718Z</time>
      </trkpt>
      <trkpt lat="44.2057" lon="4.49396">
        <ele>100.8</ele>
        <time>2024-10-17T19:24:40.281Z</time>
      </trkpt>
      <trkpt lat="44.2057" lon="4.49305">
        <ele>103.4</ele>
        <time>2024-10-17T19:25:07.439Z</time>
      </trkpt>
      <trkpt lat="44.20564" lon="4.49261">
        <ele>104</ele>
        <time>2024-10-17T19:25:20.806Z</time>
      </trkpt>
      <trkpt lat="44.20583" lon="4.49225">
        <ele>103</ele>
        <time>2024-10-17T19:25:34.147Z</time>
      </trkpt>
      <trkpt lat="44.20609" lon="4.49142">
        <ele>106</ele>
        <time>2024-10-17T19:26:01.179Z</time>
      </trkpt>
      <trkpt lat="44.20618" lon="4.49083">
        <ele>107.1</ele>
        <time>2024-10-17T19:26:19.181Z</time>
      </trkpt>
      <trkpt lat="44.20642" lon="4.49001">
        <ele>103.5</ele>
        <time>2024-10-17T19:26:45.614Z</time>
      </trkpt>
      <trkpt lat="44.2067" lon="4.48966">
        <ele>100.2</ele>
        <time>2024-10-17T19:27:01.266Z</time>
      </trkpt>
      <trkpt lat="44.20705" lon="4.48979">
        <ele>95.5</ele>
        <time>2024-10-17T19:27:16.345Z</time>
      </trkpt>
      <trkpt lat="44.20749" lon="4.48987">
        <ele>90.1</ele>
        <time>2024-10-17T19:27:34.818Z</time>
      </trkpt>
      <trkpt lat="44.20886" lon="4.4904">
        <ele>82.5</ele>
        <time>2024-10-17T19:28:34.008Z</time>
      </trkpt>
      <trkpt lat="44.20945" lon="4.48742">
        <ele>81</ele>
        <time>2024-10-17T19:30:06.269Z</time>
      </trkpt>
      <trkpt lat="44.20986" lon="4.48609">
        <ele>80</ele>
        <time>2024-10-17T19:30:49.474Z</time>
      </trkpt>
      <trkpt lat="44.21056" lon="4.48447">
        <ele>79</ele>
        <time>2024-10-17T19:31:45.923Z</time>
      </trkpt>
      <trkpt lat="44.21093" lon="4.48332">
        <ele>78</ele>
        <time>2024-10-17T19:32:23.539Z</time>
      </trkpt>
      <trkpt lat="44.21165" lon="4.48374">
        <ele>78</ele>
        <time>2024-10-17T19:32:56.029Z</time>
      </trkpt>
      <trkpt lat="44.21188" lon="4.48341">
        <ele>78</ele>
        <time>2024-10-17T19:33:09.764Z</time>
      </trkpt>
      <trkpt lat="44.21212" lon="4.48304">
        <ele>77.4</ele>
        <time>2024-10-17T19:33:24.655Z</time>
      </trkpt>
      <trkpt lat="44.21227" lon="4.48272">
        <ele>78</ele>
        <time>2024-10-17T19:33:36.064Z</time>
      </trkpt>
      <trkpt lat="44.21254" lon="4.48167">
        <ele>78</ele>
        <time>2024-10-17T19:34:09.352Z</time>
      </trkpt>
      <trkpt lat="44.21255" lon="4.48162">
        <ele>78.1</ele>
        <time>2024-10-17T19:34:10.900Z</time>
      </trkpt>
      <trkpt lat="44.2139" lon="4.48212">
        <ele>76</ele>
        <time>2024-10-17T19:35:09.051Z</time>
      </trkpt>
      <trkpt lat="44.21482" lon="4.48248">
        <ele>77</ele>
        <time>2024-10-17T19:35:48.831Z</time>
      </trkpt>
      <trkpt lat="44.21573" lon="4.48321">
        <ele>78</ele>
        <time>2024-10-17T19:36:32.533Z</time>
      </trkpt>
      <trkpt lat="44.21637" lon="4.48382">
        <ele>79</ele>
        <time>2024-10-17T19:37:04.801Z</time>
      </trkpt>
      <trkpt lat="44.21641" lon="4.4838">
        <ele>79</ele>
        <time>2024-10-17T19:37:06.570Z</time>
      </trkpt>
      <trkpt lat="44.2178" lon="4.48142">
        <ele>78</ele>
        <time>2024-10-17T19:38:38.179Z</time>
      </trkpt>
      <trkpt lat="44.2181" lon="4.48088">
        <ele>77.2</ele>
        <time>2024-10-17T19:38:58.565Z</time>
      </trkpt>
      <trkpt lat="44.21833" lon="4.48037">
        <ele>77</ele>
        <time>2024-10-17T19:39:16.544Z</time>
      </trkpt>
      <trkpt lat="44.21847" lon="4.48048">
        <ele>77</ele>
        <time>2024-10-17T19:39:23.233Z</time>
      </trkpt>
      <trkpt lat="44.21861" lon="4.48054">
        <ele>77</ele>
        <time>2024-10-17T19:39:29.330Z</time>
      </trkpt>
      <trkpt lat="44.21868" lon="4.4807">
        <ele>77.1</ele>
        <time>2024-10-17T19:39:34.923Z</time>
      </trkpt>
      <trkpt lat="44.21885" lon="4.48041">
        <ele>77</ele>
        <time>2024-10-17T19:39:46.101Z</time>
      </trkpt>
      <trkpt lat="44.21891" lon="4.48031">
        <ele>77</ele>
        <time>2024-10-17T19:39:49.992Z</time>
      </trkpt>
      <trkpt lat="44.21925" lon="4.48064">
        <ele>77</ele>
        <time>2024-10-17T19:40:07.235Z</time>
      </trkpt>
      <trkpt lat="44.21951" lon="4.4809">
        <ele>77.3</ele>
        <time>2024-10-17T19:40:20.552Z</time>
      </trkpt>
      <trkpt lat="44.21968" lon="4.48104">
        <ele>77.8</ele>
        <time>2024-10-17T19:40:28.770Z</time>
      </trkpt>
      <trkpt lat="44.21977" lon="4.48104">
        <ele>77.8</ele>
        <time>2024-10-17T19:40:32.516Z</time>
      </trkpt>
      <trkpt lat="44.22011" lon="4.48071">
        <ele>78</ele>
        <time>2024-10-17T19:40:49.759Z</time>
      </trkpt>
      <trkpt lat="44.22018" lon="4.4805">
        <ele>78</ele>
        <time>2024-10-17T19:40:56.669Z</time>
      </trkpt>
      <trkpt lat="44.21997" lon="4.48024">
        <ele>77.8</ele>
        <time>2024-10-17T19:41:08.357Z</time>
      </trkpt>
      <trkpt lat="44.22" lon="4.4799">
        <ele>80.8</ele>
        <time>2024-10-17T19:41:18.578Z</time>
      </trkpt>
      <trkpt lat="44.21999" lon="4.47989">
        <ele>80.8</ele>
        <time>2024-10-17T19:41:19.578Z</time>
      </trkpt>
      <trkpt lat="44.21998" lon="4.47989">
        <ele>80.8</ele>
        <time>2024-10-17T19:41:20.578Z</time>
      </trkpt>
      <trkpt lat="44.21998" lon="4.47988">
        <ele>80.8</ele>
        <time>2024-10-17T19:41:21.578Z</time>
      </trkpt>
      <trkpt lat="44.21999" lon="4.47988">
        <ele>80.8</ele>
        <time>2024-10-17T19:41:22.578Z</time>
      </trkpt>
      <trkpt lat="44.21999" lon="4.47987">
        <ele>80.8</ele>
        <time>2024-10-17T19:41:23.578Z</time>
      </trkpt>
      <trkpt lat="44.21999" lon="4.47986">
        <ele>80.8</ele>
        <time>2024-10-17T19:41:24.578Z</time>
      </trkpt>
      <trkpt lat="44.22" lon="4.47985">
        <ele>80.8</ele>
        <time>2024-10-17T19:41:25.578Z</time>
      </trkpt>
      <trkpt lat="44.22001" lon="4.47984">
        <ele>80.8</ele>
        <time>2024-10-17T19:41:26.578Z</time>
      </trkpt>
      <trkpt lat="44.22002" lon="4.47982">
        <ele>80.8</ele>
        <time>2024-10-17T19:41:27.578Z</time>
      </trkpt>
      <trkpt lat="44.22003" lon="4.47981">
        <ele>80.8</ele>
        <time>2024-10-17T19:41:28.578Z</time>
      </trkpt>
      <trkpt lat="44.22003" lon="4.47979">
        <ele>80.8</ele>
        <time>2024-10-17T19:41:29.578Z</time>
      </trkpt>
      <trkpt lat="44.22003" lon="4.47977">
        <ele>80.8</ele>
        <time>2024-10-17T19:41:30.578Z</time>
      </trkpt>
      <trkpt lat="44.22003" lon="4.47975">
        <ele>80.8</ele>
        <time>2024-10-17T19:41:31.578Z</time>
      </trkpt>
      <trkpt lat="44.22002" lon="4.47975">
        <ele>80.8</ele>
        <time>2024-10-17T19:41:32.578Z</time>
      </trkpt>
      <trkpt lat="44.22001" lon="4.47972">
        <ele>80.8</ele>
        <time>2024-10-17T19:41:33.578Z</time>
      </trkpt>
      <trkpt lat="44.22001" lon="4.47971">
        <ele>80.8</ele>
        <time>2024-10-17T19:41:34.578Z</time>
      </trkpt>
      <trkpt lat="44.22001" lon="4.4797">
        <ele>80.8</ele>
        <time>2024-10-17T19:41:35.578Z</time>
      </trkpt>
      <trkpt lat="44.22001" lon="4.47967">
        <ele>80.8</ele>
        <time>2024-10-17T19:41:36.578Z</time>
      </trkpt>
      <trkpt lat="44.22002" lon="4.47965">
        <ele>80.8</ele>
        <time>2024-10-17T19:41:37.578Z</time>
      </trkpt>
      <trkpt lat="44.22004" lon="4.47961">
        <ele>80.8</ele>
        <time>2024-10-17T19:41:38.578Z</time>
      </trkpt>
      <trkpt lat="44.22004" lon="4.4796">
        <ele>80.8</ele>
        <time>2024-10-17T19:41:39.578Z</time>
      </trkpt>
      <trkpt lat="44.22007" lon="4.47956">
        <ele>80.8</ele>
        <time>2024-10-17T19:41:40.578Z</time>
      </trkpt>
      <trkpt lat="44.22007" lon="4.47955">
        <ele>80.8</ele>
        <time>2024-10-17T19:41:41.578Z</time>
      </trkpt>
      <trkpt lat="44.22009" lon="4.47951">
        <ele>80.8</ele>
        <time>2024-10-17T19:41:42.578Z</time>
      </trkpt>
      <trkpt lat="44.2201" lon="4.4795">
        <ele>80.8</ele>
        <time>2024-10-17T19:41:43.578Z</time>
      </trkpt>
      <trkpt lat="44.22012" lon="4.47946">
        <ele>80.8</ele>
        <time>2024-10-17T19:41:44.578Z</time>
      </trkpt>
      <trkpt lat="44.22013" lon="4.47945">
        <ele>80.8</ele>
        <time>2024-10-17T19:41:45.578Z</time>
      </trkpt>
      <trkpt lat="44.22015" lon="4.47942">
        <ele>80.9</ele>
        <time>2024-10-17T19:41:46.578Z</time>
      </trkpt>
      <trkpt lat="44.22015" lon="4.47941">
        <ele>80.9</ele>
        <time>2024-10-17T19:41:47.578Z</time>
      </trkpt>
      <trkpt lat="44.22016" lon="4.47936">
        <ele>80.9</ele>
        <time>2024-10-17T19:41:48.578Z</time>
      </trkpt>
      <trkpt lat="44.22017" lon="4.47935">
        <ele>80.9</ele>
        <time>2024-10-17T19:41:49.578Z</time>
      </trkpt>
      <trkpt lat="44.22018" lon="4.47931">
        <ele>80.9</ele>
        <time>2024-10-17T19:41:50.578Z</time>
      </trkpt>
      <trkpt lat="44.22018" lon="4.47929">
        <ele>80.9</ele>
        <time>2024-10-17T19:41:51.578Z</time>
      </trkpt>
      <trkpt lat="44.2202" lon="4.47925">
        <ele>80.9</ele>
        <time>2024-10-17T19:41:52.578Z</time>
      </trkpt>
      <trkpt lat="44.22021" lon="4.47924">
        <ele>80.9</ele>
        <time>2024-10-17T19:41:53.578Z</time>
      </trkpt>
      <trkpt lat="44.22022" lon="4.47922">
        <ele>80.9</ele>
        <time>2024-10-17T19:41:54.578Z</time>
      </trkpt>
      <trkpt lat="44.22023" lon="4.47921">
        <ele>81</ele>
        <time>2024-10-17T19:41:55.578Z</time>
      </trkpt>
      <trkpt lat="44.22023" lon="4.47919">
        <ele>81</ele>
        <time>2024-10-17T19:41:56.578Z</time>
      </trkpt>
      <trkpt lat="44.22024" lon="4.47916">
        <ele>81</ele>
        <time>2024-10-17T19:41:57.578Z</time>
      </trkpt>
      <trkpt lat="44.22025" lon="4.47914">
        <ele>81</ele>
        <time>2024-10-17T19:41:58.578Z</time>
      </trkpt>
      <trkpt lat="44.22026" lon="4.47913">
        <ele>81</ele>
        <time>2024-10-17T19:41:59.578Z</time>
      </trkpt>
      <trkpt lat="44.22029" lon="4.47912">
        <ele>81</ele>
        <time>2024-10-17T19:42:00.578Z</time>
      </trkpt>
      <trkpt lat="44.2203" lon="4.47911">
        <ele>81</ele>
        <time>2024-10-17T19:42:01.578Z</time>
      </trkpt>
      <trkpt lat="44.22032" lon="4.47907">
        <ele>81.1</ele>
        <time>2024-10-17T19:42:02.578Z</time>
      </trkpt>
      <trkpt lat="44.22032" lon="4.47906">
        <ele>81.1</ele>
        <time>2024-10-17T19:42:03.578Z</time>
      </trkpt>
      <trkpt lat="44.22034" lon="4.47902">
        <ele>81.1</ele>
        <time>2024-10-17T19:42:04.578Z</time>
      </trkpt>
      <trkpt lat="44.22034" lon="4.479">
        <ele>81.1</ele>
        <time>2024-10-17T19:42:05.578Z</time>
      </trkpt>
      <trkpt lat="44.22034" lon="4.47896">
        <ele>81</ele>
        <time>2024-10-17T19:42:06.578Z</time>
      </trkpt>
      <trkpt lat="44.22034" lon="4.47894">
        <ele>81</ele>
        <time>2024-10-17T19:42:07.578Z</time>
      </trkpt>
      <trkpt lat="44.22034" lon="4.4789">
        <ele>81</ele>
        <time>2024-10-17T19:42:08.578Z</time>
      </trkpt>
      <trkpt lat="44.22034" lon="4.47889">
        <ele>81</ele>
        <time>2024-10-17T19:42:09.578Z</time>
      </trkpt>
      <trkpt lat="44.22032" lon="4.47884">
        <ele>81</ele>
        <time>2024-10-17T19:42:10.578Z</time>
      </trkpt>
      <trkpt lat="44.22031" lon="4.47883">
        <ele>81</ele>
        <time>2024-10-17T19:42:11.578Z</time>
      </trkpt>
      <trkpt lat="44.22029" lon="4.47879">
        <ele>80.9</ele>
        <time>2024-10-17T19:42:12.578Z</time>
      </trkpt>
      <trkpt lat="44.22028" lon="4.47878">
        <ele>80.9</ele>
        <time>2024-10-17T19:42:13.578Z</time>
      </trkpt>
      <trkpt lat="44.22025" lon="4.47875">
        <ele>80.9</ele>
        <time>2024-10-17T19:42:14.578Z</time>
      </trkpt>
      <trkpt lat="44.22024" lon="4.47875">
        <ele>80.9</ele>
        <time>2024-10-17T19:42:15.578Z</time>
      </trkpt>
      <trkpt lat="44.22023" lon="4.47874">
        <ele>80.8</ele>
        <time>2024-10-17T19:42:16.578Z</time>
      </trkpt>
      <trkpt lat="44.22021" lon="4.47873">
        <ele>80.8</ele>
        <time>2024-10-17T19:42:17.578Z</time>
      </trkpt>
      <trkpt lat="44.2202" lon="4.47871">
        <ele>80.8</ele>
        <time>2024-10-17T19:42:18.578Z</time>
      </trkpt>
      <trkpt lat="44.22019" lon="4.4787">
        <ele>80.8</ele>
        <time>2024-10-17T19:42:19.578Z</time>
      </trkpt>
      <trkpt lat="44.22017" lon="4.47868">
        <ele>80.8</ele>
        <time>2024-10-17T19:42:20.578Z</time>
      </trkpt>
      <trkpt lat="44.22016" lon="4.47867">
        <ele>80.8</ele>
        <time>2024-10-17T19:42:21.578Z</time>
      </trkpt>
      <trkpt lat="44.22013" lon="4.47864">
        <ele>80.7</ele>
        <time>2024-10-17T19:42:22.578Z</time>
      </trkpt>
      <trkpt lat="44.22013" lon="4.47863">
        <ele>80.7</ele>
        <time>2024-10-17T19:42:23.578Z</time>
      </trkpt>
      <trkpt lat="44.2201" lon="4.47861">
        <ele>80.7</ele>
        <time>2024-10-17T19:42:24.578Z</time>
      </trkpt>
      <trkpt lat="44.22009" lon="4.4786">
        <ele>80.7</ele>
        <time>2024-10-17T19:42:25.578Z</time>
      </trkpt>
      <trkpt lat="44.22007" lon="4.47857">
        <ele>80.7</ele>
        <time>2024-10-17T19:42:26.578Z</time>
      </trkpt>
      <trkpt lat="44.22006" lon="4.47856">
        <ele>80.7</ele>
        <time>2024-10-17T19:42:27.578Z</time>
      </trkpt>
      <trkpt lat="44.22003" lon="4.47854">
        <ele>80.7</ele>
        <time>2024-10-17T19:42:28.578Z</time>
      </trkpt>
      <trkpt lat="44.22003" lon="4.47853">
        <ele>80.7</ele>
        <time>2024-10-17T19:42:29.578Z</time>
      </trkpt>
      <trkpt lat="44.22" lon="4.47851">
        <ele>80.6</ele>
        <time>2024-10-17T19:42:30.578Z</time>
      </trkpt>
      <trkpt lat="44.21999" lon="4.4785">
        <ele>80.6</ele>
        <time>2024-10-17T19:42:31.578Z</time>
      </trkpt>
      <trkpt lat="44.21997" lon="4.47848">
        <ele>80.6</ele>
        <time>2024-10-17T19:42:32.578Z</time>
      </trkpt>
      <trkpt lat="44.21996" lon="4.47847">
        <ele>80.6</ele>
        <time>2024-10-17T19:42:33.578Z</time>
      </trkpt>
      <trkpt lat="44.21994" lon="4.47844">
        <ele>80.6</ele>
        <time>2024-10-17T19:42:34.578Z</time>
      </trkpt>
      <trkpt lat="44.21993" lon="4.47844">
        <ele>80.6</ele>
        <time>2024-10-17T19:42:35.578Z</time>
      </trkpt>
      <trkpt lat="44.21991" lon="4.47841">
        <ele>80.6</ele>
        <time>2024-10-17T19:42:36.578Z</time>
      </trkpt>
      <trkpt lat="44.21991" lon="4.4784">
        <ele>80.5</ele>
        <time>2024-10-17T19:42:37.578Z</time>
      </trkpt>
      <trkpt lat="44.21989" lon="4.47838">
        <ele>80.5</ele>
        <time>2024-10-17T19:42:38.578Z</time>
      </trkpt>
      <trkpt lat="44.21988" lon="4.47837">
        <ele>80.5</ele>
        <time>2024-10-17T19:42:39.578Z</time>
      </trkpt>
      <trkpt lat="44.21986" lon="4.47835">
        <ele>80.5</ele>
        <time>2024-10-17T19:42:40.578Z</time>
      </trkpt>
      <trkpt lat="44.21985" lon="4.47834">
        <ele>80.5</ele>
        <time>2024-10-17T19:42:41.578Z</time>
      </trkpt>
      <trkpt lat="44.21982" lon="4.47832">
        <ele>80.5</ele>
        <time>2024-10-17T19:42:42.578Z</time>
      </trkpt>
      <trkpt lat="44.21981" lon="4.47831">
        <ele>80.5</ele>
        <time>2024-10-17T19:42:43.578Z</time>
      </trkpt>
      <trkpt lat="44.21979" lon="4.47828">
        <ele>80.4</ele>
        <time>2024-10-17T19:42:44.578Z</time>
      </trkpt>
      <trkpt lat="44.21978" lon="4.47827">
        <ele>80.4</ele>
        <time>2024-10-17T19:42:45.578Z</time>
      </trkpt>
      <trkpt lat="44.21976" lon="4.47825">
        <ele>80.4</ele>
        <time>2024-10-17T19:42:46.578Z</time>
      </trkpt>
      <trkpt lat="44.21976" lon="4.47824">
        <ele>80.4</ele>
        <time>2024-10-17T19:42:47.578Z</time>
      </trkpt>
      <trkpt lat="44.21974" lon="4.47821">
        <ele>80.4</ele>
        <time>2024-10-17T19:42:48.578Z</time>
      </trkpt>
      <trkpt lat="44.21973" lon="4.4782">
        <ele>80.4</ele>
        <time>2024-10-17T19:42:49.578Z</time>
      </trkpt>
      <trkpt lat="44.21971" lon="4.47817">
        <ele>80.4</ele>
        <time>2024-10-17T19:42:50.578Z</time>
      </trkpt>
      <trkpt lat="44.2197" lon="4.47816">
        <ele>80.4</ele>
        <time>2024-10-17T19:42:51.578Z</time>
      </trkpt>
      <trkpt lat="44.21968" lon="4.47812">
        <ele>80.3</ele>
        <time>2024-10-17T19:42:52.578Z</time>
      </trkpt>
      <trkpt lat="44.21967" lon="4.47811">
        <ele>80.3</ele>
        <time>2024-10-17T19:42:53.578Z</time>
      </trkpt>
      <trkpt lat="44.21965" lon="4.47808">
        <ele>80.3</ele>
        <time>2024-10-17T19:42:54.578Z</time>
      </trkpt>
      <trkpt lat="44.21964" lon="4.47807">
        <ele>80.3</ele>
        <time>2024-10-17T19:42:55.578Z</time>
      </trkpt>
      <trkpt lat="44.21962" lon="4.47804">
        <ele>80.4</ele>
        <time>2024-10-17T19:42:56.578Z</time>
      </trkpt>
      <trkpt lat="44.21961" lon="4.47803">
        <ele>80.4</ele>
        <time>2024-10-17T19:42:57.578Z</time>
      </trkpt>
      <trkpt lat="44.21958" lon="4.478">
        <ele>80.4</ele>
        <time>2024-10-17T19:42:58.578Z</time>
      </trkpt>
      <trkpt lat="44.21958" lon="4.47799">
        <ele>80.4</ele>
        <time>2024-10-17T19:42:59.578Z</time>
      </trkpt>
      <trkpt lat="44.21955" lon="4.47797">
        <ele>80.4</ele>
        <time>2024-10-17T19:43:00.578Z</time>
      </trkpt>
      <trkpt lat="44.21955" lon="4.47796">
        <ele>80.4</ele>
        <time>2024-10-17T19:43:01.578Z</time>
      </trkpt>
      <trkpt lat="44.21952" lon="4.47792">
        <ele>80.5</ele>
        <time>2024-10-17T19:43:02.578Z</time>
      </trkpt>
      <trkpt lat="44.21952" lon="4.47791">
        <ele>80.5</ele>
        <time>2024-10-17T19:43:03.578Z</time>
      </trkpt>
      <trkpt lat="44.2195" lon="4.47788">
        <ele>80.5</ele>
        <time>2024-10-17T19:43:04.578Z</time>
      </trkpt>
      <trkpt lat="44.21949" lon="4.47787">
        <ele>80.5</ele>
        <time>2024-10-17T19:43:05.578Z</time>
      </trkpt>
      <trkpt lat="44.21949" lon="4.47786">
        <ele>80.6</ele>
        <time>2024-10-17T19:43:06.578Z</time>
      </trkpt>
      <trkpt lat="44.21948" lon="4.47784">
        <ele>80.6</ele>
        <time>2024-10-17T19:43:07.578Z</time>
      </trkpt>
      <trkpt lat="44.21946" lon="4.47782">
        <ele>80.6</ele>
        <time>2024-10-17T19:43:08.578Z</time>
      </trkpt>
      <trkpt lat="44.21945" lon="4.47782">
        <ele>80.6</ele>
        <time>2024-10-17T19:43:09.578Z</time>
      </trkpt>
      <trkpt lat="44.21944" lon="4.47781">
        <ele>80.6</ele>
        <time>2024-10-17T19:43:10.578Z</time>
      </trkpt>
      <trkpt lat="44.21944" lon="4.4778">
        <ele>80.7</ele>
        <time>2024-10-17T19:43:11.578Z</time>
      </trkpt>
      <trkpt lat="44.21943" lon="4.47779">
        <ele>80.7</ele>
        <time>2024-10-17T19:43:12.578Z</time>
      </trkpt>
      <trkpt lat="44.21942" lon="4.47779">
        <ele>80.7</ele>
        <time>2024-10-17T19:43:13.578Z</time>
      </trkpt>
      <trkpt lat="44.21942" lon="4.47778">
        <ele>80.7</ele>
        <time>2024-10-17T19:43:14.578Z</time>
      </trkpt>
      <trkpt lat="44.21942" lon="4.47778">
        <ele>80.7</ele>
        <time>2024-10-17T19:43:15.578Z</time>
      </trkpt>
      <trkpt lat="44.21942" lon="4.47778">
        <ele>80.7</ele>
        <time>2024-10-17T19:43:16.578Z</time>
      </trkpt>
      <trkpt lat="44.21942" lon="4.47778">
        <ele>80.7</ele>
        <time>2024-10-17T19:43:17.578Z</time>
      </trkpt>
      <trkpt lat="44.21942" lon="4.47778">
        <ele>80.7</ele>
        <time>2024-10-17T19:43:18.578Z</time>
      </trkpt>
      <trkpt lat="44.21941" lon="4.47777">
        <ele>80.7</ele>
        <time>2024-10-17T19:43:19.578Z</time>
      </trkpt>
      <trkpt lat="44.21941" lon="4.47776">
        <ele>80.7</ele>
        <time>2024-10-17T19:43:20.578Z</time>
      </trkpt>
      <trkpt lat="44.21941" lon="4.47776">
        <ele>80.7</ele>
        <time>2024-10-17T19:43:21.578Z</time>
      </trkpt>
      <trkpt lat="44.21941" lon="4.47776">
        <ele>80.8</ele>
        <time>2024-10-17T19:43:22.578Z</time>
      </trkpt>
      <trkpt lat="44.21941" lon="4.47776">
        <ele>80.8</ele>
        <time>2024-10-17T19:43:23.578Z</time>
      </trkpt>
      <trkpt lat="44.21941" lon="4.47776">
        <ele>80.8</ele>
        <time>2024-10-17T19:43:24.578Z</time>
      </trkpt>
      <trkpt lat="44.21941" lon="4.47776">
        <ele>80.8</ele>
        <time>2024-10-17T19:43:25.578Z</time>
      </trkpt>
      <trkpt lat="44.21942" lon="4.47776">
        <ele>80.8</ele>
        <time>2024-10-17T19:43:26.578Z</time>
      </trkpt>
      <trkpt lat="44.21942" lon="4.47776">
        <ele>80.8</ele>
        <time>2024-10-17T19:43:27.578Z</time>
      </trkpt>
      <trkpt lat="44.21941" lon="4.47776">
        <ele>80.8</ele>
        <time>2024-10-17T19:43:28.578Z</time>
      </trkpt>
      <trkpt lat="44.2194" lon="4.47775">
        <ele>80.8</ele>
        <time>2024-10-17T19:43:29.578Z</time>
      </trkpt>
      <trkpt lat="44.2194" lon="4.47775">
        <ele>80.8</ele>
        <time>2024-10-17T19:43:30.578Z</time>
      </trkpt>
      <trkpt lat="44.21938" lon="4.47773">
        <ele>80.9</ele>
        <time>2024-10-17T19:43:31.578Z</time>
      </trkpt>
      <trkpt lat="44.21937" lon="4.47772">
        <ele>80.9</ele>
        <time>2024-10-17T19:43:32.578Z</time>
      </trkpt>
      <trkpt lat="44.21936" lon="4.47771">
        <ele>80.9</ele>
        <time>2024-10-17T19:43:33.578Z</time>
      </trkpt>
      <trkpt lat="44.21934" lon="4.47768">
        <ele>81</ele>
        <time>2024-10-17T19:43:34.578Z</time>
      </trkpt>
      <trkpt lat="44.21933" lon="4.47767">
        <ele>81.1</ele>
        <time>2024-10-17T19:43:35.578Z</time>
      </trkpt>
      <trkpt lat="44.21932" lon="4.47765">
        <ele>81.1</ele>
        <time>2024-10-17T19:43:36.578Z</time>
      </trkpt>
      <trkpt lat="44.2193" lon="4.47764">
        <ele>81.2</ele>
        <time>2024-10-17T19:43:37.578Z</time>
      </trkpt>
      <trkpt lat="44.21929" lon="4.47762">
        <ele>81.2</ele>
        <time>2024-10-17T19:43:38.578Z</time>
      </trkpt>
      <trkpt lat="44.21928" lon="4.47761">
        <ele>81.3</ele>
        <time>2024-10-17T19:43:39.578Z</time>
      </trkpt>
      <trkpt lat="44.21927" lon="4.47759">
        <ele>81.3</ele>
        <time>2024-10-17T19:43:40.578Z</time>
      </trkpt>
      <trkpt lat="44.21925" lon="4.47758">
        <ele>81.4</ele>
        <time>2024-10-17T19:43:41.578Z</time>
      </trkpt>
      <trkpt lat="44.21923" lon="4.47757">
        <ele>81.5</ele>
        <time>2024-10-17T19:43:42.578Z</time>
      </trkpt>
      <trkpt lat="44.21922" lon="4.47756">
        <ele>81.5</ele>
        <time>2024-10-17T19:43:43.578Z</time>
      </trkpt>
      <trkpt lat="44.21921" lon="4.47755">
        <ele>81.6</ele>
        <time>2024-10-17T19:43:44.578Z</time>
      </trkpt>
      <trkpt lat="44.21919" lon="4.47754">
        <ele>81.6</ele>
        <time>2024-10-17T19:43:45.578Z</time>
      </trkpt>
      <trkpt lat="44.21918" lon="4.47755">
        <ele>81.7</ele>
        <time>2024-10-17T19:43:46.578Z</time>
      </trkpt>
      <trkpt lat="44.21916" lon="4.47755">
        <ele>81.7</ele>
        <time>2024-10-17T19:43:47.578Z</time>
      </trkpt>
      <trkpt lat="44.21913" lon="4.47755">
        <ele>81.8</ele>
        <time>2024-10-17T19:43:48.578Z</time>
      </trkpt>
      <trkpt lat="44.21912" lon="4.47754">
        <ele>81.9</ele>
        <time>2024-10-17T19:43:49.578Z</time>
      </trkpt>
      <trkpt lat="44.21911" lon="4.47753">
        <ele>82</ele>
        <time>2024-10-17T19:43:50.578Z</time>
      </trkpt>
      <trkpt lat="44.21909" lon="4.47752">
        <ele>82</ele>
        <time>2024-10-17T19:43:51.578Z</time>
      </trkpt>
      <trkpt lat="44.21909" lon="4.47751">
        <ele>82.1</ele>
        <time>2024-10-17T19:43:52.578Z</time>
      </trkpt>
      <trkpt lat="44.21908" lon="4.47751">
        <ele>82.1</ele>
        <time>2024-10-17T19:43:53.578Z</time>
      </trkpt>
      <trkpt lat="44.21907" lon="4.47751">
        <ele>82.1</ele>
        <time>2024-10-17T19:43:54.578Z</time>
      </trkpt>
      <trkpt lat="44.21907" lon="4.47751">
        <ele>82.1</ele>
        <time>2024-10-17T19:43:55.578Z</time>
      </trkpt>
      <trkpt lat="44.21907" lon="4.4775">
        <ele>82.1</ele>
        <time>2024-10-17T19:43:56.578Z</time>
      </trkpt>
      <trkpt lat="44.21907" lon="4.4775">
        <ele>82.2</ele>
        <time>2024-10-17T19:43:57.578Z</time>
      </trkpt>
      <trkpt lat="44.21906" lon="4.4775">
        <ele>82.2</ele>
        <time>2024-10-17T19:43:58.578Z</time>
      </trkpt>
      <trkpt lat="44.21906" lon="4.4775">
        <ele>82.2</ele>
        <time>2024-10-17T19:43:59.578Z</time>
      </trkpt>
      <trkpt lat="44.21906" lon="4.47749">
        <ele>82.2</ele>
        <time>2024-10-17T19:44:00.578Z</time>
      </trkpt>
      <trkpt lat="44.21906" lon="4.47749">
        <ele>82.2</ele>
        <time>2024-10-17T19:44:01.578Z</time>
      </trkpt>
      <trkpt lat="44.21906" lon="4.47748">
        <ele>82.2</ele>
        <time>2024-10-17T19:44:02.578Z</time>
      </trkpt>
      <trkpt lat="44.21906" lon="4.47748">
        <ele>82.2</ele>
        <time>2024-10-17T19:44:03.578Z</time>
      </trkpt>
      <trkpt lat="44.21906" lon="4.47748">
        <ele>82.2</ele>
        <time>2024-10-17T19:44:04.578Z</time>
      </trkpt>
      <trkpt lat="44.21906" lon="4.47748">
        <ele>82.2</ele>
        <time>2024-10-17T19:44:05.578Z</time>
      </trkpt>
      <trkpt lat="44.21906" lon="4.47748">
        <ele>82.2</ele>
        <time>2024-10-17T19:44:06.578Z</time>
      </trkpt>
      <trkpt lat="44.21905" lon="4.47747">
        <ele>82.3</ele>
        <time>2024-10-17T19:44:07.578Z</time>
      </trkpt>
      <trkpt lat="44.21905" lon="4.47746">
        <ele>82.3</ele>
        <time>2024-10-17T19:44:08.578Z</time>
      </trkpt>
      <trkpt lat="44.21904" lon="4.47745">
        <ele>82.4</ele>
        <time>2024-10-17T19:44:09.578Z</time>
      </trkpt>
      <trkpt lat="44.21902" lon="4.47744">
        <ele>82.4</ele>
        <time>2024-10-17T19:44:10.578Z</time>
      </trkpt>
      <trkpt lat="44.21901" lon="4.47743">
        <ele>82.4</ele>
        <time>2024-10-17T19:44:11.578Z</time>
      </trkpt>
      <trkpt lat="44.219" lon="4.47742">
        <ele>82.4</ele>
        <time>2024-10-17T19:44:12.578Z</time>
      </trkpt>
      <trkpt lat="44.21899" lon="4.47741">
        <ele>82.4</ele>
        <time>2024-10-17T19:44:13.578Z</time>
      </trkpt>
      <trkpt lat="44.21897" lon="4.47741">
        <ele>82.5</ele>
        <time>2024-10-17T19:44:14.578Z</time>
      </trkpt>
      <trkpt lat="44.21897" lon="4.47741">
        <ele>82.5</ele>
        <time>2024-10-17T19:44:15.578Z</time>
      </trkpt>
      <trkpt lat="44.21896" lon="4.47741">
        <ele>82.5</ele>
        <time>2024-10-17T19:44:16.578Z</time>
      </trkpt>
      <trkpt lat="44.21894" lon="4.4774">
        <ele>82.5</ele>
        <time>2024-10-17T19:44:17.578Z</time>
      </trkpt>
      <trkpt lat="44.21893" lon="4.47737">
        <ele>82.5</ele>
        <time>2024-10-17T19:44:18.578Z</time>
      </trkpt>
      <trkpt lat="44.21892" lon="4.47735">
        <ele>82.5</ele>
        <time>2024-10-17T19:44:19.578Z</time>
      </trkpt>
      <trkpt lat="44.21891" lon="4.47733">
        <ele>82.6</ele>
        <time>2024-10-17T19:44:20.578Z</time>
      </trkpt>
      <trkpt lat="44.21891" lon="4.47732">
        <ele>82.6</ele>
        <time>2024-10-17T19:44:21.578Z</time>
      </trkpt>
      <trkpt lat="44.2189" lon="4.4773">
        <ele>82.6</ele>
        <time>2024-10-17T19:44:22.578Z</time>
      </trkpt>
      <trkpt lat="44.21889" lon="4.47729">
        <ele>82.6</ele>
        <time>2024-10-17T19:44:23.578Z</time>
      </trkpt>
      <trkpt lat="44.21888" lon="4.47729">
        <ele>82.6</ele>
        <time>2024-10-17T19:44:24.578Z</time>
      </trkpt>
      <trkpt lat="44.21887" lon="4.4773">
        <ele>82.7</ele>
        <time>2024-10-17T19:44:25.578Z</time>
      </trkpt>
      <trkpt lat="44.21887" lon="4.47731">
        <ele>82.7</ele>
        <time>2024-10-17T19:44:26.578Z</time>
      </trkpt>
      <trkpt lat="44.21887" lon="4.47733">
        <ele>82.8</ele>
        <time>2024-10-17T19:44:27.578Z</time>
      </trkpt>
      <trkpt lat="44.21886" lon="4.47735">
        <ele>82.8</ele>
        <time>2024-10-17T19:44:28.578Z</time>
      </trkpt>
      <trkpt lat="44.21887" lon="4.47739">
        <ele>82.9</ele>
        <time>2024-10-17T19:44:29.578Z</time>
      </trkpt>
      <trkpt lat="44.21888" lon="4.4774">
        <ele>82.9</ele>
        <time>2024-10-17T19:44:30.578Z</time>
      </trkpt>
      <trkpt lat="44.21889" lon="4.47744">
        <ele>83</ele>
        <time>2024-10-17T19:44:31.578Z</time>
      </trkpt>
      <trkpt lat="44.21889" lon="4.47745">
        <ele>83.1</ele>
        <time>2024-10-17T19:44:32.578Z</time>
      </trkpt>
      <trkpt lat="44.2189" lon="4.47748">
        <ele>83.1</ele>
        <time>2024-10-17T19:44:33.578Z</time>
      </trkpt>
      <trkpt lat="44.2189" lon="4.47749">
        <ele>83.3</ele>
        <time>2024-10-17T19:44:34.578Z</time>
      </trkpt>
      <trkpt lat="44.2189" lon="4.4775">
        <ele>83.3</ele>
        <time>2024-10-17T19:44:35.578Z</time>
      </trkpt>
      <trkpt lat="44.2189" lon="4.47753">
        <ele>83.3</ele>
        <time>2024-10-17T19:44:36.578Z</time>
      </trkpt>
      <trkpt lat="44.21891" lon="4.47755">
        <ele>83.5</ele>
        <time>2024-10-17T19:44:37.578Z</time>
      </trkpt>
      <trkpt lat="44.2189" lon="4.47757">
        <ele>83.8</ele>
        <time>2024-10-17T19:44:38.578Z</time>
      </trkpt>
      <trkpt lat="44.2189" lon="4.47759">
        <ele>83.8</ele>
        <time>2024-10-17T19:44:39.578Z</time>
      </trkpt>
      <trkpt lat="44.2189" lon="4.4776">
        <ele>83.8</ele>
        <time>2024-10-17T19:44:40.578Z</time>
      </trkpt>
      <trkpt lat="44.2189" lon="4.47762">
        <ele>84.1</ele>
        <time>2024-10-17T19:44:41.578Z</time>
      </trkpt>
      <trkpt lat="44.21889" lon="4.47763">
        <ele>84</ele>
        <time>2024-10-17T19:44:42.578Z</time>
      </trkpt>
      <trkpt lat="44.21889" lon="4.47764">
        <ele>84</ele>
        <time>2024-10-17T19:44:43.578Z</time>
      </trkpt>
      <trkpt lat="44.21888" lon="4.47764">
        <ele>84</ele>
        <time>2024-10-17T19:44:44.578Z</time>
      </trkpt>
      <trkpt lat="44.21887" lon="4.47763">
        <ele>83.7</ele>
        <time>2024-10-17T19:44:45.578Z</time>
      </trkpt>
      <trkpt lat="44.21886" lon="4.47762">
        <ele>83.7</ele>
        <time>2024-10-17T19:44:46.578Z</time>
      </trkpt>
      <trkpt lat="44.21886" lon="4.47761">
        <ele>83.5</ele>
        <time>2024-10-17T19:44:47.578Z</time>
      </trkpt>
      <trkpt lat="44.21886" lon="4.4776">
        <ele>83.4</ele>
        <time>2024-10-17T19:44:48.578Z</time>
      </trkpt>
      <trkpt lat="44.21885" lon="4.47759">
        <ele>83.4</ele>
        <time>2024-10-17T19:44:49.578Z</time>
      </trkpt>
      <trkpt lat="44.21884" lon="4.47758">
        <ele>83.2</ele>
        <time>2024-10-17T19:44:50.578Z</time>
      </trkpt>
      <trkpt lat="44.21883" lon="4.47757">
        <ele>83</ele>
        <time>2024-10-17T19:44:51.578Z</time>
      </trkpt>
      <trkpt lat="44.21882" lon="4.47756">
        <ele>83</ele>
        <time>2024-10-17T19:44:52.578Z</time>
      </trkpt>
      <trkpt lat="44.21881" lon="4.47756">
        <ele>82.8</ele>
        <time>2024-10-17T19:44:53.578Z</time>
      </trkpt>
      <trkpt lat="44.2188" lon="4.47756">
        <ele>82.7</ele>
        <time>2024-10-17T19:44:54.578Z</time>
      </trkpt>
      <trkpt lat="44.21879" lon="4.47756">
        <ele>82.7</ele>
        <time>2024-10-17T19:44:55.578Z</time>
      </trkpt>
      <trkpt lat="44.21879" lon="4.47755">
        <ele>82.7</ele>
        <time>2024-10-17T19:44:56.578Z</time>
      </trkpt>
      <trkpt lat="44.21878" lon="4.47755">
        <ele>82.5</ele>
        <time>2024-10-17T19:44:57.578Z</time>
      </trkpt>
      <trkpt lat="44.21877" lon="4.47757">
        <ele>82.7</ele>
        <time>2024-10-17T19:44:58.578Z</time>
      </trkpt>
      <trkpt lat="44.21876" lon="4.47758">
        <ele>82.6</ele>
        <time>2024-10-17T19:44:59.578Z</time>
      </trkpt>
      <trkpt lat="44.21875" lon="4.47759">
        <ele>82.5</ele>
        <time>2024-10-17T19:45:00.578Z</time>
      </trkpt>
      <trkpt lat="44.21874" lon="4.47761">
        <ele>82.5</ele>
        <time>2024-10-17T19:45:01.578Z</time>
      </trkpt>
      <trkpt lat="44.21873" lon="4.47762">
        <ele>82.7</ele>
        <time>2024-10-17T19:45:02.578Z</time>
      </trkpt>
      <trkpt lat="44.21871" lon="4.47763">
        <ele>82.5</ele>
        <time>2024-10-17T19:45:03.578Z</time>
      </trkpt>
      <trkpt lat="44.21869" lon="4.47762">
        <ele>82.5</ele>
        <time>2024-10-17T19:45:04.578Z</time>
      </trkpt>
      <trkpt lat="44.21868" lon="4.47761">
        <ele>82.3</ele>
        <time>2024-10-17T19:45:05.578Z</time>
      </trkpt>
      <trkpt lat="44.21867" lon="4.47759">
        <ele>82.3</ele>
        <time>2024-10-17T19:45:06.578Z</time>
      </trkpt>
      <trkpt lat="44.21866" lon="4.47758">
        <ele>82.3</ele>
        <time>2024-10-17T19:45:07.578Z</time>
      </trkpt>
      <trkpt lat="44.21866" lon="4.47758">
        <ele>82.3</ele>
        <time>2024-10-17T19:45:08.578Z</time>
      </trkpt>
      <trkpt lat="44.21866" lon="4.47759">
        <ele>82.3</ele>
        <time>2024-10-17T19:45:09.578Z</time>
      </trkpt>
      <trkpt lat="44.21866" lon="4.47761">
        <ele>82.3</ele>
        <time>2024-10-17T19:45:10.578Z</time>
      </trkpt>
      <trkpt lat="44.21866" lon="4.47762">
        <ele>82.4</ele>
        <time>2024-10-17T19:45:11.578Z</time>
      </trkpt>
      <trkpt lat="44.21866" lon="4.47764">
        <ele>82.4</ele>
        <time>2024-10-17T19:45:12.578Z</time>
      </trkpt>
      <trkpt lat="44.21865" lon="4.47764">
        <ele>82.4</ele>
        <time>2024-10-17T19:45:13.578Z</time>
      </trkpt>
      <trkpt lat="44.21866" lon="4.47764">
        <ele>82.4</ele>
        <time>2024-10-17T19:45:14.578Z</time>
      </trkpt>
      <trkpt lat="44.21866" lon="4.47765">
        <ele>82.4</ele>
        <time>2024-10-17T19:45:15.578Z</time>
      </trkpt>
      <trkpt lat="44.21866" lon="4.47765">
        <ele>82.4</ele>
        <time>2024-10-17T19:45:16.578Z</time>
      </trkpt>
      <trkpt lat="44.21865" lon="4.47766">
        <ele>82.7</ele>
        <time>2024-10-17T19:45:17.578Z</time>
      </trkpt>
      <trkpt lat="44.21865" lon="4.47767">
        <ele>82.7</ele>
        <time>2024-10-17T19:45:18.578Z</time>
      </trkpt>
      <trkpt lat="44.21865" lon="4.47767">
        <ele>82.6</ele>
        <time>2024-10-17T19:45:19.578Z</time>
      </trkpt>
      <trkpt lat="44.21865" lon="4.47769">
        <ele>82.6</ele>
        <time>2024-10-17T19:45:20.578Z</time>
      </trkpt>
      <trkpt lat="44.21865" lon="4.47769">
        <ele>82.6</ele>
        <time>2024-10-17T19:45:21.578Z</time>
      </trkpt>
      <trkpt lat="44.21866" lon="4.4777">
        <ele>82.6</ele>
        <time>2024-10-17T19:45:22.578Z</time>
      </trkpt>
      <trkpt lat="44.21867" lon="4.47771">
        <ele>83</ele>
        <time>2024-10-17T19:45:23.578Z</time>
      </trkpt>
      <trkpt lat="44.21867" lon="4.47772">
        <ele>83</ele>
        <time>2024-10-17T19:45:24.578Z</time>
      </trkpt>
      <trkpt lat="44.21868" lon="4.47772">
        <ele>83</ele>
        <time>2024-10-17T19:45:25.578Z</time>
      </trkpt>
      <trkpt lat="44.2187" lon="4.47773">
        <ele>83.1</ele>
        <time>2024-10-17T19:45:26.578Z</time>
      </trkpt>
      <trkpt lat="44.21871" lon="4.47774">
        <ele>83.1</ele>
        <time>2024-10-17T19:45:27.578Z</time>
      </trkpt>
      <trkpt lat="44.21872" lon="4.47776">
        <ele>83.5</ele>
        <time>2024-10-17T19:45:28.578Z</time>
      </trkpt>
      <trkpt lat="44.21874" lon="4.4778">
        <ele>84.2</ele>
        <time>2024-10-17T19:45:29.578Z</time>
      </trkpt>
      <trkpt lat="44.21874" lon="4.47781">
        <ele>84.2</ele>
        <time>2024-10-17T19:45:30.578Z</time>
      </trkpt>
      <trkpt lat="44.21875" lon="4.47783">
        <ele>84.2</ele>
        <time>2024-10-17T19:45:31.578Z</time>
      </trkpt>
      <trkpt lat="44.21875" lon="4.47785">
        <ele>84.7</ele>
        <time>2024-10-17T19:45:32.578Z</time>
      </trkpt>
      <trkpt lat="44.21875" lon="4.47786">
        <ele>84.7</ele>
        <time>2024-10-17T19:45:33.578Z</time>
      </trkpt>
      <trkpt lat="44.21875" lon="4.47788">
        <ele>85</ele>
        <time>2024-10-17T19:45:34.578Z</time>
      </trkpt>
      <trkpt lat="44.21875" lon="4.47788">
        <ele>85</ele>
        <time>2024-10-17T19:45:35.578Z</time>
      </trkpt>
      <trkpt lat="44.21873" lon="4.47788">
        <ele>85</ele>
        <time>2024-10-17T19:45:36.578Z</time>
      </trkpt>
      <trkpt lat="44.21872" lon="4.47787">
        <ele>84.4</ele>
        <time>2024-10-17T19:45:37.578Z</time>
      </trkpt>
      <trkpt lat="44.21871" lon="4.47787">
        <ele>84.4</ele>
        <time>2024-10-17T19:45:38.578Z</time>
      </trkpt>
      <trkpt lat="44.21869" lon="4.47788">
        <ele>84.5</ele>
        <time>2024-10-17T19:45:39.578Z</time>
      </trkpt>
      <trkpt lat="44.21869" lon="4.47789">
        <ele>84.5</ele>
        <time>2024-10-17T19:45:40.578Z</time>
      </trkpt>
      <trkpt lat="44.21868" lon="4.4779">
        <ele>84.5</ele>
        <time>2024-10-17T19:45:41.578Z</time>
      </trkpt>
      <trkpt lat="44.21866" lon="4.47791">
        <ele>84.1</ele>
        <time>2024-10-17T19:45:42.578Z</time>
      </trkpt>
      <trkpt lat="44.21865" lon="4.47792">
        <ele>84.4</ele>
        <time>2024-10-17T19:45:43.578Z</time>
      </trkpt>
      <trkpt lat="44.21864" lon="4.47792">
        <ele>84.4</ele>
        <time>2024-10-17T19:45:44.578Z</time>
      </trkpt>
      <trkpt lat="44.21863" lon="4.47793">
        <ele>84.1</ele>
        <time>2024-10-17T19:45:45.578Z</time>
      </trkpt>
      <trkpt lat="44.21862" lon="4.47794">
        <ele>84.1</ele>
        <time>2024-10-17T19:45:46.578Z</time>
      </trkpt>
      <trkpt lat="44.2186" lon="4.47795">
        <ele>83.7</ele>
        <time>2024-10-17T19:45:47.578Z</time>
      </trkpt>
      <trkpt lat="44.21859" lon="4.47796">
        <ele>84.1</ele>
        <time>2024-10-17T19:45:48.578Z</time>
      </trkpt>
      <trkpt lat="44.21858" lon="4.47797">
        <ele>84.1</ele>
        <time>2024-10-17T19:45:49.578Z</time>
      </trkpt>
      <trkpt lat="44.21858" lon="4.47798">
        <ele>84</ele>
        <time>2024-10-17T19:45:50.578Z</time>
      </trkpt>
      <trkpt lat="44.21857" lon="4.478">
        <ele>84.1</ele>
        <time>2024-10-17T19:45:51.578Z</time>
      </trkpt>
      <trkpt lat="44.21857" lon="4.47802">
        <ele>84.4</ele>
        <time>2024-10-17T19:45:52.578Z</time>
      </trkpt>
      <trkpt lat="44.21858" lon="4.47805">
        <ele>84.7</ele>
        <time>2024-10-17T19:45:53.578Z</time>
      </trkpt>
      <trkpt lat="44.21858" lon="4.47807">
        <ele>84.7</ele>
        <time>2024-10-17T19:45:54.578Z</time>
      </trkpt>
      <trkpt lat="44.21858" lon="4.4781">
        <ele>85</ele>
        <time>2024-10-17T19:45:55.578Z</time>
      </trkpt>
      <trkpt lat="44.21856" lon="4.47813">
        <ele>84.9</ele>
        <time>2024-10-17T19:45:56.578Z</time>
      </trkpt>
      <trkpt lat="44.21855" lon="4.47814">
        <ele>85.2</ele>
        <time>2024-10-17T19:45:57.578Z</time>
      </trkpt>
      <trkpt lat="44.21852" lon="4.47815">
        <ele>85.1</ele>
        <time>2024-10-17T19:45:58.578Z</time>
      </trkpt>
      <trkpt lat="44.21851" lon="4.47814">
        <ele>85.1</ele>
        <time>2024-10-17T19:45:59.578Z</time>
      </trkpt>
      <trkpt lat="44.21849" lon="4.47814">
        <ele>84.9</ele>
        <time>2024-10-17T19:46:00.578Z</time>
      </trkpt>
      <trkpt lat="44.21849" lon="4.47813">
        <ele>84.5</ele>
        <time>2024-10-17T19:46:01.578Z</time>
      </trkpt>
      <trkpt lat="44.21848" lon="4.47812">
        <ele>84.5</ele>
        <time>2024-10-17T19:46:02.578Z</time>
      </trkpt>
      <trkpt lat="44.21847" lon="4.4781">
        <ele>84.3</ele>
        <time>2024-10-17T19:46:03.578Z</time>
      </trkpt>
      <trkpt lat="44.21846" lon="4.47809">
        <ele>84.3</ele>
        <time>2024-10-17T19:46:04.578Z</time>
      </trkpt>
      <trkpt lat="44.21845" lon="4.47808">
        <ele>83.8</ele>
        <time>2024-10-17T19:46:05.578Z</time>
      </trkpt>
      <trkpt lat="44.21844" lon="4.47808">
        <ele>83.6</ele>
        <time>2024-10-17T19:46:06.578Z</time>
      </trkpt>
      <trkpt lat="44.21843" lon="4.47807">
        <ele>83.6</ele>
        <time>2024-10-17T19:46:07.578Z</time>
      </trkpt>
      <trkpt lat="44.21842" lon="4.47806">
        <ele>83.6</ele>
        <time>2024-10-17T19:46:08.578Z</time>
      </trkpt>
      <trkpt lat="44.21841" lon="4.47806">
        <ele>83.3</ele>
        <time>2024-10-17T19:46:09.578Z</time>
      </trkpt>
      <trkpt lat="44.21839" lon="4.47806">
        <ele>83.3</ele>
        <time>2024-10-17T19:46:10.578Z</time>
      </trkpt>
      <trkpt lat="44.21838" lon="4.47807">
        <ele>83.1</ele>
        <time>2024-10-17T19:46:11.578Z</time>
      </trkpt>
      <trkpt lat="44.21837" lon="4.47809">
        <ele>83.1</ele>
        <time>2024-10-17T19:46:12.578Z</time>
      </trkpt>
      <trkpt lat="44.21836" lon="4.4781">
        <ele>83.5</ele>
        <time>2024-10-17T19:46:13.578Z</time>
      </trkpt>
      <trkpt lat="44.21836" lon="4.47811">
        <ele>83.5</ele>
        <time>2024-10-17T19:46:14.578Z</time>
      </trkpt>
      <trkpt lat="44.21836" lon="4.47811">
        <ele>83.5</ele>
        <time>2024-10-17T19:46:15.578Z</time>
      </trkpt>
      <trkpt lat="44.21836" lon="4.47811">
        <ele>83.5</ele>
        <time>2024-10-17T19:46:16.578Z</time>
      </trkpt>
      <trkpt lat="44.21836" lon="4.47811">
        <ele>83.5</ele>
        <time>2024-10-17T19:46:17.578Z</time>
      </trkpt>
      <trkpt lat="44.21836" lon="4.47811">
        <ele>83.4</ele>
        <time>2024-10-17T19:46:18.578Z</time>
      </trkpt>
      <trkpt lat="44.21836" lon="4.47811">
        <ele>83.4</ele>
        <time>2024-10-17T19:46:19.578Z</time>
      </trkpt>
      <trkpt lat="44.21836" lon="4.47812">
        <ele>83.4</ele>
        <time>2024-10-17T19:46:20.578Z</time>
      </trkpt>
      <trkpt lat="44.21835" lon="4.47812">
        <ele>83.2</ele>
        <time>2024-10-17T19:46:21.578Z</time>
      </trkpt>
      <trkpt lat="44.21834" lon="4.47813">
        <ele>83.2</ele>
        <time>2024-10-17T19:46:22.578Z</time>
      </trkpt>
      <trkpt lat="44.21834" lon="4.47814">
        <ele>83.4</ele>
        <time>2024-10-17T19:46:23.578Z</time>
      </trkpt>
      <trkpt lat="44.21833" lon="4.47815">
        <ele>83.4</ele>
        <time>2024-10-17T19:46:24.578Z</time>
      </trkpt>
      <trkpt lat="44.21834" lon="4.47814">
        <ele>83.4</ele>
        <time>2024-10-17T19:46:25.578Z</time>
      </trkpt>
      <trkpt lat="44.21834" lon="4.47814">
        <ele>83.4</ele>
        <time>2024-10-17T19:46:26.578Z</time>
      </trkpt>
      <trkpt lat="44.21833" lon="4.47814">
        <ele>83.4</ele>
        <time>2024-10-17T19:46:27.578Z</time>
      </trkpt>
      <trkpt lat="44.21833" lon="4.47814">
        <ele>83.4</ele>
        <time>2024-10-17T19:46:28.578Z</time>
      </trkpt>
      <trkpt lat="44.21833" lon="4.47814">
        <ele>83.4</ele>
        <time>2024-10-17T19:46:29.578Z</time>
      </trkpt>
      <trkpt lat="44.21833" lon="4.47814">
        <ele>83.4</ele>
        <time>2024-10-17T19:46:30.578Z</time>
      </trkpt>
      <trkpt lat="44.21833" lon="4.47814">
        <ele>83.4</ele>
        <time>2024-10-17T19:46:31.578Z</time>
      </trkpt>
      <trkpt lat="44.21833" lon="4.47814">
        <ele>83.4</ele>
        <time>2024-10-17T19:46:32.578Z</time>
      </trkpt>
      <trkpt lat="44.21833" lon="4.47814">
        <ele>83.4</ele>
        <time>2024-10-17T19:46:33.578Z</time>
      </trkpt>
      <trkpt lat="44.21832" lon="4.47814">
        <ele>83.1</ele>
        <time>2024-10-17T19:46:34.578Z</time>
      </trkpt>
      <trkpt lat="44.21832" lon="4.47814">
        <ele>83.1</ele>
        <time>2024-10-17T19:46:35.578Z</time>
      </trkpt>
      <trkpt lat="44.21831" lon="4.47814">
        <ele>83.1</ele>
        <time>2024-10-17T19:46:36.578Z</time>
      </trkpt>
      <trkpt lat="44.21831" lon="4.47815">
        <ele>83.1</ele>
        <time>2024-10-17T19:46:37.578Z</time>
      </trkpt>
      <trkpt lat="44.2183" lon="4.47815">
        <ele>83</ele>
        <time>2024-10-17T19:46:38.578Z</time>
      </trkpt>
      <trkpt lat="44.21829" lon="4.47815">
        <ele>82.7</ele>
        <time>2024-10-17T19:46:39.578Z</time>
      </trkpt>
      <trkpt lat="44.21827" lon="4.47816">
        <ele>82.7</ele>
        <time>2024-10-17T19:46:40.578Z</time>
      </trkpt>
      <trkpt lat="44.21823" lon="4.47817">
        <ele>82.5</ele>
        <time>2024-10-17T19:46:41.578Z</time>
      </trkpt>
      <trkpt lat="44.21822" lon="4.47818">
        <ele>82.4</ele>
        <time>2024-10-17T19:46:42.578Z</time>
      </trkpt>
      <trkpt lat="44.21818" lon="4.47819">
        <ele>82.2</ele>
        <time>2024-10-17T19:46:43.578Z</time>
      </trkpt>
      <trkpt lat="44.21815" lon="4.47822">
        <ele>82.3</ele>
        <time>2024-10-17T19:46:44.578Z</time>
      </trkpt>
      <trkpt lat="44.2181" lon="4.47826">
        <ele>82.4</ele>
        <time>2024-10-17T19:46:45.578Z</time>
      </trkpt>
      <trkpt lat="44.21805" lon="4.4783">
        <ele>82.3</ele>
        <time>2024-10-17T19:46:46.578Z</time>
      </trkpt>
      <trkpt lat="44.21801" lon="4.47834">
        <ele>82.3</ele>
        <time>2024-10-17T19:46:47.578Z</time>
      </trkpt>
      <trkpt lat="44.21799" lon="4.47837">
        <ele>82.2</ele>
        <time>2024-10-17T19:46:48.578Z</time>
      </trkpt>
      <trkpt lat="44.21796" lon="4.4784">
        <ele>82.3</ele>
        <time>2024-10-17T19:46:49.578Z</time>
      </trkpt>
      <trkpt lat="44.21793" lon="4.47842">
        <ele>82.1</ele>
        <time>2024-10-17T19:46:50.578Z</time>
      </trkpt>
      <trkpt lat="44.21792" lon="4.47843">
        <ele>82.1</ele>
        <time>2024-10-17T19:46:51.578Z</time>
      </trkpt>
      <trkpt lat="44.21792" lon="4.47843">
        <ele>82</ele>
        <time>2024-10-17T19:46:52.578Z</time>
      </trkpt>
      <trkpt lat="44.21792" lon="4.47844">
        <ele>82</ele>
        <time>2024-10-17T19:46:53.578Z</time>
      </trkpt>
      <trkpt lat="44.21793" lon="4.47844">
        <ele>82.2</ele>
        <time>2024-10-17T19:46:54.578Z</time>
      </trkpt>
      <trkpt lat="44.21793" lon="4.47845">
        <ele>82.2</ele>
        <time>2024-10-17T19:46:55.578Z</time>
      </trkpt>
      <trkpt lat="44.21793" lon="4.47846">
        <ele>82.2</ele>
        <time>2024-10-17T19:46:56.578Z</time>
      </trkpt>
      <trkpt lat="44.21793" lon="4.47847">
        <ele>82.2</ele>
        <time>2024-10-17T19:46:57.578Z</time>
      </trkpt>
      <trkpt lat="44.21793" lon="4.47848">
        <ele>82.4</ele>
        <time>2024-10-17T19:46:58.578Z</time>
      </trkpt>
      <trkpt lat="44.21793" lon="4.4785">
        <ele>82.4</ele>
        <time>2024-10-17T19:46:59.578Z</time>
      </trkpt>
      <trkpt lat="44.21792" lon="4.47851">
        <ele>82.4</ele>
        <time>2024-10-17T19:47:00.578Z</time>
      </trkpt>
      <trkpt lat="44.21792" lon="4.47852">
        <ele>82.5</ele>
        <time>2024-10-17T19:47:01.578Z</time>
      </trkpt>
      <trkpt lat="44.21792" lon="4.47853">
        <ele>82.7</ele>
        <time>2024-10-17T19:47:02.578Z</time>
      </trkpt>
      <trkpt lat="44.21792" lon="4.47853">
        <ele>82.5</ele>
        <time>2024-10-17T19:47:03.578Z</time>
      </trkpt>
      <trkpt lat="44.21792" lon="4.47853">
        <ele>82.5</ele>
        <time>2024-10-17T19:47:04.578Z</time>
      </trkpt>
      <trkpt lat="44.21791" lon="4.47853">
        <ele>82.5</ele>
        <time>2024-10-17T19:47:05.578Z</time>
      </trkpt>
      <trkpt lat="44.21791" lon="4.47853">
        <ele>82.5</ele>
        <time>2024-10-17T19:47:06.578Z</time>
      </trkpt>
      <trkpt lat="44.21791" lon="4.47853">
        <ele>82.5</ele>
        <time>2024-10-17T19:47:07.578Z</time>
      </trkpt>
      <trkpt lat="44.21791" lon="4.47853">
        <ele>82.5</ele>
        <time>2024-10-17T19:47:08.578Z</time>
      </trkpt>
      <trkpt lat="44.21791" lon="4.47853">
        <ele>82.5</ele>
        <time>2024-10-17T19:47:09.578Z</time>
      </trkpt>
      <trkpt lat="44.21791" lon="4.47853">
        <ele>82.5</ele>
        <time>2024-10-17T19:47:10.578Z</time>
      </trkpt>
      <trkpt lat="44.21791" lon="4.47853">
        <ele>82.5</ele>
        <time>2024-10-17T19:47:11.578Z</time>
      </trkpt>
      <trkpt lat="44.21791" lon="4.47853">
        <ele>82.5</ele>
        <time>2024-10-17T19:47:12.578Z</time>
      </trkpt>
      <trkpt lat="44.2179" lon="4.47854">
        <ele>82.5</ele>
        <time>2024-10-17T19:47:14.578Z</time>
      </trkpt>
      <trkpt lat="44.2179" lon="4.47856">
        <ele>82.5</ele>
        <time>2024-10-17T19:47:15.578Z</time>
      </trkpt>
      <trkpt lat="44.21789" lon="4.47857">
        <ele>82.9</ele>
        <time>2024-10-17T19:47:16.578Z</time>
      </trkpt>
      <trkpt lat="44.21789" lon="4.47857">
        <ele>82.7</ele>
        <time>2024-10-17T19:47:17.578Z</time>
      </trkpt>
      <trkpt lat="44.21789" lon="4.47858">
        <ele>82.7</ele>
        <time>2024-10-17T19:47:18.578Z</time>
      </trkpt>
      <trkpt lat="44.21789" lon="4.47859">
        <ele>82.6</ele>
        <time>2024-10-17T19:47:19.578Z</time>
      </trkpt>
      <trkpt lat="44.21789" lon="4.4786">
        <ele>82.8</ele>
        <time>2024-10-17T19:47:20.578Z</time>
      </trkpt>
      <trkpt lat="44.21789" lon="4.4786">
        <ele>82.8</ele>
        <time>2024-10-17T19:47:21.578Z</time>
      </trkpt>
      <trkpt lat="44.2179" lon="4.4786">
        <ele>82.8</ele>
        <time>2024-10-17T19:47:22.578Z</time>
      </trkpt>
      <trkpt lat="44.2179" lon="4.4786">
        <ele>82.8</ele>
        <time>2024-10-17T19:47:23.578Z</time>
      </trkpt>
      <trkpt lat="44.2179" lon="4.4786">
        <ele>82.8</ele>
        <time>2024-10-17T19:47:24.578Z</time>
      </trkpt>
      <trkpt lat="44.2179" lon="4.4786">
        <ele>82.8</ele>
        <time>2024-10-17T19:47:25.578Z</time>
      </trkpt>
      <trkpt lat="44.2179" lon="4.47859">
        <ele>82.8</ele>
        <time>2024-10-17T19:47:26.578Z</time>
      </trkpt>
      <trkpt lat="44.2179" lon="4.47859">
        <ele>82.8</ele>
        <time>2024-10-17T19:47:27.578Z</time>
      </trkpt>
      <trkpt lat="44.21789" lon="4.47859">
        <ele>82.6</ele>
        <time>2024-10-17T19:47:28.578Z</time>
      </trkpt>
      <trkpt lat="44.21788" lon="4.47859">
        <ele>82.6</ele>
        <time>2024-10-17T19:47:29.578Z</time>
      </trkpt>
      <trkpt lat="44.21788" lon="4.47859">
        <ele>82.6</ele>
        <time>2024-10-17T19:47:30.578Z</time>
      </trkpt>
      <trkpt lat="44.21788" lon="4.4786">
        <ele>83</ele>
        <time>2024-10-17T19:47:31.578Z</time>
      </trkpt>
      <trkpt lat="44.21787" lon="4.47862">
        <ele>83</ele>
        <time>2024-10-17T19:47:32.578Z</time>
      </trkpt>
      <trkpt lat="44.21787" lon="4.47863">
        <ele>83</ele>
        <time>2024-10-17T19:47:33.578Z</time>
      </trkpt>
      <trkpt lat="44.21787" lon="4.47865">
        <ele>83.5</ele>
        <time>2024-10-17T19:47:34.578Z</time>
      </trkpt>
      <trkpt lat="44.21786" lon="4.47866">
        <ele>83.5</ele>
        <time>2024-10-17T19:47:35.578Z</time>
      </trkpt>
      <trkpt lat="44.21786" lon="4.47866">
        <ele>83.4</ele>
        <time>2024-10-17T19:47:36.578Z</time>
      </trkpt>
      <trkpt lat="44.21787" lon="4.47868">
        <ele>83.4</ele>
        <time>2024-10-17T19:47:37.578Z</time>
      </trkpt>
      <trkpt lat="44.21787" lon="4.47869">
        <ele>83.9</ele>
        <time>2024-10-17T19:47:38.578Z</time>
      </trkpt>
      <trkpt lat="44.21787" lon="4.4787">
        <ele>83.9</ele>
        <time>2024-10-17T19:47:39.578Z</time>
      </trkpt>
      <trkpt lat="44.21788" lon="4.47872">
        <ele>83.9</ele>
        <time>2024-10-17T19:47:40.578Z</time>
      </trkpt>
      <trkpt lat="44.21787" lon="4.47873">
        <ele>83.9</ele>
        <time>2024-10-17T19:47:41.578Z</time>
      </trkpt>
      <trkpt lat="44.21787" lon="4.47875">
        <ele>84.2</ele>
        <time>2024-10-17T19:47:42.578Z</time>
      </trkpt>
      <trkpt lat="44.21787" lon="4.47877">
        <ele>84.2</ele>
        <time>2024-10-17T19:47:43.578Z</time>
      </trkpt>
      <trkpt lat="44.21786" lon="4.47879">
        <ele>84.3</ele>
        <time>2024-10-17T19:47:44.578Z</time>
      </trkpt>
      <trkpt lat="44.21784" lon="4.47882">
        <ele>84.5</ele>
        <time>2024-10-17T19:47:45.578Z</time>
      </trkpt>
      <trkpt lat="44.21783" lon="4.47883">
        <ele>84.3</ele>
        <time>2024-10-17T19:47:46.578Z</time>
      </trkpt>
      <trkpt lat="44.21782" lon="4.47885">
        <ele>84.3</ele>
        <time>2024-10-17T19:47:47.578Z</time>
      </trkpt>
      <trkpt lat="44.21781" lon="4.47887">
        <ele>84.6</ele>
        <time>2024-10-17T19:47:48.578Z</time>
      </trkpt>
      <trkpt lat="44.21781" lon="4.47889">
        <ele>84.6</ele>
        <time>2024-10-17T19:47:49.578Z</time>
      </trkpt>
      <trkpt lat="44.2178" lon="4.4789">
        <ele>84.3</ele>
        <time>2024-10-17T19:47:50.578Z</time>
      </trkpt>
      <trkpt lat="44.21779" lon="4.47891">
        <ele>84.7</ele>
        <time>2024-10-17T19:47:51.578Z</time>
      </trkpt>
      <trkpt lat="44.21779" lon="4.47892">
        <ele>84.7</ele>
        <time>2024-10-17T19:47:52.578Z</time>
      </trkpt>
      <trkpt lat="44.21779" lon="4.47893">
        <ele>84.7</ele>
        <time>2024-10-17T19:47:53.578Z</time>
      </trkpt>
      <trkpt lat="44.21779" lon="4.47893">
        <ele>84.6</ele>
        <time>2024-10-17T19:47:54.578Z</time>
      </trkpt>
      <trkpt lat="44.21779" lon="4.47892">
        <ele>84.6</ele>
        <time>2024-10-17T19:47:55.578Z</time>
      </trkpt>
      <trkpt lat="44.21779" lon="4.47892">
        <ele>84.6</ele>
        <time>2024-10-17T19:47:56.578Z</time>
      </trkpt>
      <trkpt lat="44.21779" lon="4.47892">
        <ele>84.6</ele>
        <time>2024-10-17T19:47:57.578Z</time>
      </trkpt>
      <trkpt lat="44.21778" lon="4.47892">
        <ele>84.6</ele>
        <time>2024-10-17T19:47:58.578Z</time>
      </trkpt>
      <trkpt lat="44.21777" lon="4.47892">
        <ele>84.6</ele>
        <time>2024-10-17T19:47:59.578Z</time>
      </trkpt>
      <trkpt lat="44.21776" lon="4.47893">
        <ele>84.4</ele>
        <time>2024-10-17T19:48:00.578Z</time>
      </trkpt>
      <trkpt lat="44.21775" lon="4.47894">
        <ele>84.4</ele>
        <time>2024-10-17T19:48:01.578Z</time>
      </trkpt>
      <trkpt lat="44.21775" lon="4.47894">
        <ele>84.4</ele>
        <time>2024-10-17T19:48:02.578Z</time>
      </trkpt>
      <trkpt lat="44.21775" lon="4.47895">
        <ele>84.8</ele>
        <time>2024-10-17T19:48:03.578Z</time>
      </trkpt>
      <trkpt lat="44.21776" lon="4.47896">
        <ele>84.8</ele>
        <time>2024-10-17T19:48:04.578Z</time>
      </trkpt>
      <trkpt lat="44.21776" lon="4.47897">
        <ele>84.8</ele>
        <time>2024-10-17T19:48:05.578Z</time>
      </trkpt>
      <trkpt lat="44.21776" lon="4.47898">
        <ele>84.8</ele>
        <time>2024-10-17T19:48:06.578Z</time>
      </trkpt>
      <trkpt lat="44.21777" lon="4.47899">
        <ele>85</ele>
        <time>2024-10-17T19:48:07.578Z</time>
      </trkpt>
      <trkpt lat="44.21777" lon="4.479">
        <ele>85</ele>
        <time>2024-10-17T19:48:08.578Z</time>
      </trkpt>
      <trkpt lat="44.21777" lon="4.47901">
        <ele>85.1</ele>
        <time>2024-10-17T19:48:09.578Z</time>
      </trkpt>
      <trkpt lat="44.21778" lon="4.47902">
        <ele>85.1</ele>
        <time>2024-10-17T19:48:10.578Z</time>
      </trkpt>
      <trkpt lat="44.21778" lon="4.47903">
        <ele>85.2</ele>
        <time>2024-10-17T19:48:11.578Z</time>
      </trkpt>
      <trkpt lat="44.21779" lon="4.47904">
        <ele>85.2</ele>
        <time>2024-10-17T19:48:12.578Z</time>
      </trkpt>
      <trkpt lat="44.21779" lon="4.47905">
        <ele>85.2</ele>
        <time>2024-10-17T19:48:13.578Z</time>
      </trkpt>
      <trkpt lat="44.21779" lon="4.47906">
        <ele>85.2</ele>
        <time>2024-10-17T19:48:14.578Z</time>
      </trkpt>
      <trkpt lat="44.21779" lon="4.47907">
        <ele>85.2</ele>
        <time>2024-10-17T19:48:15.578Z</time>
      </trkpt>
      <trkpt lat="44.21779" lon="4.47907">
        <ele>85.2</ele>
        <time>2024-10-17T19:48:16.578Z</time>
      </trkpt>
      <trkpt lat="44.2178" lon="4.47914">
        <ele>85.2</ele>
        <time>2024-10-17T19:54:43.578Z</time>
      </trkpt>
      <trkpt lat="44.21779" lon="4.47912">
        <ele>85.3</ele>
        <time>2024-10-17T19:54:44.578Z</time>
      </trkpt>
      <trkpt lat="44.21779" lon="4.47912">
        <ele>85.2</ele>
        <time>2024-10-17T19:54:45.578Z</time>
      </trkpt>
      <trkpt lat="44.21779" lon="4.47911">
        <ele>85.2</ele>
        <time>2024-10-17T19:54:46.578Z</time>
      </trkpt>
      <trkpt lat="44.21778" lon="4.4791">
        <ele>85.2</ele>
        <time>2024-10-17T19:54:47.578Z</time>
      </trkpt>
      <trkpt lat="44.21777" lon="4.47907">
        <ele>85.1</ele>
        <time>2024-10-17T19:54:48.578Z</time>
      </trkpt>
      <trkpt lat="44.21776" lon="4.47905">
        <ele>85.1</ele>
        <time>2024-10-17T19:54:49.578Z</time>
      </trkpt>
      <trkpt lat="44.21774" lon="4.47902">
        <ele>84.8</ele>
        <time>2024-10-17T19:54:50.578Z</time>
      </trkpt>
      <trkpt lat="44.21773" lon="4.47901">
        <ele>84.8</ele>
        <time>2024-10-17T19:54:51.578Z</time>
      </trkpt>
      <trkpt lat="44.21772" lon="4.479">
        <ele>84.8</ele>
        <time>2024-10-17T19:54:52.578Z</time>
      </trkpt>
      <trkpt lat="44.21771" lon="4.47899">
        <ele>84.7</ele>
        <time>2024-10-17T19:54:53.578Z</time>
      </trkpt>
      <trkpt lat="44.2177" lon="4.47901">
        <ele>84.6</ele>
        <time>2024-10-17T19:54:54.578Z</time>
      </trkpt>
      <trkpt lat="44.21769" lon="4.47902">
        <ele>84.6</ele>
        <time>2024-10-17T19:54:55.578Z</time>
      </trkpt>
      <trkpt lat="44.21768" lon="4.47903">
        <ele>84.6</ele>
        <time>2024-10-17T19:54:56.578Z</time>
      </trkpt>
      <trkpt lat="44.21767" lon="4.47904">
        <ele>84.8</ele>
        <time>2024-10-17T19:54:57.578Z</time>
      </trkpt>
      <trkpt lat="44.21766" lon="4.47905">
        <ele>84.8</ele>
        <time>2024-10-17T19:54:58.578Z</time>
      </trkpt>
      <trkpt lat="44.21765" lon="4.47906">
        <ele>84.7</ele>
        <time>2024-10-17T19:54:59.578Z</time>
      </trkpt>
      <trkpt lat="44.21764" lon="4.47907">
        <ele>84.5</ele>
        <time>2024-10-17T19:55:00.578Z</time>
      </trkpt>
      <trkpt lat="44.21764" lon="4.47907">
        <ele>84.5</ele>
        <time>2024-10-17T19:55:01.578Z</time>
      </trkpt>
      <trkpt lat="44.21764" lon="4.47907">
        <ele>84.5</ele>
        <time>2024-10-17T19:55:02.578Z</time>
      </trkpt>
      <trkpt lat="44.21764" lon="4.47908">
        <ele>84.8</ele>
        <time>2024-10-17T19:55:03.578Z</time>
      </trkpt>
      <trkpt lat="44.21764" lon="4.47908">
        <ele>84.8</ele>
        <time>2024-10-17T19:55:04.578Z</time>
      </trkpt>
      <trkpt lat="44.21765" lon="4.47908">
        <ele>84.8</ele>
        <time>2024-10-17T19:55:05.578Z</time>
      </trkpt>
      <trkpt lat="44.21764" lon="4.47908">
        <ele>84.8</ele>
        <time>2024-10-17T19:55:06.578Z</time>
      </trkpt>
      <trkpt lat="44.21764" lon="4.47908">
        <ele>84.7</ele>
        <time>2024-10-17T19:55:07.578Z</time>
      </trkpt>
      <trkpt lat="44.21761" lon="4.4791">
        <ele>84.5</ele>
        <time>2024-10-17T19:55:08.578Z</time>
      </trkpt>
      <trkpt lat="44.21761" lon="4.47911">
        <ele>84.5</ele>
        <time>2024-10-17T19:55:09.578Z</time>
      </trkpt>
      <trkpt lat="44.21759" lon="4.47912">
        <ele>84.7</ele>
        <time>2024-10-17T19:55:10.578Z</time>
      </trkpt>
      <trkpt lat="44.21758" lon="4.47913">
        <ele>84.4</ele>
        <time>2024-10-17T19:55:11.578Z</time>
      </trkpt>
      <trkpt lat="44.21758" lon="4.47914">
        <ele>84.4</ele>
        <time>2024-10-17T19:55:12.578Z</time>
      </trkpt>
      <trkpt lat="44.21757" lon="4.47914">
        <ele>84.4</ele>
        <time>2024-10-17T19:55:13.578Z</time>
      </trkpt>
      <trkpt lat="44.21757" lon="4.47914">
        <ele>84.4</ele>
        <time>2024-10-17T19:55:14.578Z</time>
      </trkpt>
      <trkpt lat="44.21757" lon="4.47915">
        <ele>84.4</ele>
        <time>2024-10-17T19:55:15.578Z</time>
      </trkpt>
      <trkpt lat="44.21757" lon="4.47915">
        <ele>84.4</ele>
        <time>2024-10-17T19:55:16.578Z</time>
      </trkpt>
      <trkpt lat="44.21757" lon="4.47915">
        <ele>84.4</ele>
        <time>2024-10-17T19:55:17.578Z</time>
      </trkpt>
      <trkpt lat="44.21756" lon="4.47916">
        <ele>84.4</ele>
        <time>2024-10-17T19:55:18.578Z</time>
      </trkpt>
      <trkpt lat="44.21756" lon="4.47916">
        <ele>84.4</ele>
        <time>2024-10-17T19:55:19.578Z</time>
      </trkpt>
      <trkpt lat="44.21756" lon="4.47916">
        <ele>84.5</ele>
        <time>2024-10-17T19:55:20.578Z</time>
      </trkpt>
      <trkpt lat="44.21756" lon="4.47917">
        <ele>84.5</ele>
        <time>2024-10-17T19:55:21.578Z</time>
      </trkpt>
      <trkpt lat="44.21755" lon="4.47917">
        <ele>84.3</ele>
        <time>2024-10-17T19:55:22.578Z</time>
      </trkpt>
      <trkpt lat="44.21755" lon="4.47917">
        <ele>84.3</ele>
        <time>2024-10-17T19:55:23.578Z</time>
      </trkpt>
      <trkpt lat="44.21755" lon="4.47917">
        <ele>84.3</ele>
        <time>2024-10-17T19:55:24.578Z</time>
      </trkpt>
      <trkpt lat="44.21753" lon="4.47922">
        <ele>84.4</ele>
        <time>2024-10-17T19:55:25.578Z</time>
      </trkpt>
      <trkpt lat="44.21752" lon="4.47923">
        <ele>84.2</ele>
        <time>2024-10-17T19:55:26.578Z</time>
      </trkpt>
      <trkpt lat="44.2175" lon="4.47927">
        <ele>84.4</ele>
        <time>2024-10-17T19:55:27.578Z</time>
      </trkpt>
      <trkpt lat="44.21749" lon="4.47929">
        <ele>84.2</ele>
        <time>2024-10-17T19:55:28.578Z</time>
      </trkpt>
      <trkpt lat="44.21746" lon="4.47932">
        <ele>84.4</ele>
        <time>2024-10-17T19:55:29.578Z</time>
      </trkpt>
      <trkpt lat="44.21745" lon="4.47933">
        <ele>84.3</ele>
        <time>2024-10-17T19:55:30.578Z</time>
      </trkpt>
      <trkpt lat="44.21742" lon="4.47936">
        <ele>84.4</ele>
        <time>2024-10-17T19:55:31.578Z</time>
      </trkpt>
      <trkpt lat="44.21741" lon="4.47937">
        <ele>84.4</ele>
        <time>2024-10-17T19:55:32.578Z</time>
      </trkpt>
      <trkpt lat="44.21738" lon="4.47938">
        <ele>84.4</ele>
        <time>2024-10-17T19:55:33.578Z</time>
      </trkpt>
      <trkpt lat="44.21736" lon="4.4794">
        <ele>84.4</ele>
        <time>2024-10-17T19:55:34.578Z</time>
      </trkpt>
      <trkpt lat="44.21732" lon="4.47942">
        <ele>84.3</ele>
        <time>2024-10-17T19:55:35.578Z</time>
      </trkpt>
      <trkpt lat="44.21731" lon="4.47943">
        <ele>84.3</ele>
        <time>2024-10-17T19:55:36.578Z</time>
      </trkpt>
      <trkpt lat="44.21728" lon="4.47945">
        <ele>84.2</ele>
        <time>2024-10-17T19:55:37.578Z</time>
      </trkpt>
      <trkpt lat="44.21725" lon="4.47946">
        <ele>84.1</ele>
        <time>2024-10-17T19:55:38.578Z</time>
      </trkpt>
      <trkpt lat="44.21723" lon="4.47948">
        <ele>84</ele>
        <time>2024-10-17T19:55:39.578Z</time>
      </trkpt>
      <trkpt lat="44.2172" lon="4.4795">
        <ele>83.9</ele>
        <time>2024-10-17T19:55:40.578Z</time>
      </trkpt>
      <trkpt lat="44.21717" lon="4.47952">
        <ele>83.7</ele>
        <time>2024-10-17T19:55:41.578Z</time>
      </trkpt>
      <trkpt lat="44.21714" lon="4.47953">
        <ele>83.6</ele>
        <time>2024-10-17T19:55:42.578Z</time>
      </trkpt>
      <trkpt lat="44.21713" lon="4.47954">
        <ele>83.6</ele>
        <time>2024-10-17T19:55:43.578Z</time>
      </trkpt>
      <trkpt lat="44.21711" lon="4.47956">
        <ele>83.4</ele>
        <time>2024-10-17T19:55:44.578Z</time>
      </trkpt>
      <trkpt lat="44.21711" lon="4.47958">
        <ele>83.4</ele>
        <time>2024-10-17T19:55:45.578Z</time>
      </trkpt>
      <trkpt lat="44.21713" lon="4.47961">
        <ele>83.4</ele>
        <time>2024-10-17T19:55:46.578Z</time>
      </trkpt>
      <trkpt lat="44.21714" lon="4.47962">
        <ele>83.4</ele>
        <time>2024-10-17T19:55:47.578Z</time>
      </trkpt>
      <trkpt lat="44.21716" lon="4.47965">
        <ele>83.3</ele>
        <time>2024-10-17T19:55:48.578Z</time>
      </trkpt>
      <trkpt lat="44.21719" lon="4.47968">
        <ele>83.3</ele>
        <time>2024-10-17T19:55:49.578Z</time>
      </trkpt>
      <trkpt lat="44.2172" lon="4.47969">
        <ele>83.3</ele>
        <time>2024-10-17T19:55:50.578Z</time>
      </trkpt>
      <trkpt lat="44.21722" lon="4.47972">
        <ele>83.4</ele>
        <time>2024-10-17T19:55:51.578Z</time>
      </trkpt>
      <trkpt lat="44.21724" lon="4.47975">
        <ele>83.3</ele>
        <time>2024-10-17T19:55:52.578Z</time>
      </trkpt>
      <trkpt lat="44.21726" lon="4.47977">
        <ele>83.3</ele>
        <time>2024-10-17T19:55:53.578Z</time>
      </trkpt>
      <trkpt lat="44.21728" lon="4.47981">
        <ele>83.3</ele>
        <time>2024-10-17T19:55:54.578Z</time>
      </trkpt>
      <trkpt lat="44.21729" lon="4.47983">
        <ele>83.3</ele>
        <time>2024-10-17T19:55:55.578Z</time>
      </trkpt>
      <trkpt lat="44.21732" lon="4.47986">
        <ele>83.2</ele>
        <time>2024-10-17T19:55:56.578Z</time>
      </trkpt>
      <trkpt lat="44.21733" lon="4.47987">
        <ele>83.2</ele>
        <time>2024-10-17T19:55:57.578Z</time>
      </trkpt>
      <trkpt lat="44.21735" lon="4.4799">
        <ele>83.2</ele>
        <time>2024-10-17T19:55:58.578Z</time>
      </trkpt>
      <trkpt lat="44.21737" lon="4.47994">
        <ele>83.2</ele>
        <time>2024-10-17T19:55:59.578Z</time>
      </trkpt>
      <trkpt lat="44.21739" lon="4.47997">
        <ele>83.2</ele>
        <time>2024-10-17T19:56:00.578Z</time>
      </trkpt>
      <trkpt lat="44.21741" lon="4.48">
        <ele>83.2</ele>
        <time>2024-10-17T19:56:01.578Z</time>
      </trkpt>
      <trkpt lat="44.21743" lon="4.48003">
        <ele>83.1</ele>
        <time>2024-10-17T19:56:02.578Z</time>
      </trkpt>
      <trkpt lat="44.21745" lon="4.48006">
        <ele>83.2</ele>
        <time>2024-10-17T19:56:03.578Z</time>
      </trkpt>
      <trkpt lat="44.21747" lon="4.48009">
        <ele>83.2</ele>
        <time>2024-10-17T19:56:04.578Z</time>
      </trkpt>
      <trkpt lat="44.21748" lon="4.48012">
        <ele>83.2</ele>
        <time>2024-10-17T19:56:05.578Z</time>
      </trkpt>
      <trkpt lat="44.2175" lon="4.48016">
        <ele>83.2</ele>
        <time>2024-10-17T19:56:06.578Z</time>
      </trkpt>
      <trkpt lat="44.21752" lon="4.4802">
        <ele>83.3</ele>
        <time>2024-10-17T19:56:07.578Z</time>
      </trkpt>
      <trkpt lat="44.21753" lon="4.48021">
        <ele>83.3</ele>
        <time>2024-10-17T19:56:08.578Z</time>
      </trkpt>
      <trkpt lat="44.21756" lon="4.48023">
        <ele>83.4</ele>
        <time>2024-10-17T19:56:09.578Z</time>
      </trkpt>
      <trkpt lat="44.21758" lon="4.48025">
        <ele>83.4</ele>
        <time>2024-10-17T19:56:10.578Z</time>
      </trkpt>
      <trkpt lat="44.21761" lon="4.48028">
        <ele>83.5</ele>
        <time>2024-10-17T19:56:11.578Z</time>
      </trkpt>
      <trkpt lat="44.21763" lon="4.4803">
        <ele>83.6</ele>
        <time>2024-10-17T19:56:12.578Z</time>
      </trkpt>
      <trkpt lat="44.21766" lon="4.48034">
        <ele>83.7</ele>
        <time>2024-10-17T19:56:13.578Z</time>
      </trkpt>
      <trkpt lat="44.21768" lon="4.48037">
        <ele>83.8</ele>
        <time>2024-10-17T19:56:14.578Z</time>
      </trkpt>
      <trkpt lat="44.2177" lon="4.48041">
        <ele>83.9</ele>
        <time>2024-10-17T19:56:15.578Z</time>
      </trkpt>
      <trkpt lat="44.21772" lon="4.48044">
        <ele>84</ele>
        <time>2024-10-17T19:56:16.578Z</time>
      </trkpt>
      <trkpt lat="44.21775" lon="4.48047">
        <ele>84.1</ele>
        <time>2024-10-17T19:56:17.578Z</time>
      </trkpt>
      <trkpt lat="44.21778" lon="4.4805">
        <ele>84.3</ele>
        <time>2024-10-17T19:56:18.578Z</time>
      </trkpt>
      <trkpt lat="44.2178" lon="4.48054">
        <ele>84.4</ele>
        <time>2024-10-17T19:56:19.578Z</time>
      </trkpt>
      <trkpt lat="44.21781" lon="4.48057">
        <ele>84.4</ele>
        <time>2024-10-17T19:56:20.578Z</time>
      </trkpt>
      <trkpt lat="44.21783" lon="4.4806">
        <ele>84.5</ele>
        <time>2024-10-17T19:56:21.578Z</time>
      </trkpt>
      <trkpt lat="44.21784" lon="4.48064">
        <ele>84.7</ele>
        <time>2024-10-17T19:56:22.578Z</time>
      </trkpt>
      <trkpt lat="44.21786" lon="4.48068">
        <ele>84.8</ele>
        <time>2024-10-17T19:56:23.578Z</time>
      </trkpt>
      <trkpt lat="44.21787" lon="4.4807">
        <ele>84.8</ele>
        <time>2024-10-17T19:56:24.578Z</time>
      </trkpt>
      <trkpt lat="44.21789" lon="4.48073">
        <ele>84.9</ele>
        <time>2024-10-17T19:56:25.578Z</time>
      </trkpt>
      <trkpt lat="44.21792" lon="4.48076">
        <ele>85.1</ele>
        <time>2024-10-17T19:56:26.578Z</time>
      </trkpt>
      <trkpt lat="44.21794" lon="4.48079">
        <ele>85.2</ele>
        <time>2024-10-17T19:56:27.578Z</time>
      </trkpt>
      <trkpt lat="44.21797" lon="4.4808">
        <ele>85.3</ele>
        <time>2024-10-17T19:56:28.578Z</time>
      </trkpt>
      <trkpt lat="44.218" lon="4.4808">
        <ele>85.4</ele>
        <time>2024-10-17T19:56:29.578Z</time>
      </trkpt>
      <trkpt lat="44.21802" lon="4.48077">
        <ele>85.4</ele>
        <time>2024-10-17T19:56:30.578Z</time>
      </trkpt>
      <trkpt lat="44.21804" lon="4.48074">
        <ele>85.3</ele>
        <time>2024-10-17T19:56:31.578Z</time>
      </trkpt>
      <trkpt lat="44.21807" lon="4.48071">
        <ele>85.3</ele>
        <time>2024-10-17T19:56:32.578Z</time>
      </trkpt>
      <trkpt lat="44.21809" lon="4.48068">
        <ele>85.3</ele>
        <time>2024-10-17T19:56:33.578Z</time>
      </trkpt>
      <trkpt lat="44.21812" lon="4.48065">
        <ele>85.2</ele>
        <time>2024-10-17T19:56:34.578Z</time>
      </trkpt>
      <trkpt lat="44.21815" lon="4.48061">
        <ele>85.2</ele>
        <time>2024-10-17T19:56:35.578Z</time>
      </trkpt>
      <trkpt lat="44.21818" lon="4.48058">
        <ele>85.2</ele>
        <time>2024-10-17T19:56:36.578Z</time>
      </trkpt>
      <trkpt lat="44.2182" lon="4.48055">
        <ele>85.2</ele>
        <time>2024-10-17T19:56:37.578Z</time>
      </trkpt>
      <trkpt lat="44.21823" lon="4.48052">
        <ele>85.1</ele>
        <time>2024-10-17T19:56:38.578Z</time>
      </trkpt>
      <trkpt lat="44.21825" lon="4.48049">
        <ele>85.1</ele>
        <time>2024-10-17T19:56:39.578Z</time>
      </trkpt>
      <trkpt lat="44.21828" lon="4.48046">
        <ele>85.1</ele>
        <time>2024-10-17T19:56:40.578Z</time>
      </trkpt>
      <trkpt lat="44.2183" lon="4.48043">
        <ele>85</ele>
        <time>2024-10-17T19:56:41.578Z</time>
      </trkpt>
      <trkpt lat="44.21832" lon="4.48039">
        <ele>84.9</ele>
        <time>2024-10-17T19:56:42.578Z</time>
      </trkpt>
      <trkpt lat="44.21852" lon="4.4805">
        <ele>77</ele>
        <time>2024-10-17T19:56:51.528Z</time>
      </trkpt>
      <trkpt lat="44.21861" lon="4.48062">
        <ele>77</ele>
        <time>2024-10-17T19:56:56.710Z</time>
      </trkpt>
      <trkpt lat="44.21868" lon="4.4807">
        <ele>77.1</ele>
        <time>2024-10-17T19:57:00.477Z</time>
      </trkpt>
      <trkpt lat="44.21891" lon="4.48032">
        <ele>77</ele>
        <time>2024-10-17T19:57:15.317Z</time>
      </trkpt>
      <trkpt lat="44.21932" lon="4.48071">
        <ele>77</ele>
        <time>2024-10-17T19:57:35.975Z</time>
      </trkpt>
      <trkpt lat="44.21967" lon="4.48105">
        <ele>77.8</ele>
        <time>2024-10-17T19:57:53.730Z</time>
      </trkpt>
      <trkpt lat="44.21976" lon="4.48105">
        <ele>77.8</ele>
        <time>2024-10-17T19:57:57.476Z</time>
      </trkpt>
      <trkpt lat="44.21988" lon="4.481">
        <ele>77.8</ele>
        <time>2024-10-17T19:58:02.689Z</time>
      </trkpt>
      <trkpt lat="44.22006" lon="4.48078">
        <ele>78</ele>
        <time>2024-10-17T19:58:12.651Z</time>
      </trkpt>
      <trkpt lat="44.2202" lon="4.48054">
        <ele>78</ele>
        <time>2024-10-17T19:58:21.884Z</time>
      </trkpt>
      <trkpt lat="44.22" lon="4.48031">
        <ele>78</ele>
        <time>2024-10-17T19:58:32.674Z</time>
      </trkpt>
      <trkpt lat="44.21996" lon="4.48025">
        <ele>77.8</ele>
        <time>2024-10-17T19:58:35.119Z</time>
      </trkpt>
      <trkpt lat="44.21992" lon="4.48015">
        <ele>77.4</ele>
        <time>2024-10-17T19:58:38.535Z</time>
      </trkpt>
      <trkpt lat="44.21994" lon="4.47999">
        <ele>77</ele>
        <time>2024-10-17T19:58:43.380Z</time>
      </trkpt>
      <trkpt lat="44.21997" lon="4.47992">
        <ele>77</ele>
        <time>2024-10-17T19:58:45.813Z</time>
      </trkpt>
      <trkpt lat="44.21999" lon="4.47991">
        <ele>77</ele>
        <time>2024-10-17T19:58:46.697Z</time>
      </trkpt>
      <trkpt lat="44.21998" lon="4.47991">
        <ele>77</ele>
        <time>2024-10-17T19:58:47.114Z</time>
      </trkpt>
      <trkpt lat="44.21996" lon="4.47993">
        <ele>77</ele>
        <time>2024-10-17T19:58:48.138Z</time>
      </trkpt>
      <trkpt lat="44.21993" lon="4.48002">
        <ele>77.1</ele>
        <time>2024-10-17T19:58:51.099Z</time>
      </trkpt>
      <trkpt lat="44.21992" lon="4.48015">
        <ele>77.4</ele>
        <time>2024-10-17T19:58:55.000Z</time>
      </trkpt>
      <trkpt lat="44.21996" lon="4.48025">
        <ele>77.8</ele>
        <time>2024-10-17T19:58:58.416Z</time>
      </trkpt>
      <trkpt lat="44.22" lon="4.48031">
        <ele>78</ele>
        <time>2024-10-17T19:59:00.861Z</time>
      </trkpt>
      <trkpt lat="44.2202" lon="4.48054">
        <ele>78</ele>
        <time>2024-10-17T19:59:11.651Z</time>
      </trkpt>
      <trkpt lat="44.22006" lon="4.48078">
        <ele>78</ele>
        <time>2024-10-17T19:59:20.884Z</time>
      </trkpt>
      <trkpt lat="44.21988" lon="4.481">
        <ele>77.8</ele>
        <time>2024-10-17T19:59:30.846Z</time>
      </trkpt>
      <trkpt lat="44.21976" lon="4.48105">
        <ele>77.8</ele>
        <time>2024-10-17T19:59:36.059Z</time>
      </trkpt>
      <trkpt lat="44.21967" lon="4.48105">
        <ele>77.8</ele>
        <time>2024-10-17T19:59:39.805Z</time>
      </trkpt>
      <trkpt lat="44.21932" lon="4.48071">
        <ele>77</ele>
        <time>2024-10-17T19:59:57.560Z</time>
      </trkpt>
      <trkpt lat="44.21891" lon="4.48032">
        <ele>77</ele>
        <time>2024-10-17T20:00:18.218Z</time>
      </trkpt>
      <trkpt lat="44.21868" lon="4.4807">
        <ele>77.1</ele>
        <time>2024-10-17T20:00:33.058Z</time>
      </trkpt>
      <trkpt lat="44.21861" lon="4.48062">
        <ele>77</ele>
        <time>2024-10-17T20:00:36.825Z</time>
      </trkpt>
      <trkpt lat="44.21852" lon="4.4805">
        <ele>77</ele>
        <time>2024-10-17T20:00:42.007Z</time>
      </trkpt>
      <trkpt lat="44.21832" lon="4.48039">
        <ele>84.9</ele>
        <time>2024-10-17T19:56:42.578Z</time>
      </trkpt>
      <trkpt lat="44.2183" lon="4.48043">
        <ele>85</ele>
        <time>2024-10-17T19:56:41.578Z</time>
      </trkpt>
      <trkpt lat="44.21828" lon="4.48046">
        <ele>85.1</ele>
        <time>2024-10-17T19:56:40.578Z</time>
      </trkpt>
      <trkpt lat="44.21825" lon="4.48049">
        <ele>85.1</ele>
        <time>2024-10-17T19:56:39.578Z</time>
      </trkpt>
      <trkpt lat="44.21823" lon="4.48052">
        <ele>85.1</ele>
        <time>2024-10-17T19:56:38.578Z</time>
      </trkpt>
      <trkpt lat="44.2182" lon="4.48055">
        <ele>85.2</ele>
        <time>2024-10-17T19:56:37.578Z</time>
      </trkpt>
      <trkpt lat="44.21818" lon="4.48058">
        <ele>85.2</ele>
        <time>2024-10-17T19:56:36.578Z</time>
      </trkpt>
      <trkpt lat="44.21815" lon="4.48061">
        <ele>85.2</ele>
        <time>2024-10-17T19:56:35.578Z</time>
      </trkpt>
      <trkpt lat="44.21812" lon="4.48065">
        <ele>85.2</ele>
        <time>2024-10-17T19:56:34.578Z</time>
      </trkpt>
      <trkpt lat="44.21809" lon="4.48068">
        <ele>85.3</ele>
        <time>2024-10-17T19:56:33.578Z</time>
      </trkpt>
      <trkpt lat="44.21807" lon="4.48071">
        <ele>85.3</ele>
        <time>2024-10-17T19:56:32.578Z</time>
      </trkpt>
      <trkpt lat="44.21804" lon="4.48074">
        <ele>85.3</ele>
        <time>2024-10-17T19:56:31.578Z</time>
      </trkpt>
      <trkpt lat="44.21802" lon="4.48077">
        <ele>85.4</ele>
        <time>2024-10-17T19:56:30.578Z</time>
      </trkpt>
      <trkpt lat="44.218" lon="4.4808">
        <ele>85.4</ele>
        <time>2024-10-17T19:56:29.578Z</time>
      </trkpt>
      <trkpt lat="44.21797" lon="4.4808">
        <ele>85.3</ele>
        <time>2024-10-17T19:56:28.578Z</time>
      </trkpt>
      <trkpt lat="44.21794" lon="4.48079">
        <ele>85.2</ele>
        <time>2024-10-17T19:56:27.578Z</time>
      </trkpt>
      <trkpt lat="44.21792" lon="4.48076">
        <ele>85.1</ele>
        <time>2024-10-17T19:56:26.578Z</time>
      </trkpt>
      <trkpt lat="44.21789" lon="4.48073">
        <ele>84.9</ele>
        <time>2024-10-17T19:56:25.578Z</time>
      </trkpt>
      <trkpt lat="44.21787" lon="4.4807">
        <ele>84.8</ele>
        <time>2024-10-17T19:56:24.578Z</time>
      </trkpt>
      <trkpt lat="44.21786" lon="4.48068">
        <ele>84.8</ele>
        <time>2024-10-17T19:56:23.578Z</time>
      </trkpt>
      <trkpt lat="44.21784" lon="4.48064">
        <ele>84.7</ele>
        <time>2024-10-17T19:56:22.578Z</time>
      </trkpt>
      <trkpt lat="44.21783" lon="4.4806">
        <ele>84.5</ele>
        <time>2024-10-17T19:56:21.578Z</time>
      </trkpt>
      <trkpt lat="44.21781" lon="4.48057">
        <ele>84.4</ele>
        <time>2024-10-17T19:56:20.578Z</time>
      </trkpt>
      <trkpt lat="44.2178" lon="4.48054">
        <ele>84.4</ele>
        <time>2024-10-17T19:56:19.578Z</time>
      </trkpt>
      <trkpt lat="44.21778" lon="4.4805">
        <ele>84.3</ele>
        <time>2024-10-17T19:56:18.578Z</time>
      </trkpt>
      <trkpt lat="44.21775" lon="4.48047">
        <ele>84.1</ele>
        <time>2024-10-17T19:56:17.578Z</time>
      </trkpt>
      <trkpt lat="44.21772" lon="4.48044">
        <ele>84</ele>
        <time>2024-10-17T19:56:16.578Z</time>
      </trkpt>
      <trkpt lat="44.2177" lon="4.48041">
        <ele>83.9</ele>
        <time>2024-10-17T19:56:15.578Z</time>
      </trkpt>
      <trkpt lat="44.21768" lon="4.48037">
        <ele>83.8</ele>
        <time>2024-10-17T19:56:14.578Z</time>
      </trkpt>
      <trkpt lat="44.21766" lon="4.48034">
        <ele>83.7</ele>
        <time>2024-10-17T19:56:13.578Z</time>
      </trkpt>
      <trkpt lat="44.21763" lon="4.4803">
        <ele>83.6</ele>
        <time>2024-10-17T19:56:12.578Z</time>
      </trkpt>
      <trkpt lat="44.21761" lon="4.48028">
        <ele>83.5</ele>
        <time>2024-10-17T19:56:11.578Z</time>
      </trkpt>
      <trkpt lat="44.21758" lon="4.48025">
        <ele>83.4</ele>
        <time>2024-10-17T19:56:10.578Z</time>
      </trkpt>
      <trkpt lat="44.21756" lon="4.48023">
        <ele>83.4</ele>
        <time>2024-10-17T19:56:09.578Z</time>
      </trkpt>
      <trkpt lat="44.21753" lon="4.48021">
        <ele>83.3</ele>
        <time>2024-10-17T19:56:08.578Z</time>
      </trkpt>
      <trkpt lat="44.21752" lon="4.4802">
        <ele>83.3</ele>
        <time>2024-10-17T19:56:07.578Z</time>
      </trkpt>
      <trkpt lat="44.2175" lon="4.48016">
        <ele>83.2</ele>
        <time>2024-10-17T19:56:06.578Z</time>
      </trkpt>
      <trkpt lat="44.21748" lon="4.48012">
        <ele>83.2</ele>
        <time>2024-10-17T19:56:05.578Z</time>
      </trkpt>
      <trkpt lat="44.21747" lon="4.48009">
        <ele>83.2</ele>
        <time>2024-10-17T19:56:04.578Z</time>
      </trkpt>
      <trkpt lat="44.21745" lon="4.48006">
        <ele>83.2</ele>
        <time>2024-10-17T19:56:03.578Z</time>
      </trkpt>
      <trkpt lat="44.21743" lon="4.48003">
        <ele>83.1</ele>
        <time>2024-10-17T19:56:02.578Z</time>
      </trkpt>
      <trkpt lat="44.21741" lon="4.48">
        <ele>83.2</ele>
        <time>2024-10-17T19:56:01.578Z</time>
      </trkpt>
      <trkpt lat="44.21739" lon="4.47997">
        <ele>83.2</ele>
        <time>2024-10-17T19:56:00.578Z</time>
      </trkpt>
      <trkpt lat="44.21737" lon="4.47994">
        <ele>83.2</ele>
        <time>2024-10-17T19:55:59.578Z</time>
      </trkpt>
      <trkpt lat="44.21735" lon="4.4799">
        <ele>83.2</ele>
        <time>2024-10-17T19:55:58.578Z</time>
      </trkpt>
      <trkpt lat="44.21733" lon="4.47987">
        <ele>83.2</ele>
        <time>2024-10-17T19:55:57.578Z</time>
      </trkpt>
      <trkpt lat="44.21732" lon="4.47986">
        <ele>83.2</ele>
        <time>2024-10-17T19:55:56.578Z</time>
      </trkpt>
      <trkpt lat="44.21729" lon="4.47983">
        <ele>83.3</ele>
        <time>2024-10-17T19:55:55.578Z</time>
      </trkpt>
      <trkpt lat="44.21728" lon="4.47981">
        <ele>83.3</ele>
        <time>2024-10-17T19:55:54.578Z</time>
      </trkpt>
      <trkpt lat="44.21726" lon="4.47977">
        <ele>83.3</ele>
        <time>2024-10-17T19:55:53.578Z</time>
      </trkpt>
      <trkpt lat="44.21724" lon="4.47975">
        <ele>83.3</ele>
        <time>2024-10-17T19:55:52.578Z</time>
      </trkpt>
      <trkpt lat="44.21722" lon="4.47972">
        <ele>83.4</ele>
        <time>2024-10-17T19:55:51.578Z</time>
      </trkpt>
      <trkpt lat="44.2172" lon="4.47969">
        <ele>83.3</ele>
        <time>2024-10-17T19:55:50.578Z</time>
      </trkpt>
      <trkpt lat="44.21719" lon="4.47968">
        <ele>83.3</ele>
        <time>2024-10-17T19:55:49.578Z</time>
      </trkpt>
      <trkpt lat="44.21716" lon="4.47965">
        <ele>83.3</ele>
        <time>2024-10-17T19:55:48.578Z</time>
      </trkpt>
      <trkpt lat="44.21714" lon="4.47962">
        <ele>83.4</ele>
        <time>2024-10-17T19:55:47.578Z</time>
      </trkpt>
      <trkpt lat="44.21713" lon="4.47961">
        <ele>83.4</ele>
        <time>2024-10-17T19:55:46.578Z</time>
      </trkpt>
      <trkpt lat="44.21711" lon="4.47958">
        <ele>83.4</ele>
        <time>2024-10-17T19:55:45.578Z</time>
      </trkpt>
      <trkpt lat="44.21711" lon="4.47956">
        <ele>83.4</ele>
        <time>2024-10-17T19:55:44.578Z</time>
      </trkpt>
      <trkpt lat="44.21713" lon="4.47954">
        <ele>83.6</ele>
        <time>2024-10-17T19:55:43.578Z</time>
      </trkpt>
      <trkpt lat="44.21714" lon="4.47953">
        <ele>83.6</ele>
        <time>2024-10-17T19:55:42.578Z</time>
      </trkpt>
      <trkpt lat="44.21717" lon="4.47952">
        <ele>83.7</ele>
        <time>2024-10-17T19:55:41.578Z</time>
      </trkpt>
      <trkpt lat="44.2172" lon="4.4795">
        <ele>83.9</ele>
        <time>2024-10-17T19:55:40.578Z</time>
      </trkpt>
      <trkpt lat="44.21723" lon="4.47948">
        <ele>84</ele>
        <time>2024-10-17T19:55:39.578Z</time>
      </trkpt>
      <trkpt lat="44.21725" lon="4.47946">
        <ele>84.1</ele>
        <time>2024-10-17T19:55:38.578Z</time>
      </trkpt>
      <trkpt lat="44.21728" lon="4.47945">
        <ele>84.2</ele>
        <time>2024-10-17T19:55:37.578Z</time>
      </trkpt>
      <trkpt lat="44.21731" lon="4.47943">
        <ele>84.3</ele>
        <time>2024-10-17T19:55:36.578Z</time>
      </trkpt>
      <trkpt lat="44.21732" lon="4.47942">
        <ele>84.3</ele>
        <time>2024-10-17T19:55:35.578Z</time>
      </trkpt>
      <trkpt lat="44.21736" lon="4.4794">
        <ele>84.4</ele>
        <time>2024-10-17T19:55:34.578Z</time>
      </trkpt>
      <trkpt lat="44.21738" lon="4.47938">
        <ele>84.4</ele>
        <time>2024-10-17T19:55:33.578Z</time>
      </trkpt>
      <trkpt lat="44.21741" lon="4.47937">
        <ele>84.4</ele>
        <time>2024-10-17T19:55:32.578Z</time>
      </trkpt>
      <trkpt lat="44.21742" lon="4.47936">
        <ele>84.4</ele>
        <time>2024-10-17T19:55:31.578Z</time>
      </trkpt>
      <trkpt lat="44.21745" lon="4.47933">
        <ele>84.3</ele>
        <time>2024-10-17T19:55:30.578Z</time>
      </trkpt>
      <trkpt lat="44.21746" lon="4.47932">
        <ele>84.4</ele>
        <time>2024-10-17T19:55:29.578Z</time>
      </trkpt>
      <trkpt lat="44.21749" lon="4.47929">
        <ele>84.2</ele>
        <time>2024-10-17T19:55:28.578Z</time>
      </trkpt>
      <trkpt lat="44.2175" lon="4.47927">
        <ele>84.4</ele>
        <time>2024-10-17T19:55:27.578Z</time>
      </trkpt>
      <trkpt lat="44.21752" lon="4.47923">
        <ele>84.2</ele>
        <time>2024-10-17T19:55:26.578Z</time>
      </trkpt>
      <trkpt lat="44.21753" lon="4.47922">
        <ele>84.4</ele>
        <time>2024-10-17T19:55:25.578Z</time>
      </trkpt>
      <trkpt lat="44.21755" lon="4.47917">
        <ele>84.3</ele>
        <time>2024-10-17T19:55:24.578Z</time>
      </trkpt>
      <trkpt lat="44.21755" lon="4.47917">
        <ele>84.3</ele>
        <time>2024-10-17T19:55:23.578Z</time>
      </trkpt>
      <trkpt lat="44.21755" lon="4.47917">
        <ele>84.3</ele>
        <time>2024-10-17T19:55:22.578Z</time>
      </trkpt>
      <trkpt lat="44.21756" lon="4.47917">
        <ele>84.5</ele>
        <time>2024-10-17T19:55:21.578Z</time>
      </trkpt>
      <trkpt lat="44.21756" lon="4.47916">
        <ele>84.5</ele>
        <time>2024-10-17T19:55:20.578Z</time>
      </trkpt>
      <trkpt lat="44.21756" lon="4.47916">
        <ele>84.4</ele>
        <time>2024-10-17T19:55:19.578Z</time>
      </trkpt>
      <trkpt lat="44.21756" lon="4.47916">
        <ele>84.4</ele>
        <time>2024-10-17T19:55:18.578Z</time>
      </trkpt>
      <trkpt lat="44.21757" lon="4.47915">
        <ele>84.4</ele>
        <time>2024-10-17T19:55:17.578Z</time>
      </trkpt>
      <trkpt lat="44.21757" lon="4.47915">
        <ele>84.4</ele>
        <time>2024-10-17T19:55:16.578Z</time>
      </trkpt>
      <trkpt lat="44.21757" lon="4.47915">
        <ele>84.4</ele>
        <time>2024-10-17T19:55:15.578Z</time>
      </trkpt>
      <trkpt lat="44.21757" lon="4.47914">
        <ele>84.4</ele>
        <time>2024-10-17T19:55:14.578Z</time>
      </trkpt>
      <trkpt lat="44.21757" lon="4.47914">
        <ele>84.4</ele>
        <time>2024-10-17T19:55:13.578Z</time>
      </trkpt>
      <trkpt lat="44.21758" lon="4.47914">
        <ele>84.4</ele>
        <time>2024-10-17T19:55:12.578Z</time>
      </trkpt>
      <trkpt lat="44.21758" lon="4.47913">
        <ele>84.4</ele>
        <time>2024-10-17T19:55:11.578Z</time>
      </trkpt>
      <trkpt lat="44.21759" lon="4.47912">
        <ele>84.7</ele>
        <time>2024-10-17T19:55:10.578Z</time>
      </trkpt>
      <trkpt lat="44.21761" lon="4.47911">
        <ele>84.5</ele>
        <time>2024-10-17T19:55:09.578Z</time>
      </trkpt>
      <trkpt lat="44.21761" lon="4.4791">
        <ele>84.5</ele>
        <time>2024-10-17T19:55:08.578Z</time>
      </trkpt>
      <trkpt lat="44.21764" lon="4.47908">
        <ele>84.7</ele>
        <time>2024-10-17T19:55:07.578Z</time>
      </trkpt>
      <trkpt lat="44.21764" lon="4.47908">
        <ele>84.8</ele>
        <time>2024-10-17T19:55:06.578Z</time>
      </trkpt>
      <trkpt lat="44.21765" lon="4.47908">
        <ele>84.8</ele>
        <time>2024-10-17T19:55:05.578Z</time>
      </trkpt>
      <trkpt lat="44.21764" lon="4.47908">
        <ele>84.8</ele>
        <time>2024-10-17T19:55:04.578Z</time>
      </trkpt>
      <trkpt lat="44.21764" lon="4.47908">
        <ele>84.8</ele>
        <time>2024-10-17T19:55:03.578Z</time>
      </trkpt>
      <trkpt lat="44.21764" lon="4.47907">
        <ele>84.5</ele>
        <time>2024-10-17T19:55:02.578Z</time>
      </trkpt>
      <trkpt lat="44.21764" lon="4.47907">
        <ele>84.5</ele>
        <time>2024-10-17T19:55:01.578Z</time>
      </trkpt>
      <trkpt lat="44.21764" lon="4.47907">
        <ele>84.5</ele>
        <time>2024-10-17T19:55:00.578Z</time>
      </trkpt>
      <trkpt lat="44.21765" lon="4.47906">
        <ele>84.7</ele>
        <time>2024-10-17T19:54:59.578Z</time>
      </trkpt>
      <trkpt lat="44.21766" lon="4.47905">
        <ele>84.8</ele>
        <time>2024-10-17T19:54:58.578Z</time>
      </trkpt>
      <trkpt lat="44.21767" lon="4.47904">
        <ele>84.8</ele>
        <time>2024-10-17T19:54:57.578Z</time>
      </trkpt>
      <trkpt lat="44.21768" lon="4.47903">
        <ele>84.6</ele>
        <time>2024-10-17T19:54:56.578Z</time>
      </trkpt>
      <trkpt lat="44.21769" lon="4.47902">
        <ele>84.6</ele>
        <time>2024-10-17T19:54:55.578Z</time>
      </trkpt>
      <trkpt lat="44.2177" lon="4.47901">
        <ele>84.6</ele>
        <time>2024-10-17T19:54:54.578Z</time>
      </trkpt>
      <trkpt lat="44.21771" lon="4.47899">
        <ele>84.7</ele>
        <time>2024-10-17T19:54:53.578Z</time>
      </trkpt>
      <trkpt lat="44.21772" lon="4.479">
        <ele>84.8</ele>
        <time>2024-10-17T19:54:52.578Z</time>
      </trkpt>
      <trkpt lat="44.21773" lon="4.47901">
        <ele>84.8</ele>
        <time>2024-10-17T19:54:51.578Z</time>
      </trkpt>
      <trkpt lat="44.21774" lon="4.47902">
        <ele>84.8</ele>
        <time>2024-10-17T19:54:50.578Z</time>
      </trkpt>
      <trkpt lat="44.21776" lon="4.47905">
        <ele>85.1</ele>
        <time>2024-10-17T19:54:49.578Z</time>
      </trkpt>
      <trkpt lat="44.21777" lon="4.47907">
        <ele>85.1</ele>
        <time>2024-10-17T19:54:48.578Z</time>
      </trkpt>
      <trkpt lat="44.21778" lon="4.4791">
        <ele>85.2</ele>
        <time>2024-10-17T19:54:47.578Z</time>
      </trkpt>
      <trkpt lat="44.21779" lon="4.47911">
        <ele>85.2</ele>
        <time>2024-10-17T19:54:46.578Z</time>
      </trkpt>
      <trkpt lat="44.21779" lon="4.47912">
        <ele>85.2</ele>
        <time>2024-10-17T19:54:45.578Z</time>
      </trkpt>
      <trkpt lat="44.21779" lon="4.47912">
        <ele>85.3</ele>
        <time>2024-10-17T19:54:44.578Z</time>
      </trkpt>
      <trkpt lat="44.2178" lon="4.47914">
        <ele>85.2</ele>
        <time>2024-10-17T19:54:43.578Z</time>
      </trkpt>
      <trkpt lat="44.21779" lon="4.47907">
        <ele>85.2</ele>
        <time>2024-10-17T19:48:16.578Z</time>
      </trkpt>
      <trkpt lat="44.21779" lon="4.47907">
        <ele>85.2</ele>
        <time>2024-10-17T19:48:15.578Z</time>
      </trkpt>
      <trkpt lat="44.21779" lon="4.47906">
        <ele>85.2</ele>
        <time>2024-10-17T19:48:14.578Z</time>
      </trkpt>
      <trkpt lat="44.21779" lon="4.47905">
        <ele>85.2</ele>
        <time>2024-10-17T19:48:13.578Z</time>
      </trkpt>
      <trkpt lat="44.21779" lon="4.47904">
        <ele>85.2</ele>
        <time>2024-10-17T19:48:12.578Z</time>
      </trkpt>
      <trkpt lat="44.21778" lon="4.47903">
        <ele>85.2</ele>
        <time>2024-10-17T19:48:11.578Z</time>
      </trkpt>
      <trkpt lat="44.21778" lon="4.47902">
        <ele>85.1</ele>
        <time>2024-10-17T19:48:10.578Z</time>
      </trkpt>
      <trkpt lat="44.21777" lon="4.47901">
        <ele>85.1</ele>
        <time>2024-10-17T19:48:09.578Z</time>
      </trkpt>
      <trkpt lat="44.21777" lon="4.479">
        <ele>85</ele>
        <time>2024-10-17T19:48:08.578Z</time>
      </trkpt>
      <trkpt lat="44.21777" lon="4.47899">
        <ele>85</ele>
        <time>2024-10-17T19:48:07.578Z</time>
      </trkpt>
      <trkpt lat="44.21776" lon="4.47898">
        <ele>84.8</ele>
        <time>2024-10-17T19:48:06.578Z</time>
      </trkpt>
      <trkpt lat="44.21776" lon="4.47897">
        <ele>84.8</ele>
        <time>2024-10-17T19:48:05.578Z</time>
      </trkpt>
      <trkpt lat="44.21776" lon="4.47896">
        <ele>84.8</ele>
        <time>2024-10-17T19:48:04.578Z</time>
      </trkpt>
      <trkpt lat="44.21775" lon="4.47895">
        <ele>84.8</ele>
        <time>2024-10-17T19:48:03.578Z</time>
      </trkpt>
      <trkpt lat="44.21775" lon="4.47894">
        <ele>84.4</ele>
        <time>2024-10-17T19:48:02.578Z</time>
      </trkpt>
      <trkpt lat="44.21775" lon="4.47894">
        <ele>84.4</ele>
        <time>2024-10-17T19:48:01.578Z</time>
      </trkpt>
      <trkpt lat="44.21776" lon="4.47893">
        <ele>84.4</ele>
        <time>2024-10-17T19:48:00.578Z</time>
      </trkpt>
      <trkpt lat="44.21777" lon="4.47892">
        <ele>84.6</ele>
        <time>2024-10-17T19:47:59.578Z</time>
      </trkpt>
      <trkpt lat="44.21778" lon="4.47892">
        <ele>84.6</ele>
        <time>2024-10-17T19:47:58.578Z</time>
      </trkpt>
      <trkpt lat="44.21779" lon="4.47892">
        <ele>84.6</ele>
        <time>2024-10-17T19:47:57.578Z</time>
      </trkpt>
      <trkpt lat="44.21779" lon="4.47892">
        <ele>84.6</ele>
        <time>2024-10-17T19:47:56.578Z</time>
      </trkpt>
      <trkpt lat="44.21779" lon="4.47892">
        <ele>84.6</ele>
        <time>2024-10-17T19:47:55.578Z</time>
      </trkpt>
      <trkpt lat="44.21779" lon="4.47893">
        <ele>84.6</ele>
        <time>2024-10-17T19:47:54.578Z</time>
      </trkpt>
      <trkpt lat="44.21779" lon="4.47893">
        <ele>84.7</ele>
        <time>2024-10-17T19:47:53.578Z</time>
      </trkpt>
      <trkpt lat="44.21779" lon="4.47892">
        <ele>84.7</ele>
        <time>2024-10-17T19:47:52.578Z</time>
      </trkpt>
      <trkpt lat="44.21779" lon="4.47891">
        <ele>84.7</ele>
        <time>2024-10-17T19:47:51.578Z</time>
      </trkpt>
      <trkpt lat="44.2178" lon="4.4789">
        <ele>84.3</ele>
        <time>2024-10-17T19:47:50.578Z</time>
      </trkpt>
      <trkpt lat="44.21781" lon="4.47889">
        <ele>84.6</ele>
        <time>2024-10-17T19:47:49.578Z</time>
      </trkpt>
      <trkpt lat="44.21781" lon="4.47887">
        <ele>84.6</ele>
        <time>2024-10-17T19:47:48.578Z</time>
      </trkpt>
      <trkpt lat="44.21782" lon="4.47885">
        <ele>84.3</ele>
        <time>2024-10-17T19:47:47.578Z</time>
      </trkpt>
      <trkpt lat="44.21783" lon="4.47883">
        <ele>84.3</ele>
        <time>2024-10-17T19:47:46.578Z</time>
      </trkpt>
      <trkpt lat="44.21784" lon="4.47882">
        <ele>84.5</ele>
        <time>2024-10-17T19:47:45.578Z</time>
      </trkpt>
      <trkpt lat="44.21786" lon="4.47879">
        <ele>84.3</ele>
        <time>2024-10-17T19:47:44.578Z</time>
      </trkpt>
      <trkpt lat="44.21787" lon="4.47877">
        <ele>84.2</ele>
        <time>2024-10-17T19:47:43.578Z</time>
      </trkpt>
      <trkpt lat="44.21787" lon="4.47875">
        <ele>84.2</ele>
        <time>2024-10-17T19:47:42.578Z</time>
      </trkpt>
      <trkpt lat="44.21787" lon="4.47873">
        <ele>83.9</ele>
        <time>2024-10-17T19:47:41.578Z</time>
      </trkpt>
      <trkpt lat="44.21788" lon="4.47872">
        <ele>83.9</ele>
        <time>2024-10-17T19:47:40.578Z</time>
      </trkpt>
      <trkpt lat="44.21787" lon="4.4787">
        <ele>83.9</ele>
        <time>2024-10-17T19:47:39.578Z</time>
      </trkpt>
      <trkpt lat="44.21787" lon="4.47869">
        <ele>83.9</ele>
        <time>2024-10-17T19:47:38.578Z</time>
      </trkpt>
      <trkpt lat="44.21787" lon="4.47868">
        <ele>83.4</ele>
        <time>2024-10-17T19:47:37.578Z</time>
      </trkpt>
      <trkpt lat="44.21786" lon="4.47866">
        <ele>83.4</ele>
        <time>2024-10-17T19:47:36.578Z</time>
      </trkpt>
      <trkpt lat="44.21786" lon="4.47866">
        <ele>83.5</ele>
        <time>2024-10-17T19:47:35.578Z</time>
      </trkpt>
      <trkpt lat="44.21787" lon="4.47865">
        <ele>83.5</ele>
        <time>2024-10-17T19:47:34.578Z</time>
      </trkpt>
      <trkpt lat="44.21787" lon="4.47863">
        <ele>83</ele>
        <time>2024-10-17T19:47:33.578Z</time>
      </trkpt>
      <trkpt lat="44.21787" lon="4.47862">
        <ele>83</ele>
        <time>2024-10-17T19:47:32.578Z</time>
      </trkpt>
      <trkpt lat="44.21788" lon="4.4786">
        <ele>83</ele>
        <time>2024-10-17T19:47:31.578Z</time>
      </trkpt>
      <trkpt lat="44.21788" lon="4.47859">
        <ele>82.6</ele>
        <time>2024-10-17T19:47:30.578Z</time>
      </trkpt>
      <trkpt lat="44.21788" lon="4.47859">
        <ele>82.6</ele>
        <time>2024-10-17T19:47:29.578Z</time>
      </trkpt>
      <trkpt lat="44.21789" lon="4.47859">
        <ele>82.6</ele>
        <time>2024-10-17T19:47:28.578Z</time>
      </trkpt>
      <trkpt lat="44.2179" lon="4.47859">
        <ele>82.8</ele>
        <time>2024-10-17T19:47:27.578Z</time>
      </trkpt>
      <trkpt lat="44.2179" lon="4.47859">
        <ele>82.8</ele>
        <time>2024-10-17T19:47:26.578Z</time>
      </trkpt>
      <trkpt lat="44.2179" lon="4.4786">
        <ele>82.8</ele>
        <time>2024-10-17T19:47:25.578Z</time>
      </trkpt>
      <trkpt lat="44.2179" lon="4.4786">
        <ele>82.8</ele>
        <time>2024-10-17T19:47:24.578Z</time>
      </trkpt>
      <trkpt lat="44.2179" lon="4.4786">
        <ele>82.8</ele>
        <time>2024-10-17T19:47:23.578Z</time>
      </trkpt>
      <trkpt lat="44.2179" lon="4.4786">
        <ele>82.8</ele>
        <time>2024-10-17T19:47:22.578Z</time>
      </trkpt>
      <trkpt lat="44.21789" lon="4.4786">
        <ele>82.8</ele>
        <time>2024-10-17T19:47:21.578Z</time>
      </trkpt>
      <trkpt lat="44.21789" lon="4.4786">
        <ele>82.8</ele>
        <time>2024-10-17T19:47:20.578Z</time>
      </trkpt>
      <trkpt lat="44.21789" lon="4.47859">
        <ele>82.6</ele>
        <time>2024-10-17T19:47:19.578Z</time>
      </trkpt>
      <trkpt lat="44.21789" lon="4.47858">
        <ele>82.7</ele>
        <time>2024-10-17T19:47:18.578Z</time>
      </trkpt>
      <trkpt lat="44.21789" lon="4.47857">
        <ele>82.7</ele>
        <time>2024-10-17T19:47:17.578Z</time>
      </trkpt>
      <trkpt lat="44.21789" lon="4.47857">
        <ele>82.9</ele>
        <time>2024-10-17T19:47:16.578Z</time>
      </trkpt>
      <trkpt lat="44.2179" lon="4.47856">
        <ele>82.5</ele>
        <time>2024-10-17T19:47:15.578Z</time>
      </trkpt>
      <trkpt lat="44.2179" lon="4.47854">
        <ele>82.5</ele>
        <time>2024-10-17T19:47:14.578Z</time>
      </trkpt>
      <trkpt lat="44.21791" lon="4.47853">
        <ele>82.5</ele>
        <time>2024-10-17T19:47:12.578Z</time>
      </trkpt>
      <trkpt lat="44.21791" lon="4.47853">
        <ele>82.5</ele>
        <time>2024-10-17T19:47:11.578Z</time>
      </trkpt>
      <trkpt lat="44.21791" lon="4.47853">
        <ele>82.5</ele>
        <time>2024-10-17T19:47:10.578Z</time>
      </trkpt>
      <trkpt lat="44.21791" lon="4.47853">
        <ele>82.5</ele>
        <time>2024-10-17T19:47:09.578Z</time>
      </trkpt>
      <trkpt lat="44.21791" lon="4.47853">
        <ele>82.5</ele>
        <time>2024-10-17T19:47:08.578Z</time>
      </trkpt>
      <trkpt lat="44.21791" lon="4.47853">
        <ele>82.5</ele>
        <time>2024-10-17T19:47:07.578Z</time>
      </trkpt>
      <trkpt lat="44.21791" lon="4.47853">
        <ele>82.5</ele>
        <time>2024-10-17T19:47:06.578Z</time>
      </trkpt>
      <trkpt lat="44.21791" lon="4.47853">
        <ele>82.5</ele>
        <time>2024-10-17T19:47:05.578Z</time>
      </trkpt>
      <trkpt lat="44.21792" lon="4.47853">
        <ele>82.5</ele>
        <time>2024-10-17T19:47:04.578Z</time>
      </trkpt>
      <trkpt lat="44.21792" lon="4.47853">
        <ele>82.5</ele>
        <time>2024-10-17T19:47:03.578Z</time>
      </trkpt>
      <trkpt lat="44.21792" lon="4.47853">
        <ele>82.7</ele>
        <time>2024-10-17T19:47:02.578Z</time>
      </trkpt>
      <trkpt lat="44.21792" lon="4.47852">
        <ele>82.5</ele>
        <time>2024-10-17T19:47:01.578Z</time>
      </trkpt>
      <trkpt lat="44.21792" lon="4.47851">
        <ele>82.4</ele>
        <time>2024-10-17T19:47:00.578Z</time>
      </trkpt>
      <trkpt lat="44.21793" lon="4.4785">
        <ele>82.4</ele>
        <time>2024-10-17T19:46:59.578Z</time>
      </trkpt>
      <trkpt lat="44.21793" lon="4.47848">
        <ele>82.4</ele>
        <time>2024-10-17T19:46:58.578Z</time>
      </trkpt>
      <trkpt lat="44.21793" lon="4.47847">
        <ele>82.2</ele>
        <time>2024-10-17T19:46:57.578Z</time>
      </trkpt>
      <trkpt lat="44.21793" lon="4.47846">
        <ele>82.2</ele>
        <time>2024-10-17T19:46:56.578Z</time>
      </trkpt>
      <trkpt lat="44.21793" lon="4.47845">
        <ele>82.2</ele>
        <time>2024-10-17T19:46:55.578Z</time>
      </trkpt>
      <trkpt lat="44.21793" lon="4.47844">
        <ele>82.2</ele>
        <time>2024-10-17T19:46:54.578Z</time>
      </trkpt>
      <trkpt lat="44.21792" lon="4.47844">
        <ele>82</ele>
        <time>2024-10-17T19:46:53.578Z</time>
      </trkpt>
      <trkpt lat="44.21792" lon="4.47843">
        <ele>82</ele>
        <time>2024-10-17T19:46:52.578Z</time>
      </trkpt>
      <trkpt lat="44.21792" lon="4.47843">
        <ele>82.1</ele>
        <time>2024-10-17T19:46:51.578Z</time>
      </trkpt>
      <trkpt lat="44.21793" lon="4.47842">
        <ele>82.1</ele>
        <time>2024-10-17T19:46:50.578Z</time>
      </trkpt>
      <trkpt lat="44.21796" lon="4.4784">
        <ele>82.3</ele>
        <time>2024-10-17T19:46:49.578Z</time>
      </trkpt>
      <trkpt lat="44.21799" lon="4.47837">
        <ele>82.2</ele>
        <time>2024-10-17T19:46:48.578Z</time>
      </trkpt>
      <trkpt lat="44.21801" lon="4.47834">
        <ele>82.3</ele>
        <time>2024-10-17T19:46:47.578Z</time>
      </trkpt>
      <trkpt lat="44.21805" lon="4.4783">
        <ele>82.3</ele>
        <time>2024-10-17T19:46:46.578Z</time>
      </trkpt>
      <trkpt lat="44.2181" lon="4.47826">
        <ele>82.4</ele>
        <time>2024-10-17T19:46:45.578Z</time>
      </trkpt>
      <trkpt lat="44.21815" lon="4.47822">
        <ele>82.3</ele>
        <time>2024-10-17T19:46:44.578Z</time>
      </trkpt>
      <trkpt lat="44.21818" lon="4.47819">
        <ele>82.2</ele>
        <time>2024-10-17T19:46:43.578Z</time>
      </trkpt>
      <trkpt lat="44.21822" lon="4.47818">
        <ele>82.4</ele>
        <time>2024-10-17T19:46:42.578Z</time>
      </trkpt>
      <trkpt lat="44.21823" lon="4.47817">
        <ele>82.5</ele>
        <time>2024-10-17T19:46:41.578Z</time>
      </trkpt>
      <trkpt lat="44.21827" lon="4.47816">
        <ele>82.7</ele>
        <time>2024-10-17T19:46:40.578Z</time>
      </trkpt>
      <trkpt lat="44.21829" lon="4.47815">
        <ele>82.7</ele>
        <time>2024-10-17T19:46:39.578Z</time>
      </trkpt>
      <trkpt lat="44.2183" lon="4.47815">
        <ele>83</ele>
        <time>2024-10-17T19:46:38.578Z</time>
      </trkpt>
      <trkpt lat="44.21831" lon="4.47815">
        <ele>83.1</ele>
        <time>2024-10-17T19:46:37.578Z</time>
      </trkpt>
      <trkpt lat="44.21831" lon="4.47814">
        <ele>83.1</ele>
        <time>2024-10-17T19:46:36.578Z</time>
      </trkpt>
      <trkpt lat="44.21832" lon="4.47814">
        <ele>83.1</ele>
        <time>2024-10-17T19:46:35.578Z</time>
      </trkpt>
      <trkpt lat="44.21832" lon="4.47814">
        <ele>83.1</ele>
        <time>2024-10-17T19:46:34.578Z</time>
      </trkpt>
      <trkpt lat="44.21833" lon="4.47814">
        <ele>83.4</ele>
        <time>2024-10-17T19:46:33.578Z</time>
      </trkpt>
      <trkpt lat="44.21833" lon="4.47814">
        <ele>83.4</ele>
        <time>2024-10-17T19:46:32.578Z</time>
      </trkpt>
      <trkpt lat="44.21833" lon="4.47814">
        <ele>83.4</ele>
        <time>2024-10-17T19:46:31.578Z</time>
      </trkpt>
      <trkpt lat="44.21833" lon="4.47814">
        <ele>83.4</ele>
        <time>2024-10-17T19:46:30.578Z</time>
      </trkpt>
      <trkpt lat="44.21833" lon="4.47814">
        <ele>83.4</ele>
        <time>2024-10-17T19:46:29.578Z</time>
      </trkpt>
      <trkpt lat="44.21833" lon="4.47814">
        <ele>83.4</ele>
        <time>2024-10-17T19:46:28.578Z</time>
      </trkpt>
      <trkpt lat="44.21833" lon="4.47814">
        <ele>83.4</ele>
        <time>2024-10-17T19:46:27.578Z</time>
      </trkpt>
      <trkpt lat="44.21834" lon="4.47814">
        <ele>83.4</ele>
        <time>2024-10-17T19:46:26.578Z</time>
      </trkpt>
      <trkpt lat="44.21834" lon="4.47814">
        <ele>83.4</ele>
        <time>2024-10-17T19:46:25.578Z</time>
      </trkpt>
      <trkpt lat="44.21833" lon="4.47815">
        <ele>83.4</ele>
        <time>2024-10-17T19:46:24.578Z</time>
      </trkpt>
      <trkpt lat="44.21834" lon="4.47814">
        <ele>83.4</ele>
        <time>2024-10-17T19:46:23.578Z</time>
      </trkpt>
      <trkpt lat="44.21834" lon="4.47813">
        <ele>83.2</ele>
        <time>2024-10-17T19:46:22.578Z</time>
      </trkpt>
      <trkpt lat="44.21835" lon="4.47812">
        <ele>83.2</ele>
        <time>2024-10-17T19:46:21.578Z</time>
      </trkpt>
      <trkpt lat="44.21836" lon="4.47812">
        <ele>83.4</ele>
        <time>2024-10-17T19:46:20.578Z</time>
      </trkpt>
      <trkpt lat="44.21836" lon="4.47811">
        <ele>83.4</ele>
        <time>2024-10-17T19:46:19.578Z</time>
      </trkpt>
      <trkpt lat="44.21836" lon="4.47811">
        <ele>83.4</ele>
        <time>2024-10-17T19:46:18.578Z</time>
      </trkpt>
      <trkpt lat="44.21836" lon="4.47811">
        <ele>83.5</ele>
        <time>2024-10-17T19:46:17.578Z</time>
      </trkpt>
      <trkpt lat="44.21836" lon="4.47811">
        <ele>83.5</ele>
        <time>2024-10-17T19:46:16.578Z</time>
      </trkpt>
      <trkpt lat="44.21836" lon="4.47811">
        <ele>83.5</ele>
        <time>2024-10-17T19:46:15.578Z</time>
      </trkpt>
      <trkpt lat="44.21836" lon="4.47811">
        <ele>83.5</ele>
        <time>2024-10-17T19:46:14.578Z</time>
      </trkpt>
      <trkpt lat="44.21836" lon="4.4781">
        <ele>83.5</ele>
        <time>2024-10-17T19:46:13.578Z</time>
      </trkpt>
      <trkpt lat="44.21837" lon="4.47809">
        <ele>83.1</ele>
        <time>2024-10-17T19:46:12.578Z</time>
      </trkpt>
      <trkpt lat="44.21838" lon="4.47807">
        <ele>83.1</ele>
        <time>2024-10-17T19:46:11.578Z</time>
      </trkpt>
      <trkpt lat="44.21839" lon="4.47806">
        <ele>83.3</ele>
        <time>2024-10-17T19:46:10.578Z</time>
      </trkpt>
      <trkpt lat="44.21841" lon="4.47806">
        <ele>83.3</ele>
        <time>2024-10-17T19:46:09.578Z</time>
      </trkpt>
      <trkpt lat="44.21842" lon="4.47806">
        <ele>83.6</ele>
        <time>2024-10-17T19:46:08.578Z</time>
      </trkpt>
      <trkpt lat="44.21843" lon="4.47807">
        <ele>83.6</ele>
        <time>2024-10-17T19:46:07.578Z</time>
      </trkpt>
      <trkpt lat="44.21844" lon="4.47808">
        <ele>83.6</ele>
        <time>2024-10-17T19:46:06.578Z</time>
      </trkpt>
      <trkpt lat="44.21845" lon="4.47808">
        <ele>83.8</ele>
        <time>2024-10-17T19:46:05.578Z</time>
      </trkpt>
      <trkpt lat="44.21846" lon="4.47809">
        <ele>84.3</ele>
        <time>2024-10-17T19:46:04.578Z</time>
      </trkpt>
      <trkpt lat="44.21847" lon="4.4781">
        <ele>84.3</ele>
        <time>2024-10-17T19:46:03.578Z</time>
      </trkpt>
      <trkpt lat="44.21848" lon="4.47812">
        <ele>84.5</ele>
        <time>2024-10-17T19:46:02.578Z</time>
      </trkpt>
      <trkpt lat="44.21849" lon="4.47813">
        <ele>84.5</ele>
        <time>2024-10-17T19:46:01.578Z</time>
      </trkpt>
      <trkpt lat="44.21849" lon="4.47814">
        <ele>84.9</ele>
        <time>2024-10-17T19:46:00.578Z</time>
      </trkpt>
      <trkpt lat="44.21851" lon="4.47814">
        <ele>85.1</ele>
        <time>2024-10-17T19:45:59.578Z</time>
      </trkpt>
      <trkpt lat="44.21852" lon="4.47815">
        <ele>85.1</ele>
        <time>2024-10-17T19:45:58.578Z</time>
      </trkpt>
      <trkpt lat="44.21855" lon="4.47814">
        <ele>85.2</ele>
        <time>2024-10-17T19:45:57.578Z</time>
      </trkpt>
      <trkpt lat="44.21856" lon="4.47813">
        <ele>84.9</ele>
        <time>2024-10-17T19:45:56.578Z</time>
      </trkpt>
      <trkpt lat="44.21858" lon="4.4781">
        <ele>85</ele>
        <time>2024-10-17T19:45:55.578Z</time>
      </trkpt>
      <trkpt lat="44.21858" lon="4.47807">
        <ele>84.7</ele>
        <time>2024-10-17T19:45:54.578Z</time>
      </trkpt>
      <trkpt lat="44.21858" lon="4.47805">
        <ele>84.7</ele>
        <time>2024-10-17T19:45:53.578Z</time>
      </trkpt>
      <trkpt lat="44.21857" lon="4.47802">
        <ele>84.4</ele>
        <time>2024-10-17T19:45:52.578Z</time>
      </trkpt>
      <trkpt lat="44.21857" lon="4.478">
        <ele>84.1</ele>
        <time>2024-10-17T19:45:51.578Z</time>
      </trkpt>
      <trkpt lat="44.21858" lon="4.47798">
        <ele>84</ele>
        <time>2024-10-17T19:45:50.578Z</time>
      </trkpt>
      <trkpt lat="44.21858" lon="4.47797">
        <ele>84.1</ele>
        <time>2024-10-17T19:45:49.578Z</time>
      </trkpt>
      <trkpt lat="44.21859" lon="4.47796">
        <ele>84.1</ele>
        <time>2024-10-17T19:45:48.578Z</time>
      </trkpt>
      <trkpt lat="44.2186" lon="4.47795">
        <ele>83.7</ele>
        <time>2024-10-17T19:45:47.578Z</time>
      </trkpt>
      <trkpt lat="44.21862" lon="4.47794">
        <ele>84.1</ele>
        <time>2024-10-17T19:45:46.578Z</time>
      </trkpt>
      <trkpt lat="44.21863" lon="4.47793">
        <ele>84.1</ele>
        <time>2024-10-17T19:45:45.578Z</time>
      </trkpt>
      <trkpt lat="44.21864" lon="4.47792">
        <ele>84.4</ele>
        <time>2024-10-17T19:45:44.578Z</time>
      </trkpt>
      <trkpt lat="44.21865" lon="4.47792">
        <ele>84.4</ele>
        <time>2024-10-17T19:45:43.578Z</time>
      </trkpt>
      <trkpt lat="44.21866" lon="4.47791">
        <ele>84.1</ele>
        <time>2024-10-17T19:45:42.578Z</time>
      </trkpt>
      <trkpt lat="44.21868" lon="4.4779">
        <ele>84.5</ele>
        <time>2024-10-17T19:45:41.578Z</time>
      </trkpt>
      <trkpt lat="44.21869" lon="4.47789">
        <ele>84.5</ele>
        <time>2024-10-17T19:45:40.578Z</time>
      </trkpt>
      <trkpt lat="44.21869" lon="4.47788">
        <ele>84.5</ele>
        <time>2024-10-17T19:45:39.578Z</time>
      </trkpt>
      <trkpt lat="44.21871" lon="4.47787">
        <ele>84.4</ele>
        <time>2024-10-17T19:45:38.578Z</time>
      </trkpt>
      <trkpt lat="44.21872" lon="4.47787">
        <ele>84.4</ele>
        <time>2024-10-17T19:45:37.578Z</time>
      </trkpt>
      <trkpt lat="44.21873" lon="4.47788">
        <ele>85</ele>
        <time>2024-10-17T19:45:36.578Z</time>
      </trkpt>
      <trkpt lat="44.21875" lon="4.47788">
        <ele>85</ele>
        <time>2024-10-17T19:45:35.578Z</time>
      </trkpt>
      <trkpt lat="44.21875" lon="4.47788">
        <ele>85</ele>
        <time>2024-10-17T19:45:34.578Z</time>
      </trkpt>
      <trkpt lat="44.21875" lon="4.47786">
        <ele>84.7</ele>
        <time>2024-10-17T19:45:33.578Z</time>
      </trkpt>
      <trkpt lat="44.21875" lon="4.47785">
        <ele>84.7</ele>
        <time>2024-10-17T19:45:32.578Z</time>
      </trkpt>
      <trkpt lat="44.21875" lon="4.47783">
        <ele>84.2</ele>
        <time>2024-10-17T19:45:31.578Z</time>
      </trkpt>
      <trkpt lat="44.21874" lon="4.47781">
        <ele>84.2</ele>
        <time>2024-10-17T19:45:30.578Z</time>
      </trkpt>
      <trkpt lat="44.21874" lon="4.4778">
        <ele>84.2</ele>
        <time>2024-10-17T19:45:29.578Z</time>
      </trkpt>
      <trkpt lat="44.21872" lon="4.47776">
        <ele>83.5</ele>
        <time>2024-10-17T19:45:28.578Z</time>
      </trkpt>
      <trkpt lat="44.21871" lon="4.47774">
        <ele>83.1</ele>
        <time>2024-10-17T19:45:27.578Z</time>
      </trkpt>
      <trkpt lat="44.2187" lon="4.47773">
        <ele>83.1</ele>
        <time>2024-10-17T19:45:26.578Z</time>
      </trkpt>
      <trkpt lat="44.21868" lon="4.47772">
        <ele>83</ele>
        <time>2024-10-17T19:45:25.578Z</time>
      </trkpt>
      <trkpt lat="44.21867" lon="4.47772">
        <ele>83</ele>
        <time>2024-10-17T19:45:24.578Z</time>
      </trkpt>
      <trkpt lat="44.21867" lon="4.47771">
        <ele>83</ele>
        <time>2024-10-17T19:45:23.578Z</time>
      </trkpt>
      <trkpt lat="44.21866" lon="4.4777">
        <ele>82.6</ele>
        <time>2024-10-17T19:45:22.578Z</time>
      </trkpt>
      <trkpt lat="44.21865" lon="4.47769">
        <ele>82.6</ele>
        <time>2024-10-17T19:45:21.578Z</time>
      </trkpt>
      <trkpt lat="44.21865" lon="4.47769">
        <ele>82.6</ele>
        <time>2024-10-17T19:45:20.578Z</time>
      </trkpt>
      <trkpt lat="44.21865" lon="4.47767">
        <ele>82.6</ele>
        <time>2024-10-17T19:45:19.578Z</time>
      </trkpt>
      <trkpt lat="44.21865" lon="4.47767">
        <ele>82.7</ele>
        <time>2024-10-17T19:45:18.578Z</time>
      </trkpt>
      <trkpt lat="44.21865" lon="4.47766">
        <ele>82.7</ele>
        <time>2024-10-17T19:45:17.578Z</time>
      </trkpt>
      <trkpt lat="44.21866" lon="4.47765">
        <ele>82.4</ele>
        <time>2024-10-17T19:45:16.578Z</time>
      </trkpt>
      <trkpt lat="44.21866" lon="4.47765">
        <ele>82.4</ele>
        <time>2024-10-17T19:45:15.578Z</time>
      </trkpt>
      <trkpt lat="44.21866" lon="4.47764">
        <ele>82.4</ele>
        <time>2024-10-17T19:45:14.578Z</time>
      </trkpt>
      <trkpt lat="44.21865" lon="4.47764">
        <ele>82.4</ele>
        <time>2024-10-17T19:45:13.578Z</time>
      </trkpt>
      <trkpt lat="44.21866" lon="4.47764">
        <ele>82.4</ele>
        <time>2024-10-17T19:45:12.578Z</time>
      </trkpt>
      <trkpt lat="44.21866" lon="4.47762">
        <ele>82.4</ele>
        <time>2024-10-17T19:45:11.578Z</time>
      </trkpt>
      <trkpt lat="44.21866" lon="4.47761">
        <ele>82.3</ele>
        <time>2024-10-17T19:45:10.578Z</time>
      </trkpt>
      <trkpt lat="44.21866" lon="4.47759">
        <ele>82.3</ele>
        <time>2024-10-17T19:45:09.578Z</time>
      </trkpt>
      <trkpt lat="44.21866" lon="4.47758">
        <ele>82.3</ele>
        <time>2024-10-17T19:45:08.578Z</time>
      </trkpt>
      <trkpt lat="44.21866" lon="4.47758">
        <ele>82.3</ele>
        <time>2024-10-17T19:45:07.578Z</time>
      </trkpt>
      <trkpt lat="44.21867" lon="4.47759">
        <ele>82.3</ele>
        <time>2024-10-17T19:45:06.578Z</time>
      </trkpt>
      <trkpt lat="44.21868" lon="4.47761">
        <ele>82.3</ele>
        <time>2024-10-17T19:45:05.578Z</time>
      </trkpt>
      <trkpt lat="44.21869" lon="4.47762">
        <ele>82.5</ele>
        <time>2024-10-17T19:45:04.578Z</time>
      </trkpt>
      <trkpt lat="44.21871" lon="4.47763">
        <ele>82.5</ele>
        <time>2024-10-17T19:45:03.578Z</time>
      </trkpt>
      <trkpt lat="44.21873" lon="4.47762">
        <ele>82.7</ele>
        <time>2024-10-17T19:45:02.578Z</time>
      </trkpt>
      <trkpt lat="44.21874" lon="4.47761">
        <ele>82.5</ele>
        <time>2024-10-17T19:45:01.578Z</time>
      </trkpt>
      <trkpt lat="44.21875" lon="4.47759">
        <ele>82.5</ele>
        <time>2024-10-17T19:45:00.578Z</time>
      </trkpt>
      <trkpt lat="44.21876" lon="4.47758">
        <ele>82.6</ele>
        <time>2024-10-17T19:44:59.578Z</time>
      </trkpt>
      <trkpt lat="44.21877" lon="4.47757">
        <ele>82.7</ele>
        <time>2024-10-17T19:44:58.578Z</time>
      </trkpt>
      <trkpt lat="44.21878" lon="4.47755">
        <ele>82.5</ele>
        <time>2024-10-17T19:44:57.578Z</time>
      </trkpt>
      <trkpt lat="44.21879" lon="4.47755">
        <ele>82.7</ele>
        <time>2024-10-17T19:44:56.578Z</time>
      </trkpt>
      <trkpt lat="44.21879" lon="4.47756">
        <ele>82.7</ele>
        <time>2024-10-17T19:44:55.578Z</time>
      </trkpt>
      <trkpt lat="44.2188" lon="4.47756">
        <ele>82.7</ele>
        <time>2024-10-17T19:44:54.578Z</time>
      </trkpt>
      <trkpt lat="44.21881" lon="4.47756">
        <ele>82.8</ele>
        <time>2024-10-17T19:44:53.578Z</time>
      </trkpt>
      <trkpt lat="44.21882" lon="4.47756">
        <ele>83</ele>
        <time>2024-10-17T19:44:52.578Z</time>
      </trkpt>
      <trkpt lat="44.21883" lon="4.47757">
        <ele>83</ele>
        <time>2024-10-17T19:44:51.578Z</time>
      </trkpt>
      <trkpt lat="44.21884" lon="4.47758">
        <ele>83.2</ele>
        <time>2024-10-17T19:44:50.578Z</time>
      </trkpt>
      <trkpt lat="44.21885" lon="4.47759">
        <ele>83.4</ele>
        <time>2024-10-17T19:44:49.578Z</time>
      </trkpt>
      <trkpt lat="44.21886" lon="4.4776">
        <ele>83.4</ele>
        <time>2024-10-17T19:44:48.578Z</time>
      </trkpt>
      <trkpt lat="44.21886" lon="4.47761">
        <ele>83.5</ele>
        <time>2024-10-17T19:44:47.578Z</time>
      </trkpt>
      <trkpt lat="44.21886" lon="4.47762">
        <ele>83.7</ele>
        <time>2024-10-17T19:44:46.578Z</time>
      </trkpt>
      <trkpt lat="44.21887" lon="4.47763">
        <ele>83.7</ele>
        <time>2024-10-17T19:44:45.578Z</time>
      </trkpt>
      <trkpt lat="44.21888" lon="4.47764">
        <ele>84</ele>
        <time>2024-10-17T19:44:44.578Z</time>
      </trkpt>
      <trkpt lat="44.21889" lon="4.47764">
        <ele>84</ele>
        <time>2024-10-17T19:44:43.578Z</time>
      </trkpt>
      <trkpt lat="44.21889" lon="4.47763">
        <ele>84</ele>
        <time>2024-10-17T19:44:42.578Z</time>
      </trkpt>
      <trkpt lat="44.2189" lon="4.47762">
        <ele>84.1</ele>
        <time>2024-10-17T19:44:41.578Z</time>
      </trkpt>
      <trkpt lat="44.2189" lon="4.4776">
        <ele>83.8</ele>
        <time>2024-10-17T19:44:40.578Z</time>
      </trkpt>
      <trkpt lat="44.2189" lon="4.47759">
        <ele>83.8</ele>
        <time>2024-10-17T19:44:39.578Z</time>
      </trkpt>
      <trkpt lat="44.2189" lon="4.47757">
        <ele>83.8</ele>
        <time>2024-10-17T19:44:38.578Z</time>
      </trkpt>
      <trkpt lat="44.21891" lon="4.47755">
        <ele>83.5</ele>
        <time>2024-10-17T19:44:37.578Z</time>
      </trkpt>
      <trkpt lat="44.2189" lon="4.47753">
        <ele>83.3</ele>
        <time>2024-10-17T19:44:36.578Z</time>
      </trkpt>
      <trkpt lat="44.2189" lon="4.4775">
        <ele>83.3</ele>
        <time>2024-10-17T19:44:35.578Z</time>
      </trkpt>
      <trkpt lat="44.2189" lon="4.47749">
        <ele>83.3</ele>
        <time>2024-10-17T19:44:34.578Z</time>
      </trkpt>
      <trkpt lat="44.2189" lon="4.47748">
        <ele>83.1</ele>
        <time>2024-10-17T19:44:33.578Z</time>
      </trkpt>
      <trkpt lat="44.21889" lon="4.47745">
        <ele>83.1</ele>
        <time>2024-10-17T19:44:32.578Z</time>
      </trkpt>
      <trkpt lat="44.21889" lon="4.47744">
        <ele>83</ele>
        <time>2024-10-17T19:44:31.578Z</time>
      </trkpt>
      <trkpt lat="44.21888" lon="4.4774">
        <ele>82.9</ele>
        <time>2024-10-17T19:44:30.578Z</time>
      </trkpt>
      <trkpt lat="44.21887" lon="4.47739">
        <ele>82.9</ele>
        <time>2024-10-17T19:44:29.578Z</time>
      </trkpt>
      <trkpt lat="44.21886" lon="4.47735">
        <ele>82.8</ele>
        <time>2024-10-17T19:44:28.578Z</time>
      </trkpt>
      <trkpt lat="44.21887" lon="4.47733">
        <ele>82.8</ele>
        <time>2024-10-17T19:44:27.578Z</time>
      </trkpt>
      <trkpt lat="44.21887" lon="4.47731">
        <ele>82.7</ele>
        <time>2024-10-17T19:44:26.578Z</time>
      </trkpt>
      <trkpt lat="44.21887" lon="4.4773">
        <ele>82.7</ele>
        <time>2024-10-17T19:44:25.578Z</time>
      </trkpt>
      <trkpt lat="44.21888" lon="4.47729">
        <ele>82.6</ele>
        <time>2024-10-17T19:44:24.578Z</time>
      </trkpt>
      <trkpt lat="44.21889" lon="4.47729">
        <ele>82.6</ele>
        <time>2024-10-17T19:44:23.578Z</time>
      </trkpt>
      <trkpt lat="44.2189" lon="4.4773">
        <ele>82.6</ele>
        <time>2024-10-17T19:44:22.578Z</time>
      </trkpt>
      <trkpt lat="44.21891" lon="4.47732">
        <ele>82.6</ele>
        <time>2024-10-17T19:44:21.578Z</time>
      </trkpt>
      <trkpt lat="44.21891" lon="4.47733">
        <ele>82.6</ele>
        <time>2024-10-17T19:44:20.578Z</time>
      </trkpt>
      <trkpt lat="44.21892" lon="4.47735">
        <ele>82.5</ele>
        <time>2024-10-17T19:44:19.578Z</time>
      </trkpt>
      <trkpt lat="44.21893" lon="4.47737">
        <ele>82.5</ele>
        <time>2024-10-17T19:44:18.578Z</time>
      </trkpt>
      <trkpt lat="44.21894" lon="4.4774">
        <ele>82.5</ele>
        <time>2024-10-17T19:44:17.578Z</time>
      </trkpt>
      <trkpt lat="44.21896" lon="4.47741">
        <ele>82.5</ele>
        <time>2024-10-17T19:44:16.578Z</time>
      </trkpt>
      <trkpt lat="44.21897" lon="4.47741">
        <ele>82.5</ele>
        <time>2024-10-17T19:44:15.578Z</time>
      </trkpt>
      <trkpt lat="44.21897" lon="4.47741">
        <ele>82.5</ele>
        <time>2024-10-17T19:44:14.578Z</time>
      </trkpt>
      <trkpt lat="44.21899" lon="4.47741">
        <ele>82.4</ele>
        <time>2024-10-17T19:44:13.578Z</time>
      </trkpt>
      <trkpt lat="44.219" lon="4.47742">
        <ele>82.4</ele>
        <time>2024-10-17T19:44:12.578Z</time>
      </trkpt>
      <trkpt lat="44.21901" lon="4.47743">
        <ele>82.4</ele>
        <time>2024-10-17T19:44:11.578Z</time>
      </trkpt>
      <trkpt lat="44.21902" lon="4.47744">
        <ele>82.4</ele>
        <time>2024-10-17T19:44:10.578Z</time>
      </trkpt>
      <trkpt lat="44.21904" lon="4.47745">
        <ele>82.4</ele>
        <time>2024-10-17T19:44:09.578Z</time>
      </trkpt>
      <trkpt lat="44.21905" lon="4.47746">
        <ele>82.3</ele>
        <time>2024-10-17T19:44:08.578Z</time>
      </trkpt>
      <trkpt lat="44.21905" lon="4.47747">
        <ele>82.3</ele>
        <time>2024-10-17T19:44:07.578Z</time>
      </trkpt>
      <trkpt lat="44.21906" lon="4.47748">
        <ele>82.2</ele>
        <time>2024-10-17T19:44:06.578Z</time>
      </trkpt>
      <trkpt lat="44.21906" lon="4.47748">
        <ele>82.2</ele>
        <time>2024-10-17T19:44:05.578Z</time>
      </trkpt>
      <trkpt lat="44.21906" lon="4.47748">
        <ele>82.2</ele>
        <time>2024-10-17T19:44:04.578Z</time>
      </trkpt>
      <trkpt lat="44.21906" lon="4.47748">
        <ele>82.2</ele>
        <time>2024-10-17T19:44:03.578Z</time>
      </trkpt>
      <trkpt lat="44.21906" lon="4.47748">
        <ele>82.2</ele>
        <time>2024-10-17T19:44:02.578Z</time>
      </trkpt>
      <trkpt lat="44.21906" lon="4.47749">
        <ele>82.2</ele>
        <time>2024-10-17T19:44:01.578Z</time>
      </trkpt>
      <trkpt lat="44.21906" lon="4.47749">
        <ele>82.2</ele>
        <time>2024-10-17T19:44:00.578Z</time>
      </trkpt>
      <trkpt lat="44.21906" lon="4.4775">
        <ele>82.2</ele>
        <time>2024-10-17T19:43:59.578Z</time>
      </trkpt>
      <trkpt lat="44.21906" lon="4.4775">
        <ele>82.2</ele>
        <time>2024-10-17T19:43:58.578Z</time>
      </trkpt>
      <trkpt lat="44.21907" lon="4.4775">
        <ele>82.2</ele>
        <time>2024-10-17T19:43:57.578Z</time>
      </trkpt>
      <trkpt lat="44.21907" lon="4.4775">
        <ele>82.1</ele>
        <time>2024-10-17T19:43:56.578Z</time>
      </trkpt>
      <trkpt lat="44.21907" lon="4.47751">
        <ele>82.1</ele>
        <time>2024-10-17T19:43:55.578Z</time>
      </trkpt>
      <trkpt lat="44.21907" lon="4.47751">
        <ele>82.1</ele>
        <time>2024-10-17T19:43:54.578Z</time>
      </trkpt>
      <trkpt lat="44.21908" lon="4.47751">
        <ele>82.1</ele>
        <time>2024-10-17T19:43:53.578Z</time>
      </trkpt>
      <trkpt lat="44.21909" lon="4.47751">
        <ele>82.1</ele>
        <time>2024-10-17T19:43:52.578Z</time>
      </trkpt>
      <trkpt lat="44.21909" lon="4.47752">
        <ele>82</ele>
        <time>2024-10-17T19:43:51.578Z</time>
      </trkpt>
      <trkpt lat="44.21911" lon="4.47753">
        <ele>82</ele>
        <time>2024-10-17T19:43:50.578Z</time>
      </trkpt>
      <trkpt lat="44.21912" lon="4.47754">
        <ele>81.9</ele>
        <time>2024-10-17T19:43:49.578Z</time>
      </trkpt>
      <trkpt lat="44.21913" lon="4.47755">
        <ele>81.8</ele>
        <time>2024-10-17T19:43:48.578Z</time>
      </trkpt>
      <trkpt lat="44.21916" lon="4.47755">
        <ele>81.7</ele>
        <time>2024-10-17T19:43:47.578Z</time>
      </trkpt>
      <trkpt lat="44.21918" lon="4.47755">
        <ele>81.7</ele>
        <time>2024-10-17T19:43:46.578Z</time>
      </trkpt>
      <trkpt lat="44.21919" lon="4.47754">
        <ele>81.6</ele>
        <time>2024-10-17T19:43:45.578Z</time>
      </trkpt>
      <trkpt lat="44.21921" lon="4.47755">
        <ele>81.6</ele>
        <time>2024-10-17T19:43:44.578Z</time>
      </trkpt>
      <trkpt lat="44.21922" lon="4.47756">
        <ele>81.5</ele>
        <time>2024-10-17T19:43:43.578Z</time>
      </trkpt>
      <trkpt lat="44.21923" lon="4.47757">
        <ele>81.5</ele>
        <time>2024-10-17T19:43:42.578Z</time>
      </trkpt>
      <trkpt lat="44.21925" lon="4.47758">
        <ele>81.4</ele>
        <time>2024-10-17T19:43:41.578Z</time>
      </trkpt>
      <trkpt lat="44.21927" lon="4.47759">
        <ele>81.3</ele>
        <time>2024-10-17T19:43:40.578Z</time>
      </trkpt>
      <trkpt lat="44.21928" lon="4.47761">
        <ele>81.3</ele>
        <time>2024-10-17T19:43:39.578Z</time>
      </trkpt>
      <trkpt lat="44.21929" lon="4.47762">
        <ele>81.2</ele>
        <time>2024-10-17T19:43:38.578Z</time>
      </trkpt>
      <trkpt lat="44.2193" lon="4.47764">
        <ele>81.2</ele>
        <time>2024-10-17T19:43:37.578Z</time>
      </trkpt>
      <trkpt lat="44.21932" lon="4.47765">
        <ele>81.1</ele>
        <time>2024-10-17T19:43:36.578Z</time>
      </trkpt>
      <trkpt lat="44.21933" lon="4.47767">
        <ele>81.1</ele>
        <time>2024-10-17T19:43:35.578Z</time>
      </trkpt>
      <trkpt lat="44.21934" lon="4.47768">
        <ele>81</ele>
        <time>2024-10-17T19:43:34.578Z</time>
      </trkpt>
      <trkpt lat="44.21936" lon="4.47771">
        <ele>80.9</ele>
        <time>2024-10-17T19:43:33.578Z</time>
      </trkpt>
      <trkpt lat="44.21937" lon="4.47772">
        <ele>80.9</ele>
        <time>2024-10-17T19:43:32.578Z</time>
      </trkpt>
      <trkpt lat="44.21938" lon="4.47773">
        <ele>80.9</ele>
        <time>2024-10-17T19:43:31.578Z</time>
      </trkpt>
      <trkpt lat="44.2194" lon="4.47775">
        <ele>80.8</ele>
        <time>2024-10-17T19:43:30.578Z</time>
      </trkpt>
      <trkpt lat="44.2194" lon="4.47775">
        <ele>80.8</ele>
        <time>2024-10-17T19:43:29.578Z</time>
      </trkpt>
      <trkpt lat="44.21941" lon="4.47776">
        <ele>80.8</ele>
        <time>2024-10-17T19:43:28.578Z</time>
      </trkpt>
      <trkpt lat="44.21942" lon="4.47776">
        <ele>80.8</ele>
        <time>2024-10-17T19:43:27.578Z</time>
      </trkpt>
      <trkpt lat="44.21942" lon="4.47776">
        <ele>80.8</ele>
        <time>2024-10-17T19:43:26.578Z</time>
      </trkpt>
      <trkpt lat="44.21941" lon="4.47776">
        <ele>80.8</ele>
        <time>2024-10-17T19:43:25.578Z</time>
      </trkpt>
      <trkpt lat="44.21941" lon="4.47776">
        <ele>80.8</ele>
        <time>2024-10-17T19:43:24.578Z</time>
      </trkpt>
      <trkpt lat="44.21941" lon="4.47776">
        <ele>80.8</ele>
        <time>2024-10-17T19:43:23.578Z</time>
      </trkpt>
      <trkpt lat="44.21941" lon="4.47776">
        <ele>80.8</ele>
        <time>2024-10-17T19:43:22.578Z</time>
      </trkpt>
      <trkpt lat="44.21941" lon="4.47776">
        <ele>80.7</ele>
        <time>2024-10-17T19:43:21.578Z</time>
      </trkpt>
      <trkpt lat="44.21941" lon="4.47776">
        <ele>80.7</ele>
        <time>2024-10-17T19:43:20.578Z</time>
      </trkpt>
      <trkpt lat="44.21941" lon="4.47777">
        <ele>80.7</ele>
        <time>2024-10-17T19:43:19.578Z</time>
      </trkpt>
      <trkpt lat="44.21942" lon="4.47778">
        <ele>80.7</ele>
        <time>2024-10-17T19:43:18.578Z</time>
      </trkpt>
      <trkpt lat="44.21942" lon="4.47778">
        <ele>80.7</ele>
        <time>2024-10-17T19:43:17.578Z</time>
      </trkpt>
      <trkpt lat="44.21942" lon="4.47778">
        <ele>80.7</ele>
        <time>2024-10-17T19:43:16.578Z</time>
      </trkpt>
      <trkpt lat="44.21942" lon="4.47778">
        <ele>80.7</ele>
        <time>2024-10-17T19:43:15.578Z</time>
      </trkpt>
      <trkpt lat="44.21942" lon="4.47778">
        <ele>80.7</ele>
        <time>2024-10-17T19:43:14.578Z</time>
      </trkpt>
      <trkpt lat="44.21942" lon="4.47779">
        <ele>80.7</ele>
        <time>2024-10-17T19:43:13.578Z</time>
      </trkpt>
      <trkpt lat="44.21943" lon="4.47779">
        <ele>80.7</ele>
        <time>2024-10-17T19:43:12.578Z</time>
      </trkpt>
      <trkpt lat="44.21944" lon="4.4778">
        <ele>80.7</ele>
        <time>2024-10-17T19:43:11.578Z</time>
      </trkpt>
      <trkpt lat="44.21944" lon="4.47781">
        <ele>80.6</ele>
        <time>2024-10-17T19:43:10.578Z</time>
      </trkpt>
      <trkpt lat="44.21945" lon="4.47782">
        <ele>80.6</ele>
        <time>2024-10-17T19:43:09.578Z</time>
      </trkpt>
      <trkpt lat="44.21946" lon="4.47782">
        <ele>80.6</ele>
        <time>2024-10-17T19:43:08.578Z</time>
      </trkpt>
      <trkpt lat="44.21948" lon="4.47784">
        <ele>80.6</ele>
        <time>2024-10-17T19:43:07.578Z</time>
      </trkpt>
      <trkpt lat="44.21949" lon="4.47786">
        <ele>80.6</ele>
        <time>2024-10-17T19:43:06.578Z</time>
      </trkpt>
      <trkpt lat="44.21949" lon="4.47787">
        <ele>80.5</ele>
        <time>2024-10-17T19:43:05.578Z</time>
      </trkpt>
      <trkpt lat="44.2195" lon="4.47788">
        <ele>80.5</ele>
        <time>2024-10-17T19:43:04.578Z</time>
      </trkpt>
      <trkpt lat="44.21952" lon="4.47791">
        <ele>80.5</ele>
        <time>2024-10-17T19:43:03.578Z</time>
      </trkpt>
      <trkpt lat="44.21952" lon="4.47792">
        <ele>80.5</ele>
        <time>2024-10-17T19:43:02.578Z</time>
      </trkpt>
      <trkpt lat="44.21955" lon="4.47796">
        <ele>80.4</ele>
        <time>2024-10-17T19:43:01.578Z</time>
      </trkpt>
      <trkpt lat="44.21955" lon="4.47797">
        <ele>80.4</ele>
        <time>2024-10-17T19:43:00.578Z</time>
      </trkpt>
      <trkpt lat="44.21958" lon="4.47799">
        <ele>80.4</ele>
        <time>2024-10-17T19:42:59.578Z</time>
      </trkpt>
      <trkpt lat="44.21958" lon="4.478">
        <ele>80.4</ele>
        <time>2024-10-17T19:42:58.578Z</time>
      </trkpt>
      <trkpt lat="44.21961" lon="4.47803">
        <ele>80.4</ele>
        <time>2024-10-17T19:42:57.578Z</time>
      </trkpt>
      <trkpt lat="44.21962" lon="4.47804">
        <ele>80.4</ele>
        <time>2024-10-17T19:42:56.578Z</time>
      </trkpt>
      <trkpt lat="44.21964" lon="4.47807">
        <ele>80.3</ele>
        <time>2024-10-17T19:42:55.578Z</time>
      </trkpt>
      <trkpt lat="44.21965" lon="4.47808">
        <ele>80.3</ele>
        <time>2024-10-17T19:42:54.578Z</time>
      </trkpt>
      <trkpt lat="44.21967" lon="4.47811">
        <ele>80.3</ele>
        <time>2024-10-17T19:42:53.578Z</time>
      </trkpt>
      <trkpt lat="44.21968" lon="4.47812">
        <ele>80.3</ele>
        <time>2024-10-17T19:42:52.578Z</time>
      </trkpt>
      <trkpt lat="44.2197" lon="4.47816">
        <ele>80.4</ele>
        <time>2024-10-17T19:42:51.578Z</time>
      </trkpt>
      <trkpt lat="44.21971" lon="4.47817">
        <ele>80.4</ele>
        <time>2024-10-17T19:42:50.578Z</time>
      </trkpt>
      <trkpt lat="44.21973" lon="4.4782">
        <ele>80.4</ele>
        <time>2024-10-17T19:42:49.578Z</time>
      </trkpt>
      <trkpt lat="44.21974" lon="4.47821">
        <ele>80.4</ele>
        <time>2024-10-17T19:42:48.578Z</time>
      </trkpt>
      <trkpt lat="44.21976" lon="4.47824">
        <ele>80.4</ele>
        <time>2024-10-17T19:42:47.578Z</time>
      </trkpt>
      <trkpt lat="44.21976" lon="4.47825">
        <ele>80.4</ele>
        <time>2024-10-17T19:42:46.578Z</time>
      </trkpt>
      <trkpt lat="44.21978" lon="4.47827">
        <ele>80.4</ele>
        <time>2024-10-17T19:42:45.578Z</time>
      </trkpt>
      <trkpt lat="44.21979" lon="4.47828">
        <ele>80.4</ele>
        <time>2024-10-17T19:42:44.578Z</time>
      </trkpt>
      <trkpt lat="44.21981" lon="4.47831">
        <ele>80.5</ele>
        <time>2024-10-17T19:42:43.578Z</time>
      </trkpt>
      <trkpt lat="44.21982" lon="4.47832">
        <ele>80.5</ele>
        <time>2024-10-17T19:42:42.578Z</time>
      </trkpt>
      <trkpt lat="44.21985" lon="4.47834">
        <ele>80.5</ele>
        <time>2024-10-17T19:42:41.578Z</time>
      </trkpt>
      <trkpt lat="44.21986" lon="4.47835">
        <ele>80.5</ele>
        <time>2024-10-17T19:42:40.578Z</time>
      </trkpt>
      <trkpt lat="44.21988" lon="4.47837">
        <ele>80.5</ele>
        <time>2024-10-17T19:42:39.578Z</time>
      </trkpt>
      <trkpt lat="44.21989" lon="4.47838">
        <ele>80.5</ele>
        <time>2024-10-17T19:42:38.578Z</time>
      </trkpt>
      <trkpt lat="44.21991" lon="4.4784">
        <ele>80.5</ele>
        <time>2024-10-17T19:42:37.578Z</time>
      </trkpt>
      <trkpt lat="44.21991" lon="4.47841">
        <ele>80.6</ele>
        <time>2024-10-17T19:42:36.578Z</time>
      </trkpt>
      <trkpt lat="44.21993" lon="4.47844">
        <ele>80.6</ele>
        <time>2024-10-17T19:42:35.578Z</time>
      </trkpt>
      <trkpt lat="44.21994" lon="4.47844">
        <ele>80.6</ele>
        <time>2024-10-17T19:42:34.578Z</time>
      </trkpt>
      <trkpt lat="44.21996" lon="4.47847">
        <ele>80.6</ele>
        <time>2024-10-17T19:42:33.578Z</time>
      </trkpt>
      <trkpt lat="44.21997" lon="4.47848">
        <ele>80.6</ele>
        <time>2024-10-17T19:42:32.578Z</time>
      </trkpt>
      <trkpt lat="44.21999" lon="4.4785">
        <ele>80.6</ele>
        <time>2024-10-17T19:42:31.578Z</time>
      </trkpt>
      <trkpt lat="44.22" lon="4.47851">
        <ele>80.6</ele>
        <time>2024-10-17T19:42:30.578Z</time>
      </trkpt>
      <trkpt lat="44.22003" lon="4.47853">
        <ele>80.7</ele>
        <time>2024-10-17T19:42:29.578Z</time>
      </trkpt>
      <trkpt lat="44.22003" lon="4.47854">
        <ele>80.7</ele>
        <time>2024-10-17T19:42:28.578Z</time>
      </trkpt>
      <trkpt lat="44.22006" lon="4.47856">
        <ele>80.7</ele>
        <time>2024-10-17T19:42:27.578Z</time>
      </trkpt>
      <trkpt lat="44.22007" lon="4.47857">
        <ele>80.7</ele>
        <time>2024-10-17T19:42:26.578Z</time>
      </trkpt>
      <trkpt lat="44.22009" lon="4.4786">
        <ele>80.7</ele>
        <time>2024-10-17T19:42:25.578Z</time>
      </trkpt>
      <trkpt lat="44.2201" lon="4.47861">
        <ele>80.7</ele>
        <time>2024-10-17T19:42:24.578Z</time>
      </trkpt>
      <trkpt lat="44.22013" lon="4.47863">
        <ele>80.7</ele>
        <time>2024-10-17T19:42:23.578Z</time>
      </trkpt>
      <trkpt lat="44.22013" lon="4.47864">
        <ele>80.7</ele>
        <time>2024-10-17T19:42:22.578Z</time>
      </trkpt>
      <trkpt lat="44.22016" lon="4.47867">
        <ele>80.8</ele>
        <time>2024-10-17T19:42:21.578Z</time>
      </trkpt>
      <trkpt lat="44.22017" lon="4.47868">
        <ele>80.8</ele>
        <time>2024-10-17T19:42:20.578Z</time>
      </trkpt>
      <trkpt lat="44.22019" lon="4.4787">
        <ele>80.8</ele>
        <time>2024-10-17T19:42:19.578Z</time>
      </trkpt>
      <trkpt lat="44.2202" lon="4.47871">
        <ele>80.8</ele>
        <time>2024-10-17T19:42:18.578Z</time>
      </trkpt>
      <trkpt lat="44.22021" lon="4.47873">
        <ele>80.8</ele>
        <time>2024-10-17T19:42:17.578Z</time>
      </trkpt>
      <trkpt lat="44.22023" lon="4.47874">
        <ele>80.8</ele>
        <time>2024-10-17T19:42:16.578Z</time>
      </trkpt>
      <trkpt lat="44.22024" lon="4.47875">
        <ele>80.9</ele>
        <time>2024-10-17T19:42:15.578Z</time>
      </trkpt>
      <trkpt lat="44.22025" lon="4.47875">
        <ele>80.9</ele>
        <time>2024-10-17T19:42:14.578Z</time>
      </trkpt>
      <trkpt lat="44.22028" lon="4.47878">
        <ele>80.9</ele>
        <time>2024-10-17T19:42:13.578Z</time>
      </trkpt>
      <trkpt lat="44.22029" lon="4.47879">
        <ele>80.9</ele>
        <time>2024-10-17T19:42:12.578Z</time>
      </trkpt>
      <trkpt lat="44.22031" lon="4.47883">
        <ele>81</ele>
        <time>2024-10-17T19:42:11.578Z</time>
      </trkpt>
      <trkpt lat="44.22032" lon="4.47884">
        <ele>81</ele>
        <time>2024-10-17T19:42:10.578Z</time>
      </trkpt>
      <trkpt lat="44.22034" lon="4.47889">
        <ele>81</ele>
        <time>2024-10-17T19:42:09.578Z</time>
      </trkpt>
      <trkpt lat="44.22034" lon="4.4789">
        <ele>81</ele>
        <time>2024-10-17T19:42:08.578Z</time>
      </trkpt>
      <trkpt lat="44.22034" lon="4.47894">
        <ele>81</ele>
        <time>2024-10-17T19:42:07.578Z</time>
      </trkpt>
      <trkpt lat="44.22034" lon="4.47896">
        <ele>81</ele>
        <time>2024-10-17T19:42:06.578Z</time>
      </trkpt>
      <trkpt lat="44.22034" lon="4.479">
        <ele>81.1</ele>
        <time>2024-10-17T19:42:05.578Z</time>
      </trkpt>
      <trkpt lat="44.22034" lon="4.47902">
        <ele>81.1</ele>
        <time>2024-10-17T19:42:04.578Z</time>
      </trkpt>
      <trkpt lat="44.22032" lon="4.47906">
        <ele>81.1</ele>
        <time>2024-10-17T19:42:03.578Z</time>
      </trkpt>
      <trkpt lat="44.22032" lon="4.47907">
        <ele>81.1</ele>
        <time>2024-10-17T19:42:02.578Z</time>
      </trkpt>
      <trkpt lat="44.2203" lon="4.47911">
        <ele>81</ele>
        <time>2024-10-17T19:42:01.578Z</time>
      </trkpt>
      <trkpt lat="44.22029" lon="4.47912">
        <ele>81</ele>
        <time>2024-10-17T19:42:00.578Z</time>
      </trkpt>
      <trkpt lat="44.22026" lon="4.47913">
        <ele>81</ele>
        <time>2024-10-17T19:41:59.578Z</time>
      </trkpt>
      <trkpt lat="44.22025" lon="4.47914">
        <ele>81</ele>
        <time>2024-10-17T19:41:58.578Z</time>
      </trkpt>
      <trkpt lat="44.22024" lon="4.47916">
        <ele>81</ele>
        <time>2024-10-17T19:41:57.578Z</time>
      </trkpt>
      <trkpt lat="44.22023" lon="4.47919">
        <ele>81</ele>
        <time>2024-10-17T19:41:56.578Z</time>
      </trkpt>
      <trkpt lat="44.22023" lon="4.47921">
        <ele>81</ele>
        <time>2024-10-17T19:41:55.578Z</time>
      </trkpt>
      <trkpt lat="44.22022" lon="4.47922">
        <ele>80.9</ele>
        <time>2024-10-17T19:41:54.578Z</time>
      </trkpt>
      <trkpt lat="44.22021" lon="4.47924">
        <ele>80.9</ele>
        <time>2024-10-17T19:41:53.578Z</time>
      </trkpt>
      <trkpt lat="44.2202" lon="4.47925">
        <ele>80.9</ele>
        <time>2024-10-17T19:41:52.578Z</time>
      </trkpt>
      <trkpt lat="44.22018" lon="4.47929">
        <ele>80.9</ele>
        <time>2024-10-17T19:41:51.578Z</time>
      </trkpt>
      <trkpt lat="44.22018" lon="4.47931">
        <ele>80.9</ele>
        <time>2024-10-17T19:41:50.578Z</time>
      </trkpt>
      <trkpt lat="44.22017" lon="4.47935">
        <ele>80.9</ele>
        <time>2024-10-17T19:41:49.578Z</time>
      </trkpt>
      <trkpt lat="44.22016" lon="4.47936">
        <ele>80.9</ele>
        <time>2024-10-17T19:41:48.578Z</time>
      </trkpt>
      <trkpt lat="44.22015" lon="4.47941">
        <ele>80.9</ele>
        <time>2024-10-17T19:41:47.578Z</time>
      </trkpt>
      <trkpt lat="44.22015" lon="4.47942">
        <ele>80.9</ele>
        <time>2024-10-17T19:41:46.578Z</time>
      </trkpt>
      <trkpt lat="44.22013" lon="4.47945">
        <ele>80.8</ele>
        <time>2024-10-17T19:41:45.578Z</time>
      </trkpt>
      <trkpt lat="44.22012" lon="4.47946">
        <ele>80.8</ele>
        <time>2024-10-17T19:41:44.578Z</time>
      </trkpt>
      <trkpt lat="44.2201" lon="4.4795">
        <ele>80.8</ele>
        <time>2024-10-17T19:41:43.578Z</time>
      </trkpt>
      <trkpt lat="44.22009" lon="4.47951">
        <ele>80.8</ele>
        <time>2024-10-17T19:41:42.578Z</time>
      </trkpt>
      <trkpt lat="44.22007" lon="4.47955">
        <ele>80.8</ele>
        <time>2024-10-17T19:41:41.578Z</time>
      </trkpt>
      <trkpt lat="44.22007" lon="4.47956">
        <ele>80.8</ele>
        <time>2024-10-17T19:41:40.578Z</time>
      </trkpt>
      <trkpt lat="44.22004" lon="4.4796">
        <ele>80.8</ele>
        <time>2024-10-17T19:41:39.578Z</time>
      </trkpt>
      <trkpt lat="44.22004" lon="4.47961">
        <ele>80.8</ele>
        <time>2024-10-17T19:41:38.578Z</time>
      </trkpt>
      <trkpt lat="44.22002" lon="4.47965">
        <ele>80.8</ele>
        <time>2024-10-17T19:41:37.578Z</time>
      </trkpt>
      <trkpt lat="44.22001" lon="4.47967">
        <ele>80.8</ele>
        <time>2024-10-17T19:41:36.578Z</time>
      </trkpt>
      <trkpt lat="44.22001" lon="4.4797">
        <ele>80.8</ele>
        <time>2024-10-17T19:41:35.578Z</time>
      </trkpt>
      <trkpt lat="44.22001" lon="4.47971">
        <ele>80.8</ele>
        <time>2024-10-17T19:41:34.578Z</time>
      </trkpt>
      <trkpt lat="44.22001" lon="4.47972">
        <ele>80.8</ele>
        <time>2024-10-17T19:41:33.578Z</time>
      </trkpt>
      <trkpt lat="44.22002" lon="4.47975">
        <ele>80.8</ele>
        <time>2024-10-17T19:41:32.578Z</time>
      </trkpt>
      <trkpt lat="44.22003" lon="4.47975">
        <ele>80.8</ele>
        <time>2024-10-17T19:41:31.578Z</time>
      </trkpt>
      <trkpt lat="44.22003" lon="4.47977">
        <ele>80.8</ele>
        <time>2024-10-17T19:41:30.578Z</time>
      </trkpt>
      <trkpt lat="44.22003" lon="4.47979">
        <ele>80.8</ele>
        <time>2024-10-17T19:41:29.578Z</time>
      </trkpt>
      <trkpt lat="44.22003" lon="4.47981">
        <ele>80.8</ele>
        <time>2024-10-17T19:41:28.578Z</time>
      </trkpt>
      <trkpt lat="44.22002" lon="4.47982">
        <ele>80.8</ele>
        <time>2024-10-17T19:41:27.578Z</time>
      </trkpt>
      <trkpt lat="44.22001" lon="4.47984">
        <ele>80.8</ele>
        <time>2024-10-17T19:41:26.578Z</time>
      </trkpt>
      <trkpt lat="44.22" lon="4.47988">
        <ele>77</ele>
        <time>2024-10-17T19:41:27.841Z</time>
      </trkpt>
      <trkpt lat="44.22001" lon="4.47991">
        <ele>77</ele>
        <time>2024-10-17T19:41:28.827Z</time>
        <extensions>
          <visugpx:TrkExtension xmlns:visugpx="https://www.visugpx.com/editgpx/">
            <visugpx:node>1</visugpx:node>
            </visugpx:TrkExtension>
        </extensions>
      </trkpt>
    </trkseg>
  </trk>
</gpx>